<?xml version="1.0" encoding="utf-8"?>
<gpx xmlns:xsi="http://www.w3.org/2001/XMLSchema-instance" xmlns:xsd="http://www.w3.org/2001/XMLSchema" version="1.1" creator="Shapelink.com" xmlns="http://www.topografix.com/GPX/1/1" xmlns:gpxtpx="http://www.garmin.com/xmlschemas/TrackPointExtension/v1">
  <metadata>
    <name>Cykling - CX 34.29 km, 2015-03-24</name>
    <desc></desc>
    <author><name>Alexander Engvall</name></author> 
    <time>2015-03-24T17:20:17Z</time>
  </metadata>
  <trk>
    <name>Cykling - CX 34.29 km, 2015-03-24</name>
    <trkseg>
      <trkpt lat="59.237618877391" lon="17.946623050246">
        <ele>57.8</ele>
        <time>2015-03-24T17:20:17Z</time>
      </trkpt>
      <trkpt lat="59.237581410298" lon="17.9466788737">
        <ele>58</ele>
        <time>2015-03-24T17:20:18Z</time>
      </trkpt>
      <trkpt lat="59.237535477486" lon="17.946748694927">
        <ele>58</ele>
        <time>2015-03-24T17:20:19Z</time>
      </trkpt>
      <trkpt lat="59.237495998737" lon="17.946838800352">
        <ele>58</ele>
        <time>2015-03-24T17:20:20Z</time>
      </trkpt>
      <trkpt lat="59.237384687105" lon="17.94712059983">
        <ele>58</ele>
        <time>2015-03-24T17:20:23Z</time>
      </trkpt>
      <trkpt lat="59.237236327475" lon="17.94743827384">
        <ele>58</ele>
        <time>2015-03-24T17:20:27Z</time>
      </trkpt>
      <trkpt lat="59.237190059387" lon="17.947492504733">
        <ele>58</ele>
        <time>2015-03-24T17:20:28Z</time>
      </trkpt>
      <trkpt lat="59.237085537094" lon="17.947475070381">
        <ele>58</ele>
        <time>2015-03-24T17:20:30Z</time>
      </trkpt>
      <trkpt lat="59.23699031871" lon="17.947348168415">
        <ele>58</ele>
        <time>2015-03-24T17:20:32Z</time>
      </trkpt>
      <trkpt lat="59.236874899947" lon="17.947194109093">
        <ele>58</ele>
        <time>2015-03-24T17:20:34Z</time>
      </trkpt>
      <trkpt lat="59.236746908334" lon="17.947042564341">
        <ele>58</ele>
        <time>2015-03-24T17:20:36Z</time>
      </trkpt>
      <trkpt lat="59.236527973106" lon="17.946887834467">
        <ele>58</ele>
        <time>2015-03-24T17:20:39Z</time>
      </trkpt>
      <trkpt lat="59.236267379835" lon="17.946900491136">
        <ele>58</ele>
        <time>2015-03-24T17:20:43Z</time>
      </trkpt>
      <trkpt lat="59.235952052757" lon="17.947084641479">
        <ele>58</ele>
        <time>2015-03-24T17:20:47Z</time>
      </trkpt>
      <trkpt lat="59.235887344489" lon="17.947163934253">
        <ele>58</ele>
        <time>2015-03-24T17:20:48Z</time>
      </trkpt>
      <trkpt lat="59.235631193625" lon="17.947536761165">
        <ele>58</ele>
        <time>2015-03-24T17:20:52Z</time>
      </trkpt>
      <trkpt lat="59.235557265267" lon="17.947607336763">
        <ele>58</ele>
        <time>2015-03-24T17:20:53Z</time>
      </trkpt>
      <trkpt lat="59.235317710565" lon="17.947758546239">
        <ele>58</ele>
        <time>2015-03-24T17:20:56Z</time>
      </trkpt>
      <trkpt lat="59.235025517531" lon="17.947788804898">
        <ele>57.6</ele>
        <time>2015-03-24T17:20:59Z</time>
      </trkpt>
      <trkpt lat="59.23493256226" lon="17.947809089096">
        <ele>57.2</ele>
        <time>2015-03-24T17:21:00Z</time>
      </trkpt>
      <trkpt lat="59.234842959749" lon="17.947832474597">
        <ele>56.8</ele>
        <time>2015-03-24T17:21:01Z</time>
      </trkpt>
      <trkpt lat="59.234751177944" lon="17.947850579501">
        <ele>56.4</ele>
        <time>2015-03-24T17:21:02Z</time>
      </trkpt>
      <trkpt lat="59.234668448591" lon="17.94786658893">
        <ele>56</ele>
        <time>2015-03-24T17:21:03Z</time>
      </trkpt>
      <trkpt lat="59.234389918054" lon="17.947919227262">
        <ele>56</ele>
        <time>2015-03-24T17:21:06Z</time>
      </trkpt>
      <trkpt lat="59.234297717154" lon="17.94792107128">
        <ele>56</ele>
        <time>2015-03-24T17:21:07Z</time>
      </trkpt>
      <trkpt lat="59.233762784296" lon="17.94790933662">
        <ele>56</ele>
        <time>2015-03-24T17:21:13Z</time>
      </trkpt>
      <trkpt lat="59.233592044993" lon="17.947911432095">
        <ele>55.6</ele>
        <time>2015-03-24T17:21:15Z</time>
      </trkpt>
      <trkpt lat="59.233508142174" lon="17.947919730176">
        <ele>55.2</ele>
        <time>2015-03-24T17:21:16Z</time>
      </trkpt>
      <trkpt lat="59.233426083373" lon="17.947930626646">
        <ele>54.6</ele>
        <time>2015-03-24T17:21:17Z</time>
      </trkpt>
      <trkpt lat="59.233346036228" lon="17.947942948039">
        <ele>54.2</ele>
        <time>2015-03-24T17:21:18Z</time>
      </trkpt>
      <trkpt lat="59.233265150893" lon="17.947960801486">
        <ele>53.8</ele>
        <time>2015-03-24T17:21:19Z</time>
      </trkpt>
      <trkpt lat="59.23270716781" lon="17.948198847446">
        <ele>53.8</ele>
        <time>2015-03-24T17:21:26Z</time>
      </trkpt>
      <trkpt lat="59.232227639311" lon="17.948585169217">
        <ele>53.4</ele>
        <time>2015-03-24T17:21:33Z</time>
      </trkpt>
      <trkpt lat="59.232180449214" lon="17.948618110084">
        <ele>53</ele>
        <time>2015-03-24T17:21:34Z</time>
      </trkpt>
      <trkpt lat="59.232152034573" lon="17.948637304635">
        <ele>52.6</ele>
        <time>2015-03-24T17:21:35Z</time>
      </trkpt>
      <trkpt lat="59.232137366248" lon="17.948648117286">
        <ele>52</ele>
        <time>2015-03-24T17:21:36Z</time>
      </trkpt>
      <trkpt lat="59.23212378757" lon="17.948657505014">
        <ele>51.6</ele>
        <time>2015-03-24T17:21:37Z</time>
      </trkpt>
      <trkpt lat="59.232056648551" lon="17.948704359835">
        <ele>51</ele>
        <time>2015-03-24T17:21:40Z</time>
      </trkpt>
      <trkpt lat="59.23202320477" lon="17.948731852467">
        <ele>50.6</ele>
        <time>2015-03-24T17:21:41Z</time>
      </trkpt>
      <trkpt lat="59.231980708537" lon="17.948767810818">
        <ele>50</ele>
        <time>2015-03-24T17:21:42Z</time>
      </trkpt>
      <trkpt lat="59.231934021354" lon="17.948803350074">
        <ele>49.6</ele>
        <time>2015-03-24T17:21:43Z</time>
      </trkpt>
      <trkpt lat="59.231877527348" lon="17.948842996461">
        <ele>49</ele>
        <time>2015-03-24T17:21:44Z</time>
      </trkpt>
      <trkpt lat="59.231817764401" lon="17.948881134106">
        <ele>49</ele>
        <time>2015-03-24T17:21:45Z</time>
      </trkpt>
      <trkpt lat="59.231574437844" lon="17.949020608922">
        <ele>49</ele>
        <time>2015-03-24T17:21:49Z</time>
      </trkpt>
      <trkpt lat="59.231461785108" lon="17.949099650239">
        <ele>49</ele>
        <time>2015-03-24T17:21:51Z</time>
      </trkpt>
      <trkpt lat="59.23119507305" lon="17.949188246922">
        <ele>49</ele>
        <time>2015-03-24T17:21:56Z</time>
      </trkpt>
      <trkpt lat="59.231085437798" lon="17.949174249149">
        <ele>49</ele>
        <time>2015-03-24T17:21:58Z</time>
      </trkpt>
      <trkpt lat="59.231020897168" lon="17.949113731831">
        <ele>49</ele>
        <time>2015-03-24T17:21:59Z</time>
      </trkpt>
      <trkpt lat="59.23086314981" lon="17.948801757513">
        <ele>49</ele>
        <time>2015-03-24T17:22:02Z</time>
      </trkpt>
      <trkpt lat="59.230803135406" lon="17.948536973292">
        <ele>49</ele>
        <time>2015-03-24T17:22:04Z</time>
      </trkpt>
      <trkpt lat="59.2307131138" lon="17.948129612952">
        <ele>49</ele>
        <time>2015-03-24T17:22:07Z</time>
      </trkpt>
      <trkpt lat="59.230637173786" lon="17.947724851001">
        <ele>49</ele>
        <time>2015-03-24T17:22:10Z</time>
      </trkpt>
      <trkpt lat="59.230613536828" lon="17.94744414117">
        <ele>49</ele>
        <time>2015-03-24T17:22:12Z</time>
      </trkpt>
      <trkpt lat="59.230606412213" lon="17.947304582535">
        <ele>49.6</ele>
        <time>2015-03-24T17:22:13Z</time>
      </trkpt>
      <trkpt lat="59.230600461064" lon="17.947156390543">
        <ele>50</ele>
        <time>2015-03-24T17:22:14Z</time>
      </trkpt>
      <trkpt lat="59.230597024485" lon="17.947013814424">
        <ele>50.4</ele>
        <time>2015-03-24T17:22:15Z</time>
      </trkpt>
      <trkpt lat="59.230597275942" lon="17.946872998504">
        <ele>50.8</ele>
        <time>2015-03-24T17:22:16Z</time>
      </trkpt>
      <trkpt lat="59.230600628702" lon="17.946726734349">
        <ele>51.2</ele>
        <time>2015-03-24T17:22:17Z</time>
      </trkpt>
      <trkpt lat="59.230608256231" lon="17.946433535487">
        <ele>51.2</ele>
        <time>2015-03-24T17:22:19Z</time>
      </trkpt>
      <trkpt lat="59.230640442727" lon="17.945716883037">
        <ele>51.2</ele>
        <time>2015-03-24T17:22:24Z</time>
      </trkpt>
      <trkpt lat="59.230661900391" lon="17.945299715874">
        <ele>51.2</ele>
        <time>2015-03-24T17:22:27Z</time>
      </trkpt>
      <trkpt lat="59.230691823774" lon="17.944112587377">
        <ele>51.6</ele>
        <time>2015-03-24T17:22:35Z</time>
      </trkpt>
      <trkpt lat="59.230698277837" lon="17.943965065937">
        <ele>52.2</ele>
        <time>2015-03-24T17:22:36Z</time>
      </trkpt>
      <trkpt lat="59.230704815719" lon="17.943822573637">
        <ele>53</ele>
        <time>2015-03-24T17:22:37Z</time>
      </trkpt>
      <trkpt lat="59.230709174307" lon="17.943680416613">
        <ele>53.6</ele>
        <time>2015-03-24T17:22:38Z</time>
      </trkpt>
      <trkpt lat="59.230720070777" lon="17.943250089867">
        <ele>53.6</ele>
        <time>2015-03-24T17:22:41Z</time>
      </trkpt>
      <trkpt lat="59.230742198993" lon="17.942295056181">
        <ele>53.6</ele>
        <time>2015-03-24T17:22:48Z</time>
      </trkpt>
      <trkpt lat="59.230793999135" lon="17.941250336165">
        <ele>53.6</ele>
        <time>2015-03-24T17:22:55Z</time>
      </trkpt>
      <trkpt lat="59.230873794823" lon="17.940151133799">
        <ele>53.6</ele>
        <time>2015-03-24T17:23:02Z</time>
      </trkpt>
      <trkpt lat="59.23088242818" lon="17.939994056993">
        <ele>53.6</ele>
        <time>2015-03-24T17:23:03Z</time>
      </trkpt>
      <trkpt lat="59.230891312994" lon="17.93934052025">
        <ele>53.2</ele>
        <time>2015-03-24T17:23:07Z</time>
      </trkpt>
      <trkpt lat="59.230897850876" lon="17.93917204406">
        <ele>52.8</ele>
        <time>2015-03-24T17:23:08Z</time>
      </trkpt>
      <trkpt lat="59.230906065138" lon="17.93900021511">
        <ele>52.4</ele>
        <time>2015-03-24T17:23:09Z</time>
      </trkpt>
      <trkpt lat="59.230914698495" lon="17.938820171898">
        <ele>52</ele>
        <time>2015-03-24T17:23:10Z</time>
      </trkpt>
      <trkpt lat="59.230924840594" lon="17.938639709591">
        <ele>51.6</ele>
        <time>2015-03-24T17:23:11Z</time>
      </trkpt>
      <trkpt lat="59.230944286602" lon="17.938127156406">
        <ele>51.6</ele>
        <time>2015-03-24T17:23:14Z</time>
      </trkpt>
      <trkpt lat="59.230938419272" lon="17.937970163419">
        <ele>51.6</ele>
        <time>2015-03-24T17:23:15Z</time>
      </trkpt>
      <trkpt lat="59.230879829791" lon="17.937739661169">
        <ele>51.6</ele>
        <time>2015-03-24T17:23:17Z</time>
      </trkpt>
      <trkpt lat="59.230729290867" lon="17.937576381757">
        <ele>51.6</ele>
        <time>2015-03-24T17:23:20Z</time>
      </trkpt>
      <trkpt lat="59.230660559287" lon="17.937536483913">
        <ele>51.6</ele>
        <time>2015-03-24T17:23:21Z</time>
      </trkpt>
      <trkpt lat="59.230366689873" lon="17.937496334612">
        <ele>51.6</ele>
        <time>2015-03-24T17:23:24Z</time>
      </trkpt>
      <trkpt lat="59.229819938536" lon="17.937380412935">
        <ele>51.6</ele>
        <time>2015-03-24T17:23:30Z</time>
      </trkpt>
      <trkpt lat="59.229745591083" lon="17.937359458185">
        <ele>51.6</ele>
        <time>2015-03-24T17:23:31Z</time>
      </trkpt>
      <trkpt lat="59.229245275472" lon="17.937220570102">
        <ele>51.6</ele>
        <time>2015-03-24T17:23:38Z</time>
      </trkpt>
      <trkpt lat="59.228814864907" lon="17.937092829946">
        <ele>51.6</ele>
        <time>2015-03-24T17:23:45Z</time>
      </trkpt>
      <trkpt lat="59.228608586348" lon="17.937015800285">
        <ele>52</ele>
        <time>2015-03-24T17:23:49Z</time>
      </trkpt>
      <trkpt lat="59.228562821174" lon="17.936997192467">
        <ele>52.4</ele>
        <time>2015-03-24T17:23:50Z</time>
      </trkpt>
      <trkpt lat="59.228516469267" lon="17.936977411183">
        <ele>53.2</ele>
        <time>2015-03-24T17:23:51Z</time>
      </trkpt>
      <trkpt lat="59.228467686609" lon="17.936958971003">
        <ele>53.6</ele>
        <time>2015-03-24T17:23:52Z</time>
      </trkpt>
      <trkpt lat="59.228325445766" lon="17.936900884436">
        <ele>54</ele>
        <time>2015-03-24T17:23:55Z</time>
      </trkpt>
      <trkpt lat="59.228279680592" lon="17.936869871406">
        <ele>54.4</ele>
        <time>2015-03-24T17:23:56Z</time>
      </trkpt>
      <trkpt lat="59.228235005065" lon="17.936839109833">
        <ele>54.8</ele>
        <time>2015-03-24T17:23:57Z</time>
      </trkpt>
      <trkpt lat="59.228189910443" lon="17.936807258613">
        <ele>55.2</ele>
        <time>2015-03-24T17:23:58Z</time>
      </trkpt>
      <trkpt lat="59.228142804165" lon="17.936779933619">
        <ele>55.6</ele>
        <time>2015-03-24T17:23:59Z</time>
      </trkpt>
      <trkpt lat="59.228046999048" lon="17.936716901731">
        <ele>56</ele>
        <time>2015-03-24T17:24:01Z</time>
      </trkpt>
      <trkpt lat="59.228002491159" lon="17.936685553425">
        <ele>56.4</ele>
        <time>2015-03-24T17:24:02Z</time>
      </trkpt>
      <trkpt lat="59.22795714508" lon="17.936650936178">
        <ele>56.8</ele>
        <time>2015-03-24T17:24:03Z</time>
      </trkpt>
      <trkpt lat="59.227910290259" lon="17.936613720542">
        <ele>57.2</ele>
        <time>2015-03-24T17:24:04Z</time>
      </trkpt>
      <trkpt lat="59.227861339963" lon="17.936575582897">
        <ele>57.6</ele>
        <time>2015-03-24T17:24:05Z</time>
      </trkpt>
      <trkpt lat="59.227814485142" lon="17.936533002845">
        <ele>57.6</ele>
        <time>2015-03-24T17:24:06Z</time>
      </trkpt>
      <trkpt lat="59.227715578722" lon="17.936310044305">
        <ele>57.6</ele>
        <time>2015-03-24T17:24:09Z</time>
      </trkpt>
      <trkpt lat="59.227735695282" lon="17.936041236772">
        <ele>57.6</ele>
        <time>2015-03-24T17:24:12Z</time>
      </trkpt>
      <trkpt lat="59.227778778248" lon="17.935669080412">
        <ele>58.6</ele>
        <time>2015-03-24T17:24:16Z</time>
      </trkpt>
      <trkpt lat="59.22778699251" lon="17.935581154281">
        <ele>59</ele>
        <time>2015-03-24T17:24:17Z</time>
      </trkpt>
      <trkpt lat="59.227795290591" lon="17.935491635589">
        <ele>59.4</ele>
        <time>2015-03-24T17:24:18Z</time>
      </trkpt>
      <trkpt lat="59.22780124174" lon="17.935399853784">
        <ele>59.8</ele>
        <time>2015-03-24T17:24:19Z</time>
      </trkpt>
      <trkpt lat="59.22780543269" lon="17.935105397637">
        <ele>60.2</ele>
        <time>2015-03-24T17:24:22Z</time>
      </trkpt>
      <trkpt lat="59.227807360527" lon="17.93500959252">
        <ele>60.6</ele>
        <time>2015-03-24T17:24:23Z</time>
      </trkpt>
      <trkpt lat="59.227808533993" lon="17.934911943385">
        <ele>61</ele>
        <time>2015-03-24T17:24:24Z</time>
      </trkpt>
      <trkpt lat="59.22781213821" lon="17.93481177968">
        <ele>61.4</ele>
        <time>2015-03-24T17:24:25Z</time>
      </trkpt>
      <trkpt lat="59.227817837902" lon="17.934713376174">
        <ele>62</ele>
        <time>2015-03-24T17:24:26Z</time>
      </trkpt>
      <trkpt lat="59.227823202318" lon="17.934620001808">
        <ele>62.4</ele>
        <time>2015-03-24T17:24:27Z</time>
      </trkpt>
      <trkpt lat="59.227829153467" lon="17.934515814791">
        <ele>62.8</ele>
        <time>2015-03-24T17:24:28Z</time>
      </trkpt>
      <trkpt lat="59.227835188435" lon="17.934409867575">
        <ele>63.2</ele>
        <time>2015-03-24T17:24:29Z</time>
      </trkpt>
      <trkpt lat="59.227842732145" lon="17.934302663074">
        <ele>63.6</ele>
        <time>2015-03-24T17:24:30Z</time>
      </trkpt>
      <trkpt lat="59.227853880072" lon="17.934194117469">
        <ele>64</ele>
        <time>2015-03-24T17:24:31Z</time>
      </trkpt>
      <trkpt lat="59.227883635817" lon="17.933981636304">
        <ele>64</ele>
        <time>2015-03-24T17:24:33Z</time>
      </trkpt>
      <trkpt lat="59.227896041029" lon="17.933883400436">
        <ele>64.4</ele>
        <time>2015-03-24T17:24:34Z</time>
      </trkpt>
      <trkpt lat="59.227911128449" lon="17.933783572007">
        <ele>64.8</ele>
        <time>2015-03-24T17:24:35Z</time>
      </trkpt>
      <trkpt lat="59.227925629136" lon="17.933686174329">
        <ele>65.2</ele>
        <time>2015-03-24T17:24:36Z</time>
      </trkpt>
      <trkpt lat="59.227938285805" lon="17.933580646208">
        <ele>65.6</ele>
        <time>2015-03-24T17:24:37Z</time>
      </trkpt>
      <trkpt lat="59.227950271922" lon="17.933482745616">
        <ele>66.2</ele>
        <time>2015-03-24T17:24:38Z</time>
      </trkpt>
      <trkpt lat="59.227984721531" lon="17.93319072022">
        <ele>66.2</ele>
        <time>2015-03-24T17:24:41Z</time>
      </trkpt>
      <trkpt lat="59.228037695139" lon="17.9326727188">
        <ele>66.2</ele>
        <time>2015-03-24T17:24:46Z</time>
      </trkpt>
      <trkpt lat="59.228048340152" lon="17.932565514299">
        <ele>66.2</ele>
        <time>2015-03-24T17:24:47Z</time>
      </trkpt>
      <trkpt lat="59.228131991514" lon="17.931572678244">
        <ele>66.2</ele>
        <time>2015-03-24T17:24:56Z</time>
      </trkpt>
      <trkpt lat="59.228169458607" lon="17.930874633612">
        <ele>66.6</ele>
        <time>2015-03-24T17:25:02Z</time>
      </trkpt>
      <trkpt lat="59.228178008145" lon="17.930759466306">
        <ele>67</ele>
        <time>2015-03-24T17:25:03Z</time>
      </trkpt>
      <trkpt lat="59.228186054769" lon="17.930641952068">
        <ele>67.4</ele>
        <time>2015-03-24T17:25:04Z</time>
      </trkpt>
      <trkpt lat="59.228196448325" lon="17.930518821957">
        <ele>68.2</ele>
        <time>2015-03-24T17:25:05Z</time>
      </trkpt>
      <trkpt lat="59.228232574314" lon="17.930014566853">
        <ele>68.2</ele>
        <time>2015-03-24T17:25:09Z</time>
      </trkpt>
      <trkpt lat="59.228309939251" lon="17.928997590926">
        <ele>68.2</ele>
        <time>2015-03-24T17:25:17Z</time>
      </trkpt>
      <trkpt lat="59.228367271447" lon="17.928117239969">
        <ele>68.2</ele>
        <time>2015-03-24T17:25:24Z</time>
      </trkpt>
      <trkpt lat="59.228416137924" lon="17.927106382829">
        <ele>68.2</ele>
        <time>2015-03-24T17:25:32Z</time>
      </trkpt>
      <trkpt lat="59.22841395863" lon="17.926453684276">
        <ele>68.6</ele>
        <time>2015-03-24T17:25:37Z</time>
      </trkpt>
      <trkpt lat="59.228406498739" lon="17.926325441206">
        <ele>69</ele>
        <time>2015-03-24T17:25:38Z</time>
      </trkpt>
      <trkpt lat="59.228394847898" lon="17.926193174824">
        <ele>69.4</ele>
        <time>2015-03-24T17:25:39Z</time>
      </trkpt>
      <trkpt lat="59.228379257564" lon="17.926062836279">
        <ele>69.8</ele>
        <time>2015-03-24T17:25:40Z</time>
      </trkpt>
      <trkpt lat="59.228360146832" lon="17.925938365064">
        <ele>70.2</ele>
        <time>2015-03-24T17:25:41Z</time>
      </trkpt>
      <trkpt lat="59.228302563179" lon="17.925553719673">
        <ele>70.2</ele>
        <time>2015-03-24T17:25:44Z</time>
      </trkpt>
      <trkpt lat="59.228188736977" lon="17.924744111952">
        <ele>70.2</ele>
        <time>2015-03-24T17:25:50Z</time>
      </trkpt>
      <trkpt lat="59.228041969908" lon="17.923826796816">
        <ele>70.2</ele>
        <time>2015-03-24T17:25:57Z</time>
      </trkpt>
      <trkpt lat="59.227977345459" lon="17.923585733372">
        <ele>70.2</ele>
        <time>2015-03-24T17:25:59Z</time>
      </trkpt>
      <trkpt lat="59.227869302768" lon="17.923408372368">
        <ele>70.2</ele>
        <time>2015-03-24T17:26:01Z</time>
      </trkpt>
      <trkpt lat="59.227723038613" lon="17.923288259741">
        <ele>70.2</ele>
        <time>2015-03-24T17:26:03Z</time>
      </trkpt>
      <trkpt lat="59.227505863584" lon="17.92310394176">
        <ele>70.2</ele>
        <time>2015-03-24T17:26:06Z</time>
      </trkpt>
      <trkpt lat="59.227434701253" lon="17.923037892388">
        <ele>70.6</ele>
        <time>2015-03-24T17:26:07Z</time>
      </trkpt>
      <trkpt lat="59.227366137311" lon="17.922964215487">
        <ele>71.2</ele>
        <time>2015-03-24T17:26:08Z</time>
      </trkpt>
      <trkpt lat="59.227301512862" lon="17.922878552469">
        <ele>71.6</ele>
        <time>2015-03-24T17:26:09Z</time>
      </trkpt>
      <trkpt lat="59.227235882585" lon="17.922783501723">
        <ele>72</ele>
        <time>2015-03-24T17:26:10Z</time>
      </trkpt>
      <trkpt lat="59.227175532905" lon="17.922690797909">
        <ele>72.4</ele>
        <time>2015-03-24T17:26:11Z</time>
      </trkpt>
      <trkpt lat="59.227116356691" lon="17.922597088267">
        <ele>72.8</ele>
        <time>2015-03-24T17:26:12Z</time>
      </trkpt>
      <trkpt lat="59.227057851029" lon="17.922500109684">
        <ele>73.2</ele>
        <time>2015-03-24T17:26:13Z</time>
      </trkpt>
      <trkpt lat="59.227003368679" lon="17.922402879644">
        <ele>73.6</ele>
        <time>2015-03-24T17:26:14Z</time>
      </trkpt>
      <trkpt lat="59.226951400899" lon="17.922306403975">
        <ele>74</ele>
        <time>2015-03-24T17:26:15Z</time>
      </trkpt>
      <trkpt lat="59.226899852214" lon="17.922216550007">
        <ele>74.6</ele>
        <time>2015-03-24T17:26:16Z</time>
      </trkpt>
      <trkpt lat="59.226802203079" lon="17.922041033021">
        <ele>74.6</ele>
        <time>2015-03-24T17:26:18Z</time>
      </trkpt>
      <trkpt lat="59.22664118678" lon="17.921680862778">
        <ele>74.6</ele>
        <time>2015-03-24T17:26:22Z</time>
      </trkpt>
      <trkpt lat="59.226561391092" lon="17.921494281684">
        <ele>74.6</ele>
        <time>2015-03-24T17:26:24Z</time>
      </trkpt>
      <trkpt lat="59.226523421085" lon="17.921384646432">
        <ele>74.6</ele>
        <time>2015-03-24T17:26:25Z</time>
      </trkpt>
      <trkpt lat="59.226308090074" lon="17.920622228808">
        <ele>74.6</ele>
        <time>2015-03-24T17:26:32Z</time>
      </trkpt>
      <trkpt lat="59.226084544801" lon="17.919735088512">
        <ele>75</ele>
        <time>2015-03-24T17:26:40Z</time>
      </trkpt>
      <trkpt lat="59.22605110102" lon="17.919624782708">
        <ele>75.4</ele>
        <time>2015-03-24T17:26:41Z</time>
      </trkpt>
      <trkpt lat="59.226021596732" lon="17.919515566551">
        <ele>75.8</ele>
        <time>2015-03-24T17:26:42Z</time>
      </trkpt>
      <trkpt lat="59.225989996969" lon="17.919407356222">
        <ele>76.2</ele>
        <time>2015-03-24T17:26:43Z</time>
      </trkpt>
      <trkpt lat="59.225957726654" lon="17.919302666291">
        <ele>76.6</ele>
        <time>2015-03-24T17:26:44Z</time>
      </trkpt>
      <trkpt lat="59.22588346302" lon="17.919104853451">
        <ele>76.6</ele>
        <time>2015-03-24T17:26:46Z</time>
      </trkpt>
      <trkpt lat="59.225837027294" lon="17.919009886524">
        <ele>76.6</ele>
        <time>2015-03-24T17:26:47Z</time>
      </trkpt>
      <trkpt lat="59.225694702632" lon="17.918776618247">
        <ele>76.6</ele>
        <time>2015-03-24T17:26:50Z</time>
      </trkpt>
      <trkpt lat="59.225643153947" lon="17.918720291879">
        <ele>76.6</ele>
        <time>2015-03-24T17:26:51Z</time>
      </trkpt>
      <trkpt lat="59.225468978065" lon="17.918588696049">
        <ele>76.6</ele>
        <time>2015-03-24T17:26:54Z</time>
      </trkpt>
      <trkpt lat="59.22533361038" lon="17.918524239238">
        <ele>76.6</ele>
        <time>2015-03-24T17:26:56Z</time>
      </trkpt>
      <trkpt lat="59.224881909789" lon="17.918314691738">
        <ele>76.6</ele>
        <time>2015-03-24T17:27:03Z</time>
      </trkpt>
      <trkpt lat="59.224828097991" lon="17.918290468047">
        <ele>76.6</ele>
        <time>2015-03-24T17:27:04Z</time>
      </trkpt>
      <trkpt lat="59.224660040896" lon="17.918215450042">
        <ele>76.6</ele>
        <time>2015-03-24T17:27:07Z</time>
      </trkpt>
      <trkpt lat="59.224339181764" lon="17.918098187261">
        <ele>76.6</ele>
        <time>2015-03-24T17:27:12Z</time>
      </trkpt>
      <trkpt lat="59.22413248411" lon="17.918026773473">
        <ele>76.6</ele>
        <time>2015-03-24T17:27:15Z</time>
      </trkpt>
      <trkpt lat="59.223995942959" lon="17.917944547034">
        <ele>76.6</ele>
        <time>2015-03-24T17:27:17Z</time>
      </trkpt>
      <trkpt lat="59.223855127039" lon="17.917887717752">
        <ele>76.6</ele>
        <time>2015-03-24T17:27:19Z</time>
      </trkpt>
      <trkpt lat="59.223613476862" lon="17.917841449664">
        <ele>76.6</ele>
        <time>2015-03-24T17:27:22Z</time>
      </trkpt>
      <trkpt lat="59.223521275962" lon="17.917834492687">
        <ele>76.2</ele>
        <time>2015-03-24T17:27:23Z</time>
      </trkpt>
      <trkpt lat="59.223428488329" lon="17.917828457719">
        <ele>75.8</ele>
        <time>2015-03-24T17:27:24Z</time>
      </trkpt>
      <trkpt lat="59.223342825311" lon="17.91782334476">
        <ele>75</ele>
        <time>2015-03-24T17:27:25Z</time>
      </trkpt>
      <trkpt lat="59.223263197261" lon="17.917805658951">
        <ele>74.4</ele>
        <time>2015-03-24T17:27:26Z</time>
      </trkpt>
      <trkpt lat="59.223196644975" lon="17.917744051986">
        <ele>73.8</ele>
        <time>2015-03-24T17:27:27Z</time>
      </trkpt>
      <trkpt lat="59.223144341919" lon="17.917645061747">
        <ele>73</ele>
        <time>2015-03-24T17:27:28Z</time>
      </trkpt>
      <trkpt lat="59.223109305577" lon="17.917513549736">
        <ele>72.4</ele>
        <time>2015-03-24T17:27:29Z</time>
      </trkpt>
      <trkpt lat="59.223079214556" lon="17.917370303065">
        <ele>71.8</ele>
        <time>2015-03-24T17:27:30Z</time>
      </trkpt>
      <trkpt lat="59.223048536802" lon="17.91721900977">
        <ele>71.4</ele>
        <time>2015-03-24T17:27:31Z</time>
      </trkpt>
      <trkpt lat="59.223018361962" lon="17.917071404511">
        <ele>70.8</ele>
        <time>2015-03-24T17:27:32Z</time>
      </trkpt>
      <trkpt lat="59.222985253457" lon="17.916922122872">
        <ele>70.2</ele>
        <time>2015-03-24T17:27:33Z</time>
      </trkpt>
      <trkpt lat="59.222842342062" lon="17.916398170303">
        <ele>70.2</ele>
        <time>2015-03-24T17:27:37Z</time>
      </trkpt>
      <trkpt lat="59.222800935476" lon="17.916283254454">
        <ele>70.2</ele>
        <time>2015-03-24T17:27:38Z</time>
      </trkpt>
      <trkpt lat="59.222541096576" lon="17.915716051281">
        <ele>70.2</ele>
        <time>2015-03-24T17:27:43Z</time>
      </trkpt>
      <trkpt lat="59.22216609037" lon="17.915000823754">
        <ele>69.8</ele>
        <time>2015-03-24T17:27:49Z</time>
      </trkpt>
      <trkpt lat="59.222101382102" lon="17.91487375415">
        <ele>69.4</ele>
        <time>2015-03-24T17:27:50Z</time>
      </trkpt>
      <trkpt lat="59.22203617092" lon="17.914750288763">
        <ele>68.8</ele>
        <time>2015-03-24T17:27:51Z</time>
      </trkpt>
      <trkpt lat="59.221969031901" lon="17.914629086489">
        <ele>68.4</ele>
        <time>2015-03-24T17:27:52Z</time>
      </trkpt>
      <trkpt lat="59.221899713588" lon="17.914505118188">
        <ele>68</ele>
        <time>2015-03-24T17:27:53Z</time>
      </trkpt>
      <trkpt lat="59.221716904349" lon="17.914119969883">
        <ele>68</ele>
        <time>2015-03-24T17:27:56Z</time>
      </trkpt>
      <trkpt lat="59.221667786415" lon="17.913987284406">
        <ele>67.6</ele>
        <time>2015-03-24T17:27:57Z</time>
      </trkpt>
      <trkpt lat="59.221625290182" lon="17.913831800161">
        <ele>66.8</ele>
        <time>2015-03-24T17:27:58Z</time>
      </trkpt>
      <trkpt lat="59.221572819488" lon="17.913688804947">
        <ele>66.4</ele>
        <time>2015-03-24T17:27:59Z</time>
      </trkpt>
      <trkpt lat="59.221503836451" lon="17.913586126672">
        <ele>66</ele>
        <time>2015-03-24T17:28:00Z</time>
      </trkpt>
      <trkpt lat="59.221358159029" lon="17.913377082086">
        <ele>66</ele>
        <time>2015-03-24T17:28:02Z</time>
      </trkpt>
      <trkpt lat="59.221132266824" lon="17.912838042097">
        <ele>66</ele>
        <time>2015-03-24T17:28:06Z</time>
      </trkpt>
      <trkpt lat="59.220814173719" lon="17.912013346956">
        <ele>65.4</ele>
        <time>2015-03-24T17:28:12Z</time>
      </trkpt>
      <trkpt lat="59.220760361921" lon="17.911874291235">
        <ele>65</ele>
        <time>2015-03-24T17:28:13Z</time>
      </trkpt>
      <trkpt lat="59.22070763977" lon="17.911735067876">
        <ele>64.6</ele>
        <time>2015-03-24T17:28:14Z</time>
      </trkpt>
      <trkpt lat="59.220650726669" lon="17.911591653567">
        <ele>64.2</ele>
        <time>2015-03-24T17:28:15Z</time>
      </trkpt>
      <trkpt lat="59.220597669242" lon="17.91145226257">
        <ele>63.6</ele>
        <time>2015-03-24T17:28:16Z</time>
      </trkpt>
      <trkpt lat="59.220332633564" lon="17.910757235422">
        <ele>63.6</ele>
        <time>2015-03-24T17:28:21Z</time>
      </trkpt>
      <trkpt lat="59.220225848158" lon="17.910487841156">
        <ele>62.8</ele>
        <time>2015-03-24T17:28:23Z</time>
      </trkpt>
      <trkpt lat="59.220174970025" lon="17.910351886738">
        <ele>62.4</ele>
        <time>2015-03-24T17:28:24Z</time>
      </trkpt>
      <trkpt lat="59.220123337521" lon="17.91020838861">
        <ele>62</ele>
        <time>2015-03-24T17:28:25Z</time>
      </trkpt>
      <trkpt lat="59.220074135768" lon="17.91007679278">
        <ele>61.6</ele>
        <time>2015-03-24T17:28:26Z</time>
      </trkpt>
      <trkpt lat="59.219979001203" lon="17.909827766531">
        <ele>61.6</ele>
        <time>2015-03-24T17:28:28Z</time>
      </trkpt>
      <trkpt lat="59.219890320701" lon="17.909484946821">
        <ele>61.6</ele>
        <time>2015-03-24T17:28:31Z</time>
      </trkpt>
      <trkpt lat="59.219914041478" lon="17.909386794772">
        <ele>61.6</ele>
        <time>2015-03-24T17:28:32Z</time>
      </trkpt>
      <trkpt lat="59.220056449959" lon="17.909201554782">
        <ele>61.6</ele>
        <time>2015-03-24T17:28:35Z</time>
      </trkpt>
      <trkpt lat="59.220110513214" lon="17.909130057175">
        <ele>61.6</ele>
        <time>2015-03-24T17:28:36Z</time>
      </trkpt>
      <trkpt lat="59.220371106485" lon="17.908740634101">
        <ele>61.6</ele>
        <time>2015-03-24T17:28:41Z</time>
      </trkpt>
      <trkpt lat="59.220404466447" lon="17.908650612495">
        <ele>61.6</ele>
        <time>2015-03-24T17:28:42Z</time>
      </trkpt>
      <trkpt lat="59.220400359316" lon="17.908465875419">
        <ele>61.6</ele>
        <time>2015-03-24T17:28:44Z</time>
      </trkpt>
      <trkpt lat="59.220321485637" lon="17.908314246848">
        <ele>61.6</ele>
        <time>2015-03-24T17:28:46Z</time>
      </trkpt>
      <trkpt lat="59.220278067395" lon="17.90823361297">
        <ele>61.6</ele>
        <time>2015-03-24T17:28:47Z</time>
      </trkpt>
      <trkpt lat="59.220031388078" lon="17.907743858553">
        <ele>61.2</ele>
        <time>2015-03-24T17:28:53Z</time>
      </trkpt>
      <trkpt lat="59.219994842994" lon="17.907648640169">
        <ele>60.8</ele>
        <time>2015-03-24T17:28:54Z</time>
      </trkpt>
      <trkpt lat="59.219956202435" lon="17.907552415957">
        <ele>60.4</ele>
        <time>2015-03-24T17:28:55Z</time>
      </trkpt>
      <trkpt lat="59.219921836645" lon="17.907462394351">
        <ele>60</ele>
        <time>2015-03-24T17:28:56Z</time>
      </trkpt>
      <trkpt lat="59.219885291561" lon="17.90737446822">
        <ele>59.6</ele>
        <time>2015-03-24T17:28:57Z</time>
      </trkpt>
      <trkpt lat="59.219851261047" lon="17.907286709727">
        <ele>59.6</ele>
        <time>2015-03-24T17:28:58Z</time>
      </trkpt>
      <trkpt lat="59.219667613618" lon="17.906838194258">
        <ele>59.6</ele>
        <time>2015-03-24T17:29:04Z</time>
      </trkpt>
      <trkpt lat="59.219633415466" lon="17.906792093808">
        <ele>59.6</ele>
        <time>2015-03-24T17:29:05Z</time>
      </trkpt>
      <trkpt lat="59.219543729136" lon="17.906782873718">
        <ele>59.6</ele>
        <time>2015-03-24T17:29:07Z</time>
      </trkpt>
      <trkpt lat="59.219400314827" lon="17.90689502354">
        <ele>59.6</ele>
        <time>2015-03-24T17:29:10Z</time>
      </trkpt>
      <trkpt lat="59.21935731568" lon="17.906943722379">
        <ele>59.6</ele>
        <time>2015-03-24T17:29:11Z</time>
      </trkpt>
      <trkpt lat="59.219163274695" lon="17.907239603449">
        <ele>59.6</ele>
        <time>2015-03-24T17:29:16Z</time>
      </trkpt>
      <trkpt lat="59.219070570881" lon="17.907316046377">
        <ele>59.6</ele>
        <time>2015-03-24T17:29:19Z</time>
      </trkpt>
      <trkpt lat="59.219024721888" lon="17.907311017237">
        <ele>59.6</ele>
        <time>2015-03-24T17:29:20Z</time>
      </trkpt>
      <trkpt lat="59.218941154345" lon="17.907166010367">
        <ele>59.6</ele>
        <time>2015-03-24T17:29:22Z</time>
      </trkpt>
      <trkpt lat="59.218904609261" lon="17.907069283241">
        <ele>59.6</ele>
        <time>2015-03-24T17:29:23Z</time>
      </trkpt>
      <trkpt lat="59.21873789327" lon="17.906629149672">
        <ele>59.6</ele>
        <time>2015-03-24T17:29:27Z</time>
      </trkpt>
      <trkpt lat="59.218449052996" lon="17.905950718686">
        <ele>59.6</ele>
        <time>2015-03-24T17:29:33Z</time>
      </trkpt>
      <trkpt lat="59.218350230395" lon="17.905714684382">
        <ele>59.6</ele>
        <time>2015-03-24T17:29:35Z</time>
      </trkpt>
      <trkpt lat="59.21826766868" lon="17.905454594025">
        <ele>59.6</ele>
        <time>2015-03-24T17:29:37Z</time>
      </trkpt>
      <trkpt lat="59.218179071997" lon="17.905211686563">
        <ele>59.6</ele>
        <time>2015-03-24T17:29:39Z</time>
      </trkpt>
      <trkpt lat="59.217996262758" lon="17.904742886896">
        <ele>59.6</ele>
        <time>2015-03-24T17:29:43Z</time>
      </trkpt>
      <trkpt lat="59.217641037836" lon="17.90380294063">
        <ele>59.6</ele>
        <time>2015-03-24T17:29:51Z</time>
      </trkpt>
      <trkpt lat="59.217596446128" lon="17.90368643222">
        <ele>59.6</ele>
        <time>2015-03-24T17:29:52Z</time>
      </trkpt>
      <trkpt lat="59.217548250203" lon="17.903579311538">
        <ele>59.6</ele>
        <time>2015-03-24T17:29:53Z</time>
      </trkpt>
      <trkpt lat="59.217400728763" lon="17.903253842361">
        <ele>59.6</ele>
        <time>2015-03-24T17:29:56Z</time>
      </trkpt>
      <trkpt lat="59.217218673895" lon="17.902858887233">
        <ele>59.6</ele>
        <time>2015-03-24T17:30:00Z</time>
      </trkpt>
      <trkpt lat="59.217188163779" lon="17.902761405736">
        <ele>59.6</ele>
        <time>2015-03-24T17:30:01Z</time>
      </trkpt>
      <trkpt lat="59.21714365589" lon="17.902712120164">
        <ele>59.6</ele>
        <time>2015-03-24T17:30:02Z</time>
      </trkpt>
      <trkpt lat="59.21708498259" lon="17.902732991095">
        <ele>59.6</ele>
        <time>2015-03-24T17:30:03Z</time>
      </trkpt>
      <trkpt lat="59.216997391735" lon="17.902923427863">
        <ele>59.6</ele>
        <time>2015-03-24T17:30:05Z</time>
      </trkpt>
      <trkpt lat="59.216895886926" lon="17.90328074826">
        <ele>59.6</ele>
        <time>2015-03-24T17:30:08Z</time>
      </trkpt>
      <trkpt lat="59.216826987708" lon="17.903509238854">
        <ele>59.6</ele>
        <time>2015-03-24T17:30:10Z</time>
      </trkpt>
      <trkpt lat="59.216759513413" lon="17.903906792371">
        <ele>59.6</ele>
        <time>2015-03-24T17:30:14Z</time>
      </trkpt>
      <trkpt lat="59.21670947347" lon="17.904282888224">
        <ele>59.6</ele>
        <time>2015-03-24T17:30:19Z</time>
      </trkpt>
      <trkpt lat="59.216692793489" lon="17.904460333047">
        <ele>59.6</ele>
        <time>2015-03-24T17:30:21Z</time>
      </trkpt>
      <trkpt lat="59.216677789888" lon="17.90465286529">
        <ele>59.6</ele>
        <time>2015-03-24T17:30:23Z</time>
      </trkpt>
      <trkpt lat="59.216647279772" lon="17.904862245152">
        <ele>59.6</ele>
        <time>2015-03-24T17:30:25Z</time>
      </trkpt>
      <trkpt lat="59.21657033393" lon="17.905381671495">
        <ele>59.6</ele>
        <time>2015-03-24T17:30:30Z</time>
      </trkpt>
      <trkpt lat="59.216511409173" lon="17.905718959151">
        <ele>60</ele>
        <time>2015-03-24T17:30:33Z</time>
      </trkpt>
      <trkpt lat="59.216490035328" lon="17.905831192792">
        <ele>60.4</ele>
        <time>2015-03-24T17:30:34Z</time>
      </trkpt>
      <trkpt lat="59.216465392542" lon="17.905945102813">
        <ele>60.8</ele>
        <time>2015-03-24T17:30:35Z</time>
      </trkpt>
      <trkpt lat="59.216435972073" lon="17.906066556544">
        <ele>61.2</ele>
        <time>2015-03-24T17:30:36Z</time>
      </trkpt>
      <trkpt lat="59.216412167477" lon="17.906180550384">
        <ele>61.8</ele>
        <time>2015-03-24T17:30:37Z</time>
      </trkpt>
      <trkpt lat="59.216348716494" lon="17.906399485612">
        <ele>61.8</ele>
        <time>2015-03-24T17:30:39Z</time>
      </trkpt>
      <trkpt lat="59.216255928861" lon="17.906592101674">
        <ele>61.8</ele>
        <time>2015-03-24T17:30:41Z</time>
      </trkpt>
      <trkpt lat="59.216108994154" lon="17.906841295561">
        <ele>62.2</ele>
        <time>2015-03-24T17:30:44Z</time>
      </trkpt>
      <trkpt lat="59.21605903803" lon="17.906909021313">
        <ele>62.6</ele>
        <time>2015-03-24T17:30:45Z</time>
      </trkpt>
      <trkpt lat="59.21600707025" lon="17.906980351282">
        <ele>63</ele>
        <time>2015-03-24T17:30:46Z</time>
      </trkpt>
      <trkpt lat="59.215958036135" lon="17.90705427964">
        <ele>63.6</ele>
        <time>2015-03-24T17:30:47Z</time>
      </trkpt>
      <trkpt lat="59.215910259305" lon="17.907133656233">
        <ele>64</ele>
        <time>2015-03-24T17:30:48Z</time>
      </trkpt>
      <trkpt lat="59.215869942366" lon="17.907214960663">
        <ele>64.4</ele>
        <time>2015-03-24T17:30:49Z</time>
      </trkpt>
      <trkpt lat="59.215834235472" lon="17.907299198758">
        <ele>65</ele>
        <time>2015-03-24T17:30:50Z</time>
      </trkpt>
      <trkpt lat="59.215805485555" lon="17.907401877033">
        <ele>65.4</ele>
        <time>2015-03-24T17:30:51Z</time>
      </trkpt>
      <trkpt lat="59.215782183873" lon="17.907506566964">
        <ele>66.4</ele>
        <time>2015-03-24T17:30:52Z</time>
      </trkpt>
      <trkpt lat="59.215747315169" lon="17.907965475989">
        <ele>66.4</ele>
        <time>2015-03-24T17:30:56Z</time>
      </trkpt>
      <trkpt lat="59.21575058411" lon="17.908087684091">
        <ele>66.4</ele>
        <time>2015-03-24T17:30:57Z</time>
      </trkpt>
      <trkpt lat="59.215775059258" lon="17.908750105648">
        <ele>66.4</ele>
        <time>2015-03-24T17:31:02Z</time>
      </trkpt>
      <trkpt lat="59.215748823911" lon="17.90956465869">
        <ele>66.4</ele>
        <time>2015-03-24T17:31:08Z</time>
      </trkpt>
      <trkpt lat="59.215702639642" lon="17.910233366672">
        <ele>66.4</ele>
        <time>2015-03-24T17:31:13Z</time>
      </trkpt>
      <trkpt lat="59.215671458974" lon="17.910650450016">
        <ele>66.4</ele>
        <time>2015-03-24T17:31:16Z</time>
      </trkpt>
      <trkpt lat="59.21560557724" lon="17.911612273041">
        <ele>66.4</ele>
        <time>2015-03-24T17:31:23Z</time>
      </trkpt>
      <trkpt lat="59.215505245897" lon="17.912675852332">
        <ele>66.4</ele>
        <time>2015-03-24T17:31:31Z</time>
      </trkpt>
      <trkpt lat="59.215426875132" lon="17.91335746844">
        <ele>66.4</ele>
        <time>2015-03-24T17:31:36Z</time>
      </trkpt>
      <trkpt lat="59.215399298681" lon="17.913480514732">
        <ele>66.4</ele>
        <time>2015-03-24T17:31:37Z</time>
      </trkpt>
      <trkpt lat="59.215298045329" lon="17.913842696631">
        <ele>66.4</ele>
        <time>2015-03-24T17:31:40Z</time>
      </trkpt>
      <trkpt lat="59.215203162221" lon="17.914051322122">
        <ele>66.4</ele>
        <time>2015-03-24T17:31:42Z</time>
      </trkpt>
      <trkpt lat="59.215114900814" lon="17.914247542401">
        <ele>66.4</ele>
        <time>2015-03-24T17:31:44Z</time>
      </trkpt>
      <trkpt lat="59.215049354356" lon="17.914459101557">
        <ele>66.4</ele>
        <time>2015-03-24T17:31:46Z</time>
      </trkpt>
      <trkpt lat="59.214878112139" lon="17.914720113923">
        <ele>66.4</ele>
        <time>2015-03-24T17:31:49Z</time>
      </trkpt>
      <trkpt lat="59.214753305648" lon="17.914815248488">
        <ele>66.4</ele>
        <time>2015-03-24T17:31:51Z</time>
      </trkpt>
      <trkpt lat="59.214563874708" lon="17.914938127142">
        <ele>66.4</ele>
        <time>2015-03-24T17:31:54Z</time>
      </trkpt>
      <trkpt lat="59.214177217661" lon="17.915176173102">
        <ele>66.8</ele>
        <time>2015-03-24T17:32:00Z</time>
      </trkpt>
      <trkpt lat="59.214116784162" lon="17.915215987127">
        <ele>67.2</ele>
        <time>2015-03-24T17:32:01Z</time>
      </trkpt>
      <trkpt lat="59.214060373975" lon="17.915258818636">
        <ele>67.6</ele>
        <time>2015-03-24T17:32:02Z</time>
      </trkpt>
      <trkpt lat="59.214005137254" lon="17.915303075068">
        <ele>68.2</ele>
        <time>2015-03-24T17:32:03Z</time>
      </trkpt>
      <trkpt lat="59.213948056515" lon="17.915343727283">
        <ele>68.6</ele>
        <time>2015-03-24T17:32:04Z</time>
      </trkpt>
      <trkpt lat="59.213784777103" lon="17.915455709467">
        <ele>68.6</ele>
        <time>2015-03-24T17:32:07Z</time>
      </trkpt>
      <trkpt lat="59.213290999374" lon="17.915810515294">
        <ele>68.6</ele>
        <time>2015-03-24T17:32:16Z</time>
      </trkpt>
      <trkpt lat="59.213178262819" lon="17.915879749788">
        <ele>69</ele>
        <time>2015-03-24T17:32:18Z</time>
      </trkpt>
      <trkpt lat="59.213121014442" lon="17.915910008447">
        <ele>69.4</ele>
        <time>2015-03-24T17:32:19Z</time>
      </trkpt>
      <trkpt lat="59.21305999421" lon="17.91593490269">
        <ele>69.8</ele>
        <time>2015-03-24T17:32:20Z</time>
      </trkpt>
      <trkpt lat="59.213001991462" lon="17.915955186888">
        <ele>70.2</ele>
        <time>2015-03-24T17:32:21Z</time>
      </trkpt>
      <trkpt lat="59.212942982886" lon="17.915973627068">
        <ele>70.6</ele>
        <time>2015-03-24T17:32:22Z</time>
      </trkpt>
      <trkpt lat="59.212884225767" lon="17.915988295393">
        <ele>70.6</ele>
        <time>2015-03-24T17:32:23Z</time>
      </trkpt>
      <trkpt lat="59.212824546639" lon="17.915998688949">
        <ele>71</ele>
        <time>2015-03-24T17:32:24Z</time>
      </trkpt>
      <trkpt lat="59.212766292434" lon="17.916006316478">
        <ele>71.4</ele>
        <time>2015-03-24T17:32:25Z</time>
      </trkpt>
      <trkpt lat="59.212708205867" lon="17.916014195464">
        <ele>71.8</ele>
        <time>2015-03-24T17:32:26Z</time>
      </trkpt>
      <trkpt lat="59.212646682721" lon="17.91601955988">
        <ele>72.2</ele>
        <time>2015-03-24T17:32:27Z</time>
      </trkpt>
      <trkpt lat="59.212590775448" lon="17.916024086106">
        <ele>72.6</ele>
        <time>2015-03-24T17:32:28Z</time>
      </trkpt>
      <trkpt lat="59.21247745216" lon="17.916031378359">
        <ele>72.6</ele>
        <time>2015-03-24T17:32:30Z</time>
      </trkpt>
      <trkpt lat="59.212419533231" lon="17.916024337563">
        <ele>73</ele>
        <time>2015-03-24T17:32:31Z</time>
      </trkpt>
      <trkpt lat="59.21236010556" lon="17.916023164097">
        <ele>73.6</ele>
        <time>2015-03-24T17:32:32Z</time>
      </trkpt>
      <trkpt lat="59.212302857183" lon="17.916042442467">
        <ele>74</ele>
        <time>2015-03-24T17:32:33Z</time>
      </trkpt>
      <trkpt lat="59.212243345693" lon="17.916081418302">
        <ele>74.4</ele>
        <time>2015-03-24T17:32:34Z</time>
      </trkpt>
      <trkpt lat="59.21218492385" lon="17.916137912308">
        <ele>74.8</ele>
        <time>2015-03-24T17:32:35Z</time>
      </trkpt>
      <trkpt lat="59.212129435672" lon="17.916191221192">
        <ele>74.8</ele>
        <time>2015-03-24T17:32:36Z</time>
      </trkpt>
      <trkpt lat="59.21195358341" lon="17.916325247773">
        <ele>74.8</ele>
        <time>2015-03-24T17:32:39Z</time>
      </trkpt>
      <trkpt lat="59.211896921766" lon="17.916365480893">
        <ele>75.2</ele>
        <time>2015-03-24T17:32:40Z</time>
      </trkpt>
      <trkpt lat="59.211840763036" lon="17.916409402049">
        <ele>75.8</ele>
        <time>2015-03-24T17:32:41Z</time>
      </trkpt>
      <trkpt lat="59.211788208523" lon="17.916453239386">
        <ele>76.2</ele>
        <time>2015-03-24T17:32:42Z</time>
      </trkpt>
      <trkpt lat="59.211734480544" lon="17.91648559352">
        <ele>76.6</ele>
        <time>2015-03-24T17:32:43Z</time>
      </trkpt>
      <trkpt lat="59.211683853868" lon="17.916519037301">
        <ele>77</ele>
        <time>2015-03-24T17:32:44Z</time>
      </trkpt>
      <trkpt lat="59.211635238848" lon="17.916555666204">
        <ele>77</ele>
        <time>2015-03-24T17:32:45Z</time>
      </trkpt>
      <trkpt lat="59.211326365833" lon="17.916787928653">
        <ele>77</ele>
        <time>2015-03-24T17:32:51Z</time>
      </trkpt>
      <trkpt lat="59.211194937641" lon="17.916872921119">
        <ele>77</ele>
        <time>2015-03-24T17:32:54Z</time>
      </trkpt>
      <trkpt lat="59.211107095329" lon="17.916924972718">
        <ele>77</ele>
        <time>2015-03-24T17:32:56Z</time>
      </trkpt>
      <trkpt lat="59.21095194636" lon="17.917062771154">
        <ele>77</ele>
        <time>2015-03-24T17:33:00Z</time>
      </trkpt>
      <trkpt lat="59.210677522954" lon="17.917247843506">
        <ele>77</ele>
        <time>2015-03-24T17:33:06Z</time>
      </trkpt>
      <trkpt lat="59.210359429849" lon="17.917500809248">
        <ele>77</ele>
        <time>2015-03-24T17:33:12Z</time>
      </trkpt>
      <trkpt lat="59.210022812745" lon="17.917759809958">
        <ele>77</ele>
        <time>2015-03-24T17:33:18Z</time>
      </trkpt>
      <trkpt lat="59.209786359346" lon="17.91793398584">
        <ele>77</ele>
        <time>2015-03-24T17:33:23Z</time>
      </trkpt>
      <trkpt lat="59.209431050605" lon="17.918197764233">
        <ele>74.8</ele>
        <time>2015-03-24T17:33:47Z</time>
      </trkpt>
      <trkpt lat="59.209385788345" lon="17.918252917135">
        <ele>74.8</ele>
        <time>2015-03-24T17:33:48Z</time>
      </trkpt>
      <trkpt lat="59.209163835633" lon="17.918630857006">
        <ele>74.8</ele>
        <time>2015-03-24T17:33:53Z</time>
      </trkpt>
      <trkpt lat="59.208816322059" lon="17.919328901638">
        <ele>74.8</ele>
        <time>2015-03-24T17:34:01Z</time>
      </trkpt>
      <trkpt lat="59.208668800619" lon="17.919742883679">
        <ele>75.2</ele>
        <time>2015-03-24T17:34:05Z</time>
      </trkpt>
      <trkpt lat="59.20863183644" lon="17.91984254447">
        <ele>75.6</ele>
        <time>2015-03-24T17:34:06Z</time>
      </trkpt>
      <trkpt lat="59.20859663246" lon="17.91994564184">
        <ele>76</ele>
        <time>2015-03-24T17:34:07Z</time>
      </trkpt>
      <trkpt lat="59.208562182851" lon="17.920047314287">
        <ele>76.4</ele>
        <time>2015-03-24T17:34:08Z</time>
      </trkpt>
      <trkpt lat="59.208526643595" lon="17.920147226535">
        <ele>76.8</ele>
        <time>2015-03-24T17:34:09Z</time>
      </trkpt>
      <trkpt lat="59.208270325093" lon="17.920858263112">
        <ele>76.8</ele>
        <time>2015-03-24T17:34:16Z</time>
      </trkpt>
      <trkpt lat="59.208007552528" lon="17.921475506228">
        <ele>76.8</ele>
        <time>2015-03-24T17:34:22Z</time>
      </trkpt>
      <trkpt lat="59.207962709363" lon="17.921581704901">
        <ele>76.8</ele>
        <time>2015-03-24T17:34:23Z</time>
      </trkpt>
      <trkpt lat="59.207670264872" lon="17.922185956072">
        <ele>76.8</ele>
        <time>2015-03-24T17:34:29Z</time>
      </trkpt>
      <trkpt lat="59.207307160964" lon="17.922797667134">
        <ele>76.4</ele>
        <time>2015-03-24T17:34:35Z</time>
      </trkpt>
      <trkpt lat="59.207240021945" lon="17.922899926314">
        <ele>75.8</ele>
        <time>2015-03-24T17:34:36Z</time>
      </trkpt>
      <trkpt lat="59.207171374184" lon="17.923004448607">
        <ele>75.4</ele>
        <time>2015-03-24T17:34:37Z</time>
      </trkpt>
      <trkpt lat="59.207097445826" lon="17.923106372511">
        <ele>75</ele>
        <time>2015-03-24T17:34:38Z</time>
      </trkpt>
      <trkpt lat="59.207020667622" lon="17.923201590895">
        <ele>74.4</ele>
        <time>2015-03-24T17:34:39Z</time>
      </trkpt>
      <trkpt lat="59.206781280558" lon="17.923473499731">
        <ele>74</ele>
        <time>2015-03-24T17:34:42Z</time>
      </trkpt>
      <trkpt lat="59.206696707187" lon="17.923558911292">
        <ele>73.4</ele>
        <time>2015-03-24T17:34:43Z</time>
      </trkpt>
      <trkpt lat="59.206612217635" lon="17.923639377532">
        <ele>73</ele>
        <time>2015-03-24T17:34:44Z</time>
      </trkpt>
      <trkpt lat="59.206526470798" lon="17.923713054433">
        <ele>72.4</ele>
        <time>2015-03-24T17:34:45Z</time>
      </trkpt>
      <trkpt lat="59.206437874115" lon="17.923777762701">
        <ele>72</ele>
        <time>2015-03-24T17:34:46Z</time>
      </trkpt>
      <trkpt lat="59.20626562607" lon="17.923902233916">
        <ele>72</ele>
        <time>2015-03-24T17:34:48Z</time>
      </trkpt>
      <trkpt lat="59.206095138224" lon="17.924038272153">
        <ele>71.6</ele>
        <time>2015-03-24T17:34:50Z</time>
      </trkpt>
      <trkpt lat="59.206015510174" lon="17.92410222605">
        <ele>71.2</ele>
        <time>2015-03-24T17:34:51Z</time>
      </trkpt>
      <trkpt lat="59.20593286464" lon="17.924146566301">
        <ele>70.8</ele>
        <time>2015-03-24T17:34:52Z</time>
      </trkpt>
      <trkpt lat="59.205850302925" lon="17.924184201032">
        <ele>70.4</ele>
        <time>2015-03-24T17:34:53Z</time>
      </trkpt>
      <trkpt lat="59.205768663219" lon="17.924223512143">
        <ele>69.8</ele>
        <time>2015-03-24T17:34:54Z</time>
      </trkpt>
      <trkpt lat="59.205225264642" lon="17.924421995535">
        <ele>69.8</ele>
        <time>2015-03-24T17:35:01Z</time>
      </trkpt>
      <trkpt lat="59.20497481347" lon="17.924471784021">
        <ele>70.4</ele>
        <time>2015-03-24T17:35:05Z</time>
      </trkpt>
      <trkpt lat="59.204920498758" lon="17.924480668835">
        <ele>70.8</ele>
        <time>2015-03-24T17:35:06Z</time>
      </trkpt>
      <trkpt lat="59.204867189874" lon="17.924490140382">
        <ele>71.2</ele>
        <time>2015-03-24T17:35:07Z</time>
      </trkpt>
      <trkpt lat="59.204813629533" lon="17.924506401268">
        <ele>71.8</ele>
        <time>2015-03-24T17:35:08Z</time>
      </trkpt>
      <trkpt lat="59.20476107502" lon="17.924520734317">
        <ele>72.2</ele>
        <time>2015-03-24T17:35:09Z</time>
      </trkpt>
      <trkpt lat="59.204493273315" lon="17.924600027091">
        <ele>72.6</ele>
        <time>2015-03-24T17:35:14Z</time>
      </trkpt>
      <trkpt lat="59.204441305535" lon="17.924610755923">
        <ele>73</ele>
        <time>2015-03-24T17:35:15Z</time>
      </trkpt>
      <trkpt lat="59.20439059504" lon="17.924621400936">
        <ele>73.4</ele>
        <time>2015-03-24T17:35:16Z</time>
      </trkpt>
      <trkpt lat="59.204340806554" lon="17.924634141424">
        <ele>73.8</ele>
        <time>2015-03-24T17:35:17Z</time>
      </trkpt>
      <trkpt lat="59.204293113543" lon="17.924642774781">
        <ele>74.2</ele>
        <time>2015-03-24T17:35:18Z</time>
      </trkpt>
      <trkpt lat="59.204146011198" lon="17.924669429223">
        <ele>74.6</ele>
        <time>2015-03-24T17:35:21Z</time>
      </trkpt>
      <trkpt lat="59.204098234368" lon="17.924680074236">
        <ele>75.2</ele>
        <time>2015-03-24T17:35:22Z</time>
      </trkpt>
      <trkpt lat="59.204051882461" lon="17.924688791412">
        <ele>76</ele>
        <time>2015-03-24T17:35:23Z</time>
      </trkpt>
      <trkpt lat="59.204008296581" lon="17.924695413113">
        <ele>76.4</ele>
        <time>2015-03-24T17:35:24Z</time>
      </trkpt>
      <trkpt lat="59.203796737425" lon="17.924762300675">
        <ele>76.4</ele>
        <time>2015-03-24T17:35:29Z</time>
      </trkpt>
      <trkpt lat="59.203708895113" lon="17.924796079732">
        <ele>76.8</ele>
        <time>2015-03-24T17:35:31Z</time>
      </trkpt>
      <trkpt lat="59.203664471043" lon="17.924809323134">
        <ele>77.2</ele>
        <time>2015-03-24T17:35:32Z</time>
      </trkpt>
      <trkpt lat="59.203619041145" lon="17.924823153269">
        <ele>77.6</ele>
        <time>2015-03-24T17:35:33Z</time>
      </trkpt>
      <trkpt lat="59.203573611247" lon="17.924834720291">
        <ele>78</ele>
        <time>2015-03-24T17:35:34Z</time>
      </trkpt>
      <trkpt lat="59.203525918236" lon="17.924841090535">
        <ele>78.4</ele>
        <time>2015-03-24T17:35:35Z</time>
      </trkpt>
      <trkpt lat="59.203480655976" lon="17.924850981177">
        <ele>78.4</ele>
        <time>2015-03-24T17:35:36Z</time>
      </trkpt>
      <trkpt lat="59.203252081563" lon="17.924902110767">
        <ele>78.4</ele>
        <time>2015-03-24T17:35:41Z</time>
      </trkpt>
      <trkpt lat="59.203204975285" lon="17.9249110794">
        <ele>78.4</ele>
        <time>2015-03-24T17:35:42Z</time>
      </trkpt>
      <trkpt lat="59.203014035603" lon="17.924949719959">
        <ele>78.8</ele>
        <time>2015-03-24T17:35:46Z</time>
      </trkpt>
      <trkpt lat="59.202967935153" lon="17.924958604773">
        <ele>79.2</ele>
        <time>2015-03-24T17:35:47Z</time>
      </trkpt>
      <trkpt lat="59.202922421436" lon="17.924966651397">
        <ele>80</ele>
        <time>2015-03-24T17:35:48Z</time>
      </trkpt>
      <trkpt lat="59.202876991538" lon="17.924976122944">
        <ele>80.4</ele>
        <time>2015-03-24T17:35:49Z</time>
      </trkpt>
      <trkpt lat="59.202535010018" lon="17.925082321617">
        <ele>80.4</ele>
        <time>2015-03-24T17:35:56Z</time>
      </trkpt>
      <trkpt lat="59.202340885214" lon="17.925166392074">
        <ele>80.8</ele>
        <time>2015-03-24T17:36:00Z</time>
      </trkpt>
      <trkpt lat="59.202292102556" lon="17.925184664616">
        <ele>81.2</ele>
        <time>2015-03-24T17:36:01Z</time>
      </trkpt>
      <trkpt lat="59.202241392061" lon="17.925204362081">
        <ele>81.6</ele>
        <time>2015-03-24T17:36:02Z</time>
      </trkpt>
      <trkpt lat="59.202191352118" lon="17.925227747582">
        <ele>82</ele>
        <time>2015-03-24T17:36:03Z</time>
      </trkpt>
      <trkpt lat="59.202139551976" lon="17.92525306092">
        <ele>82.4</ele>
        <time>2015-03-24T17:36:04Z</time>
      </trkpt>
      <trkpt lat="59.201801845225" lon="17.925462776058">
        <ele>82.4</ele>
        <time>2015-03-24T17:36:11Z</time>
      </trkpt>
      <trkpt lat="59.201614174484" lon="17.925614907543">
        <ele>83</ele>
        <time>2015-03-24T17:36:15Z</time>
      </trkpt>
      <trkpt lat="59.201565810921" lon="17.925652961369">
        <ele>83.4</ele>
        <time>2015-03-24T17:36:16Z</time>
      </trkpt>
      <trkpt lat="59.201516944444" lon="17.925696798706">
        <ele>83.8</ele>
        <time>2015-03-24T17:36:17Z</time>
      </trkpt>
      <trkpt lat="59.201470676356" lon="17.925738708206">
        <ele>84.2</ele>
        <time>2015-03-24T17:36:18Z</time>
      </trkpt>
      <trkpt lat="59.201420552594" lon="17.925781455896">
        <ele>84.6</ele>
        <time>2015-03-24T17:36:19Z</time>
      </trkpt>
      <trkpt lat="59.201131041768" lon="17.926062836279">
        <ele>84.6</ele>
        <time>2015-03-24T17:36:25Z</time>
      </trkpt>
      <trkpt lat="59.200858127104" lon="17.926390065655">
        <ele>84.6</ele>
        <time>2015-03-24T17:36:31Z</time>
      </trkpt>
      <trkpt lat="59.20058940339" lon="17.926750738812">
        <ele>84.6</ele>
        <time>2015-03-24T17:36:37Z</time>
      </trkpt>
      <trkpt lat="59.2004293091" lon="17.926956765914">
        <ele>85</ele>
        <time>2015-03-24T17:36:40Z</time>
      </trkpt>
      <trkpt lat="59.200375916397" lon="17.927023737295">
        <ele>85.4</ele>
        <time>2015-03-24T17:36:41Z</time>
      </trkpt>
      <trkpt lat="59.200324702988" lon="17.927091965961">
        <ele>86</ele>
        <time>2015-03-24T17:36:42Z</time>
      </trkpt>
      <trkpt lat="59.200269550086" lon="17.927164637034">
        <ele>86.4</ele>
        <time>2015-03-24T17:36:43Z</time>
      </trkpt>
      <trkpt lat="59.200218169039" lon="17.927235212632">
        <ele>86.8</ele>
        <time>2015-03-24T17:36:44Z</time>
      </trkpt>
      <trkpt lat="59.19985263438" lon="17.927720105547">
        <ele>86.8</ele>
        <time>2015-03-24T17:36:51Z</time>
      </trkpt>
      <trkpt lat="59.199506964824" lon="17.928086059301">
        <ele>86.8</ele>
        <time>2015-03-24T17:36:57Z</time>
      </trkpt>
      <trkpt lat="59.199031459637" lon="17.928478918954">
        <ele>86.8</ele>
        <time>2015-03-24T17:37:05Z</time>
      </trkpt>
      <trkpt lat="59.198597696312" lon="17.928733477257">
        <ele>86.8</ele>
        <time>2015-03-24T17:37:12Z</time>
      </trkpt>
      <trkpt lat="59.198158400933" lon="17.928907317863">
        <ele>86.8</ele>
        <time>2015-03-24T17:37:19Z</time>
      </trkpt>
      <trkpt lat="59.197597316547" lon="17.929086271428">
        <ele>86.8</ele>
        <time>2015-03-24T17:37:28Z</time>
      </trkpt>
      <trkpt lat="59.197532440641" lon="17.929099682468">
        <ele>86.8</ele>
        <time>2015-03-24T17:37:29Z</time>
      </trkpt>
      <trkpt lat="59.197127091957" lon="17.929164139279">
        <ele>86.8</ele>
        <time>2015-03-24T17:37:35Z</time>
      </trkpt>
      <trkpt lat="59.196661393593" lon="17.929185932219">
        <ele>86.8</ele>
        <time>2015-03-24T17:37:42Z</time>
      </trkpt>
      <trkpt lat="59.196243723516" lon="17.929155589741">
        <ele>86.8</ele>
        <time>2015-03-24T17:37:48Z</time>
      </trkpt>
      <trkpt lat="59.195647267512" lon="17.929044613385">
        <ele>86.8</ele>
        <time>2015-03-24T17:37:56Z</time>
      </trkpt>
      <trkpt lat="59.195567890919" lon="17.929025083558">
        <ele>86.4</ele>
        <time>2015-03-24T17:37:57Z</time>
      </trkpt>
      <trkpt lat="59.195483317548" lon="17.929001949514">
        <ele>86</ele>
        <time>2015-03-24T17:37:58Z</time>
      </trkpt>
      <trkpt lat="59.195398157444" lon="17.928980743307">
        <ele>85.6</ele>
        <time>2015-03-24T17:37:59Z</time>
      </trkpt>
      <trkpt lat="59.195312578245" lon="17.928958363634">
        <ele>85.2</ele>
        <time>2015-03-24T17:38:00Z</time>
      </trkpt>
      <trkpt lat="59.195228004874" lon="17.928934894314">
        <ele>84.6</ele>
        <time>2015-03-24T17:38:01Z</time>
      </trkpt>
      <trkpt lat="59.195056343562" lon="17.92888745276">
        <ele>84.6</ele>
        <time>2015-03-24T17:38:03Z</time>
      </trkpt>
      <trkpt lat="59.194705141952" lon="17.928789468349">
        <ele>84.2</ele>
        <time>2015-03-24T17:38:07Z</time>
      </trkpt>
      <trkpt lat="59.194617132002" lon="17.928769100332">
        <ele>83.8</ele>
        <time>2015-03-24T17:38:08Z</time>
      </trkpt>
      <trkpt lat="59.194528786776" lon="17.92874831322">
        <ele>83.4</ele>
        <time>2015-03-24T17:38:09Z</time>
      </trkpt>
      <trkpt lat="59.194440357731" lon="17.9287248439">
        <ele>83</ele>
        <time>2015-03-24T17:38:10Z</time>
      </trkpt>
      <trkpt lat="59.19434740246" lon="17.928702631865">
        <ele>82.6</ele>
        <time>2015-03-24T17:38:11Z</time>
      </trkpt>
      <trkpt lat="59.194251681162" lon="17.928690981024">
        <ele>82</ele>
        <time>2015-03-24T17:38:12Z</time>
      </trkpt>
      <trkpt lat="59.194151768914" lon="17.92867706707">
        <ele>81.6</ele>
        <time>2015-03-24T17:38:13Z</time>
      </trkpt>
      <trkpt lat="59.194055544702" lon="17.92866365603">
        <ele>81</ele>
        <time>2015-03-24T17:38:14Z</time>
      </trkpt>
      <trkpt lat="59.193960242499" lon="17.928645467307">
        <ele>80.6</ele>
        <time>2015-03-24T17:38:15Z</time>
      </trkpt>
      <trkpt lat="59.193772655577" lon="17.928629457878">
        <ele>80.6</ele>
        <time>2015-03-24T17:38:17Z</time>
      </trkpt>
      <trkpt lat="59.193390692394" lon="17.92866114146">
        <ele>80.2</ele>
        <time>2015-03-24T17:38:21Z</time>
      </trkpt>
      <trkpt lat="59.193297737123" lon="17.928685951884">
        <ele>79.8</ele>
        <time>2015-03-24T17:38:22Z</time>
      </trkpt>
      <trkpt lat="59.193204614214" lon="17.92871562381">
        <ele>79.4</ele>
        <time>2015-03-24T17:38:23Z</time>
      </trkpt>
      <trkpt lat="59.193112413314" lon="17.928749738143">
        <ele>79</ele>
        <time>2015-03-24T17:38:24Z</time>
      </trkpt>
      <trkpt lat="59.193022643165" lon="17.928793491661">
        <ele>78.6</ele>
        <time>2015-03-24T17:38:25Z</time>
      </trkpt>
      <trkpt lat="59.192655180669" lon="17.9289846828">
        <ele>78.6</ele>
        <time>2015-03-24T17:38:29Z</time>
      </trkpt>
      <trkpt lat="59.192136927792" lon="17.929330687632">
        <ele>78.6</ele>
        <time>2015-03-24T17:38:35Z</time>
      </trkpt>
      <trkpt lat="59.191579950537" lon="17.929847850862">
        <ele>78.6</ele>
        <time>2015-03-24T17:38:42Z</time>
      </trkpt>
      <trkpt lat="59.191055411235" lon="17.930476409543">
        <ele>78.6</ele>
        <time>2015-03-24T17:38:49Z</time>
      </trkpt>
      <trkpt lat="59.190984332723" lon="17.930561066733">
        <ele>78.6</ele>
        <time>2015-03-24T17:38:50Z</time>
      </trkpt>
      <trkpt lat="59.190778892354" lon="17.930817552873">
        <ele>78.2</ele>
        <time>2015-03-24T17:38:53Z</time>
      </trkpt>
      <trkpt lat="59.190711501878" lon="17.930887457919">
        <ele>77.8</ele>
        <time>2015-03-24T17:38:54Z</time>
      </trkpt>
      <trkpt lat="59.190646458334" lon="17.930958871707">
        <ele>77.2</ele>
        <time>2015-03-24T17:38:55Z</time>
      </trkpt>
      <trkpt lat="59.190582504437" lon="17.931025507812">
        <ele>76.8</ele>
        <time>2015-03-24T17:38:56Z</time>
      </trkpt>
      <trkpt lat="59.190519640187" lon="17.931091473365">
        <ele>76.4</ele>
        <time>2015-03-24T17:38:57Z</time>
      </trkpt>
      <trkpt lat="59.190391061841" lon="17.931180992057">
        <ele>76.4</ele>
        <time>2015-03-24T17:38:59Z</time>
      </trkpt>
      <trkpt lat="59.190321408252" lon="17.931177639297">
        <ele>76.4</ele>
        <time>2015-03-24T17:39:00Z</time>
      </trkpt>
      <trkpt lat="59.190221244547" lon="17.93100304432">
        <ele>76.4</ele>
        <time>2015-03-24T17:39:02Z</time>
      </trkpt>
      <trkpt lat="59.190125942344" lon="17.930688303975">
        <ele>76.4</ele>
        <time>2015-03-24T17:39:05Z</time>
      </trkpt>
      <trkpt lat="59.190068693967" lon="17.930468614376">
        <ele>76.4</ele>
        <time>2015-03-24T17:39:07Z</time>
      </trkpt>
      <trkpt lat="59.189907426211" lon="17.929772246124">
        <ele>76.4</ele>
        <time>2015-03-24T17:39:13Z</time>
      </trkpt>
      <trkpt lat="59.189773651087" lon="17.929321048447">
        <ele>76.4</ele>
        <time>2015-03-24T17:39:17Z</time>
      </trkpt>
      <trkpt lat="59.189716235072" lon="17.929260866405">
        <ele>76.4</ele>
        <time>2015-03-24T17:39:18Z</time>
      </trkpt>
      <trkpt lat="59.189520014793" lon="17.929192637739">
        <ele>76.4</ele>
        <time>2015-03-24T17:39:21Z</time>
      </trkpt>
      <trkpt lat="59.189112486815" lon="17.929127426557">
        <ele>76.4</ele>
        <time>2015-03-24T17:39:27Z</time>
      </trkpt>
      <trkpt lat="59.188512175137" lon="17.928989544302">
        <ele>76.4</ele>
        <time>2015-03-24T17:39:36Z</time>
      </trkpt>
      <trkpt lat="59.188442186272" lon="17.928966913172">
        <ele>76.4</ele>
        <time>2015-03-24T17:39:37Z</time>
      </trkpt>
      <trkpt lat="59.187924184852" lon="17.92880614833">
        <ele>76.4</ele>
        <time>2015-03-24T17:39:45Z</time>
      </trkpt>
      <trkpt lat="59.187395370781" lon="17.928602971074">
        <ele>76.4</ele>
        <time>2015-03-24T17:39:53Z</time>
      </trkpt>
      <trkpt lat="59.186867981633" lon="17.928386382778">
        <ele>76.4</ele>
        <time>2015-03-24T17:40:01Z</time>
      </trkpt>
      <trkpt lat="59.186807548134" lon="17.92835939306">
        <ele>76.4</ele>
        <time>2015-03-24T17:40:02Z</time>
      </trkpt>
      <trkpt lat="59.186304717953" lon="17.928126711516">
        <ele>76.4</ele>
        <time>2015-03-24T17:40:10Z</time>
      </trkpt>
      <trkpt lat="59.185756960788" lon="17.927865028598">
        <ele>76.4</ele>
        <time>2015-03-24T17:40:19Z</time>
      </trkpt>
      <trkpt lat="59.185214400401" lon="17.927640980411">
        <ele>76.4</ele>
        <time>2015-03-24T17:40:28Z</time>
      </trkpt>
      <trkpt lat="59.185049025514" lon="17.927582223292">
        <ele>76.4</ele>
        <time>2015-03-24T17:40:31Z</time>
      </trkpt>
      <trkpt lat="59.184970403292" lon="17.927442245562">
        <ele>76.4</ele>
        <time>2015-03-24T17:40:33Z</time>
      </trkpt>
      <trkpt lat="59.184927990878" lon="17.927112501616">
        <ele>76.4</ele>
        <time>2015-03-24T17:40:36Z</time>
      </trkpt>
      <trkpt lat="59.184879292039" lon="17.926900439546">
        <ele>76.4</ele>
        <time>2015-03-24T17:40:38Z</time>
      </trkpt>
      <trkpt lat="59.184812739753" lon="17.926686868734">
        <ele>76.4</ele>
        <time>2015-03-24T17:40:40Z</time>
      </trkpt>
      <trkpt lat="59.184768399502" lon="17.926598104413">
        <ele>76.4</ele>
        <time>2015-03-24T17:40:41Z</time>
      </trkpt>
      <trkpt lat="59.184596905828" lon="17.926242292758">
        <ele>76.4</ele>
        <time>2015-03-24T17:40:45Z</time>
      </trkpt>
      <trkpt lat="59.184496071571" lon="17.926088568712">
        <ele>76.4</ele>
        <time>2015-03-24T17:40:47Z</time>
      </trkpt>
      <trkpt lat="59.184213098627" lon="17.925701241113">
        <ele>76.4</ele>
        <time>2015-03-24T17:40:53Z</time>
      </trkpt>
      <trkpt lat="59.183941860343" lon="17.925418687264">
        <ele>76.4</ele>
        <time>2015-03-24T17:40:58Z</time>
      </trkpt>
      <trkpt lat="59.183890646934" lon="17.925338472481">
        <ele>76.4</ele>
        <time>2015-03-24T17:40:59Z</time>
      </trkpt>
      <trkpt lat="59.183782604243" lon="17.925007555069">
        <ele>76.4</ele>
        <time>2015-03-24T17:41:02Z</time>
      </trkpt>
      <trkpt lat="59.183756452715" lon="17.924888867365">
        <ele>76.4</ele>
        <time>2015-03-24T17:41:03Z</time>
      </trkpt>
      <trkpt lat="59.183547240491" lon="17.924074314323">
        <ele>76.4</ele>
        <time>2015-03-24T17:41:10Z</time>
      </trkpt>
      <trkpt lat="59.183371639686" lon="17.923364451212">
        <ele>76.4</ele>
        <time>2015-03-24T17:41:16Z</time>
      </trkpt>
      <trkpt lat="59.183186148239" lon="17.922668250598">
        <ele>76.4</ele>
        <time>2015-03-24T17:41:22Z</time>
      </trkpt>
      <trkpt lat="59.182913317394" lon="17.921619339632">
        <ele>76.4</ele>
        <time>2015-03-24T17:41:31Z</time>
      </trkpt>
      <trkpt lat="59.182637133789" lon="17.920568668467">
        <ele>76.4</ele>
        <time>2015-03-24T17:41:40Z</time>
      </trkpt>
      <trkpt lat="59.182370924645" lon="17.919523361718">
        <ele>76.4</ele>
        <time>2015-03-24T17:41:49Z</time>
      </trkpt>
      <trkpt lat="59.182315771743" lon="17.919323034308">
        <ele>76.4</ele>
        <time>2015-03-24T17:41:51Z</time>
      </trkpt>
      <trkpt lat="59.182262295221" lon="17.919116839568">
        <ele>76.4</ele>
        <time>2015-03-24T17:41:53Z</time>
      </trkpt>
      <trkpt lat="59.182232036562" lon="17.919015334759">
        <ele>76</ele>
        <time>2015-03-24T17:41:54Z</time>
      </trkpt>
      <trkpt lat="59.182201610265" lon="17.91890628624">
        <ele>75.6</ele>
        <time>2015-03-24T17:41:55Z</time>
      </trkpt>
      <trkpt lat="59.18217101633" lon="17.918798662644">
        <ele>75.2</ele>
        <time>2015-03-24T17:41:56Z</time>
      </trkpt>
      <trkpt lat="59.182139248929" lon="17.918694475627">
        <ele>74.8</ele>
        <time>2015-03-24T17:41:57Z</time>
      </trkpt>
      <trkpt lat="59.182108738813" lon="17.91858358309">
        <ele>74.4</ele>
        <time>2015-03-24T17:41:58Z</time>
      </trkpt>
      <trkpt lat="59.182032547342" lon="17.918358612894">
        <ele>74.4</ele>
        <time>2015-03-24T17:42:00Z</time>
      </trkpt>
      <trkpt lat="59.18199667281" lon="17.918227017064">
        <ele>74.4</ele>
        <time>2015-03-24T17:42:01Z</time>
      </trkpt>
      <trkpt lat="59.181906232109" lon="17.917868690839">
        <ele>74.4</ele>
        <time>2015-03-24T17:42:04Z</time>
      </trkpt>
      <trkpt lat="59.181715543884" lon="17.917208783852">
        <ele>73.8</ele>
        <time>2015-03-24T17:42:10Z</time>
      </trkpt>
      <trkpt lat="59.18168318975" lon="17.917095460564">
        <ele>73.4</ele>
        <time>2015-03-24T17:42:11Z</time>
      </trkpt>
      <trkpt lat="59.181652763453" lon="17.916977191955">
        <ele>73</ele>
        <time>2015-03-24T17:42:12Z</time>
      </trkpt>
      <trkpt lat="59.181621331328" lon="17.916843584469">
        <ele>72.6</ele>
        <time>2015-03-24T17:42:13Z</time>
      </trkpt>
      <trkpt lat="59.18158260695" lon="17.916714670847">
        <ele>72.2</ele>
        <time>2015-03-24T17:42:14Z</time>
      </trkpt>
      <trkpt lat="59.181506834574" lon="17.916463381485">
        <ele>72.2</ele>
        <time>2015-03-24T17:42:16Z</time>
      </trkpt>
      <trkpt lat="59.181275997048" lon="17.915546653082">
        <ele>72.2</ele>
        <time>2015-03-24T17:42:23Z</time>
      </trkpt>
      <trkpt lat="59.181138114793" lon="17.914907868483">
        <ele>72.2</ele>
        <time>2015-03-24T17:42:28Z</time>
      </trkpt>
      <trkpt lat="59.181033676319" lon="17.914363966992">
        <ele>71.6</ele>
        <time>2015-03-24T17:42:32Z</time>
      </trkpt>
      <trkpt lat="59.181006267506" lon="17.914226587651">
        <ele>71.2</ele>
        <time>2015-03-24T17:42:33Z</time>
      </trkpt>
      <trkpt lat="59.180978439598" lon="17.914088453939">
        <ele>70.8</ele>
        <time>2015-03-24T17:42:34Z</time>
      </trkpt>
      <trkpt lat="59.180955137916" lon="17.913949733494">
        <ele>70.4</ele>
        <time>2015-03-24T17:42:35Z</time>
      </trkpt>
      <trkpt lat="59.180922364687" lon="17.913815371637">
        <ele>70</ele>
        <time>2015-03-24T17:42:36Z</time>
      </trkpt>
      <trkpt lat="59.180854806573" lon="17.913465846407">
        <ele>70</ele>
        <time>2015-03-24T17:42:39Z</time>
      </trkpt>
      <trkpt lat="59.180874671676" lon="17.913379512837">
        <ele>70</ele>
        <time>2015-03-24T17:42:40Z</time>
      </trkpt>
      <trkpt lat="59.180911971131" lon="17.913307260859">
        <ele>69.6</ele>
        <time>2015-03-24T17:42:41Z</time>
      </trkpt>
      <trkpt lat="59.180964441825" lon="17.913259148753">
        <ele>69.2</ele>
        <time>2015-03-24T17:42:42Z</time>
      </trkpt>
      <trkpt lat="59.181017499252" lon="17.913211204285">
        <ele>68.8</ele>
        <time>2015-03-24T17:42:43Z</time>
      </trkpt>
      <trkpt lat="59.181072316878" lon="17.913152447166">
        <ele>68.4</ele>
        <time>2015-03-24T17:42:44Z</time>
      </trkpt>
      <trkpt lat="59.181130487264" lon="17.913097126626">
        <ele>68</ele>
        <time>2015-03-24T17:42:45Z</time>
      </trkpt>
      <trkpt lat="59.181367611215" lon="17.912853045698">
        <ele>68</ele>
        <time>2015-03-24T17:42:49Z</time>
      </trkpt>
      <trkpt lat="59.181547570608" lon="17.912653556478">
        <ele>68</ele>
        <time>2015-03-24T17:42:52Z</time>
      </trkpt>
      <trkpt lat="59.181749574398" lon="17.912452390878">
        <ele>68</ele>
        <time>2015-03-24T17:42:55Z</time>
      </trkpt>
      <trkpt lat="59.182134052151" lon="17.912013933689">
        <ele>68</ele>
        <time>2015-03-24T17:43:01Z</time>
      </trkpt>
      <trkpt lat="59.182624644758" lon="17.91147992284">
        <ele>68</ele>
        <time>2015-03-24T17:43:09Z</time>
      </trkpt>
      <trkpt lat="59.1829111381" lon="17.911106509195">
        <ele>68</ele>
        <time>2015-03-24T17:43:15Z</time>
      </trkpt>
      <trkpt lat="59.182961094224" lon="17.911061414573">
        <ele>68</ele>
        <time>2015-03-24T17:43:16Z</time>
      </trkpt>
      <trkpt lat="59.183057486074" lon="17.911127631583">
        <ele>68</ele>
        <time>2015-03-24T17:43:18Z</time>
      </trkpt>
      <trkpt lat="59.183141053617" lon="17.911476905356">
        <ele>68</ele>
        <time>2015-03-24T17:43:21Z</time>
      </trkpt>
      <trkpt lat="59.183162427462" lon="17.911590899196">
        <ele>68</ele>
        <time>2015-03-24T17:43:22Z</time>
      </trkpt>
      <trkpt lat="59.183325958331" lon="17.912300091755">
        <ele>68</ele>
        <time>2015-03-24T17:43:28Z</time>
      </trkpt>
      <trkpt lat="59.183504828077" lon="17.912963854416">
        <ele>68</ele>
        <time>2015-03-24T17:43:34Z</time>
      </trkpt>
      <trkpt lat="59.183689481334" lon="17.913715962303">
        <ele>68</ele>
        <time>2015-03-24T17:43:41Z</time>
      </trkpt>
      <trkpt lat="59.183791153781" lon="17.914133045647">
        <ele>68.4</ele>
        <time>2015-03-24T17:43:45Z</time>
      </trkpt>
      <trkpt lat="59.183816802395" lon="17.914241507433">
        <ele>68.8</ele>
        <time>2015-03-24T17:43:46Z</time>
      </trkpt>
      <trkpt lat="59.183849994719" lon="17.914358854033">
        <ele>69.4</ele>
        <time>2015-03-24T17:43:47Z</time>
      </trkpt>
      <trkpt lat="59.183881929758" lon="17.914463963059">
        <ele>69.8</ele>
        <time>2015-03-24T17:43:48Z</time>
      </trkpt>
      <trkpt lat="59.183920821774" lon="17.914565886963">
        <ele>70.2</ele>
        <time>2015-03-24T17:43:49Z</time>
      </trkpt>
      <trkpt lat="59.184075467829" lon="17.91495002944">
        <ele>70.2</ele>
        <time>2015-03-24T17:43:53Z</time>
      </trkpt>
      <trkpt lat="59.184208740039" lon="17.915244988501">
        <ele>70.2</ele>
        <time>2015-03-24T17:43:56Z</time>
      </trkpt>
      <trkpt lat="59.18431175359" lon="17.915415643985">
        <ele>70.2</ele>
        <time>2015-03-24T17:43:58Z</time>
      </trkpt>
      <trkpt lat="59.18437126508" lon="17.915478256778">
        <ele>70.2</ele>
        <time>2015-03-24T17:43:59Z</time>
      </trkpt>
      <trkpt lat="59.18455650507" lon="17.915688391011">
        <ele>71</ele>
        <time>2015-03-24T17:44:02Z</time>
      </trkpt>
      <trkpt lat="59.184625152831" lon="17.91575385365">
        <ele>71.4</ele>
        <time>2015-03-24T17:44:03Z</time>
      </trkpt>
      <trkpt lat="59.184691872755" lon="17.915810934389">
        <ele>71.8</ele>
        <time>2015-03-24T17:44:04Z</time>
      </trkpt>
      <trkpt lat="59.184759598507" lon="17.915863321264">
        <ele>72.2</ele>
        <time>2015-03-24T17:44:05Z</time>
      </trkpt>
      <trkpt lat="59.184967134351" lon="17.915983182434">
        <ele>72.2</ele>
        <time>2015-03-24T17:44:08Z</time>
      </trkpt>
      <trkpt lat="59.185525787986" lon="17.916251487053">
        <ele>72.2</ele>
        <time>2015-03-24T17:44:16Z</time>
      </trkpt>
      <trkpt lat="59.185592424091" lon="17.916289121784">
        <ele>72.2</ele>
        <time>2015-03-24T17:44:17Z</time>
      </trkpt>
      <trkpt lat="59.185993917101" lon="17.916503530786">
        <ele>72.2</ele>
        <time>2015-03-24T17:44:23Z</time>
      </trkpt>
      <trkpt lat="59.186477049817" lon="17.916738643081">
        <ele>72.2</ele>
        <time>2015-03-24T17:44:30Z</time>
      </trkpt>
      <trkpt lat="59.186920871422" lon="17.916976102308">
        <ele>72.2</ele>
        <time>2015-03-24T17:44:37Z</time>
      </trkpt>
      <trkpt lat="59.187159252658" lon="17.917020945473">
        <ele>72.6</ele>
        <time>2015-03-24T17:44:41Z</time>
      </trkpt>
      <trkpt lat="59.187222284546" lon="17.91703125521">
        <ele>73</ele>
        <time>2015-03-24T17:44:42Z</time>
      </trkpt>
      <trkpt lat="59.187283723873" lon="17.917032847771">
        <ele>73.4</ele>
        <time>2015-03-24T17:44:43Z</time>
      </trkpt>
      <trkpt lat="59.187344157372" lon="17.91704382806">
        <ele>73.8</ele>
        <time>2015-03-24T17:44:44Z</time>
      </trkpt>
      <trkpt lat="59.187403417405" lon="17.917058412566">
        <ele>74.2</ele>
        <time>2015-03-24T17:44:45Z</time>
      </trkpt>
      <trkpt lat="59.187469466777" lon="17.917051958503">
        <ele>74.2</ele>
        <time>2015-03-24T17:44:46Z</time>
      </trkpt>
      <trkpt lat="59.18759410563" lon="17.917027986269">
        <ele>74.2</ele>
        <time>2015-03-24T17:44:48Z</time>
      </trkpt>
      <trkpt lat="59.187665770875" lon="17.9170237115">
        <ele>74.6</ele>
        <time>2015-03-24T17:44:49Z</time>
      </trkpt>
      <trkpt lat="59.187731820247" lon="17.917020861654">
        <ele>75</ele>
        <time>2015-03-24T17:44:50Z</time>
      </trkpt>
      <trkpt lat="59.187805497148" lon="17.917007282976">
        <ele>75.8</ele>
        <time>2015-03-24T17:44:51Z</time>
      </trkpt>
      <trkpt lat="59.187869283407" lon="17.916980712353">
        <ele>76.2</ele>
        <time>2015-03-24T17:44:52Z</time>
      </trkpt>
      <trkpt lat="59.187941367747" lon="17.916955482834">
        <ele>76.2</ele>
        <time>2015-03-24T17:44:53Z</time>
      </trkpt>
      <trkpt lat="59.188144628822" lon="17.91685774988">
        <ele>76.8</ele>
        <time>2015-03-24T17:44:56Z</time>
      </trkpt>
      <trkpt lat="59.188207241615" lon="17.91682003133">
        <ele>77.2</ele>
        <time>2015-03-24T17:44:57Z</time>
      </trkpt>
      <trkpt lat="59.188267675114" lon="17.916784492074">
        <ele>77.6</ele>
        <time>2015-03-24T17:44:58Z</time>
      </trkpt>
      <trkpt lat="59.188329282079" lon="17.916747024981">
        <ele>78</ele>
        <time>2015-03-24T17:44:59Z</time>
      </trkpt>
      <trkpt lat="59.188394996175" lon="17.916714587028">
        <ele>78.4</ele>
        <time>2015-03-24T17:45:00Z</time>
      </trkpt>
      <trkpt lat="59.188582918373" lon="17.916564131923">
        <ele>78.4</ele>
        <time>2015-03-24T17:45:03Z</time>
      </trkpt>
      <trkpt lat="59.188641256397" lon="17.916481234932">
        <ele>78.4</ele>
        <time>2015-03-24T17:45:04Z</time>
      </trkpt>
      <trkpt lat="59.188837057581" lon="17.916097008636">
        <ele>79</ele>
        <time>2015-03-24T17:45:08Z</time>
      </trkpt>
      <trkpt lat="59.188896233795" lon="17.915996844931">
        <ele>79.4</ele>
        <time>2015-03-24T17:45:09Z</time>
      </trkpt>
      <trkpt lat="59.188957505484" lon="17.915899447253">
        <ele>79.8</ele>
        <time>2015-03-24T17:45:10Z</time>
      </trkpt>
      <trkpt lat="59.189019699182" lon="17.915793919132">
        <ele>80.2</ele>
        <time>2015-03-24T17:45:11Z</time>
      </trkpt>
      <trkpt lat="59.189078456301" lon="17.915696521454">
        <ele>80.6</ele>
        <time>2015-03-24T17:45:12Z</time>
      </trkpt>
      <trkpt lat="59.189206867009" lon="17.915511868197">
        <ele>80.6</ele>
        <time>2015-03-24T17:45:14Z</time>
      </trkpt>
      <trkpt lat="59.189508783047" lon="17.915060083787">
        <ele>81</ele>
        <time>2015-03-24T17:45:19Z</time>
      </trkpt>
      <trkpt lat="59.189564606501" lon="17.914971570923">
        <ele>81.4</ele>
        <time>2015-03-24T17:45:20Z</time>
      </trkpt>
      <trkpt lat="59.189616322824" lon="17.914888338656">
        <ele>81.8</ele>
        <time>2015-03-24T17:45:21Z</time>
      </trkpt>
      <trkpt lat="59.189669883165" lon="17.914815416126">
        <ele>82.2</ele>
        <time>2015-03-24T17:45:22Z</time>
      </trkpt>
      <trkpt lat="59.189720928936" lon="17.914747355098">
        <ele>82.6</ele>
        <time>2015-03-24T17:45:23Z</time>
      </trkpt>
      <trkpt lat="59.189816817872" lon="17.91459212231">
        <ele>82.6</ele>
        <time>2015-03-24T17:45:25Z</time>
      </trkpt>
      <trkpt lat="59.189870042937" lon="17.914524899472">
        <ele>82.6</ele>
        <time>2015-03-24T17:45:26Z</time>
      </trkpt>
      <trkpt lat="59.190082607921" lon="17.914205800539">
        <ele>82.6</ele>
        <time>2015-03-24T17:45:30Z</time>
      </trkpt>
      <trkpt lat="59.190188471318" lon="17.913999605799">
        <ele>82.6</ele>
        <time>2015-03-24T17:45:32Z</time>
      </trkpt>
      <trkpt lat="59.190294502353" lon="17.913768516816">
        <ele>82.6</ele>
        <time>2015-03-24T17:45:34Z</time>
      </trkpt>
      <trkpt lat="59.190384943054" lon="17.913496105066">
        <ele>82.2</ele>
        <time>2015-03-24T17:45:36Z</time>
      </trkpt>
      <trkpt lat="59.190428445115" lon="17.913353361309">
        <ele>81.8</ele>
        <time>2015-03-24T17:45:37Z</time>
      </trkpt>
      <trkpt lat="59.19046825914" lon="17.913206258964">
        <ele>81.2</ele>
        <time>2015-03-24T17:45:38Z</time>
      </trkpt>
      <trkpt lat="59.190506648242" lon="17.913053959841">
        <ele>80.8</ele>
        <time>2015-03-24T17:45:39Z</time>
      </trkpt>
      <trkpt lat="59.190547971009" lon="17.912903253279">
        <ele>79.8</ele>
        <time>2015-03-24T17:45:40Z</time>
      </trkpt>
      <trkpt lat="59.190584264636" lon="17.912748691043">
        <ele>79.4</ele>
        <time>2015-03-24T17:45:41Z</time>
      </trkpt>
      <trkpt lat="59.190622737557" lon="17.912600415232">
        <ele>78.8</ele>
        <time>2015-03-24T17:45:42Z</time>
      </trkpt>
      <trkpt lat="59.190659617917" lon="17.912460018407">
        <ele>78.4</ele>
        <time>2015-03-24T17:45:43Z</time>
      </trkpt>
      <trkpt lat="59.190725751108" lon="17.912180314404">
        <ele>78.4</ele>
        <time>2015-03-24T17:45:45Z</time>
      </trkpt>
      <trkpt lat="59.191001431799" lon="17.911300885456">
        <ele>78.4</ele>
        <time>2015-03-24T17:45:52Z</time>
      </trkpt>
      <trkpt lat="59.191141828624" lon="17.910946079629">
        <ele>78.4</ele>
        <time>2015-03-24T17:45:55Z</time>
      </trkpt>
      <trkpt lat="59.191264372002" lon="17.910736364491">
        <ele>78.4</ele>
        <time>2015-03-24T17:45:57Z</time>
      </trkpt>
      <trkpt lat="59.191536532295" lon="17.910407542554">
        <ele>78.4</ele>
        <time>2015-03-24T17:46:01Z</time>
      </trkpt>
      <trkpt lat="59.192010780197" lon="17.909968247175">
        <ele>78.4</ele>
        <time>2015-03-24T17:46:08Z</time>
      </trkpt>
      <trkpt lat="59.192351923527" lon="17.909672533743">
        <ele>78</ele>
        <time>2015-03-24T17:46:13Z</time>
      </trkpt>
      <trkpt lat="59.192417721442" lon="17.909616458832">
        <ele>77.6</ele>
        <time>2015-03-24T17:46:14Z</time>
      </trkpt>
      <trkpt lat="59.192488716135" lon="17.909557617894">
        <ele>77.2</ele>
        <time>2015-03-24T17:46:15Z</time>
      </trkpt>
      <trkpt lat="59.192553172946" lon="17.909492658169">
        <ele>76.8</ele>
        <time>2015-03-24T17:46:16Z</time>
      </trkpt>
      <trkpt lat="59.192615534282" lon="17.909430129195">
        <ele>76.4</ele>
        <time>2015-03-24T17:46:17Z</time>
      </trkpt>
      <trkpt lat="59.192955587965" lon="17.908917324553">
        <ele>76.4</ele>
        <time>2015-03-24T17:46:23Z</time>
      </trkpt>
      <trkpt lat="59.193087351433" lon="17.908561931993">
        <ele>76.4</ele>
        <time>2015-03-24T17:46:26Z</time>
      </trkpt>
      <trkpt lat="59.19313537972" lon="17.908297902143">
        <ele>76.4</ele>
        <time>2015-03-24T17:46:28Z</time>
      </trkpt>
      <trkpt lat="59.193161615067" lon="17.907873023632">
        <ele>76.8</ele>
        <time>2015-03-24T17:46:31Z</time>
      </trkpt>
      <trkpt lat="59.193159938687" lon="17.907731788617">
        <ele>77.2</ele>
        <time>2015-03-24T17:46:32Z</time>
      </trkpt>
      <trkpt lat="59.193156418289" lon="17.907596085656">
        <ele>77.6</ele>
        <time>2015-03-24T17:46:33Z</time>
      </trkpt>
      <trkpt lat="59.193152730253" lon="17.907451246424">
        <ele>78</ele>
        <time>2015-03-24T17:46:34Z</time>
      </trkpt>
      <trkpt lat="59.193150215683" lon="17.907311687789">
        <ele>78.4</ele>
        <time>2015-03-24T17:46:35Z</time>
      </trkpt>
      <trkpt lat="59.193140157403" lon="17.906794776016">
        <ele>78.4</ele>
        <time>2015-03-24T17:46:39Z</time>
      </trkpt>
      <trkpt lat="59.193134038616" lon="17.906424882769">
        <ele>78.4</ele>
        <time>2015-03-24T17:46:42Z</time>
      </trkpt>
      <trkpt lat="59.193140157403" lon="17.906207037188">
        <ele>78.4</ele>
        <time>2015-03-24T17:46:44Z</time>
      </trkpt>
      <trkpt lat="59.193145689457" lon="17.90610293399">
        <ele>79</ele>
        <time>2015-03-24T17:46:45Z</time>
      </trkpt>
      <trkpt lat="59.193150383321" lon="17.90599899843">
        <ele>79.4</ele>
        <time>2015-03-24T17:46:46Z</time>
      </trkpt>
      <trkpt lat="59.19315801085" lon="17.905892967395">
        <ele>79.8</ele>
        <time>2015-03-24T17:46:47Z</time>
      </trkpt>
      <trkpt lat="59.193166476569" lon="17.905786014351">
        <ele>80.2</ele>
        <time>2015-03-24T17:46:48Z</time>
      </trkpt>
      <trkpt lat="59.193176702487" lon="17.905674115986">
        <ele>80.6</ele>
        <time>2015-03-24T17:46:49Z</time>
      </trkpt>
      <trkpt lat="59.193199752712" lon="17.905360381469">
        <ele>80.6</ele>
        <time>2015-03-24T17:46:52Z</time>
      </trkpt>
      <trkpt lat="59.193225568964" lon="17.905033068274">
        <ele>81</ele>
        <time>2015-03-24T17:46:55Z</time>
      </trkpt>
      <trkpt lat="59.1932376389" lon="17.90493030618">
        <ele>81.4</ele>
        <time>2015-03-24T17:46:56Z</time>
      </trkpt>
      <trkpt lat="59.193250966121" lon="17.904827376448">
        <ele>81.8</ele>
        <time>2015-03-24T17:46:57Z</time>
      </trkpt>
      <trkpt lat="59.193262533143" lon="17.904732241883">
        <ele>82.2</ele>
        <time>2015-03-24T17:46:58Z</time>
      </trkpt>
      <trkpt lat="59.193271920871" lon="17.904634089834">
        <ele>82.6</ele>
        <time>2015-03-24T17:46:59Z</time>
      </trkpt>
      <trkpt lat="59.19328038659" lon="17.904533926129">
        <ele>82.6</ele>
        <time>2015-03-24T17:47:00Z</time>
      </trkpt>
      <trkpt lat="59.193303772091" lon="17.904173252972">
        <ele>82.6</ele>
        <time>2015-03-24T17:47:04Z</time>
      </trkpt>
      <trkpt lat="59.193295893105" lon="17.904100078985">
        <ele>82.6</ele>
        <time>2015-03-24T17:47:05Z</time>
      </trkpt>
      <trkpt lat="59.193253313053" lon="17.904001340203">
        <ele>83</ele>
        <time>2015-03-24T17:47:07Z</time>
      </trkpt>
      <trkpt lat="59.193231352475" lon="17.903956832314">
        <ele>83.4</ele>
        <time>2015-03-24T17:47:08Z</time>
      </trkpt>
      <trkpt lat="59.193202099644" lon="17.90390184705">
        <ele>84</ele>
        <time>2015-03-24T17:47:09Z</time>
      </trkpt>
      <trkpt lat="59.19317812741" lon="17.903811154892">
        <ele>84.4</ele>
        <time>2015-03-24T17:47:10Z</time>
      </trkpt>
      <trkpt lat="59.193175780478" lon="17.903718199621">
        <ele>84.8</ele>
        <time>2015-03-24T17:47:11Z</time>
      </trkpt>
      <trkpt lat="59.193200255626" lon="17.903620550486">
        <ele>84.8</ele>
        <time>2015-03-24T17:47:12Z</time>
      </trkpt>
      <trkpt lat="59.193242081307" lon="17.903444279129">
        <ele>84.8</ele>
        <time>2015-03-24T17:47:14Z</time>
      </trkpt>
      <trkpt lat="59.193266388817" lon="17.903261888985">
        <ele>84.8</ele>
        <time>2015-03-24T17:47:16Z</time>
      </trkpt>
      <trkpt lat="59.193269657758" lon="17.90317094537">
        <ele>84.8</ele>
        <time>2015-03-24T17:47:17Z</time>
      </trkpt>
      <trkpt lat="59.193324978298" lon="17.902587481311">
        <ele>85.2</ele>
        <time>2015-03-24T17:47:23Z</time>
      </trkpt>
      <trkpt lat="59.19333654532" lon="17.902485054493">
        <ele>85.6</ele>
        <time>2015-03-24T17:47:24Z</time>
      </trkpt>
      <trkpt lat="59.193344843401" lon="17.90238137039">
        <ele>86</ele>
        <time>2015-03-24T17:47:25Z</time>
      </trkpt>
      <trkpt lat="59.193340652451" lon="17.902273411518">
        <ele>86.4</ele>
        <time>2015-03-24T17:47:26Z</time>
      </trkpt>
      <trkpt lat="59.193301257521" lon="17.902186155939">
        <ele>86.8</ele>
        <time>2015-03-24T17:47:27Z</time>
      </trkpt>
      <trkpt lat="59.193260689125" lon="17.902130416304">
        <ele>86.8</ele>
        <time>2015-03-24T17:47:28Z</time>
      </trkpt>
      <trkpt lat="59.193189191518" lon="17.901988426918">
        <ele>86.8</ele>
        <time>2015-03-24T17:47:30Z</time>
      </trkpt>
      <trkpt lat="59.193115766074" lon="17.90186001621">
        <ele>86.8</ele>
        <time>2015-03-24T17:47:32Z</time>
      </trkpt>
      <trkpt lat="59.193072012556" lon="17.901806791145">
        <ele>87.2</ele>
        <time>2015-03-24T17:47:33Z</time>
      </trkpt>
      <trkpt lat="59.193023565174" lon="17.901758679039">
        <ele>87.6</ele>
        <time>2015-03-24T17:47:34Z</time>
      </trkpt>
      <trkpt lat="59.19298953466" lon="17.901719703204">
        <ele>88</ele>
        <time>2015-03-24T17:47:35Z</time>
      </trkpt>
      <trkpt lat="59.192952989576" lon="17.901683661034">
        <ele>88.6</ele>
        <time>2015-03-24T17:47:36Z</time>
      </trkpt>
      <trkpt lat="59.192914600474" lon="17.901637728222">
        <ele>89</ele>
        <time>2015-03-24T17:47:37Z</time>
      </trkpt>
      <trkpt lat="59.192871182232" lon="17.901605960821">
        <ele>89</ele>
        <time>2015-03-24T17:47:38Z</time>
      </trkpt>
      <trkpt lat="59.192791135087" lon="17.90155826781">
        <ele>89</ele>
        <time>2015-03-24T17:47:40Z</time>
      </trkpt>
      <trkpt lat="59.192746627198" lon="17.901542509838">
        <ele>89</ele>
        <time>2015-03-24T17:47:41Z</time>
      </trkpt>
      <trkpt lat="59.192652414642" lon="17.901497163759">
        <ele>89</ele>
        <time>2015-03-24T17:47:43Z</time>
      </trkpt>
      <trkpt lat="59.192549904005" lon="17.901370597069">
        <ele>89</ele>
        <time>2015-03-24T17:47:46Z</time>
      </trkpt>
      <trkpt lat="59.192464073349" lon="17.90136883687">
        <ele>89</ele>
        <time>2015-03-24T17:47:48Z</time>
      </trkpt>
      <trkpt lat="59.192422666763" lon="17.901417200433">
        <ele>89</ele>
        <time>2015-03-24T17:47:49Z</time>
      </trkpt>
      <trkpt lat="59.192132569204" lon="17.901680140636">
        <ele>89</ele>
        <time>2015-03-24T17:47:55Z</time>
      </trkpt>
      <trkpt lat="59.191919501306" lon="17.901869068662">
        <ele>89</ele>
        <time>2015-03-24T17:47:59Z</time>
      </trkpt>
      <trkpt lat="59.191812632081" lon="17.902010303677">
        <ele>89</ele>
        <time>2015-03-24T17:48:01Z</time>
      </trkpt>
      <trkpt lat="59.191695788395" lon="17.902129661933">
        <ele>89</ele>
        <time>2015-03-24T17:48:03Z</time>
      </trkpt>
      <trkpt lat="59.191516667192" lon="17.902282715427">
        <ele>89</ele>
        <time>2015-03-24T17:48:06Z</time>
      </trkpt>
      <trkpt lat="59.191169237437" lon="17.90262109273">
        <ele>89</ele>
        <time>2015-03-24T17:48:12Z</time>
      </trkpt>
      <trkpt lat="59.190746119125" lon="17.903004648474">
        <ele>89</ele>
        <time>2015-03-24T17:48:20Z</time>
      </trkpt>
      <trkpt lat="59.190648302352" lon="17.903098525754">
        <ele>89</ele>
        <time>2015-03-24T17:48:22Z</time>
      </trkpt>
      <trkpt lat="59.190559538031" lon="17.903192067758">
        <ele>89</ele>
        <time>2015-03-24T17:48:24Z</time>
      </trkpt>
      <trkpt lat="59.190512431753" lon="17.903225511539">
        <ele>89</ele>
        <time>2015-03-24T17:48:25Z</time>
      </trkpt>
      <trkpt lat="59.190343536468" lon="17.903140267616">
        <ele>89</ele>
        <time>2015-03-24T17:48:29Z</time>
      </trkpt>
      <trkpt lat="59.190250162102" lon="17.902771883111">
        <ele>89</ele>
        <time>2015-03-24T17:48:33Z</time>
      </trkpt>
      <trkpt lat="59.19022518404" lon="17.902550517132">
        <ele>89</ele>
        <time>2015-03-24T17:48:35Z</time>
      </trkpt>
      <trkpt lat="59.190180424694" lon="17.902360918554">
        <ele>89.4</ele>
        <time>2015-03-24T17:48:37Z</time>
      </trkpt>
      <trkpt lat="59.19014639418" lon="17.902265113437">
        <ele>89.8</ele>
        <time>2015-03-24T17:48:38Z</time>
      </trkpt>
      <trkpt lat="59.190110854924" lon="17.902173415451">
        <ele>90.2</ele>
        <time>2015-03-24T17:48:39Z</time>
      </trkpt>
      <trkpt lat="59.190074728935" lon="17.902081968922">
        <ele>90.6</ele>
        <time>2015-03-24T17:48:40Z</time>
      </trkpt>
      <trkpt lat="59.190040698421" lon="17.901987924004">
        <ele>91</ele>
        <time>2015-03-24T17:48:41Z</time>
      </trkpt>
      <trkpt lat="59.189863672693" lon="17.901559608914">
        <ele>91</ele>
        <time>2015-03-24T17:48:46Z</time>
      </trkpt>
      <trkpt lat="59.18967952235" lon="17.901275294866">
        <ele>91</ele>
        <time>2015-03-24T17:48:50Z</time>
      </trkpt>
      <trkpt lat="59.189629985321" lon="17.90121209534">
        <ele>91</ele>
        <time>2015-03-24T17:48:51Z</time>
      </trkpt>
      <trkpt lat="59.189475255447" lon="17.900910095483">
        <ele>91</ele>
        <time>2015-03-24T17:48:55Z</time>
      </trkpt>
      <trkpt lat="59.189434351775" lon="17.900831221804">
        <ele>91</ele>
        <time>2015-03-24T17:48:56Z</time>
      </trkpt>
      <trkpt lat="59.189189851752" lon="17.900406175655">
        <ele>91</ele>
        <time>2015-03-24T17:49:02Z</time>
      </trkpt>
      <trkpt lat="59.188987596505" lon="17.899895215031">
        <ele>91</ele>
        <time>2015-03-24T17:49:08Z</time>
      </trkpt>
      <trkpt lat="59.188959014226" lon="17.89980980347">
        <ele>91</ele>
        <time>2015-03-24T17:49:09Z</time>
      </trkpt>
      <trkpt lat="59.188878296529" lon="17.899412333772">
        <ele>91</ele>
        <time>2015-03-24T17:49:13Z</time>
      </trkpt>
      <trkpt lat="59.188860862177" lon="17.899304123443">
        <ele>91</ele>
        <time>2015-03-24T17:49:14Z</time>
      </trkpt>
      <trkpt lat="59.18883127407" lon="17.899080326713">
        <ele>91</ele>
        <time>2015-03-24T17:49:16Z</time>
      </trkpt>
      <trkpt lat="59.188834123916" lon="17.89874865493">
        <ele>91</ele>
        <time>2015-03-24T17:49:19Z</time>
      </trkpt>
      <trkpt lat="59.18884887606" lon="17.898539610344">
        <ele>91</ele>
        <time>2015-03-24T17:49:21Z</time>
      </trkpt>
      <trkpt lat="59.188850133345" lon="17.898323022048">
        <ele>91</ele>
        <time>2015-03-24T17:49:23Z</time>
      </trkpt>
      <trkpt lat="59.188832279898" lon="17.898217745384">
        <ele>91</ele>
        <time>2015-03-24T17:49:24Z</time>
      </trkpt>
      <trkpt lat="59.18877343896" lon="17.897802422239">
        <ele>91</ele>
        <time>2015-03-24T17:49:28Z</time>
      </trkpt>
      <trkpt lat="59.188783581059" lon="17.897691278245">
        <ele>91</ele>
        <time>2015-03-24T17:49:29Z</time>
      </trkpt>
      <trkpt lat="59.188788442561" lon="17.897493381586">
        <ele>91</ele>
        <time>2015-03-24T17:49:31Z</time>
      </trkpt>
      <trkpt lat="59.188737732066" lon="17.897134636266">
        <ele>91</ele>
        <time>2015-03-24T17:49:34Z</time>
      </trkpt>
      <trkpt lat="59.18866195969" lon="17.896865074362">
        <ele>91</ele>
        <time>2015-03-24T17:49:37Z</time>
      </trkpt>
      <trkpt lat="59.188611165376" lon="17.896675727241">
        <ele>91</ele>
        <time>2015-03-24T17:49:39Z</time>
      </trkpt>
      <trkpt lat="59.188581074355" lon="17.896585370359">
        <ele>91.4</ele>
        <time>2015-03-24T17:49:40Z</time>
      </trkpt>
      <trkpt lat="59.188554587551" lon="17.896491576898">
        <ele>91.8</ele>
        <time>2015-03-24T17:49:41Z</time>
      </trkpt>
      <trkpt lat="59.188525502358" lon="17.89640591388">
        <ele>92.2</ele>
        <time>2015-03-24T17:49:42Z</time>
      </trkpt>
      <trkpt lat="59.188493902595" lon="17.896326453468">
        <ele>92.6</ele>
        <time>2015-03-24T17:49:43Z</time>
      </trkpt>
      <trkpt lat="59.188456770778" lon="17.896243724115">
        <ele>93</ele>
        <time>2015-03-24T17:49:44Z</time>
      </trkpt>
      <trkpt lat="59.188415867106" lon="17.896171891232">
        <ele>93</ele>
        <time>2015-03-24T17:49:45Z</time>
      </trkpt>
      <trkpt lat="59.188337412522" lon="17.896054628451">
        <ele>93</ele>
        <time>2015-03-24T17:49:47Z</time>
      </trkpt>
      <trkpt lat="59.188206990158" lon="17.895963684836">
        <ele>93</ele>
        <time>2015-03-24T17:49:50Z</time>
      </trkpt>
      <trkpt lat="59.187994844269" lon="17.895971396184">
        <ele>93</ele>
        <time>2015-03-24T17:49:54Z</time>
      </trkpt>
      <trkpt lat="59.18766702816" lon="17.895910459771">
        <ele>93</ele>
        <time>2015-03-24T17:50:00Z</time>
      </trkpt>
      <trkpt lat="59.18761506038" lon="17.895920685689">
        <ele>93</ele>
        <time>2015-03-24T17:50:01Z</time>
      </trkpt>
      <trkpt lat="59.187395203143" lon="17.895978688437">
        <ele>93</ele>
        <time>2015-03-24T17:50:05Z</time>
      </trkpt>
      <trkpt lat="59.187287747185" lon="17.895991596563">
        <ele>93</ele>
        <time>2015-03-24T17:50:07Z</time>
      </trkpt>
      <trkpt lat="59.18708197154" lon="17.896013221865">
        <ele>93</ele>
        <time>2015-03-24T17:50:11Z</time>
      </trkpt>
      <trkpt lat="59.186937132308" lon="17.896048090569">
        <ele>93</ele>
        <time>2015-03-24T17:50:14Z</time>
      </trkpt>
      <trkpt lat="59.186816181491" lon="17.895932420349">
        <ele>93</ele>
        <time>2015-03-24T17:50:16Z</time>
      </trkpt>
      <trkpt lat="59.186659020866" lon="17.895566298957">
        <ele>93</ele>
        <time>2015-03-24T17:50:20Z</time>
      </trkpt>
      <trkpt lat="59.186618117194" lon="17.895480384482">
        <ele>93</ele>
        <time>2015-03-24T17:50:21Z</time>
      </trkpt>
      <trkpt lat="59.186472020677" lon="17.895209732931">
        <ele>93</ele>
        <time>2015-03-24T17:50:24Z</time>
      </trkpt>
      <trkpt lat="59.186173457399" lon="17.894726013482">
        <ele>93</ele>
        <time>2015-03-24T17:50:30Z</time>
      </trkpt>
      <trkpt lat="59.185931388127" lon="17.894501797657">
        <ele>93</ele>
        <time>2015-03-24T17:50:34Z</time>
      </trkpt>
      <trkpt lat="59.185868942972" lon="17.894514370507">
        <ele>93</ele>
        <time>2015-03-24T17:50:35Z</time>
      </trkpt>
      <trkpt lat="59.185746064318" lon="17.894608331606">
        <ele>93</ele>
        <time>2015-03-24T17:50:37Z</time>
      </trkpt>
      <trkpt lat="59.185577085214" lon="17.894730120613">
        <ele>93</ele>
        <time>2015-03-24T17:50:40Z</time>
      </trkpt>
      <trkpt lat="59.185453284551" lon="17.894547227555">
        <ele>93</ele>
        <time>2015-03-24T17:50:43Z</time>
      </trkpt>
      <trkpt lat="59.185306182206" lon="17.894107513081">
        <ele>93</ele>
        <time>2015-03-24T17:50:47Z</time>
      </trkpt>
      <trkpt lat="59.185252454227" lon="17.894038697682">
        <ele>93</ele>
        <time>2015-03-24T17:50:48Z</time>
      </trkpt>
      <trkpt lat="59.185119433474" lon="17.893943982212">
        <ele>92.6</ele>
        <time>2015-03-24T17:50:50Z</time>
      </trkpt>
      <trkpt lat="59.185065118762" lon="17.893909197327">
        <ele>92.2</ele>
        <time>2015-03-24T17:50:51Z</time>
      </trkpt>
      <trkpt lat="59.185000578132" lon="17.893886063283">
        <ele>91.8</ele>
        <time>2015-03-24T17:50:52Z</time>
      </trkpt>
      <trkpt lat="59.184939054986" lon="17.893872819881">
        <ele>91.4</ele>
        <time>2015-03-24T17:50:53Z</time>
      </trkpt>
      <trkpt lat="59.184876526012" lon="17.89385949266">
        <ele>91</ele>
        <time>2015-03-24T17:50:54Z</time>
      </trkpt>
      <trkpt lat="59.184633031817" lon="17.893755138005">
        <ele>91</ele>
        <time>2015-03-24T17:50:58Z</time>
      </trkpt>
      <trkpt lat="59.184574442336" lon="17.893699314551">
        <ele>91</ele>
        <time>2015-03-24T17:50:59Z</time>
      </trkpt>
      <trkpt lat="59.184524234755" lon="17.893643072002">
        <ele>90.6</ele>
        <time>2015-03-24T17:51:00Z</time>
      </trkpt>
      <trkpt lat="59.184473356622" lon="17.893570568567">
        <ele>89.6</ele>
        <time>2015-03-24T17:51:01Z</time>
      </trkpt>
      <trkpt lat="59.184421975575" lon="17.893503010453">
        <ele>89.2</ele>
        <time>2015-03-24T17:51:02Z</time>
      </trkpt>
      <trkpt lat="59.184369085786" lon="17.893424723507">
        <ele>88.8</ele>
        <time>2015-03-24T17:51:03Z</time>
      </trkpt>
      <trkpt lat="59.184250314263" lon="17.893267227606">
        <ele>88.8</ele>
        <time>2015-03-24T17:51:05Z</time>
      </trkpt>
      <trkpt lat="59.184190886592" lon="17.893204363356">
        <ele>88.8</ele>
        <time>2015-03-24T17:51:06Z</time>
      </trkpt>
      <trkpt lat="59.183964910568" lon="17.892997162788">
        <ele>88.8</ele>
        <time>2015-03-24T17:51:10Z</time>
      </trkpt>
      <trkpt lat="59.183902213956" lon="17.892760038837">
        <ele>88.8</ele>
        <time>2015-03-24T17:51:12Z</time>
      </trkpt>
      <trkpt lat="59.183884109052" lon="17.892400622965">
        <ele>88.8</ele>
        <time>2015-03-24T17:51:15Z</time>
      </trkpt>
      <trkpt lat="59.183888635278" lon="17.892293334645">
        <ele>88.8</ele>
        <time>2015-03-24T17:51:16Z</time>
      </trkpt>
      <trkpt lat="59.183905566716" lon="17.891650442915">
        <ele>88.8</ele>
        <time>2015-03-24T17:51:21Z</time>
      </trkpt>
      <trkpt lat="59.183918810118" lon="17.891400494657">
        <ele>88.8</ele>
        <time>2015-03-24T17:51:23Z</time>
      </trkpt>
      <trkpt lat="59.183905818173" lon="17.891039234767">
        <ele>88.8</ele>
        <time>2015-03-24T17:51:26Z</time>
      </trkpt>
      <trkpt lat="59.18388930583" lon="17.890933622827">
        <ele>88.8</ele>
        <time>2015-03-24T17:51:27Z</time>
      </trkpt>
      <trkpt lat="59.183846809597" lon="17.890392990277">
        <ele>88.8</ele>
        <time>2015-03-24T17:51:31Z</time>
      </trkpt>
      <trkpt lat="59.183842953923" lon="17.890278325885">
        <ele>89.4</ele>
        <time>2015-03-24T17:51:32Z</time>
      </trkpt>
      <trkpt lat="59.183849575624" lon="17.890150669548">
        <ele>89.8</ele>
        <time>2015-03-24T17:51:33Z</time>
      </trkpt>
      <trkpt lat="59.183860472094" lon="17.890017984071">
        <ele>90.4</ele>
        <time>2015-03-24T17:51:34Z</time>
      </trkpt>
      <trkpt lat="59.183852593108" lon="17.889865349672">
        <ele>90.8</ele>
        <time>2015-03-24T17:51:35Z</time>
      </trkpt>
      <trkpt lat="59.183843289199" lon="17.889741632828">
        <ele>91.4</ele>
        <time>2015-03-24T17:51:36Z</time>
      </trkpt>
      <trkpt lat="59.183826860675" lon="17.889625124418">
        <ele>91.8</ele>
        <time>2015-03-24T17:51:37Z</time>
      </trkpt>
      <trkpt lat="59.183808671952" lon="17.889515237709">
        <ele>92.2</ele>
        <time>2015-03-24T17:51:38Z</time>
      </trkpt>
      <trkpt lat="59.183785118813" lon="17.889395125082">
        <ele>92.8</ele>
        <time>2015-03-24T17:51:39Z</time>
      </trkpt>
      <trkpt lat="59.183761817131" lon="17.889272162609">
        <ele>93.2</ele>
        <time>2015-03-24T17:51:40Z</time>
      </trkpt>
      <trkpt lat="59.183732983395" lon="17.889146601747">
        <ele>93.6</ele>
        <time>2015-03-24T17:51:41Z</time>
      </trkpt>
      <trkpt lat="59.183678836321" lon="17.88893847917">
        <ele>93.6</ele>
        <time>2015-03-24T17:51:43Z</time>
      </trkpt>
      <trkpt lat="59.183656875743" lon="17.888853235247">
        <ele>94.2</ele>
        <time>2015-03-24T17:51:44Z</time>
      </trkpt>
      <trkpt lat="59.183633490242" lon="17.888768661876">
        <ele>94.6</ele>
        <time>2015-03-24T17:51:45Z</time>
      </trkpt>
      <trkpt lat="59.183614714786" lon="17.888682998858">
        <ele>95</ele>
        <time>2015-03-24T17:51:46Z</time>
      </trkpt>
      <trkpt lat="59.183601471384" lon="17.888591719967">
        <ele>95.4</ele>
        <time>2015-03-24T17:51:47Z</time>
      </trkpt>
      <trkpt lat="59.183588982353" lon="17.888502955646">
        <ele>96</ele>
        <time>2015-03-24T17:51:48Z</time>
      </trkpt>
      <trkpt lat="59.183570039259" lon="17.888292318499">
        <ele>96</ele>
        <time>2015-03-24T17:51:50Z</time>
      </trkpt>
      <trkpt lat="59.183567357051" lon="17.888188718215">
        <ele>96</ele>
        <time>2015-03-24T17:51:51Z</time>
      </trkpt>
      <trkpt lat="59.18356827906" lon="17.887862410848">
        <ele>96</ele>
        <time>2015-03-24T17:51:54Z</time>
      </trkpt>
      <trkpt lat="59.183541540799" lon="17.887633584978">
        <ele>96</ele>
        <time>2015-03-24T17:51:56Z</time>
      </trkpt>
      <trkpt lat="59.183510946864" lon="17.887524368821">
        <ele>96</ele>
        <time>2015-03-24T17:51:57Z</time>
      </trkpt>
      <trkpt lat="59.183411369892" lon="17.887040733191">
        <ele>96</ele>
        <time>2015-03-24T17:52:01Z</time>
      </trkpt>
      <trkpt lat="59.183376165912" lon="17.886880974177">
        <ele>95.4</ele>
        <time>2015-03-24T17:52:02Z</time>
      </trkpt>
      <trkpt lat="59.183339872285" lon="17.886712833263">
        <ele>94.8</ele>
        <time>2015-03-24T17:52:03Z</time>
      </trkpt>
      <trkpt lat="59.183303243382" lon="17.886540249942">
        <ele>94.2</ele>
        <time>2015-03-24T17:52:04Z</time>
      </trkpt>
      <trkpt lat="59.183270386334" lon="17.886363056576">
        <ele>93.6</ele>
        <time>2015-03-24T17:52:05Z</time>
      </trkpt>
      <trkpt lat="59.18323970858" lon="17.886194999481">
        <ele>93</ele>
        <time>2015-03-24T17:52:06Z</time>
      </trkpt>
      <trkpt lat="59.183209198464" lon="17.886032055345">
        <ele>92.2</ele>
        <time>2015-03-24T17:52:07Z</time>
      </trkpt>
      <trkpt lat="59.183178855986" lon="17.885873721254">
        <ele>91.6</ele>
        <time>2015-03-24T17:52:08Z</time>
      </trkpt>
      <trkpt lat="59.183148932603" lon="17.885722008864">
        <ele>91</ele>
        <time>2015-03-24T17:52:09Z</time>
      </trkpt>
      <trkpt lat="59.18310140723" lon="17.885423529405">
        <ele>90.4</ele>
        <time>2015-03-24T17:52:11Z</time>
      </trkpt>
      <trkpt lat="59.183092438597" lon="17.885271817015">
        <ele>90</ele>
        <time>2015-03-24T17:52:12Z</time>
      </trkpt>
      <trkpt lat="59.183093612063" lon="17.885116165132">
        <ele>89.4</ele>
        <time>2015-03-24T17:52:13Z</time>
      </trkpt>
      <trkpt lat="59.183096964823" lon="17.884972667004">
        <ele>89</ele>
        <time>2015-03-24T17:52:14Z</time>
      </trkpt>
      <trkpt lat="59.183102496877" lon="17.884829587971">
        <ele>88.4</ele>
        <time>2015-03-24T17:52:15Z</time>
      </trkpt>
      <trkpt lat="59.183110292044" lon="17.884690783707">
        <ele>88.4</ele>
        <time>2015-03-24T17:52:16Z</time>
      </trkpt>
      <trkpt lat="59.183124289817" lon="17.884556086574">
        <ele>88.4</ele>
        <time>2015-03-24T17:52:17Z</time>
      </trkpt>
      <trkpt lat="59.183182544022" lon="17.884305048669">
        <ele>88.4</ele>
        <time>2015-03-24T17:52:19Z</time>
      </trkpt>
      <trkpt lat="59.18326401609" lon="17.884070942202">
        <ele>88.4</ele>
        <time>2015-03-24T17:52:21Z</time>
      </trkpt>
      <trkpt lat="59.183431737909" lon="17.883681100033">
        <ele>88.4</ele>
        <time>2015-03-24T17:52:25Z</time>
      </trkpt>
      <trkpt lat="59.18365209806" lon="17.883275583711">
        <ele>88.4</ele>
        <time>2015-03-24T17:52:30Z</time>
      </trkpt>
      <trkpt lat="59.183732731938" lon="17.883111633747">
        <ele>88</ele>
        <time>2015-03-24T17:52:32Z</time>
      </trkpt>
      <trkpt lat="59.183769193203" lon="17.883027395652">
        <ele>87.6</ele>
        <time>2015-03-24T17:52:33Z</time>
      </trkpt>
      <trkpt lat="59.183803642812" lon="17.882948857249">
        <ele>87.2</ele>
        <time>2015-03-24T17:52:34Z</time>
      </trkpt>
      <trkpt lat="59.183838930611" lon="17.882877862556">
        <ele>86.8</ele>
        <time>2015-03-24T17:52:35Z</time>
      </trkpt>
      <trkpt lat="59.183878576998" lon="17.88280460475">
        <ele>86.4</ele>
        <time>2015-03-24T17:52:36Z</time>
      </trkpt>
      <trkpt lat="59.183958791781" lon="17.882657167129">
        <ele>86.4</ele>
        <time>2015-03-24T17:52:38Z</time>
      </trkpt>
      <trkpt lat="59.183986954965" lon="17.882572090844">
        <ele>86.4</ele>
        <time>2015-03-24T17:52:39Z</time>
      </trkpt>
      <trkpt lat="59.184062894979" lon="17.882308228632">
        <ele>86.4</ele>
        <time>2015-03-24T17:52:42Z</time>
      </trkpt>
      <trkpt lat="59.184069349042" lon="17.882114439104">
        <ele>86.4</ele>
        <time>2015-03-24T17:52:44Z</time>
      </trkpt>
      <trkpt lat="59.183970442622" lon="17.88174261802">
        <ele>86.4</ele>
        <time>2015-03-24T17:52:48Z</time>
      </trkpt>
      <trkpt lat="59.183929790407" lon="17.881656200631">
        <ele>86.4</ele>
        <time>2015-03-24T17:52:49Z</time>
      </trkpt>
      <trkpt lat="59.183890814572" lon="17.881568023043">
        <ele>86.4</ele>
        <time>2015-03-24T17:52:50Z</time>
      </trkpt>
      <trkpt lat="59.183794087446" lon="17.881331653463">
        <ele>86</ele>
        <time>2015-03-24T17:52:52Z</time>
      </trkpt>
      <trkpt lat="59.183744969512" lon="17.881211373198">
        <ele>85.4</ele>
        <time>2015-03-24T17:52:53Z</time>
      </trkpt>
      <trkpt lat="59.1836990367" lon="17.881093523684">
        <ele>85</ele>
        <time>2015-03-24T17:52:54Z</time>
      </trkpt>
      <trkpt lat="59.183656205191" lon="17.880973411057">
        <ele>84.6</ele>
        <time>2015-03-24T17:52:55Z</time>
      </trkpt>
      <trkpt lat="59.18361605589" lon="17.880855813">
        <ele>84.2</ele>
        <time>2015-03-24T17:52:56Z</time>
      </trkpt>
      <trkpt lat="59.183576912417" lon="17.880738801676">
        <ele>84.2</ele>
        <time>2015-03-24T17:52:57Z</time>
      </trkpt>
      <trkpt lat="59.18354061879" lon="17.880619359601">
        <ele>83.8</ele>
        <time>2015-03-24T17:52:58Z</time>
      </trkpt>
      <trkpt lat="59.183503403154" lon="17.880496480947">
        <ele>83.2</ele>
        <time>2015-03-24T17:52:59Z</time>
      </trkpt>
      <trkpt lat="59.183469288821" lon="17.880387600066">
        <ele>82.8</ele>
        <time>2015-03-24T17:53:00Z</time>
      </trkpt>
      <trkpt lat="59.183427295502" lon="17.880291794949">
        <ele>82.4</ele>
        <time>2015-03-24T17:53:01Z</time>
      </trkpt>
      <trkpt lat="59.183375160084" lon="17.880214932926">
        <ele>82</ele>
        <time>2015-03-24T17:53:02Z</time>
      </trkpt>
      <trkpt lat="59.183064023956" lon="17.879945957755">
        <ele>82</ele>
        <time>2015-03-24T17:53:07Z</time>
      </trkpt>
      <trkpt lat="59.182825223625" lon="17.879723250672">
        <ele>81.6</ele>
        <time>2015-03-24T17:53:11Z</time>
      </trkpt>
      <trkpt lat="59.182768813438" lon="17.879642868251">
        <ele>81.2</ele>
        <time>2015-03-24T17:53:12Z</time>
      </trkpt>
      <trkpt lat="59.182718438219" lon="17.879550918808">
        <ele>80.6</ele>
        <time>2015-03-24T17:53:13Z</time>
      </trkpt>
      <trkpt lat="59.182669404104" lon="17.879444887773">
        <ele>80.2</ele>
        <time>2015-03-24T17:53:14Z</time>
      </trkpt>
      <trkpt lat="59.182625566767" lon="17.879336006892">
        <ele>79.8</ele>
        <time>2015-03-24T17:53:15Z</time>
      </trkpt>
      <trkpt lat="59.182555577902" lon="17.879112042524">
        <ele>79.8</ele>
        <time>2015-03-24T17:53:17Z</time>
      </trkpt>
      <trkpt lat="59.182428256841" lon="17.878393965151">
        <ele>79.8</ele>
        <time>2015-03-24T17:53:23Z</time>
      </trkpt>
      <trkpt lat="59.182365979324" lon="17.877705224428">
        <ele>79.8</ele>
        <time>2015-03-24T17:53:29Z</time>
      </trkpt>
      <trkpt lat="59.1823579327" lon="17.877606569465">
        <ele>79.8</ele>
        <time>2015-03-24T17:53:30Z</time>
      </trkpt>
      <trkpt lat="59.182335469208" lon="17.87734798785">
        <ele>79.8</ele>
        <time>2015-03-24T17:53:33Z</time>
      </trkpt>
      <trkpt lat="59.182306216377" lon="17.876941717157">
        <ele>79.8</ele>
        <time>2015-03-24T17:53:37Z</time>
      </trkpt>
      <trkpt lat="59.182256930805" lon="17.876598310714">
        <ele>79.4</ele>
        <time>2015-03-24T17:53:40Z</time>
      </trkpt>
      <trkpt lat="59.182242430118" lon="17.876479539191">
        <ele>79</ele>
        <time>2015-03-24T17:53:41Z</time>
      </trkpt>
      <trkpt lat="59.182224911947" lon="17.876361605858">
        <ele>78.6</ele>
        <time>2015-03-24T17:53:42Z</time>
      </trkpt>
      <trkpt lat="59.182208986337" lon="17.876242163783">
        <ele>78.2</ele>
        <time>2015-03-24T17:53:43Z</time>
      </trkpt>
      <trkpt lat="59.182194820926" lon="17.876118782215">
        <ele>77.8</ele>
        <time>2015-03-24T17:53:44Z</time>
      </trkpt>
      <trkpt lat="59.182159700765" lon="17.875630285083">
        <ele>77.8</ele>
        <time>2015-03-24T17:53:48Z</time>
      </trkpt>
      <trkpt lat="59.182133130142" lon="17.875131562033">
        <ele>77.8</ele>
        <time>2015-03-24T17:53:52Z</time>
      </trkpt>
      <trkpt lat="59.18210563751" lon="17.87500859956">
        <ele>77.8</ele>
        <time>2015-03-24T17:53:53Z</time>
      </trkpt>
      <trkpt lat="59.182082252009" lon="17.874880021214">
        <ele>77.8</ele>
        <time>2015-03-24T17:53:54Z</time>
      </trkpt>
      <trkpt lat="59.182070601168" lon="17.874602747962">
        <ele>77.4</ele>
        <time>2015-03-24T17:53:56Z</time>
      </trkpt>
      <trkpt lat="59.182091555918" lon="17.874477941471">
        <ele>76.8</ele>
        <time>2015-03-24T17:53:57Z</time>
      </trkpt>
      <trkpt lat="59.182129861201" lon="17.874380459974">
        <ele>76.4</ele>
        <time>2015-03-24T17:53:58Z</time>
      </trkpt>
      <trkpt lat="59.182183253904" lon="17.874315919344">
        <ele>76</ele>
        <time>2015-03-24T17:53:59Z</time>
      </trkpt>
      <trkpt lat="59.182238574444" lon="17.874272836378">
        <ele>75.6</ele>
        <time>2015-03-24T17:54:00Z</time>
      </trkpt>
      <trkpt lat="59.182287692378" lon="17.87420812811">
        <ele>75.6</ele>
        <time>2015-03-24T17:54:01Z</time>
      </trkpt>
      <trkpt lat="59.18232272872" lon="17.874112742088">
        <ele>75.6</ele>
        <time>2015-03-24T17:54:02Z</time>
      </trkpt>
      <trkpt lat="59.182338989606" lon="17.873999921714">
        <ele>75.2</ele>
        <time>2015-03-24T17:54:03Z</time>
      </trkpt>
      <trkpt lat="59.182336726493" lon="17.873870421359">
        <ele>74.8</ele>
        <time>2015-03-24T17:54:04Z</time>
      </trkpt>
      <trkpt lat="59.182326249118" lon="17.873736562416">
        <ele>74.4</ele>
        <time>2015-03-24T17:54:05Z</time>
      </trkpt>
      <trkpt lat="59.18231434682" lon="17.873595662677">
        <ele>74</ele>
        <time>2015-03-24T17:54:06Z</time>
      </trkpt>
      <trkpt lat="59.18229758302" lon="17.87343699331">
        <ele>73.6</ele>
        <time>2015-03-24T17:54:07Z</time>
      </trkpt>
      <trkpt lat="59.182246872525" lon="17.872973809516">
        <ele>73</ele>
        <time>2015-03-24T17:54:10Z</time>
      </trkpt>
      <trkpt lat="59.182233126209" lon="17.872822432402">
        <ele>72.6</ele>
        <time>2015-03-24T17:54:11Z</time>
      </trkpt>
      <trkpt lat="59.18222046954" lon="17.872682706129">
        <ele>72.2</ele>
        <time>2015-03-24T17:54:12Z</time>
      </trkpt>
      <trkpt lat="59.182205717396" lon="17.872537866897">
        <ele>71.8</ele>
        <time>2015-03-24T17:54:13Z</time>
      </trkpt>
      <trkpt lat="59.18218526556" lon="17.872390513095">
        <ele>71.4</ele>
        <time>2015-03-24T17:54:14Z</time>
      </trkpt>
      <trkpt lat="59.182157437652" lon="17.872262186206">
        <ele>70.8</ele>
        <time>2015-03-24T17:54:15Z</time>
      </trkpt>
      <trkpt lat="59.182121982215" lon="17.872149030556">
        <ele>70.4</ele>
        <time>2015-03-24T17:54:16Z</time>
      </trkpt>
      <trkpt lat="59.18207797724" lon="17.872044005349">
        <ele>69.8</ele>
        <time>2015-03-24T17:54:17Z</time>
      </trkpt>
      <trkpt lat="59.182034223722" lon="17.871937555219">
        <ele>69.4</ele>
        <time>2015-03-24T17:54:18Z</time>
      </trkpt>
      <trkpt lat="59.18192626485" lon="17.87160051902">
        <ele>69.4</ele>
        <time>2015-03-24T17:54:21Z</time>
      </trkpt>
      <trkpt lat="59.181886786101" lon="17.871482501868">
        <ele>69.4</ele>
        <time>2015-03-24T17:54:22Z</time>
      </trkpt>
      <trkpt lat="59.181780587428" lon="17.871132641362">
        <ele>69.4</ele>
        <time>2015-03-24T17:54:25Z</time>
      </trkpt>
      <trkpt lat="59.181601717682" lon="17.870515146789">
        <ele>68.8</ele>
        <time>2015-03-24T17:54:30Z</time>
      </trkpt>
      <trkpt lat="59.181566346064" lon="17.870397381094">
        <ele>68.4</ele>
        <time>2015-03-24T17:54:31Z</time>
      </trkpt>
      <trkpt lat="59.181531142084" lon="17.870277939019">
        <ele>68</ele>
        <time>2015-03-24T17:54:32Z</time>
      </trkpt>
      <trkpt lat="59.181495016095" lon="17.870158916039">
        <ele>67.6</ele>
        <time>2015-03-24T17:54:33Z</time>
      </trkpt>
      <trkpt lat="59.181458638649" lon="17.870039557783">
        <ele>67.2</ele>
        <time>2015-03-24T17:54:34Z</time>
      </trkpt>
      <trkpt lat="59.181250767529" lon="17.869343440988">
        <ele>67.2</ele>
        <time>2015-03-24T17:54:40Z</time>
      </trkpt>
      <trkpt lat="59.181209863857" lon="17.86924101417">
        <ele>67.2</ele>
        <time>2015-03-24T17:54:41Z</time>
      </trkpt>
      <trkpt lat="59.181164182502" lon="17.869162727224">
        <ele>66.8</ele>
        <time>2015-03-24T17:54:42Z</time>
      </trkpt>
      <trkpt lat="59.181105173926" lon="17.869125092493">
        <ele>66</ele>
        <time>2015-03-24T17:54:43Z</time>
      </trkpt>
      <trkpt lat="59.181042980228" lon="17.869132300927">
        <ele>65.6</ele>
        <time>2015-03-24T17:54:44Z</time>
      </trkpt>
      <trkpt lat="59.180984642204" lon="17.869161721396">
        <ele>65</ele>
        <time>2015-03-24T17:54:45Z</time>
      </trkpt>
      <trkpt lat="59.180925130714" lon="17.869191644779">
        <ele>65</ele>
        <time>2015-03-24T17:54:46Z</time>
      </trkpt>
      <trkpt lat="59.180746596244" lon="17.869294071597">
        <ele>65</ele>
        <time>2015-03-24T17:54:49Z</time>
      </trkpt>
      <trkpt lat="59.18034292394" lon="17.869566734804">
        <ele>65</ele>
        <time>2015-03-24T17:54:56Z</time>
      </trkpt>
      <trkpt lat="59.180017287125" lon="17.869782065815">
        <ele>65</ele>
        <time>2015-03-24T17:55:02Z</time>
      </trkpt>
      <trkpt lat="59.179964229698" lon="17.86979841052">
        <ele>65</ele>
        <time>2015-03-24T17:55:03Z</time>
      </trkpt>
      <trkpt lat="59.179815870068" lon="17.869764966739">
        <ele>65</ele>
        <time>2015-03-24T17:55:06Z</time>
      </trkpt>
      <trkpt lat="59.179700367486" lon="17.869641333714">
        <ele>65</ele>
        <time>2015-03-24T17:55:09Z</time>
      </trkpt>
      <trkpt lat="59.179664325316" lon="17.869599843309">
        <ele>65.6</ele>
        <time>2015-03-24T17:55:10Z</time>
      </trkpt>
      <trkpt lat="59.179627528775" lon="17.869557430895">
        <ele>66</ele>
        <time>2015-03-24T17:55:11Z</time>
      </trkpt>
      <trkpt lat="59.179589726406" lon="17.869519377069">
        <ele>66.4</ele>
        <time>2015-03-24T17:55:12Z</time>
      </trkpt>
      <trkpt lat="59.179550247657" lon="17.869486939116">
        <ele>66.8</ele>
        <time>2015-03-24T17:55:13Z</time>
      </trkpt>
      <trkpt lat="59.17950976308" lon="17.869457602466">
        <ele>67.2</ele>
        <time>2015-03-24T17:55:14Z</time>
      </trkpt>
      <trkpt lat="59.179374982128" lon="17.869368754326">
        <ele>67.2</ele>
        <time>2015-03-24T17:55:17Z</time>
      </trkpt>
      <trkpt lat="59.178985726692" lon="17.869041357312">
        <ele>67.2</ele>
        <time>2015-03-24T17:55:26Z</time>
      </trkpt>
      <trkpt lat="59.178706357965" lon="17.868764670793">
        <ele>67.2</ele>
        <time>2015-03-24T17:55:33Z</time>
      </trkpt>
      <trkpt lat="59.178639218946" lon="17.868691832082">
        <ele>67.6</ele>
        <time>2015-03-24T17:55:35Z</time>
      </trkpt>
      <trkpt lat="59.178607116269" lon="17.868659058853">
        <ele>68</ele>
        <time>2015-03-24T17:55:36Z</time>
      </trkpt>
      <trkpt lat="59.178572163746" lon="17.868628045823">
        <ele>68.4</ele>
        <time>2015-03-24T17:55:37Z</time>
      </trkpt>
      <trkpt lat="59.178535702481" lon="17.868595691689">
        <ele>68.8</ele>
        <time>2015-03-24T17:55:38Z</time>
      </trkpt>
      <trkpt lat="59.178500330863" lon="17.86856543303">
        <ele>69.2</ele>
        <time>2015-03-24T17:55:39Z</time>
      </trkpt>
      <trkpt lat="59.178464791607" lon="17.868530815783">
        <ele>69.2</ele>
        <time>2015-03-24T17:55:40Z</time>
      </trkpt>
      <trkpt lat="59.17829522577" lon="17.868366949638">
        <ele>69.2</ele>
        <time>2015-03-24T17:55:45Z</time>
      </trkpt>
      <trkpt lat="59.178164971044" lon="17.868246417916">
        <ele>69.6</ele>
        <time>2015-03-24T17:55:49Z</time>
      </trkpt>
      <trkpt lat="59.178132533091" lon="17.868216410714">
        <ele>70</ele>
        <time>2015-03-24T17:55:50Z</time>
      </trkpt>
      <trkpt lat="59.178100681871" lon="17.868185397684">
        <ele>70.4</ele>
        <time>2015-03-24T17:55:51Z</time>
      </trkpt>
      <trkpt lat="59.17806723809" lon="17.868150445161">
        <ele>70.8</ele>
        <time>2015-03-24T17:55:52Z</time>
      </trkpt>
      <trkpt lat="59.178030944463" lon="17.868110547317">
        <ele>71.2</ele>
        <time>2015-03-24T17:55:53Z</time>
      </trkpt>
      <trkpt lat="59.177937737735" lon="17.868029913439">
        <ele>71.2</ele>
        <time>2015-03-24T17:55:56Z</time>
      </trkpt>
      <trkpt lat="59.177858361142" lon="17.868034188208">
        <ele>71.6</ele>
        <time>2015-03-24T17:55:59Z</time>
      </trkpt>
      <trkpt lat="59.177834975641" lon="17.868045671411">
        <ele>72</ele>
        <time>2015-03-24T17:56:00Z</time>
      </trkpt>
      <trkpt lat="59.17780907557" lon="17.868059753003">
        <ele>72.4</ele>
        <time>2015-03-24T17:56:01Z</time>
      </trkpt>
      <trkpt lat="59.177783846051" lon="17.868076935898">
        <ele>72.8</ele>
        <time>2015-03-24T17:56:02Z</time>
      </trkpt>
      <trkpt lat="59.177757526885" lon="17.868093364422">
        <ele>73.2</ele>
        <time>2015-03-24T17:56:03Z</time>
      </trkpt>
      <trkpt lat="59.177617716793" lon="17.868180284725">
        <ele>73.2</ele>
        <time>2015-03-24T17:56:08Z</time>
      </trkpt>
      <trkpt lat="59.177417473202" lon="17.868395783374">
        <ele>73.2</ele>
        <time>2015-03-24T17:56:13Z</time>
      </trkpt>
      <trkpt lat="59.177074485854" lon="17.868750505382">
        <ele>73.2</ele>
        <time>2015-03-24T17:56:18Z</time>
      </trkpt>
      <trkpt lat="59.176813473488" lon="17.869101623173">
        <ele>73.2</ele>
        <time>2015-03-24T17:56:24Z</time>
      </trkpt>
      <trkpt lat="59.176748178487" lon="17.869194410806">
        <ele>73.6</ele>
        <time>2015-03-24T17:56:26Z</time>
      </trkpt>
      <trkpt lat="59.176714315611" lon="17.869231626442">
        <ele>74.2</ele>
        <time>2015-03-24T17:56:27Z</time>
      </trkpt>
      <trkpt lat="59.176679698364" lon="17.869266578965">
        <ele>74.6</ele>
        <time>2015-03-24T17:56:28Z</time>
      </trkpt>
      <trkpt lat="59.176642985642" lon="17.869296837624">
        <ele>75</ele>
        <time>2015-03-24T17:56:29Z</time>
      </trkpt>
      <trkpt lat="59.176602752522" lon="17.86931812765">
        <ele>75.6</ele>
        <time>2015-03-24T17:56:30Z</time>
      </trkpt>
      <trkpt lat="59.176457745652" lon="17.869360791521">
        <ele>75.6</ele>
        <time>2015-03-24T17:56:33Z</time>
      </trkpt>
      <trkpt lat="59.176143508221" lon="17.869342770436">
        <ele>75.6</ele>
        <time>2015-03-24T17:56:39Z</time>
      </trkpt>
      <trkpt lat="59.176000764464" lon="17.869288455724">
        <ele>75.6</ele>
        <time>2015-03-24T17:56:42Z</time>
      </trkpt>
      <trkpt lat="59.175910323763" lon="17.869217209574">
        <ele>75.6</ele>
        <time>2015-03-24T17:56:44Z</time>
      </trkpt>
      <trkpt lat="59.175625003887" lon="17.868889561103">
        <ele>75.6</ele>
        <time>2015-03-24T17:56:50Z</time>
      </trkpt>
      <trkpt lat="59.175390645963" lon="17.868642127415">
        <ele>75.6</ele>
        <time>2015-03-24T17:56:55Z</time>
      </trkpt>
      <trkpt lat="59.175346976264" lon="17.86862578271">
        <ele>75.6</ele>
        <time>2015-03-24T17:56:56Z</time>
      </trkpt>
      <trkpt lat="59.175072049944" lon="17.868641624501">
        <ele>77.6</ele>
        <time>2015-03-24T18:00:40Z</time>
      </trkpt>
      <trkpt lat="59.175029553711" lon="17.868653359161">
        <ele>77.6</ele>
        <time>2015-03-24T18:00:41Z</time>
      </trkpt>
      <trkpt lat="59.174934251508" lon="17.868675655015">
        <ele>77.6</ele>
        <time>2015-03-24T18:00:43Z</time>
      </trkpt>
      <trkpt lat="59.17462479176" lon="17.868676493205">
        <ele>77.6</ele>
        <time>2015-03-24T18:00:48Z</time>
      </trkpt>
      <trkpt lat="59.174559915854" lon="17.868686635304">
        <ele>78</ele>
        <time>2015-03-24T18:00:49Z</time>
      </trkpt>
      <trkpt lat="59.174491854826" lon="17.868702309457">
        <ele>78.4</ele>
        <time>2015-03-24T18:00:50Z</time>
      </trkpt>
      <trkpt lat="59.174429409671" lon="17.868723934759">
        <ele>78.8</ele>
        <time>2015-03-24T18:00:51Z</time>
      </trkpt>
      <trkpt lat="59.17436830562" lon="17.868740782378">
        <ele>79.2</ele>
        <time>2015-03-24T18:00:52Z</time>
      </trkpt>
      <trkpt lat="59.174309464682" lon="17.868757210902">
        <ele>79.6</ele>
        <time>2015-03-24T18:00:53Z</time>
      </trkpt>
      <trkpt lat="59.173934374657" lon="17.868923926893">
        <ele>79.6</ele>
        <time>2015-03-24T18:00:59Z</time>
      </trkpt>
      <trkpt lat="59.173717367266" lon="17.869069017582">
        <ele>80</ele>
        <time>2015-03-24T18:01:03Z</time>
      </trkpt>
      <trkpt lat="59.173667746418" lon="17.869096426395">
        <ele>80.4</ele>
        <time>2015-03-24T18:01:04Z</time>
      </trkpt>
      <trkpt lat="59.173618041751" lon="17.869129199624">
        <ele>80.8</ele>
        <time>2015-03-24T18:01:05Z</time>
      </trkpt>
      <trkpt lat="59.173568169446" lon="17.869167337269">
        <ele>81.2</ele>
        <time>2015-03-24T18:01:06Z</time>
      </trkpt>
      <trkpt lat="59.173513100363" lon="17.869202541249">
        <ele>81.6</ele>
        <time>2015-03-24T18:01:07Z</time>
      </trkpt>
      <trkpt lat="59.173327357459" lon="17.869303375506">
        <ele>81.6</ele>
        <time>2015-03-24T18:01:10Z</time>
      </trkpt>
      <trkpt lat="59.173216297284" lon="17.8693223186">
        <ele>81.6</ele>
        <time>2015-03-24T18:01:12Z</time>
      </trkpt>
      <trkpt lat="59.17316634116" lon="17.869296250891">
        <ele>81.6</ele>
        <time>2015-03-24T18:01:13Z</time>
      </trkpt>
      <trkpt lat="59.173080761961" lon="17.869034232697">
        <ele>81.6</ele>
        <time>2015-03-24T18:01:16Z</time>
      </trkpt>
      <trkpt lat="59.173058047012" lon="17.868941025969">
        <ele>81.6</ele>
        <time>2015-03-24T18:01:17Z</time>
      </trkpt>
      <trkpt lat="59.172992500554" lon="17.868649419668">
        <ele>81.6</ele>
        <time>2015-03-24T18:01:20Z</time>
      </trkpt>
      <trkpt lat="59.172901976034" lon="17.868332919124">
        <ele>81.6</ele>
        <time>2015-03-24T18:01:23Z</time>
      </trkpt>
      <trkpt lat="59.172827796219" lon="17.86813963251">
        <ele>81.6</ele>
        <time>2015-03-24T18:01:25Z</time>
      </trkpt>
      <trkpt lat="59.172736936423" lon="17.867953051416">
        <ele>81.6</ele>
        <time>2015-03-24T18:01:27Z</time>
      </trkpt>
      <trkpt lat="59.172650602853" lon="17.86774568321">
        <ele>81.2</ele>
        <time>2015-03-24T18:01:29Z</time>
      </trkpt>
      <trkpt lat="59.172622188212" lon="17.867634623035">
        <ele>80.8</ele>
        <time>2015-03-24T18:01:30Z</time>
      </trkpt>
      <trkpt lat="59.172592097191" lon="17.867523981955">
        <ele>80.4</ele>
        <time>2015-03-24T18:01:31Z</time>
      </trkpt>
      <trkpt lat="59.172560078333" lon="17.867415184893">
        <ele>80</ele>
        <time>2015-03-24T18:01:32Z</time>
      </trkpt>
      <trkpt lat="59.172526215457" lon="17.867308650944">
        <ele>79.6</ele>
        <time>2015-03-24T18:01:33Z</time>
      </trkpt>
      <trkpt lat="59.172462429198" lon="17.867106563335">
        <ele>79.6</ele>
        <time>2015-03-24T18:01:35Z</time>
      </trkpt>
      <trkpt lat="59.172228155093" lon="17.866437855353">
        <ele>79.6</ele>
        <time>2015-03-24T18:01:42Z</time>
      </trkpt>
      <trkpt lat="59.172030509891" lon="17.865776523443">
        <ele>79.6</ele>
        <time>2015-03-24T18:01:48Z</time>
      </trkpt>
      <trkpt lat="59.172000921784" lon="17.86566110468">
        <ele>79.6</ele>
        <time>2015-03-24T18:01:49Z</time>
      </trkpt>
      <trkpt lat="59.171872091981" lon="17.865065319228">
        <ele>79.6</ele>
        <time>2015-03-24T18:01:54Z</time>
      </trkpt>
      <trkpt lat="59.171814173052" lon="17.864670783195">
        <ele>79.6</ele>
        <time>2015-03-24T18:01:57Z</time>
      </trkpt>
      <trkpt lat="59.171814089233" lon="17.864542791582">
        <ele>79.6</ele>
        <time>2015-03-24T18:01:58Z</time>
      </trkpt>
      <trkpt lat="59.171830685395" lon="17.863889925391">
        <ele>79.6</ele>
        <time>2015-03-24T18:02:03Z</time>
      </trkpt>
      <trkpt lat="59.171845102263" lon="17.863398326956">
        <ele>79.6</ele>
        <time>2015-03-24T18:02:07Z</time>
      </trkpt>
      <trkpt lat="59.171856836923" lon="17.863150977087">
        <ele>79.6</ele>
        <time>2015-03-24T18:02:09Z</time>
      </trkpt>
      <trkpt lat="59.171813837776" lon="17.862508336814">
        <ele>79.6</ele>
        <time>2015-03-24T18:02:14Z</time>
      </trkpt>
      <trkpt lat="59.171818783097" lon="17.862125786898">
        <ele>79.6</ele>
        <time>2015-03-24T18:02:17Z</time>
      </trkpt>
      <trkpt lat="59.171819537468" lon="17.861871731509">
        <ele>79.6</ele>
        <time>2015-03-24T18:02:19Z</time>
      </trkpt>
      <trkpt lat="59.171790368456" lon="17.861489852145">
        <ele>79.6</ele>
        <time>2015-03-24T18:02:22Z</time>
      </trkpt>
      <trkpt lat="59.171756757037" lon="17.861263205569">
        <ele>79.6</ele>
        <time>2015-03-24T18:02:24Z</time>
      </trkpt>
      <trkpt lat="59.171705962723" lon="17.860982411919">
        <ele>79.6</ele>
        <time>2015-03-24T18:02:27Z</time>
      </trkpt>
      <trkpt lat="59.171683666869" lon="17.860809325684">
        <ele>79.6</ele>
        <time>2015-03-24T18:02:29Z</time>
      </trkpt>
      <trkpt lat="59.171721888333" lon="17.860408754683">
        <ele>79.6</ele>
        <time>2015-03-24T18:02:34Z</time>
      </trkpt>
      <trkpt lat="59.171831523585" lon="17.86020448778">
        <ele>79.6</ele>
        <time>2015-03-24T18:02:38Z</time>
      </trkpt>
      <trkpt lat="59.171899333156" lon="17.86000583675">
        <ele>79.6</ele>
        <time>2015-03-24T18:02:42Z</time>
      </trkpt>
      <trkpt lat="59.171926574331" lon="17.859986474561">
        <ele>79.6</ele>
        <time>2015-03-24T18:02:43Z</time>
      </trkpt>
      <trkpt lat="59.171995557368" lon="17.86000499856">
        <ele>79.6</ele>
        <time>2015-03-24T18:02:45Z</time>
      </trkpt>
      <trkpt lat="59.172189263077" lon="17.860166182497">
        <ele>79.6</ele>
        <time>2015-03-24T18:02:49Z</time>
      </trkpt>
      <trkpt lat="59.172246343816" lon="17.860230974584">
        <ele>79.6</ele>
        <time>2015-03-24T18:02:50Z</time>
      </trkpt>
      <trkpt lat="59.172298898329" lon="17.860301969277">
        <ele>79.6</ele>
        <time>2015-03-24T18:02:51Z</time>
      </trkpt>
      <trkpt lat="59.172450443081" lon="17.86046851763">
        <ele>79.6</ele>
        <time>2015-03-24T18:02:54Z</time>
      </trkpt>
      <trkpt lat="59.172502829956" lon="17.860503051058">
        <ele>79.6</ele>
        <time>2015-03-24T18:02:55Z</time>
      </trkpt>
      <trkpt lat="59.172765602521" lon="17.860656020733">
        <ele>79.6</ele>
        <time>2015-03-24T18:03:00Z</time>
      </trkpt>
      <trkpt lat="59.172913543056" lon="17.860751322936">
        <ele>79.6</ele>
        <time>2015-03-24T18:03:03Z</time>
      </trkpt>
      <trkpt lat="59.172990069803" lon="17.86082474838">
        <ele>79.6</ele>
        <time>2015-03-24T18:03:05Z</time>
      </trkpt>
      <trkpt lat="59.173134741397" lon="17.86094796231">
        <ele>79.6</ele>
        <time>2015-03-24T18:03:08Z</time>
      </trkpt>
      <trkpt lat="59.173190900127" lon="17.860968414146">
        <ele>79.6</ele>
        <time>2015-03-24T18:03:09Z</time>
      </trkpt>
      <trkpt lat="59.173446967172" lon="17.860903202964">
        <ele>79.6</ele>
        <time>2015-03-24T18:03:13Z</time>
      </trkpt>
      <trkpt lat="59.17350580811" lon="17.860855258496">
        <ele>79.6</ele>
        <time>2015-03-24T18:03:14Z</time>
      </trkpt>
      <trkpt lat="59.173674032843" lon="17.860647555014">
        <ele>79.6</ele>
        <time>2015-03-24T18:03:17Z</time>
      </trkpt>
      <trkpt lat="59.173877629194" lon="17.860382686974">
        <ele>79.6</ele>
        <time>2015-03-24T18:03:21Z</time>
      </trkpt>
      <trkpt lat="59.173978463451" lon="17.86027405755">
        <ele>79.6</ele>
        <time>2015-03-24T18:03:23Z</time>
      </trkpt>
      <trkpt lat="59.174278870747" lon="17.859974739901">
        <ele>79.6</ele>
        <time>2015-03-24T18:03:29Z</time>
      </trkpt>
      <trkpt lat="59.17432723431" lon="17.859923275035">
        <ele>79.2</ele>
        <time>2015-03-24T18:03:30Z</time>
      </trkpt>
      <trkpt lat="59.17438004028" lon="17.85987004997">
        <ele>78.6</ele>
        <time>2015-03-24T18:03:31Z</time>
      </trkpt>
      <trkpt lat="59.174428320024" lon="17.859813136869">
        <ele>78.2</ele>
        <time>2015-03-24T18:03:32Z</time>
      </trkpt>
      <trkpt lat="59.17447307937" lon="17.859755720854">
        <ele>77.8</ele>
        <time>2015-03-24T18:03:33Z</time>
      </trkpt>
      <trkpt lat="59.174512390481" lon="17.859688749473">
        <ele>77.4</ele>
        <time>2015-03-24T18:03:34Z</time>
      </trkpt>
      <trkpt lat="59.174611464539" lon="17.859467215856">
        <ele>77.4</ele>
        <time>2015-03-24T18:03:37Z</time>
      </trkpt>
      <trkpt lat="59.174650356555" lon="17.859391527299">
        <ele>77.4</ele>
        <time>2015-03-24T18:03:38Z</time>
      </trkpt>
      <trkpt lat="59.174883373375" lon="17.85904778558">
        <ele>77.4</ele>
        <time>2015-03-24T18:03:44Z</time>
      </trkpt>
      <trkpt lat="59.175041707466" lon="17.858886685462">
        <ele>77.4</ele>
        <time>2015-03-24T18:03:48Z</time>
      </trkpt>
      <trkpt lat="59.175093507608" lon="17.858848883093">
        <ele>77.4</ele>
        <time>2015-03-24T18:03:49Z</time>
      </trkpt>
      <trkpt lat="59.175316633786" lon="17.858638162127">
        <ele>77.4</ele>
        <time>2015-03-24T18:03:53Z</time>
      </trkpt>
      <trkpt lat="59.17536072258" lon="17.858557109154">
        <ele>77.8</ele>
        <time>2015-03-24T18:03:54Z</time>
      </trkpt>
      <trkpt lat="59.175388131393" lon="17.858479828036">
        <ele>78.4</ele>
        <time>2015-03-24T18:03:55Z</time>
      </trkpt>
      <trkpt lat="59.175406990668" lon="17.858402882194">
        <ele>78.8</ele>
        <time>2015-03-24T18:03:56Z</time>
      </trkpt>
      <trkpt lat="59.175425011753" lon="17.858316464805">
        <ele>79.2</ele>
        <time>2015-03-24T18:03:57Z</time>
      </trkpt>
      <trkpt lat="59.175441524096" lon="17.858233986909">
        <ele>79.6</ele>
        <time>2015-03-24T18:03:58Z</time>
      </trkpt>
      <trkpt lat="59.175490222935" lon="17.858032905128">
        <ele>80</ele>
        <time>2015-03-24T18:04:01Z</time>
      </trkpt>
      <trkpt lat="59.175503047242" lon="17.857973058362">
        <ele>80.4</ele>
        <time>2015-03-24T18:04:02Z</time>
      </trkpt>
      <trkpt lat="59.175516542101" lon="17.85791371451">
        <ele>80.8</ele>
        <time>2015-03-24T18:04:03Z</time>
      </trkpt>
      <trkpt lat="59.175527103295" lon="17.857841546351">
        <ele>81.2</ele>
        <time>2015-03-24T18:04:04Z</time>
      </trkpt>
      <trkpt lat="59.175532802987" lon="17.85775613479">
        <ele>81.6</ele>
        <time>2015-03-24T18:04:05Z</time>
      </trkpt>
      <trkpt lat="59.175532132435" lon="17.857661167863">
        <ele>81.6</ele>
        <time>2015-03-24T18:04:06Z</time>
      </trkpt>
      <trkpt lat="59.175523582897" lon="17.857552706077">
        <ele>81.6</ele>
        <time>2015-03-24T18:04:07Z</time>
      </trkpt>
      <trkpt lat="59.175474129687" lon="17.857025065472">
        <ele>81.6</ele>
        <time>2015-03-24T18:04:12Z</time>
      </trkpt>
      <trkpt lat="59.175486953994" lon="17.856928925079">
        <ele>81.6</ele>
        <time>2015-03-24T18:04:13Z</time>
      </trkpt>
      <trkpt lat="59.175540765792" lon="17.856656848605">
        <ele>82</ele>
        <time>2015-03-24T18:04:16Z</time>
      </trkpt>
      <trkpt lat="59.175559457429" lon="17.856583674618">
        <ele>82.6</ele>
        <time>2015-03-24T18:04:17Z</time>
      </trkpt>
      <trkpt lat="59.175581669464" lon="17.856514272486">
        <ele>83</ele>
        <time>2015-03-24T18:04:18Z</time>
      </trkpt>
      <trkpt lat="59.175606898983" lon="17.856459538679">
        <ele>83.4</ele>
        <time>2015-03-24T18:04:19Z</time>
      </trkpt>
      <trkpt lat="59.175632044683" lon="17.856406397433">
        <ele>83.8</ele>
        <time>2015-03-24T18:04:20Z</time>
      </trkpt>
      <trkpt lat="59.175662554799" lon="17.856353340006">
        <ele>83.8</ele>
        <time>2015-03-24T18:04:21Z</time>
      </trkpt>
      <trkpt lat="59.1757362317" lon="17.856253176301">
        <ele>83.8</ele>
        <time>2015-03-24T18:04:23Z</time>
      </trkpt>
      <trkpt lat="59.175775794268" lon="17.856211015344">
        <ele>84.2</ele>
        <time>2015-03-24T18:04:24Z</time>
      </trkpt>
      <trkpt lat="59.175817703768" lon="17.856169608758">
        <ele>84.6</ele>
        <time>2015-03-24T18:04:25Z</time>
      </trkpt>
      <trkpt lat="59.175860870553" lon="17.856133985683">
        <ele>85</ele>
        <time>2015-03-24T18:04:26Z</time>
      </trkpt>
      <trkpt lat="59.175903702062" lon="17.856102637377">
        <ele>85.4</ele>
        <time>2015-03-24T18:04:27Z</time>
      </trkpt>
      <trkpt lat="59.175947539399" lon="17.856069780329">
        <ele>85.8</ele>
        <time>2015-03-24T18:04:28Z</time>
      </trkpt>
      <trkpt lat="59.175988694528" lon="17.856043042068">
        <ele>85.8</ele>
        <time>2015-03-24T18:04:29Z</time>
      </trkpt>
      <trkpt lat="59.176147866809" lon="17.8559364243">
        <ele>85.8</ele>
        <time>2015-03-24T18:04:33Z</time>
      </trkpt>
      <trkpt lat="59.17621902914" lon="17.855938519775">
        <ele>86.2</ele>
        <time>2015-03-24T18:04:35Z</time>
      </trkpt>
      <trkpt lat="59.176258591708" lon="17.855960983267">
        <ele>86.8</ele>
        <time>2015-03-24T18:04:36Z</time>
      </trkpt>
      <trkpt lat="59.17629614262" lon="17.855984704044">
        <ele>87.6</ele>
        <time>2015-03-24T18:04:37Z</time>
      </trkpt>
      <trkpt lat="59.176328077659" lon="17.856017058178">
        <ele>88</ele>
        <time>2015-03-24T18:04:38Z</time>
      </trkpt>
      <trkpt lat="59.176394713764" lon="17.856088807242">
        <ele>88</ele>
        <time>2015-03-24T18:04:40Z</time>
      </trkpt>
      <trkpt lat="59.176542989575" lon="17.856256109966">
        <ele>88.4</ele>
        <time>2015-03-24T18:04:45Z</time>
      </trkpt>
      <trkpt lat="59.17656939256" lon="17.856279579286">
        <ele>88.8</ele>
        <time>2015-03-24T18:04:46Z</time>
      </trkpt>
      <trkpt lat="59.176594957355" lon="17.856289386109">
        <ele>89.2</ele>
        <time>2015-03-24T18:04:47Z</time>
      </trkpt>
      <trkpt lat="59.176624880738" lon="17.856290224299">
        <ele>89.6</ele>
        <time>2015-03-24T18:04:48Z</time>
      </trkpt>
      <trkpt lat="59.176664694763" lon="17.856276980897">
        <ele>90</ele>
        <time>2015-03-24T18:04:49Z</time>
      </trkpt>
      <trkpt lat="59.176711717222" lon="17.856261222925">
        <ele>90</ele>
        <time>2015-03-24T18:04:50Z</time>
      </trkpt>
      <trkpt lat="59.176988152284" lon="17.856164076704">
        <ele>90</ele>
        <time>2015-03-24T18:04:55Z</time>
      </trkpt>
      <trkpt lat="59.177199459983" lon="17.855939609422">
        <ele>90</ele>
        <time>2015-03-24T18:04:59Z</time>
      </trkpt>
      <trkpt lat="59.177251763039" lon="17.855861154838">
        <ele>90</ele>
        <time>2015-03-24T18:05:00Z</time>
      </trkpt>
      <trkpt lat="59.177309011416" lon="17.855759985305">
        <ele>89.6</ele>
        <time>2015-03-24T18:05:01Z</time>
      </trkpt>
      <trkpt lat="59.177353519305" lon="17.855683123282">
        <ele>88.8</ele>
        <time>2015-03-24T18:05:02Z</time>
      </trkpt>
      <trkpt lat="59.177394842072" lon="17.855621013403">
        <ele>88.4</ele>
        <time>2015-03-24T18:05:03Z</time>
      </trkpt>
      <trkpt lat="59.177432644441" lon="17.855568626528">
        <ele>88</ele>
        <time>2015-03-24T18:05:04Z</time>
      </trkpt>
      <trkpt lat="59.17750145984" lon="17.855420853631">
        <ele>88</ele>
        <time>2015-03-24T18:05:06Z</time>
      </trkpt>
      <trkpt lat="59.177549069032" lon="17.855276433494">
        <ele>88.4</ele>
        <time>2015-03-24T18:05:08Z</time>
      </trkpt>
      <trkpt lat="59.177575723474" lon="17.855206696086">
        <ele>89</ele>
        <time>2015-03-24T18:05:09Z</time>
      </trkpt>
      <trkpt lat="59.177611430368" lon="17.855142239275">
        <ele>89.4</ele>
        <time>2015-03-24T18:05:10Z</time>
      </trkpt>
      <trkpt lat="59.177650992936" lon="17.855087002554">
        <ele>89.8</ele>
        <time>2015-03-24T18:05:11Z</time>
      </trkpt>
      <trkpt lat="59.177693824445" lon="17.855039141905">
        <ele>90.4</ele>
        <time>2015-03-24T18:05:12Z</time>
      </trkpt>
      <trkpt lat="59.177840759152" lon="17.854950796679">
        <ele>90.4</ele>
        <time>2015-03-24T18:05:15Z</time>
      </trkpt>
      <trkpt lat="59.177902617574" lon="17.85493981639">
        <ele>90.4</ele>
        <time>2015-03-24T18:05:16Z</time>
      </trkpt>
      <trkpt lat="59.178067070452" lon="17.855010811083">
        <ele>90.4</ele>
        <time>2015-03-24T18:05:19Z</time>
      </trkpt>
      <trkpt lat="59.178225823638" lon="17.855058420275">
        <ele>90.4</ele>
        <time>2015-03-24T18:05:22Z</time>
      </trkpt>
      <trkpt lat="59.178337805822" lon="17.855064455243">
        <ele>90.4</ele>
        <time>2015-03-24T18:05:24Z</time>
      </trkpt>
      <trkpt lat="59.178396479122" lon="17.855061521578">
        <ele>90.4</ele>
        <time>2015-03-24T18:05:25Z</time>
      </trkpt>
      <trkpt lat="59.178519106319" lon="17.855045009235">
        <ele>89.8</ele>
        <time>2015-03-24T18:05:27Z</time>
      </trkpt>
      <trkpt lat="59.17858356313" lon="17.855031765833">
        <ele>89.4</ele>
        <time>2015-03-24T18:05:28Z</time>
      </trkpt>
      <trkpt lat="59.178644751" lon="17.855016846051">
        <ele>89</ele>
        <time>2015-03-24T18:05:29Z</time>
      </trkpt>
      <trkpt lat="59.178701580282" lon="17.854993209093">
        <ele>88.6</ele>
        <time>2015-03-24T18:05:30Z</time>
      </trkpt>
      <trkpt lat="59.178756481727" lon="17.854975188008">
        <ele>88.2</ele>
        <time>2015-03-24T18:05:31Z</time>
      </trkpt>
      <trkpt lat="59.178860668744" lon="17.854939900209">
        <ele>88.2</ele>
        <time>2015-03-24T18:05:33Z</time>
      </trkpt>
      <trkpt lat="59.178957982603" lon="17.854861780901">
        <ele>88.2</ele>
        <time>2015-03-24T18:05:35Z</time>
      </trkpt>
      <trkpt lat="59.17902864202" lon="17.854705039371">
        <ele>88.2</ele>
        <time>2015-03-24T18:05:37Z</time>
      </trkpt>
      <trkpt lat="59.179094942849" lon="17.854522649227">
        <ele>88.2</ele>
        <time>2015-03-24T18:05:39Z</time>
      </trkpt>
      <trkpt lat="59.17912335749" lon="17.854423323712">
        <ele>88.2</ele>
        <time>2015-03-24T18:05:40Z</time>
      </trkpt>
      <trkpt lat="59.17916861975" lon="17.854235150057">
        <ele>88.2</ele>
        <time>2015-03-24T18:05:42Z</time>
      </trkpt>
      <trkpt lat="59.179225951946" lon="17.853694433688">
        <ele>88.2</ele>
        <time>2015-03-24T18:05:47Z</time>
      </trkpt>
      <trkpt lat="59.179224610842" lon="17.85357356669">
        <ele>88.2</ele>
        <time>2015-03-24T18:05:48Z</time>
      </trkpt>
      <trkpt lat="59.179236680778" lon="17.853333760531">
        <ele>88.2</ele>
        <time>2015-03-24T18:05:50Z</time>
      </trkpt>
      <trkpt lat="59.179281356305" lon="17.853007034069">
        <ele>88.2</ele>
        <time>2015-03-24T18:05:53Z</time>
      </trkpt>
      <trkpt lat="59.179311782602" lon="17.852794469085">
        <ele>88.2</ele>
        <time>2015-03-24T18:05:55Z</time>
      </trkpt>
      <trkpt lat="59.179403229131" lon="17.85250235987">
        <ele>88.2</ele>
        <time>2015-03-24T18:05:58Z</time>
      </trkpt>
      <trkpt lat="59.179477157489" lon="17.852345199245">
        <ele>88.2</ele>
        <time>2015-03-24T18:06:00Z</time>
      </trkpt>
      <trkpt lat="59.179562485231" lon="17.852213771053">
        <ele>88.2</ele>
        <time>2015-03-24T18:06:02Z</time>
      </trkpt>
      <trkpt lat="59.179609340052" lon="17.852161132721">
        <ele>88.2</ele>
        <time>2015-03-24T18:06:03Z</time>
      </trkpt>
      <trkpt lat="59.179849732944" lon="17.851852678801">
        <ele>88.2</ele>
        <time>2015-03-24T18:06:09Z</time>
      </trkpt>
      <trkpt lat="59.180006390655" lon="17.851684789344">
        <ele>88.2</ele>
        <time>2015-03-24T18:06:12Z</time>
      </trkpt>
      <trkpt lat="59.180076882434" lon="17.851643131301">
        <ele>88.2</ele>
        <time>2015-03-24T18:06:13Z</time>
      </trkpt>
      <trkpt lat="59.180227337539" lon="17.85155185241">
        <ele>87.8</ele>
        <time>2015-03-24T18:06:15Z</time>
      </trkpt>
      <trkpt lat="59.180314760756" lon="17.851503069752">
        <ele>87.2</ele>
        <time>2015-03-24T18:06:16Z</time>
      </trkpt>
      <trkpt lat="59.180399166489" lon="17.851454035637">
        <ele>86.8</ele>
        <time>2015-03-24T18:06:17Z</time>
      </trkpt>
      <trkpt lat="59.180486924982" lon="17.851415562716">
        <ele>86</ele>
        <time>2015-03-24T18:06:18Z</time>
      </trkpt>
      <trkpt lat="59.180559679874" lon="17.851406594083">
        <ele>85.2</ele>
        <time>2015-03-24T18:06:19Z</time>
      </trkpt>
      <trkpt lat="59.180627657083" lon="17.851428806118">
        <ele>84.4</ele>
        <time>2015-03-24T18:06:20Z</time>
      </trkpt>
      <trkpt lat="59.180688090582" lon="17.851491083635">
        <ele>83.6</ele>
        <time>2015-03-24T18:06:21Z</time>
      </trkpt>
      <trkpt lat="59.18073603505" lon="17.851592756082">
        <ele>82.8</ele>
        <time>2015-03-24T18:06:22Z</time>
      </trkpt>
      <trkpt lat="59.180772412496" lon="17.851712114338">
        <ele>82</ele>
        <time>2015-03-24T18:06:23Z</time>
      </trkpt>
      <trkpt lat="59.180789595391" lon="17.851839183942">
        <ele>81.2</ele>
        <time>2015-03-24T18:06:24Z</time>
      </trkpt>
      <trkpt lat="59.180786074993" lon="17.851942784226">
        <ele>80.4</ele>
        <time>2015-03-24T18:06:25Z</time>
      </trkpt>
      <trkpt lat="59.180748691719" lon="17.852132382804">
        <ele>80.4</ele>
        <time>2015-03-24T18:06:27Z</time>
      </trkpt>
      <trkpt lat="59.180733604299" lon="17.852225421894">
        <ele>79.8</ele>
        <time>2015-03-24T18:06:28Z</time>
      </trkpt>
      <trkpt lat="59.180727150236" lon="17.852319215355">
        <ele>79.4</ele>
        <time>2015-03-24T18:06:29Z</time>
      </trkpt>
      <trkpt lat="59.18072262401" lon="17.852404124002">
        <ele>79</ele>
        <time>2015-03-24T18:06:30Z</time>
      </trkpt>
      <trkpt lat="59.180728156064" lon="17.852487523907">
        <ele>78.6</ele>
        <time>2015-03-24T18:06:31Z</time>
      </trkpt>
      <trkpt lat="59.180743243484" lon="17.852575701495">
        <ele>78.2</ele>
        <time>2015-03-24T18:06:32Z</time>
      </trkpt>
      <trkpt lat="59.180838378049" lon="17.853135612415">
        <ele>78.2</ele>
        <time>2015-03-24T18:06:37Z</time>
      </trkpt>
      <trkpt lat="59.180948013301" lon="17.853881014782">
        <ele>78.2</ele>
        <time>2015-03-24T18:06:43Z</time>
      </trkpt>
      <trkpt lat="59.18103275431" lon="17.854360291824">
        <ele>78.2</ele>
        <time>2015-03-24T18:06:47Z</time>
      </trkpt>
      <trkpt lat="59.181074328534" lon="17.854566235107">
        <ele>78.2</ele>
        <time>2015-03-24T18:06:49Z</time>
      </trkpt>
      <trkpt lat="59.181101653528" lon="17.854672014685">
        <ele>78.2</ele>
        <time>2015-03-24T18:06:50Z</time>
      </trkpt>
      <trkpt lat="59.181236183023" lon="17.854869073154">
        <ele>78.2</ele>
        <time>2015-03-24T18:06:53Z</time>
      </trkpt>
      <trkpt lat="59.181394265657" lon="17.854838060124">
        <ele>78.2</ele>
        <time>2015-03-24T18:06:56Z</time>
      </trkpt>
      <trkpt lat="59.181444808514" lon="17.854829929681">
        <ele>78.2</ele>
        <time>2015-03-24T18:06:57Z</time>
      </trkpt>
      <trkpt lat="59.181713113133" lon="17.854720629705">
        <ele>78.2</ele>
        <time>2015-03-24T18:07:03Z</time>
      </trkpt>
      <trkpt lat="59.181985441064" lon="17.854530947308">
        <ele>78.2</ele>
        <time>2015-03-24T18:07:10Z</time>
      </trkpt>
      <trkpt lat="59.182152157055" lon="17.854389544655">
        <ele>78.6</ele>
        <time>2015-03-24T18:07:15Z</time>
      </trkpt>
      <trkpt lat="59.182189037415" lon="17.854354592132">
        <ele>79.2</ele>
        <time>2015-03-24T18:07:16Z</time>
      </trkpt>
      <trkpt lat="59.182229270535" lon="17.854316957401">
        <ele>79.6</ele>
        <time>2015-03-24T18:07:17Z</time>
      </trkpt>
      <trkpt lat="59.182268581646" lon="17.854280412317">
        <ele>80</ele>
        <time>2015-03-24T18:07:18Z</time>
      </trkpt>
      <trkpt lat="59.182309652956" lon="17.854253003504">
        <ele>80.4</ele>
        <time>2015-03-24T18:07:19Z</time>
      </trkpt>
      <trkpt lat="59.182390454472" lon="17.854260547214">
        <ele>80.4</ele>
        <time>2015-03-24T18:07:21Z</time>
      </trkpt>
      <trkpt lat="59.182501766104" lon="17.854336487228">
        <ele>80.4</ele>
        <time>2015-03-24T18:07:24Z</time>
      </trkpt>
      <trkpt lat="59.18254065812" lon="17.854363560765">
        <ele>80.4</ele>
        <time>2015-03-24T18:07:25Z</time>
      </trkpt>
      <trkpt lat="59.182654735779" lon="17.854418126934">
        <ele>80.8</ele>
        <time>2015-03-24T18:07:28Z</time>
      </trkpt>
      <trkpt lat="59.182700081858" lon="17.854445032833">
        <ele>81.2</ele>
        <time>2015-03-24T18:07:29Z</time>
      </trkpt>
      <trkpt lat="59.182742829548" lon="17.854475794406">
        <ele>82.2</ele>
        <time>2015-03-24T18:07:30Z</time>
      </trkpt>
      <trkpt lat="59.182785493419" lon="17.854506807436">
        <ele>82.6</ele>
        <time>2015-03-24T18:07:31Z</time>
      </trkpt>
      <trkpt lat="59.182825558901" lon="17.854541508502">
        <ele>82.6</ele>
        <time>2015-03-24T18:07:32Z</time>
      </trkpt>
      <trkpt lat="59.18295388579" lon="17.854739405161">
        <ele>82.6</ele>
        <time>2015-03-24T18:07:36Z</time>
      </trkpt>
      <trkpt lat="59.18310559818" lon="17.854926740626">
        <ele>82.6</ele>
        <time>2015-03-24T18:07:41Z</time>
      </trkpt>
      <trkpt lat="59.183227219549" lon="17.855034448041">
        <ele>83</ele>
        <time>2015-03-24T18:07:45Z</time>
      </trkpt>
      <trkpt lat="59.183259489864" lon="17.85505297204">
        <ele>83.4</ele>
        <time>2015-03-24T18:07:46Z</time>
      </trkpt>
      <trkpt lat="59.183292430731" lon="17.855066215442">
        <ele>83.8</ele>
        <time>2015-03-24T18:07:47Z</time>
      </trkpt>
      <trkpt lat="59.183322354114" lon="17.855072585686">
        <ele>84.2</ele>
        <time>2015-03-24T18:07:48Z</time>
      </trkpt>
      <trkpt lat="59.183353450963" lon="17.855073675333">
        <ele>84.6</ele>
        <time>2015-03-24T18:07:49Z</time>
      </trkpt>
      <trkpt lat="59.183449591356" lon="17.855133019185">
        <ele>84.6</ele>
        <time>2015-03-24T18:07:53Z</time>
      </trkpt>
      <trkpt lat="59.183475407608" lon="17.855165960052">
        <ele>85.4</ele>
        <time>2015-03-24T18:07:54Z</time>
      </trkpt>
      <trkpt lat="59.183500720946" lon="17.8551904352">
        <ele>86</ele>
        <time>2015-03-24T18:07:55Z</time>
      </trkpt>
      <trkpt lat="59.183525782827" lon="17.855218346927">
        <ele>86.4</ele>
        <time>2015-03-24T18:07:56Z</time>
      </trkpt>
      <trkpt lat="59.183547994862" lon="17.855252209803">
        <ele>86.8</ele>
        <time>2015-03-24T18:07:57Z</time>
      </trkpt>
      <trkpt lat="59.183575906589" lon="17.855277523141">
        <ele>86.8</ele>
        <time>2015-03-24T18:07:58Z</time>
      </trkpt>
      <trkpt lat="59.183659474132" lon="17.855424457848">
        <ele>86.8</ele>
        <time>2015-03-24T18:08:02Z</time>
      </trkpt>
      <trkpt lat="59.183746142978" lon="17.855543061733">
        <ele>87.2</ele>
        <time>2015-03-24T18:08:05Z</time>
      </trkpt>
      <trkpt lat="59.183772294506" lon="17.855593939866">
        <ele>87.6</ele>
        <time>2015-03-24T18:08:06Z</time>
      </trkpt>
      <trkpt lat="59.183799368043" lon="17.855655211555">
        <ele>88</ele>
        <time>2015-03-24T18:08:07Z</time>
      </trkpt>
      <trkpt lat="59.183823759372" lon="17.855711202647">
        <ele>88.4</ele>
        <time>2015-03-24T18:08:08Z</time>
      </trkpt>
      <trkpt lat="59.183846390502" lon="17.855762248418">
        <ele>88.8</ele>
        <time>2015-03-24T18:08:09Z</time>
      </trkpt>
      <trkpt lat="59.183891066029" lon="17.855905578908">
        <ele>88.8</ele>
        <time>2015-03-24T18:08:12Z</time>
      </trkpt>
      <trkpt lat="59.183969520613" lon="17.856241609279">
        <ele>88.8</ele>
        <time>2015-03-24T18:08:18Z</time>
      </trkpt>
      <trkpt lat="59.18406113478" lon="17.856749049505">
        <ele>88.8</ele>
        <time>2015-03-24T18:08:25Z</time>
      </trkpt>
      <trkpt lat="59.184067085929" lon="17.856850638133">
        <ele>88.8</ele>
        <time>2015-03-24T18:08:26Z</time>
      </trkpt>
      <trkpt lat="59.184079994055" lon="17.857045684946">
        <ele>88.8</ele>
        <time>2015-03-24T18:08:28Z</time>
      </trkpt>
      <trkpt lat="59.184102457547" lon="17.857301249077">
        <ele>88.8</ele>
        <time>2015-03-24T18:08:31Z</time>
      </trkpt>
      <trkpt lat="59.184166579082" lon="17.857837942134">
        <ele>88.8</ele>
        <time>2015-03-24T18:08:36Z</time>
      </trkpt>
      <trkpt lat="59.184210081143" lon="17.858180845663">
        <ele>88.4</ele>
        <time>2015-03-24T18:08:39Z</time>
      </trkpt>
      <trkpt lat="59.184229946246" lon="17.858293666037">
        <ele>88</ele>
        <time>2015-03-24T18:08:40Z</time>
      </trkpt>
      <trkpt lat="59.184248218788" lon="17.858398523606">
        <ele>87.4</ele>
        <time>2015-03-24T18:08:41Z</time>
      </trkpt>
      <trkpt lat="59.184268000072" lon="17.858496172741">
        <ele>86.8</ele>
        <time>2015-03-24T18:08:42Z</time>
      </trkpt>
      <trkpt lat="59.184295660342" lon="17.858595414437">
        <ele>86.2</ele>
        <time>2015-03-24T18:08:43Z</time>
      </trkpt>
      <trkpt lat="59.184320638404" lon="17.858682753835">
        <ele>85</ele>
        <time>2015-03-24T18:08:44Z</time>
      </trkpt>
      <trkpt lat="59.184370845985" lon="17.858780235332">
        <ele>84.4</ele>
        <time>2015-03-24T18:08:45Z</time>
      </trkpt>
      <trkpt lat="59.184425831249" lon="17.858854666604">
        <ele>84</ele>
        <time>2015-03-24T18:08:46Z</time>
      </trkpt>
      <trkpt lat="59.184483498721" lon="17.858915267741">
        <ele>83.4</ele>
        <time>2015-03-24T18:08:47Z</time>
      </trkpt>
      <trkpt lat="59.184540495641" lon="17.8589706721">
        <ele>82.8</ele>
        <time>2015-03-24T18:08:48Z</time>
      </trkpt>
      <trkpt lat="59.18459506181" lon="17.859030518866">
        <ele>82.2</ele>
        <time>2015-03-24T18:08:49Z</time>
      </trkpt>
      <trkpt lat="59.184652142549" lon="17.859092796383">
        <ele>81.8</ele>
        <time>2015-03-24T18:08:50Z</time>
      </trkpt>
      <trkpt lat="59.184704529424" lon="17.859159432488">
        <ele>81.4</ele>
        <time>2015-03-24T18:08:51Z</time>
      </trkpt>
      <trkpt lat="59.184754150272" lon="17.859232857932">
        <ele>81</ele>
        <time>2015-03-24T18:08:52Z</time>
      </trkpt>
      <trkpt lat="59.184797819971" lon="17.859307456842">
        <ele>80.6</ele>
        <time>2015-03-24T18:08:53Z</time>
      </trkpt>
      <trkpt lat="59.184829503553" lon="17.859395299154">
        <ele>80.2</ele>
        <time>2015-03-24T18:08:54Z</time>
      </trkpt>
      <trkpt lat="59.184856325633" lon="17.859679864659">
        <ele>80.2</ele>
        <time>2015-03-24T18:08:57Z</time>
      </trkpt>
      <trkpt lat="59.184883985903" lon="17.86015922552">
        <ele>80.2</ele>
        <time>2015-03-24T18:09:02Z</time>
      </trkpt>
      <trkpt lat="59.184903264273" lon="17.860258299578">
        <ele>80.2</ele>
        <time>2015-03-24T18:09:03Z</time>
      </trkpt>
      <trkpt lat="59.184971912034" lon="17.860850648451">
        <ele>80.2</ele>
        <time>2015-03-24T18:09:08Z</time>
      </trkpt>
      <trkpt lat="59.184969565102" lon="17.861007054705">
        <ele>79.8</ele>
        <time>2015-03-24T18:09:09Z</time>
      </trkpt>
      <trkpt lat="59.184966044704" lon="17.861158515638">
        <ele>79.2</ele>
        <time>2015-03-24T18:09:10Z</time>
      </trkpt>
      <trkpt lat="59.184958668632" lon="17.861311317675">
        <ele>78.8</ele>
        <time>2015-03-24T18:09:11Z</time>
      </trkpt>
      <trkpt lat="59.184950035275" lon="17.861455989269">
        <ele>78.4</ele>
        <time>2015-03-24T18:09:12Z</time>
      </trkpt>
      <trkpt lat="59.184936959511" lon="17.861602085786">
        <ele>77.8</ele>
        <time>2015-03-24T18:09:13Z</time>
      </trkpt>
      <trkpt lat="59.184921033901" lon="17.861745583914">
        <ele>77.2</ele>
        <time>2015-03-24T18:09:14Z</time>
      </trkpt>
      <trkpt lat="59.184892032527" lon="17.861888579128">
        <ele>76.8</ele>
        <time>2015-03-24T18:09:15Z</time>
      </trkpt>
      <trkpt lat="59.184841908765" lon="17.862006344823">
        <ele>76.2</ele>
        <time>2015-03-24T18:09:16Z</time>
      </trkpt>
      <trkpt lat="59.184780637076" lon="17.862101730845">
        <ele>75.6</ele>
        <time>2015-03-24T18:09:17Z</time>
      </trkpt>
      <trkpt lat="59.184661446458" lon="17.862276661098">
        <ele>75.2</ele>
        <time>2015-03-24T18:09:19Z</time>
      </trkpt>
      <trkpt lat="59.184601264416" lon="17.862362072659">
        <ele>74.8</ele>
        <time>2015-03-24T18:09:20Z</time>
      </trkpt>
      <trkpt lat="59.184544351315" lon="17.862449244419">
        <ele>74.4</ele>
        <time>2015-03-24T18:09:21Z</time>
      </trkpt>
      <trkpt lat="59.184485175101" lon="17.862540271853">
        <ele>74</ele>
        <time>2015-03-24T18:09:22Z</time>
      </trkpt>
      <trkpt lat="59.184427256172" lon="17.862635071142">
        <ele>73.6</ele>
        <time>2015-03-24T18:09:23Z</time>
      </trkpt>
      <trkpt lat="59.184316028359" lon="17.862805558988">
        <ele>73.2</ele>
        <time>2015-03-24T18:09:25Z</time>
      </trkpt>
      <trkpt lat="59.184268335348" lon="17.862867165953">
        <ele>72.8</ele>
        <time>2015-03-24T18:09:26Z</time>
      </trkpt>
      <trkpt lat="59.184223576002" lon="17.86292357614">
        <ele>72.4</ele>
        <time>2015-03-24T18:09:27Z</time>
      </trkpt>
      <trkpt lat="59.184182504692" lon="17.862984344915">
        <ele>72</ele>
        <time>2015-03-24T18:09:28Z</time>
      </trkpt>
      <trkpt lat="59.184142606848" lon="17.8630442755">
        <ele>71.6</ele>
        <time>2015-03-24T18:09:29Z</time>
      </trkpt>
      <trkpt lat="59.18411142618" lon="17.863101859153">
        <ele>71.6</ele>
        <time>2015-03-24T18:09:30Z</time>
      </trkpt>
      <trkpt lat="59.184062475884" lon="17.863244435272">
        <ele>71.6</ele>
        <time>2015-03-24T18:09:32Z</time>
      </trkpt>
      <trkpt lat="59.184057111468" lon="17.863342084407">
        <ele>71.6</ele>
        <time>2015-03-24T18:09:33Z</time>
      </trkpt>
      <trkpt lat="59.18406867849" lon="17.86364944868">
        <ele>71.6</ele>
        <time>2015-03-24T18:09:36Z</time>
      </trkpt>
      <trkpt lat="59.184081838073" lon="17.86386402532">
        <ele>71.2</ele>
        <time>2015-03-24T18:09:38Z</time>
      </trkpt>
      <trkpt lat="59.184081586616" lon="17.863968128518">
        <ele>70.8</ele>
        <time>2015-03-24T18:09:39Z</time>
      </trkpt>
      <trkpt lat="59.184081921892" lon="17.864081619444">
        <ele>70.4</ele>
        <time>2015-03-24T18:09:40Z</time>
      </trkpt>
      <trkpt lat="59.184066750653" lon="17.864187985755">
        <ele>70</ele>
        <time>2015-03-24T18:09:41Z</time>
      </trkpt>
      <trkpt lat="59.18404353279" lon="17.86428228213">
        <ele>69.6</ele>
        <time>2015-03-24T18:09:42Z</time>
      </trkpt>
      <trkpt lat="59.183906237268" lon="17.864864572723">
        <ele>69.6</ele>
        <time>2015-03-24T18:09:48Z</time>
      </trkpt>
      <trkpt lat="59.183945967474" lon="17.865069174902">
        <ele>69</ele>
        <time>2015-03-24T18:09:50Z</time>
      </trkpt>
      <trkpt lat="59.183978573065" lon="17.865163052182">
        <ele>68.6</ele>
        <time>2015-03-24T18:09:51Z</time>
      </trkpt>
      <trkpt lat="59.184008664086" lon="17.865253409064">
        <ele>68</ele>
        <time>2015-03-24T18:09:52Z</time>
      </trkpt>
      <trkpt lat="59.18404101822" lon="17.865348375991">
        <ele>67.6</ele>
        <time>2015-03-24T18:09:53Z</time>
      </trkpt>
      <trkpt lat="59.184064319902" lon="17.865468991532">
        <ele>67</ele>
        <time>2015-03-24T18:09:54Z</time>
      </trkpt>
      <trkpt lat="59.184061218599" lon="17.865594217118">
        <ele>67</ele>
        <time>2015-03-24T18:09:55Z</time>
      </trkpt>
      <trkpt lat="59.184085190833" lon="17.865885488143">
        <ele>67</ele>
        <time>2015-03-24T18:09:58Z</time>
      </trkpt>
      <trkpt lat="59.184169009833" lon="17.866064776984">
        <ele>67</ele>
        <time>2015-03-24T18:10:00Z</time>
      </trkpt>
      <trkpt lat="59.184282081664" lon="17.866276587597">
        <ele>67</ele>
        <time>2015-03-24T18:10:02Z</time>
      </trkpt>
      <trkpt lat="59.184618614949" lon="17.866863404416">
        <ele>67</ele>
        <time>2015-03-24T18:10:08Z</time>
      </trkpt>
      <trkpt lat="59.1847383923" lon="17.867136486718">
        <ele>67</ele>
        <time>2015-03-24T18:10:11Z</time>
      </trkpt>
      <trkpt lat="59.184762615991" lon="17.867214186931">
        <ele>67</ele>
        <time>2015-03-24T18:10:12Z</time>
      </trkpt>
      <trkpt lat="59.184785414759" lon="17.867279733389">
        <ele>67.4</ele>
        <time>2015-03-24T18:10:13Z</time>
      </trkpt>
      <trkpt lat="59.184806453328" lon="17.867324576554">
        <ele>68</ele>
        <time>2015-03-24T18:10:14Z</time>
      </trkpt>
      <trkpt lat="59.184828413906" lon="17.867351147177">
        <ele>68.4</ele>
        <time>2015-03-24T18:10:15Z</time>
      </trkpt>
      <trkpt lat="59.184844171878" lon="17.86737520323">
        <ele>69</ele>
        <time>2015-03-24T18:10:16Z</time>
      </trkpt>
      <trkpt lat="59.184861438592" lon="17.867386770252">
        <ele>69.8</ele>
        <time>2015-03-24T18:10:17Z</time>
      </trkpt>
      <trkpt lat="59.184878202392" lon="17.867411496857">
        <ele>70.4</ele>
        <time>2015-03-24T18:10:18Z</time>
      </trkpt>
      <trkpt lat="59.184893960364" lon="17.867436726376">
        <ele>71.2</ele>
        <time>2015-03-24T18:10:19Z</time>
      </trkpt>
      <trkpt lat="59.184911227078" lon="17.867469751062">
        <ele>71.8</ele>
        <time>2015-03-24T18:10:20Z</time>
      </trkpt>
      <trkpt lat="59.18493033781" lon="17.867515013322">
        <ele>72.6</ele>
        <time>2015-03-24T18:10:21Z</time>
      </trkpt>
      <trkpt lat="59.184945006135" lon="17.867562538695">
        <ele>74</ele>
        <time>2015-03-24T18:10:22Z</time>
      </trkpt>
      <trkpt lat="59.184952549845" lon="17.867605202566">
        <ele>74.4</ele>
        <time>2015-03-24T18:10:23Z</time>
      </trkpt>
      <trkpt lat="59.184964535962" lon="17.867645435686">
        <ele>75</ele>
        <time>2015-03-24T18:10:24Z</time>
      </trkpt>
      <trkpt lat="59.18497392369" lon="17.867689859756">
        <ele>75.4</ele>
        <time>2015-03-24T18:10:25Z</time>
      </trkpt>
      <trkpt lat="59.184983311418" lon="17.867732020713">
        <ele>75.8</ele>
        <time>2015-03-24T18:10:26Z</time>
      </trkpt>
      <trkpt lat="59.184991944775" lon="17.867760938268">
        <ele>76.6</ele>
        <time>2015-03-24T18:10:27Z</time>
      </trkpt>
      <trkpt lat="59.184999572304" lon="17.867787341253">
        <ele>77.2</ele>
        <time>2015-03-24T18:10:28Z</time>
      </trkpt>
      <trkpt lat="59.185005355815" lon="17.867813660419">
        <ele>77.8</ele>
        <time>2015-03-24T18:10:29Z</time>
      </trkpt>
      <trkpt lat="59.185014743543" lon="17.867834363712">
        <ele>78.4</ele>
        <time>2015-03-24T18:10:30Z</time>
      </trkpt>
      <trkpt lat="59.185027735488" lon="17.867864957647">
        <ele>79</ele>
        <time>2015-03-24T18:10:31Z</time>
      </trkpt>
      <trkpt lat="59.185045588935" lon="17.867894210478">
        <ele>79.6</ele>
        <time>2015-03-24T18:10:32Z</time>
      </trkpt>
      <trkpt lat="59.185064783486" lon="17.867923882404">
        <ele>80.2</ele>
        <time>2015-03-24T18:10:33Z</time>
      </trkpt>
      <trkpt lat="59.185083894218" lon="17.867945926801">
        <ele>80.6</ele>
        <time>2015-03-24T18:10:34Z</time>
      </trkpt>
      <trkpt lat="59.185107698814" lon="17.867975514908">
        <ele>81.2</ele>
        <time>2015-03-24T18:10:35Z</time>
      </trkpt>
      <trkpt lat="59.18516251644" lon="17.868084395789">
        <ele>81.2</ele>
        <time>2015-03-24T18:10:38Z</time>
      </trkpt>
      <trkpt lat="59.185263266878" lon="17.868381450325">
        <ele>81.2</ele>
        <time>2015-03-24T18:10:44Z</time>
      </trkpt>
      <trkpt lat="59.185433670905" lon="17.868753271409">
        <ele>81.2</ele>
        <time>2015-03-24T18:10:50Z</time>
      </trkpt>
      <trkpt lat="59.18556400945" lon="17.869083685907">
        <ele>81.2</ele>
        <time>2015-03-24T18:10:55Z</time>
      </trkpt>
      <trkpt lat="59.185679092937" lon="17.869607722295">
        <ele>81.2</ele>
        <time>2015-03-24T18:11:01Z</time>
      </trkpt>
      <trkpt lat="59.18574002935" lon="17.870208704525">
        <ele>81.2</ele>
        <time>2015-03-24T18:11:07Z</time>
      </trkpt>
      <trkpt lat="59.185756541693" lon="17.870296043923">
        <ele>81.2</ele>
        <time>2015-03-24T18:11:08Z</time>
      </trkpt>
      <trkpt lat="59.185777244986" lon="17.870378857095">
        <ele>80.8</ele>
        <time>2015-03-24T18:11:09Z</time>
      </trkpt>
      <trkpt lat="59.185801720134" lon="17.870453791281">
        <ele>80.4</ele>
        <time>2015-03-24T18:11:10Z</time>
      </trkpt>
      <trkpt lat="59.185836002105" lon="17.870516068798">
        <ele>79.6</ele>
        <time>2015-03-24T18:11:11Z</time>
      </trkpt>
      <trkpt lat="59.185871373723" lon="17.870566360198">
        <ele>79</ele>
        <time>2015-03-24T18:11:12Z</time>
      </trkpt>
      <trkpt lat="59.185968603763" lon="17.870723017909">
        <ele>79</ele>
        <time>2015-03-24T18:11:15Z</time>
      </trkpt>
      <trkpt lat="59.186029540176" lon="17.870821337596">
        <ele>78.6</ele>
        <time>2015-03-24T18:11:17Z</time>
      </trkpt>
      <trkpt lat="59.186059547378" lon="17.870850087513">
        <ele>78</ele>
        <time>2015-03-24T18:11:18Z</time>
      </trkpt>
      <trkpt lat="59.186088045838" lon="17.870890655909">
        <ele>77.4</ele>
        <time>2015-03-24T18:11:19Z</time>
      </trkpt>
      <trkpt lat="59.186112688624" lon="17.870942288413">
        <ele>77</ele>
        <time>2015-03-24T18:11:20Z</time>
      </trkpt>
      <trkpt lat="59.186133391917" lon="17.87101630059">
        <ele>76.4</ele>
        <time>2015-03-24T18:11:21Z</time>
      </trkpt>
      <trkpt lat="59.186146719138" lon="17.871102801798">
        <ele>76.4</ele>
        <time>2015-03-24T18:11:22Z</time>
      </trkpt>
      <trkpt lat="59.186156777418" lon="17.871187375169">
        <ele>76.4</ele>
        <time>2015-03-24T18:11:23Z</time>
      </trkpt>
      <trkpt lat="59.186185862611" lon="17.871433551572">
        <ele>76.4</ele>
        <time>2015-03-24T18:11:27Z</time>
      </trkpt>
      <trkpt lat="59.186246128472" lon="17.871786010467">
        <ele>76.4</ele>
        <time>2015-03-24T18:11:32Z</time>
      </trkpt>
      <trkpt lat="59.186232968889" lon="17.872051632878">
        <ele>76.4</ele>
        <time>2015-03-24T18:11:35Z</time>
      </trkpt>
      <trkpt lat="59.186294408216" lon="17.872271825391">
        <ele>76.4</ele>
        <time>2015-03-24T18:11:38Z</time>
      </trkpt>
      <trkpt lat="59.186322403762" lon="17.872344412645">
        <ele>76.4</ele>
        <time>2015-03-24T18:11:39Z</time>
      </trkpt>
      <trkpt lat="59.18637453918" lon="17.872500483623">
        <ele>76.4</ele>
        <time>2015-03-24T18:11:41Z</time>
      </trkpt>
      <trkpt lat="59.186433966851" lon="17.872763423826">
        <ele>76.4</ele>
        <time>2015-03-24T18:11:44Z</time>
      </trkpt>
      <trkpt lat="59.186444360407" lon="17.872860653866">
        <ele>76.4</ele>
        <time>2015-03-24T18:11:45Z</time>
      </trkpt>
      <trkpt lat="59.186512672892" lon="17.87328611911">
        <ele>76.4</ele>
        <time>2015-03-24T18:11:50Z</time>
      </trkpt>
      <trkpt lat="59.186548212148" lon="17.873553585539">
        <ele>76.4</ele>
        <time>2015-03-24T18:11:53Z</time>
      </trkpt>
      <trkpt lat="59.186592720037" lon="17.87382507528">
        <ele>76.4</ele>
        <time>2015-03-24T18:11:56Z</time>
      </trkpt>
      <trkpt lat="59.186637898478" lon="17.873986510674">
        <ele>76.4</ele>
        <time>2015-03-24T18:11:58Z</time>
      </trkpt>
      <trkpt lat="59.18671232975" lon="17.874270573265">
        <ele>76.4</ele>
        <time>2015-03-24T18:12:01Z</time>
      </trkpt>
      <trkpt lat="59.186859599733" lon="17.874763931899">
        <ele>76.4</ele>
        <time>2015-03-24T18:12:07Z</time>
      </trkpt>
      <trkpt lat="59.187040397316" lon="17.874976664521">
        <ele>76.8</ele>
        <time>2015-03-24T18:12:12Z</time>
      </trkpt>
      <trkpt lat="59.187078367323" lon="17.875005330619">
        <ele>77.2</ele>
        <time>2015-03-24T18:12:13Z</time>
      </trkpt>
      <trkpt lat="59.187118600443" lon="17.87503290707">
        <ele>77.6</ele>
        <time>2015-03-24T18:12:14Z</time>
      </trkpt>
      <trkpt lat="59.187157324821" lon="17.87504296535">
        <ele>78</ele>
        <time>2015-03-24T18:12:15Z</time>
      </trkpt>
      <trkpt lat="59.187196216837" lon="17.875039361133">
        <ele>78.4</ele>
        <time>2015-03-24T18:12:16Z</time>
      </trkpt>
      <trkpt lat="59.187231756093" lon="17.87500692318">
        <ele>78.4</ele>
        <time>2015-03-24T18:12:17Z</time>
      </trkpt>
      <trkpt lat="59.187381959741" lon="17.87480575758">
        <ele>79</ele>
        <time>2015-03-24T18:12:22Z</time>
      </trkpt>
      <trkpt lat="59.187416996083" lon="17.874780444242">
        <ele>79.4</ele>
        <time>2015-03-24T18:12:23Z</time>
      </trkpt>
      <trkpt lat="59.187451110416" lon="17.874755214723">
        <ele>79.8</ele>
        <time>2015-03-24T18:12:24Z</time>
      </trkpt>
      <trkpt lat="59.18749100826" lon="17.874737780371">
        <ele>80.2</ele>
        <time>2015-03-24T18:12:25Z</time>
      </trkpt>
      <trkpt lat="59.187536438158" lon="17.874727470634">
        <ele>80.6</ele>
        <time>2015-03-24T18:12:26Z</time>
      </trkpt>
      <trkpt lat="59.187782446923" lon="17.874715400698">
        <ele>80.6</ele>
        <time>2015-03-24T18:12:32Z</time>
      </trkpt>
      <trkpt lat="59.187974895347" lon="17.874728895557">
        <ele>80.6</ele>
        <time>2015-03-24T18:12:36Z</time>
      </trkpt>
      <trkpt lat="59.188029042421" lon="17.874748844479">
        <ele>80.6</ele>
        <time>2015-03-24T18:12:37Z</time>
      </trkpt>
      <trkpt lat="59.18835518215" lon="17.874855043152">
        <ele>80.6</ele>
        <time>2015-03-24T18:12:43Z</time>
      </trkpt>
      <trkpt lat="59.188396840193" lon="17.874893180797">
        <ele>80.6</ele>
        <time>2015-03-24T18:12:44Z</time>
      </trkpt>
      <trkpt lat="59.188552827352" lon="17.875065428842">
        <ele>80.6</ele>
        <time>2015-03-24T18:12:48Z</time>
      </trkpt>
      <trkpt lat="59.188595826499" lon="17.875083533746">
        <ele>80.6</ele>
        <time>2015-03-24T18:12:49Z</time>
      </trkpt>
      <trkpt lat="59.188825155283" lon="17.875029805767">
        <ele>80.6</ele>
        <time>2015-03-24T18:12:54Z</time>
      </trkpt>
      <trkpt lat="59.188972509085" lon="17.87486107812">
        <ele>80.6</ele>
        <time>2015-03-24T18:12:58Z</time>
      </trkpt>
      <trkpt lat="59.189005952866" lon="17.87482335957">
        <ele>80.6</ele>
        <time>2015-03-24T18:12:59Z</time>
      </trkpt>
      <trkpt lat="59.189085413278" lon="17.874779186957">
        <ele>80.6</ele>
        <time>2015-03-24T18:13:01Z</time>
      </trkpt>
      <trkpt lat="59.189172333581" lon="17.874810116168">
        <ele>80.6</ele>
        <time>2015-03-24T18:13:03Z</time>
      </trkpt>
      <trkpt lat="59.189311976035" lon="17.874917823583">
        <ele>80.6</ele>
        <time>2015-03-24T18:13:06Z</time>
      </trkpt>
      <trkpt lat="59.189355310458" lon="17.874950261536">
        <ele>81.2</ele>
        <time>2015-03-24T18:13:07Z</time>
      </trkpt>
      <trkpt lat="59.189399483071" lon="17.874997619271">
        <ele>81.6</ele>
        <time>2015-03-24T18:13:08Z</time>
      </trkpt>
      <trkpt lat="59.189444577693" lon="17.875042378617">
        <ele>82</ele>
        <time>2015-03-24T18:13:09Z</time>
      </trkpt>
      <trkpt lat="59.189480200768" lon="17.875083617565">
        <ele>82.4</ele>
        <time>2015-03-24T18:13:10Z</time>
      </trkpt>
      <trkpt lat="59.189516997309" lon="17.87511085874">
        <ele>82.8</ele>
        <time>2015-03-24T18:13:11Z</time>
      </trkpt>
      <trkpt lat="59.189546920692" lon="17.875143296693">
        <ele>82.8</ele>
        <time>2015-03-24T18:13:12Z</time>
      </trkpt>
      <trkpt lat="59.189642893447" lon="17.875274641066">
        <ele>83.2</ele>
        <time>2015-03-24T18:13:15Z</time>
      </trkpt>
      <trkpt lat="59.18966862588" lon="17.875332057081">
        <ele>83.6</ele>
        <time>2015-03-24T18:13:16Z</time>
      </trkpt>
      <trkpt lat="59.189696621426" lon="17.875391987666">
        <ele>84</ele>
        <time>2015-03-24T18:13:17Z</time>
      </trkpt>
      <trkpt lat="59.189731741587" lon="17.87544194379">
        <ele>84.4</ele>
        <time>2015-03-24T18:13:18Z</time>
      </trkpt>
      <trkpt lat="59.189774405458" lon="17.875464491101">
        <ele>84.8</ele>
        <time>2015-03-24T18:13:19Z</time>
      </trkpt>
      <trkpt lat="59.189814387121" lon="17.875483518014">
        <ele>84.8</ele>
        <time>2015-03-24T18:13:20Z</time>
      </trkpt>
      <trkpt lat="59.189851099843" lon="17.875505981506">
        <ele>85.4</ele>
        <time>2015-03-24T18:13:21Z</time>
      </trkpt>
      <trkpt lat="59.189880855588" lon="17.875532300672">
        <ele>85.8</ele>
        <time>2015-03-24T18:13:22Z</time>
      </trkpt>
      <trkpt lat="59.189907426211" lon="17.875560547675">
        <ele>86.2</ele>
        <time>2015-03-24T18:13:23Z</time>
      </trkpt>
      <trkpt lat="59.189937098137" lon="17.87559784713">
        <ele>86.6</ele>
        <time>2015-03-24T18:13:24Z</time>
      </trkpt>
      <trkpt lat="59.189965428959" lon="17.875642103562">
        <ele>87</ele>
        <time>2015-03-24T18:13:25Z</time>
      </trkpt>
      <trkpt lat="59.190064167741" lon="17.875740423249">
        <ele>87.4</ele>
        <time>2015-03-24T18:13:29Z</time>
      </trkpt>
      <trkpt lat="59.190085960681" lon="17.875746877312">
        <ele>87.8</ele>
        <time>2015-03-24T18:13:30Z</time>
      </trkpt>
      <trkpt lat="59.190108424173" lon="17.875746877312">
        <ele>88.4</ele>
        <time>2015-03-24T18:13:31Z</time>
      </trkpt>
      <trkpt lat="59.190128624552" lon="17.875738495412">
        <ele>88.8</ele>
        <time>2015-03-24T18:13:32Z</time>
      </trkpt>
      <trkpt lat="59.190155027537" lon="17.875717289205">
        <ele>89.2</ele>
        <time>2015-03-24T18:13:33Z</time>
      </trkpt>
      <trkpt lat="59.190186124386" lon="17.875695747722">
        <ele>89.6</ele>
        <time>2015-03-24T18:13:34Z</time>
      </trkpt>
      <trkpt lat="59.190221328366" lon="17.875670182927">
        <ele>90</ele>
        <time>2015-03-24T18:13:35Z</time>
      </trkpt>
      <trkpt lat="59.190254017776" lon="17.875651072195">
        <ele>90.4</ele>
        <time>2015-03-24T18:13:36Z</time>
      </trkpt>
      <trkpt lat="59.190278073829" lon="17.875628943979">
        <ele>90.8</ele>
        <time>2015-03-24T18:13:37Z</time>
      </trkpt>
      <trkpt lat="59.190300872597" lon="17.875607151039">
        <ele>91.2</ele>
        <time>2015-03-24T18:13:38Z</time>
      </trkpt>
      <trkpt lat="59.190324174279" lon="17.8755835979">
        <ele>91.8</ele>
        <time>2015-03-24T18:13:39Z</time>
      </trkpt>
      <trkpt lat="59.190345715762" lon="17.87556096677">
        <ele>92.6</ele>
        <time>2015-03-24T18:13:40Z</time>
      </trkpt>
      <trkpt lat="59.190365245589" lon="17.875536240165">
        <ele>93.2</ele>
        <time>2015-03-24T18:13:41Z</time>
      </trkpt>
      <trkpt lat="59.190384188683" lon="17.875511345922">
        <ele>93.6</ele>
        <time>2015-03-24T18:13:42Z</time>
      </trkpt>
      <trkpt lat="59.190403383234" lon="17.875485948765">
        <ele>94.2</ele>
        <time>2015-03-24T18:13:43Z</time>
      </trkpt>
      <trkpt lat="59.190423918889" lon="17.875446721473">
        <ele>94.8</ele>
        <time>2015-03-24T18:13:44Z</time>
      </trkpt>
      <trkpt lat="59.19044478982" lon="17.875410763122">
        <ele>95.2</ele>
        <time>2015-03-24T18:13:45Z</time>
      </trkpt>
      <trkpt lat="59.190461805077" lon="17.875363740663">
        <ele>95.8</ele>
        <time>2015-03-24T18:13:46Z</time>
      </trkpt>
      <trkpt lat="59.190470941348" lon="17.875307665752">
        <ele>95.8</ele>
        <time>2015-03-24T18:13:47Z</time>
      </trkpt>
      <trkpt lat="59.190468845873" lon="17.875085210126">
        <ele>96.8</ele>
        <time>2015-03-24T18:13:50Z</time>
      </trkpt>
      <trkpt lat="59.190452501168" lon="17.875019412211">
        <ele>97.2</ele>
        <time>2015-03-24T18:13:51Z</time>
      </trkpt>
      <trkpt lat="59.19043976068" lon="17.87496249911">
        <ele>97.6</ele>
        <time>2015-03-24T18:13:52Z</time>
      </trkpt>
      <trkpt lat="59.190426098183" lon="17.87491388409">
        <ele>98</ele>
        <time>2015-03-24T18:13:53Z</time>
      </trkpt>
      <trkpt lat="59.190379159543" lon="17.874732583593">
        <ele>98</ele>
        <time>2015-03-24T18:13:56Z</time>
      </trkpt>
      <trkpt lat="59.190353930024" lon="17.874639125408">
        <ele>98.4</ele>
        <time>2015-03-24T18:13:58Z</time>
      </trkpt>
      <trkpt lat="59.190343955563" lon="17.874587073809">
        <ele>99</ele>
        <time>2015-03-24T18:13:59Z</time>
      </trkpt>
      <trkpt lat="59.190328113772" lon="17.874545499585">
        <ele>99.4</ele>
        <time>2015-03-24T18:14:00Z</time>
      </trkpt>
      <trkpt lat="59.190321408252" lon="17.874489676131">
        <ele>99.8</ele>
        <time>2015-03-24T18:14:01Z</time>
      </trkpt>
      <trkpt lat="59.190320150967" lon="17.874432511573">
        <ele>100.2</ele>
        <time>2015-03-24T18:14:02Z</time>
      </trkpt>
      <trkpt lat="59.190307075203" lon="17.874199327115">
        <ele>100.2</ele>
        <time>2015-03-24T18:14:06Z</time>
      </trkpt>
      <trkpt lat="59.190332891455" lon="17.873849969523">
        <ele>100.2</ele>
        <time>2015-03-24T18:14:11Z</time>
      </trkpt>
      <trkpt lat="59.190379913914" lon="17.873606642966">
        <ele>100.2</ele>
        <time>2015-03-24T18:14:15Z</time>
      </trkpt>
      <trkpt lat="59.190491644641" lon="17.873297183218">
        <ele>100.6</ele>
        <time>2015-03-24T18:14:20Z</time>
      </trkpt>
      <trkpt lat="59.190503714577" lon="17.873240186298">
        <ele>101</ele>
        <time>2015-03-24T18:14:21Z</time>
      </trkpt>
      <trkpt lat="59.190513689038" lon="17.873182854102">
        <ele>101.4</ele>
        <time>2015-03-24T18:14:22Z</time>
      </trkpt>
      <trkpt lat="59.190514108133" lon="17.873115379807">
        <ele>101.8</ele>
        <time>2015-03-24T18:14:23Z</time>
      </trkpt>
      <trkpt lat="59.190505642414" lon="17.873032650454">
        <ele>102.2</ele>
        <time>2015-03-24T18:14:24Z</time>
      </trkpt>
      <trkpt lat="59.190503882215" lon="17.87294749035">
        <ele>102.2</ele>
        <time>2015-03-24T18:14:25Z</time>
      </trkpt>
      <trkpt lat="59.190574038718" lon="17.872779684712">
        <ele>102.2</ele>
        <time>2015-03-24T18:14:28Z</time>
      </trkpt>
      <trkpt lat="59.190652074207" lon="17.872632247091">
        <ele>102.6</ele>
        <time>2015-03-24T18:14:31Z</time>
      </trkpt>
      <trkpt lat="59.190674956794" lon="17.872582123329">
        <ele>103</ele>
        <time>2015-03-24T18:14:32Z</time>
      </trkpt>
      <trkpt lat="59.190699431942" lon="17.872540381467">
        <ele>103.4</ele>
        <time>2015-03-24T18:14:33Z</time>
      </trkpt>
      <trkpt lat="59.190727930402" lon="17.872497130863">
        <ele>103.8</ele>
        <time>2015-03-24T18:14:34Z</time>
      </trkpt>
      <trkpt lat="59.190757350871" lon="17.872471985163">
        <ele>104.2</ele>
        <time>2015-03-24T18:14:35Z</time>
      </trkpt>
      <trkpt lat="59.190787274254" lon="17.872503836383">
        <ele>104.2</ele>
        <time>2015-03-24T18:14:36Z</time>
      </trkpt>
      <trkpt lat="59.190845696097" lon="17.872585308451">
        <ele>104.2</ele>
        <time>2015-03-24T18:14:38Z</time>
      </trkpt>
      <trkpt lat="59.190949883114" lon="17.87270190068">
        <ele>104.2</ele>
        <time>2015-03-24T18:14:41Z</time>
      </trkpt>
      <trkpt lat="59.190987601664" lon="17.872701733042">
        <ele>104.2</ele>
        <time>2015-03-24T18:14:42Z</time>
      </trkpt>
      <trkpt lat="59.191245428908" lon="17.872640461353">
        <ele>104.2</ele>
        <time>2015-03-24T18:14:47Z</time>
      </trkpt>
      <trkpt lat="59.191515409907" lon="17.872525629323">
        <ele>104.2</ele>
        <time>2015-03-24T18:14:52Z</time>
      </trkpt>
      <trkpt lat="59.191577938881" lon="17.872544153322">
        <ele>103.8</ele>
        <time>2015-03-24T18:14:53Z</time>
      </trkpt>
      <trkpt lat="59.191647676289" lon="17.872570472488">
        <ele>103.4</ele>
        <time>2015-03-24T18:14:54Z</time>
      </trkpt>
      <trkpt lat="59.191734177497" lon="17.872616153843">
        <ele>102.6</ele>
        <time>2015-03-24T18:14:55Z</time>
      </trkpt>
      <trkpt lat="59.191807602941" lon="17.872662254293">
        <ele>102.2</ele>
        <time>2015-03-24T18:14:56Z</time>
      </trkpt>
      <trkpt lat="59.191870299553" lon="17.872715563177">
        <ele>102.2</ele>
        <time>2015-03-24T18:14:57Z</time>
      </trkpt>
      <trkpt lat="59.192031818766" lon="17.872819331099">
        <ele>102.2</ele>
        <time>2015-03-24T18:15:00Z</time>
      </trkpt>
      <trkpt lat="59.192081607252" lon="17.872838944745">
        <ele>101.8</ele>
        <time>2015-03-24T18:15:01Z</time>
      </trkpt>
      <trkpt lat="59.192131982471" lon="17.87286115678">
        <ele>101.4</ele>
        <time>2015-03-24T18:15:02Z</time>
      </trkpt>
      <trkpt lat="59.192197864205" lon="17.872866521196">
        <ele>101</ele>
        <time>2015-03-24T18:15:03Z</time>
      </trkpt>
      <trkpt lat="59.192270954373" lon="17.872866018282">
        <ele>100.6</ele>
        <time>2015-03-24T18:15:04Z</time>
      </trkpt>
      <trkpt lat="59.192334489175" lon="17.872852858699">
        <ele>100.2</ele>
        <time>2015-03-24T18:15:05Z</time>
      </trkpt>
      <trkpt lat="59.192460050037" lon="17.872811452113">
        <ele>99.8</ele>
        <time>2015-03-24T18:15:07Z</time>
      </trkpt>
      <trkpt lat="59.192521405545" lon="17.872804746593">
        <ele>99.4</ele>
        <time>2015-03-24T18:15:08Z</time>
      </trkpt>
      <trkpt lat="59.192584269795" lon="17.8727924252">
        <ele>99</ele>
        <time>2015-03-24T18:15:09Z</time>
      </trkpt>
      <trkpt lat="59.192655264488" lon="17.872791084096">
        <ele>98.6</ele>
        <time>2015-03-24T18:15:10Z</time>
      </trkpt>
      <trkpt lat="59.192718128738" lon="17.87281086538">
        <ele>98.2</ele>
        <time>2015-03-24T18:15:11Z</time>
      </trkpt>
      <trkpt lat="59.192835810614" lon="17.872943969952">
        <ele>98.2</ele>
        <time>2015-03-24T18:15:13Z</time>
      </trkpt>
      <trkpt lat="59.193001939872" lon="17.873007253297">
        <ele>98.2</ele>
        <time>2015-03-24T18:15:16Z</time>
      </trkpt>
      <trkpt lat="59.19315549628" lon="17.872822348583">
        <ele>98.2</ele>
        <time>2015-03-24T18:15:19Z</time>
      </trkpt>
      <trkpt lat="59.193221378014" lon="17.872496963225">
        <ele>98.2</ele>
        <time>2015-03-24T18:15:22Z</time>
      </trkpt>
      <trkpt lat="59.193220707462" lon="17.872276435436">
        <ele>98.2</ele>
        <time>2015-03-24T18:15:24Z</time>
      </trkpt>
      <trkpt lat="59.193202770196" lon="17.872055069457">
        <ele>98.2</ele>
        <time>2015-03-24T18:15:26Z</time>
      </trkpt>
      <trkpt lat="59.193175696659" lon="17.871951972087">
        <ele>98.2</ele>
        <time>2015-03-24T18:15:27Z</time>
      </trkpt>
      <trkpt lat="59.193122220137" lon="17.871750722668">
        <ele>98.2</ele>
        <time>2015-03-24T18:15:29Z</time>
      </trkpt>
      <trkpt lat="59.193063714475" lon="17.871428522432">
        <ele>98.2</ele>
        <time>2015-03-24T18:15:32Z</time>
      </trkpt>
      <trkpt lat="59.192952151386" lon="17.870697201657">
        <ele>98.2</ele>
        <time>2015-03-24T18:15:39Z</time>
      </trkpt>
      <trkpt lat="59.192895489742" lon="17.870230162189">
        <ele>97.6</ele>
        <time>2015-03-24T18:15:43Z</time>
      </trkpt>
      <trkpt lat="59.192894735371" lon="17.870112983227">
        <ele>96.8</ele>
        <time>2015-03-24T18:15:44Z</time>
      </trkpt>
      <trkpt lat="59.192910325705" lon="17.869981890311">
        <ele>96.4</ele>
        <time>2015-03-24T18:15:45Z</time>
      </trkpt>
      <trkpt lat="59.192922898555" lon="17.869853563422">
        <ele>96</ele>
        <time>2015-03-24T18:15:46Z</time>
      </trkpt>
      <trkpt lat="59.192943518029" lon="17.869592634875">
        <ele>96</ele>
        <time>2015-03-24T18:15:48Z</time>
      </trkpt>
      <trkpt lat="59.192964640417" lon="17.869332963613">
        <ele>95.4</ele>
        <time>2015-03-24T18:15:50Z</time>
      </trkpt>
      <trkpt lat="59.192981739493" lon="17.869207570389">
        <ele>95</ele>
        <time>2015-03-24T18:15:51Z</time>
      </trkpt>
      <trkpt lat="59.192997329827" lon="17.869084859373">
        <ele>94.6</ele>
        <time>2015-03-24T18:15:52Z</time>
      </trkpt>
      <trkpt lat="59.193011662876" lon="17.86896776423">
        <ele>94.2</ele>
        <time>2015-03-24T18:15:53Z</time>
      </trkpt>
      <trkpt lat="59.193026331201" lon="17.868849663259">
        <ele>93.6</ele>
        <time>2015-03-24T18:15:54Z</time>
      </trkpt>
      <trkpt lat="59.193037395309" lon="17.868729802089">
        <ele>93.6</ele>
        <time>2015-03-24T18:15:55Z</time>
      </trkpt>
      <trkpt lat="59.193057344231" lon="17.868477758356">
        <ele>93.6</ele>
        <time>2015-03-24T18:15:57Z</time>
      </trkpt>
      <trkpt lat="59.19308844108" lon="17.868230911401">
        <ele>93.6</ele>
        <time>2015-03-24T18:15:59Z</time>
      </trkpt>
      <trkpt lat="59.193103696138" lon="17.868109709127">
        <ele>93.2</ele>
        <time>2015-03-24T18:16:00Z</time>
      </trkpt>
      <trkpt lat="59.193121717223" lon="17.867983477713">
        <ele>92.8</ele>
        <time>2015-03-24T18:16:01Z</time>
      </trkpt>
      <trkpt lat="59.193148204027" lon="17.867858335946">
        <ele>92.4</ele>
        <time>2015-03-24T18:16:02Z</time>
      </trkpt>
      <trkpt lat="59.193180222885" lon="17.8677381395">
        <ele>91.8</ele>
        <time>2015-03-24T18:16:03Z</time>
      </trkpt>
      <trkpt lat="59.193202015825" lon="17.86761827833">
        <ele>91.4</ele>
        <time>2015-03-24T18:16:04Z</time>
      </trkpt>
      <trkpt lat="59.193196399952" lon="17.867498584798">
        <ele>91.4</ele>
        <time>2015-03-24T18:16:05Z</time>
      </trkpt>
      <trkpt lat="59.193070922909" lon="17.867187364851">
        <ele>91.4</ele>
        <time>2015-03-24T18:16:08Z</time>
      </trkpt>
      <trkpt lat="59.192965394788" lon="17.867030371864">
        <ele>91.4</ele>
        <time>2015-03-24T18:16:10Z</time>
      </trkpt>
      <trkpt lat="59.192828099266" lon="17.866720828297">
        <ele>91.4</ele>
        <time>2015-03-24T18:16:13Z</time>
      </trkpt>
      <trkpt lat="59.192793901114" lon="17.866605158077">
        <ele>91</ele>
        <time>2015-03-24T18:16:14Z</time>
      </trkpt>
      <trkpt lat="59.192757439849" lon="17.866479597215">
        <ele>90.6</ele>
        <time>2015-03-24T18:16:15Z</time>
      </trkpt>
      <trkpt lat="59.192719050747" lon="17.866360406597">
        <ele>90</ele>
        <time>2015-03-24T18:16:16Z</time>
      </trkpt>
      <trkpt lat="59.19267018427" lon="17.866252196268">
        <ele>89.6</ele>
        <time>2015-03-24T18:16:17Z</time>
      </trkpt>
      <trkpt lat="59.192625257286" lon="17.866133676202">
        <ele>89</ele>
        <time>2015-03-24T18:16:18Z</time>
      </trkpt>
      <trkpt lat="59.192550406919" lon="17.865862857013">
        <ele>88.6</ele>
        <time>2015-03-24T18:16:20Z</time>
      </trkpt>
      <trkpt lat="59.192521070269" lon="17.865710054976">
        <ele>88</ele>
        <time>2015-03-24T18:16:21Z</time>
      </trkpt>
      <trkpt lat="59.192519729165" lon="17.865542165519">
        <ele>87.6</ele>
        <time>2015-03-24T18:16:22Z</time>
      </trkpt>
      <trkpt lat="59.192527775789" lon="17.86535013619">
        <ele>87</ele>
        <time>2015-03-24T18:16:23Z</time>
      </trkpt>
      <trkpt lat="59.192552586213" lon="17.865180235077">
        <ele>86.4</ele>
        <time>2015-03-24T18:16:24Z</time>
      </trkpt>
      <trkpt lat="59.192581084673" lon="17.865022990633">
        <ele>85.6</ele>
        <time>2015-03-24T18:16:25Z</time>
      </trkpt>
      <trkpt lat="59.192625592562" lon="17.864873289899">
        <ele>84.8</ele>
        <time>2015-03-24T18:16:26Z</time>
      </trkpt>
      <trkpt lat="59.192687367165" lon="17.864723002432">
        <ele>83.8</ele>
        <time>2015-03-24T18:16:27Z</time>
      </trkpt>
      <trkpt lat="59.19273807766" lon="17.86461001442">
        <ele>83</ele>
        <time>2015-03-24T18:16:28Z</time>
      </trkpt>
      <trkpt lat="59.192785770671" lon="17.864507587602">
        <ele>82.2</ele>
        <time>2015-03-24T18:16:29Z</time>
      </trkpt>
      <trkpt lat="59.192826841981" lon="17.864421086394">
        <ele>81.2</ele>
        <time>2015-03-24T18:16:30Z</time>
      </trkpt>
      <trkpt lat="59.192870763137" lon="17.86432586801">
        <ele>80.4</ele>
        <time>2015-03-24T18:16:31Z</time>
      </trkpt>
      <trkpt lat="59.192918959062" lon="17.864237941879">
        <ele>79.6</ele>
        <time>2015-03-24T18:16:32Z</time>
      </trkpt>
      <trkpt lat="59.192970591566" lon="17.864164013521">
        <ele>79</ele>
        <time>2015-03-24T18:16:33Z</time>
      </trkpt>
      <trkpt lat="59.193019206586" lon="17.86410123309">
        <ele>77.8</ele>
        <time>2015-03-24T18:16:34Z</time>
      </trkpt>
      <trkpt lat="59.193063882113" lon="17.864006769077">
        <ele>77.2</ele>
        <time>2015-03-24T18:16:35Z</time>
      </trkpt>
      <trkpt lat="59.193096068609" lon="17.863940049153">
        <ele>76.6</ele>
        <time>2015-03-24T18:16:36Z</time>
      </trkpt>
      <trkpt lat="59.193116771902" lon="17.863867126623">
        <ele>76.6</ele>
        <time>2015-03-24T18:16:37Z</time>
      </trkpt>
      <trkpt lat="59.193119202653" lon="17.863731256024">
        <ele>76.2</ele>
        <time>2015-03-24T18:16:39Z</time>
      </trkpt>
      <trkpt lat="59.19311777773" lon="17.863675013475">
        <ele>75.8</ele>
        <time>2015-03-24T18:16:40Z</time>
      </trkpt>
      <trkpt lat="59.19309263203" lon="17.863638636029">
        <ele>75.4</ele>
        <time>2015-03-24T18:16:41Z</time>
      </trkpt>
      <trkpt lat="59.193070671452" lon="17.863615418166">
        <ele>75</ele>
        <time>2015-03-24T18:16:42Z</time>
      </trkpt>
      <trkpt lat="59.193041334802" lon="17.863595720701">
        <ele>74.6</ele>
        <time>2015-03-24T18:16:43Z</time>
      </trkpt>
      <trkpt lat="59.193004454442" lon="17.86357987891">
        <ele>74</ele>
        <time>2015-03-24T18:16:44Z</time>
      </trkpt>
      <trkpt lat="59.19296187439" lon="17.863545094025">
        <ele>73.6</ele>
        <time>2015-03-24T18:16:45Z</time>
      </trkpt>
      <trkpt lat="59.192914684293" lon="17.863490276399">
        <ele>73.2</ele>
        <time>2015-03-24T18:16:46Z</time>
      </trkpt>
      <trkpt lat="59.192856513907" lon="17.863414923118">
        <ele>72.6</ele>
        <time>2015-03-24T18:16:47Z</time>
      </trkpt>
      <trkpt lat="59.192796583322" lon="17.863298833803">
        <ele>72.2</ele>
        <time>2015-03-24T18:16:48Z</time>
      </trkpt>
      <trkpt lat="59.192738748212" lon="17.863168662896">
        <ele>71.6</ele>
        <time>2015-03-24T18:16:49Z</time>
      </trkpt>
      <trkpt lat="59.192679655817" lon="17.863029942451">
        <ele>71</ele>
        <time>2015-03-24T18:16:50Z</time>
      </trkpt>
      <trkpt lat="59.192626179295" lon="17.862884935581">
        <ele>70.2</ele>
        <time>2015-03-24T18:16:51Z</time>
      </trkpt>
      <trkpt lat="59.192568847099" lon="17.862716124115">
        <ele>69.6</ele>
        <time>2015-03-24T18:16:52Z</time>
      </trkpt>
      <trkpt lat="59.192515370577" lon="17.862556868015">
        <ele>68.8</ele>
        <time>2015-03-24T18:16:53Z</time>
      </trkpt>
      <trkpt lat="59.192457451648" lon="17.862393420965">
        <ele>68.2</ele>
        <time>2015-03-24T18:16:54Z</time>
      </trkpt>
      <trkpt lat="59.192398945986" lon="17.86222787844">
        <ele>67.4</ele>
        <time>2015-03-24T18:16:55Z</time>
      </trkpt>
      <trkpt lat="59.192339183039" lon="17.862074908765">
        <ele>66.8</ele>
        <time>2015-03-24T18:16:56Z</time>
      </trkpt>
      <trkpt lat="59.192281431748" lon="17.861932332646">
        <ele>66</ele>
        <time>2015-03-24T18:16:57Z</time>
      </trkpt>
      <trkpt lat="59.192235834212" lon="17.861798892798">
        <ele>65.4</ele>
        <time>2015-03-24T18:16:58Z</time>
      </trkpt>
      <trkpt lat="59.192203563897" lon="17.861677103791">
        <ele>65.4</ele>
        <time>2015-03-24T18:16:59Z</time>
      </trkpt>
      <trkpt lat="59.19219995968" lon="17.861495216561">
        <ele>65.4</ele>
        <time>2015-03-24T18:17:02Z</time>
      </trkpt>
      <trkpt lat="59.192229966882" lon="17.861347946578">
        <ele>65.4</ele>
        <time>2015-03-24T18:17:05Z</time>
      </trkpt>
      <trkpt lat="59.192264919405" lon="17.861229258874">
        <ele>65.4</ele>
        <time>2015-03-24T18:17:08Z</time>
      </trkpt>
      <trkpt lat="59.192331136415" lon="17.861085090194">
        <ele>65.8</ele>
        <time>2015-03-24T18:17:12Z</time>
      </trkpt>
      <trkpt lat="59.19234999569" lon="17.861028596188">
        <ele>66.2</ele>
        <time>2015-03-24T18:17:13Z</time>
      </trkpt>
      <trkpt lat="59.192362400902" lon="17.860968665603">
        <ele>66.6</ele>
        <time>2015-03-24T18:17:14Z</time>
      </trkpt>
      <trkpt lat="59.192378829426" lon="17.860905046982">
        <ele>67</ele>
        <time>2015-03-24T18:17:15Z</time>
      </trkpt>
      <trkpt lat="59.192385702584" lon="17.860853330659">
        <ele>67.4</ele>
        <time>2015-03-24T18:17:16Z</time>
      </trkpt>
      <trkpt lat="59.192401292918" lon="17.860761716492">
        <ele>67.8</ele>
        <time>2015-03-24T18:17:18Z</time>
      </trkpt>
      <trkpt lat="59.192408249895" lon="17.86070488721">
        <ele>68.2</ele>
        <time>2015-03-24T18:17:19Z</time>
      </trkpt>
      <trkpt lat="59.192421493297" lon="17.860651075412">
        <ele>68.8</ele>
        <time>2015-03-24T18:17:20Z</time>
      </trkpt>
      <trkpt lat="59.192436413079" lon="17.860620732934">
        <ele>69.2</ele>
        <time>2015-03-24T18:17:21Z</time>
      </trkpt>
      <trkpt lat="59.192453176879" lon="17.860607321894">
        <ele>69.6</ele>
        <time>2015-03-24T18:17:22Z</time>
      </trkpt>
      <trkpt lat="59.192481423882" lon="17.860611680482">
        <ele>70.4</ele>
        <time>2015-03-24T18:17:23Z</time>
      </trkpt>
      <trkpt lat="59.192523333382" lon="17.86062023002">
        <ele>71</ele>
        <time>2015-03-24T18:17:24Z</time>
      </trkpt>
      <trkpt lat="59.192557782991" lon="17.860636490906">
        <ele>71.4</ele>
        <time>2015-03-24T18:17:25Z</time>
      </trkpt>
      <trkpt lat="59.192586029994" lon="17.860646465367">
        <ele>71.8</ele>
        <time>2015-03-24T18:17:26Z</time>
      </trkpt>
      <trkpt lat="59.192730785407" lon="17.86061939183">
        <ele>71.8</ele>
        <time>2015-03-24T18:17:31Z</time>
      </trkpt>
      <trkpt lat="59.192819465909" lon="17.860537919762">
        <ele>72.2</ele>
        <time>2015-03-24T18:17:33Z</time>
      </trkpt>
      <trkpt lat="59.192869589671" lon="17.860485616706">
        <ele>72.8</ele>
        <time>2015-03-24T18:17:34Z</time>
      </trkpt>
      <trkpt lat="59.192912924094" lon="17.860446221776">
        <ele>73.2</ele>
        <time>2015-03-24T18:17:35Z</time>
      </trkpt>
      <trkpt lat="59.192955001232" lon="17.860402635896">
        <ele>73.8</ele>
        <time>2015-03-24T18:17:36Z</time>
      </trkpt>
      <trkpt lat="59.193002442786" lon="17.86036709664">
        <ele>74.2</ele>
        <time>2015-03-24T18:17:37Z</time>
      </trkpt>
      <trkpt lat="59.193122052499" lon="17.860251510239">
        <ele>74.2</ele>
        <time>2015-03-24T18:17:40Z</time>
      </trkpt>
      <trkpt lat="59.193219701634" lon="17.860007177854">
        <ele>74.2</ele>
        <time>2015-03-24T18:17:43Z</time>
      </trkpt>
      <trkpt lat="59.193309471783" lon="17.859816238172">
        <ele>74.2</ele>
        <time>2015-03-24T18:17:45Z</time>
      </trkpt>
      <trkpt lat="59.193428578582" lon="17.85949286447">
        <ele>73.8</ele>
        <time>2015-03-24T18:17:48Z</time>
      </trkpt>
      <trkpt lat="59.193469482254" lon="17.859363699391">
        <ele>73.4</ele>
        <time>2015-03-24T18:17:49Z</time>
      </trkpt>
      <trkpt lat="59.193504686234" lon="17.859226906783">
        <ele>73</ele>
        <time>2015-03-24T18:17:50Z</time>
      </trkpt>
      <trkpt lat="59.193530502486" lon="17.859086929053">
        <ele>72.4</ele>
        <time>2015-03-24T18:17:51Z</time>
      </trkpt>
      <trkpt lat="59.193552714521" lon="17.858953656843">
        <ele>72</ele>
        <time>2015-03-24T18:17:52Z</time>
      </trkpt>
      <trkpt lat="59.193572495805" lon="17.858817953882">
        <ele>72</ele>
        <time>2015-03-24T18:17:53Z</time>
      </trkpt>
      <trkpt lat="59.19361398621" lon="17.858596504084">
        <ele>72</ele>
        <time>2015-03-24T18:17:55Z</time>
      </trkpt>
      <trkpt lat="59.19368774693" lon="17.858313363502">
        <ele>72</ele>
        <time>2015-03-24T18:17:58Z</time>
      </trkpt>
      <trkpt lat="59.193788581187" lon="17.858046735263">
        <ele>71.6</ele>
        <time>2015-03-24T18:18:01Z</time>
      </trkpt>
      <trkpt lat="59.19383694475" lon="17.858002897926">
        <ele>71.2</ele>
        <time>2015-03-24T18:18:02Z</time>
      </trkpt>
      <trkpt lat="59.19387885425" lon="17.857949086128">
        <ele>70.8</ele>
        <time>2015-03-24T18:18:03Z</time>
      </trkpt>
      <trkpt lat="59.193916488981" lon="17.857897621262">
        <ele>70.4</ele>
        <time>2015-03-24T18:18:04Z</time>
      </trkpt>
      <trkpt lat="59.193952363513" lon="17.857846072577">
        <ele>70</ele>
        <time>2015-03-24T18:18:05Z</time>
      </trkpt>
      <trkpt lat="59.194047833354" lon="17.857739622447">
        <ele>70</ele>
        <time>2015-03-24T18:18:07Z</time>
      </trkpt>
      <trkpt lat="59.194104914093" lon="17.857689414866">
        <ele>70</ele>
        <time>2015-03-24T18:18:08Z</time>
      </trkpt>
      <trkpt lat="59.194221338684" lon="17.857640380751">
        <ele>70</ele>
        <time>2015-03-24T18:18:10Z</time>
      </trkpt>
      <trkpt lat="59.194318484905" lon="17.857702909725">
        <ele>70</ele>
        <time>2015-03-24T18:18:12Z</time>
      </trkpt>
      <trkpt lat="59.194511603881" lon="17.857952774164">
        <ele>70</ele>
        <time>2015-03-24T18:18:16Z</time>
      </trkpt>
      <trkpt lat="59.194562565833" lon="17.858030390558">
        <ele>70</ele>
        <time>2015-03-24T18:18:17Z</time>
      </trkpt>
      <trkpt lat="59.194670859981" lon="17.858164584777">
        <ele>70</ele>
        <time>2015-03-24T18:18:19Z</time>
      </trkpt>
      <trkpt lat="59.194788374219" lon="17.858219150946">
        <ele>70</ele>
        <time>2015-03-24T18:18:21Z</time>
      </trkpt>
      <trkpt lat="59.194986019421" lon="17.858166177338">
        <ele>70</ele>
        <time>2015-03-24T18:18:25Z</time>
      </trkpt>
      <trkpt lat="59.195068664955" lon="17.858057380276">
        <ele>70</ele>
        <time>2015-03-24T18:18:27Z</time>
      </trkpt>
      <trkpt lat="59.19515457943" lon="17.857945984825">
        <ele>70</ele>
        <time>2015-03-24T18:18:29Z</time>
      </trkpt>
      <trkpt lat="59.195191711247" lon="17.857879600177">
        <ele>70</ele>
        <time>2015-03-24T18:18:30Z</time>
      </trkpt>
      <trkpt lat="59.195274608238" lon="17.857735012402">
        <ele>70</ele>
        <time>2015-03-24T18:18:32Z</time>
      </trkpt>
      <trkpt lat="59.195357253772" lon="17.857686313563">
        <ele>70</ele>
        <time>2015-03-24T18:18:34Z</time>
      </trkpt>
      <trkpt lat="59.195491699448" lon="17.857683296079">
        <ele>70</ele>
        <time>2015-03-24T18:18:38Z</time>
      </trkpt>
      <trkpt lat="59.195637544508" lon="17.857504593971">
        <ele>70</ele>
        <time>2015-03-24T18:18:42Z</time>
      </trkpt>
      <trkpt lat="59.195677107076" lon="17.85743175526">
        <ele>70</ele>
        <time>2015-03-24T18:18:43Z</time>
      </trkpt>
      <trkpt lat="59.195885900205" lon="17.857217932991">
        <ele>70</ele>
        <time>2015-03-24T18:18:47Z</time>
      </trkpt>
      <trkpt lat="59.196067033064" lon="17.85723226604">
        <ele>70</ele>
        <time>2015-03-24T18:18:50Z</time>
      </trkpt>
      <trkpt lat="59.196361992125" lon="17.857268978762">
        <ele>70</ele>
        <time>2015-03-24T18:18:55Z</time>
      </trkpt>
      <trkpt lat="59.196423850547" lon="17.857255232446">
        <ele>70</ele>
        <time>2015-03-24T18:18:56Z</time>
      </trkpt>
      <trkpt lat="59.196600205723" lon="17.857271409513">
        <ele>70</ele>
        <time>2015-03-24T18:18:59Z</time>
      </trkpt>
      <trkpt lat="59.196711601174" lon="17.857335782505">
        <ele>70</ele>
        <time>2015-03-24T18:19:01Z</time>
      </trkpt>
      <trkpt lat="59.196765077696" lon="17.857343996767">
        <ele>70</ele>
        <time>2015-03-24T18:19:02Z</time>
      </trkpt>
      <trkpt lat="59.196818554218" lon="17.857337207428">
        <ele>69.6</ele>
        <time>2015-03-24T18:19:03Z</time>
      </trkpt>
      <trkpt lat="59.196882759572" lon="17.857340308731">
        <ele>69.2</ele>
        <time>2015-03-24T18:19:04Z</time>
      </trkpt>
      <trkpt lat="59.196946378193" lon="17.857349780278">
        <ele>68.8</ele>
        <time>2015-03-24T18:19:05Z</time>
      </trkpt>
      <trkpt lat="59.197001698733" lon="17.85739655128">
        <ele>68.4</ele>
        <time>2015-03-24T18:19:06Z</time>
      </trkpt>
      <trkpt lat="59.197052325409" lon="17.857464193213">
        <ele>68</ele>
        <time>2015-03-24T18:19:07Z</time>
      </trkpt>
      <trkpt lat="59.197237230123" lon="17.857729061253">
        <ele>67.4</ele>
        <time>2015-03-24T18:19:10Z</time>
      </trkpt>
      <trkpt lat="59.197296406337" lon="17.85782318999">
        <ele>67</ele>
        <time>2015-03-24T18:19:11Z</time>
      </trkpt>
      <trkpt lat="59.19735566637" lon="17.857905835524">
        <ele>66.6</ele>
        <time>2015-03-24T18:19:12Z</time>
      </trkpt>
      <trkpt lat="59.197416267507" lon="17.85797993152">
        <ele>65.8</ele>
        <time>2015-03-24T18:19:13Z</time>
      </trkpt>
      <trkpt lat="59.197474270255" lon="17.858074814628">
        <ele>65.2</ele>
        <time>2015-03-24T18:19:14Z</time>
      </trkpt>
      <trkpt lat="59.197538140333" lon="17.858173888686">
        <ele>64.4</ele>
        <time>2015-03-24T18:19:15Z</time>
      </trkpt>
      <trkpt lat="59.197590443389" lon="17.858251421261">
        <ele>63.6</ele>
        <time>2015-03-24T18:19:16Z</time>
      </trkpt>
      <trkpt lat="59.197632604346" lon="17.858327612732">
        <ele>62.6</ele>
        <time>2015-03-24T18:19:17Z</time>
      </trkpt>
      <trkpt lat="59.197667975964" lon="17.858403049832">
        <ele>61.6</ele>
        <time>2015-03-24T18:19:18Z</time>
      </trkpt>
      <trkpt lat="59.197709131093" lon="17.858503464994">
        <ele>60.6</ele>
        <time>2015-03-24T18:19:19Z</time>
      </trkpt>
      <trkpt lat="59.197740898494" lon="17.858607400554">
        <ele>59.6</ele>
        <time>2015-03-24T18:19:20Z</time>
      </trkpt>
      <trkpt lat="59.197768558764" lon="17.858700607282">
        <ele>59</ele>
        <time>2015-03-24T18:19:21Z</time>
      </trkpt>
      <trkpt lat="59.197785154926" lon="17.858806219222">
        <ele>58.2</ele>
        <time>2015-03-24T18:19:22Z</time>
      </trkpt>
      <trkpt lat="59.197797224862" lon="17.858909903325">
        <ele>57.6</ele>
        <time>2015-03-24T18:19:23Z</time>
      </trkpt>
      <trkpt lat="59.197797224862" lon="17.85902515445">
        <ele>56.8</ele>
        <time>2015-03-24T18:19:24Z</time>
      </trkpt>
      <trkpt lat="59.197785490202" lon="17.859130934028">
        <ele>56.2</ele>
        <time>2015-03-24T18:19:25Z</time>
      </trkpt>
      <trkpt lat="59.197763278167" lon="17.859299745494">
        <ele>55.6</ele>
        <time>2015-03-24T18:19:27Z</time>
      </trkpt>
      <trkpt lat="59.197763445805" lon="17.859338553691">
        <ele>55.2</ele>
        <time>2015-03-24T18:19:28Z</time>
      </trkpt>
      <trkpt lat="59.197776353931" lon="17.859385408512">
        <ele>54.6</ele>
        <time>2015-03-24T18:19:29Z</time>
      </trkpt>
      <trkpt lat="59.197792111903" lon="17.859422624148">
        <ele>54.2</ele>
        <time>2015-03-24T18:19:30Z</time>
      </trkpt>
      <trkpt lat="59.197812060825" lon="17.859461935259">
        <ele>53.6</ele>
        <time>2015-03-24T18:19:31Z</time>
      </trkpt>
      <trkpt lat="59.197833769946" lon="17.859467802589">
        <ele>53</ele>
        <time>2015-03-24T18:19:32Z</time>
      </trkpt>
      <trkpt lat="59.197868303374" lon="17.859460007422">
        <ele>52.6</ele>
        <time>2015-03-24T18:19:33Z</time>
      </trkpt>
      <trkpt lat="59.197904764639" lon="17.859411643859">
        <ele>52</ele>
        <time>2015-03-24T18:19:34Z</time>
      </trkpt>
      <trkpt lat="59.197935274755" lon="17.859353641111">
        <ele>51.6</ele>
        <time>2015-03-24T18:19:35Z</time>
      </trkpt>
      <trkpt lat="59.197969305269" lon="17.859297817657">
        <ele>51.6</ele>
        <time>2015-03-24T18:19:36Z</time>
      </trkpt>
      <trkpt lat="59.198006688543" lon="17.859235037226">
        <ele>51.2</ele>
        <time>2015-03-24T18:19:37Z</time>
      </trkpt>
      <trkpt lat="59.198042898351" lon="17.859175106641">
        <ele>50.6</ele>
        <time>2015-03-24T18:19:38Z</time>
      </trkpt>
      <trkpt lat="59.198080533082" lon="17.859110733649">
        <ele>50.2</ele>
        <time>2015-03-24T18:19:39Z</time>
      </trkpt>
      <trkpt lat="59.198119760374" lon="17.859037140567">
        <ele>49.8</ele>
        <time>2015-03-24T18:19:40Z</time>
      </trkpt>
      <trkpt lat="59.198157562743" lon="17.858979976009">
        <ele>49.4</ele>
        <time>2015-03-24T18:19:41Z</time>
      </trkpt>
      <trkpt lat="59.198194778379" lon="17.858930858075">
        <ele>48.8</ele>
        <time>2015-03-24T18:19:42Z</time>
      </trkpt>
      <trkpt lat="59.198237945164" lon="17.85890948423">
        <ele>48.4</ele>
        <time>2015-03-24T18:19:43Z</time>
      </trkpt>
      <trkpt lat="59.198280944311" lon="17.858887775109">
        <ele>47.8</ele>
        <time>2015-03-24T18:19:44Z</time>
      </trkpt>
      <trkpt lat="59.198317992309" lon="17.858899006855">
        <ele>47.2</ele>
        <time>2015-03-24T18:19:45Z</time>
      </trkpt>
      <trkpt lat="59.198370379184" lon="17.858928511143">
        <ele>46.8</ele>
        <time>2015-03-24T18:19:46Z</time>
      </trkpt>
      <trkpt lat="59.198419916213" lon="17.858946699866">
        <ele>46.2</ele>
        <time>2015-03-24T18:19:47Z</time>
      </trkpt>
      <trkpt lat="59.198485630309" lon="17.859054407281">
        <ele>45.6</ele>
        <time>2015-03-24T18:19:48Z</time>
      </trkpt>
      <trkpt lat="59.198553020785" lon="17.859182985627">
        <ele>45</ele>
        <time>2015-03-24T18:19:49Z</time>
      </trkpt>
      <trkpt lat="59.198617058501" lon="17.859319275321">
        <ele>44.6</ele>
        <time>2015-03-24T18:19:50Z</time>
      </trkpt>
      <trkpt lat="59.198670199747" lon="17.859462773449">
        <ele>43.4</ele>
        <time>2015-03-24T18:19:51Z</time>
      </trkpt>
      <trkpt lat="59.198710013772" lon="17.859611300717">
        <ele>43</ele>
        <time>2015-03-24T18:19:52Z</time>
      </trkpt>
      <trkpt lat="59.198745217752" lon="17.859768042247">
        <ele>42.4</ele>
        <time>2015-03-24T18:19:53Z</time>
      </trkpt>
      <trkpt lat="59.198770782547" lon="17.859953366056">
        <ele>41.8</ele>
        <time>2015-03-24T18:19:54Z</time>
      </trkpt>
      <trkpt lat="59.19878310394" lon="17.860133744544">
        <ele>41.4</ele>
        <time>2015-03-24T18:19:55Z</time>
      </trkpt>
      <trkpt lat="59.198782684845" lon="17.860315380317">
        <ele>40.8</ele>
        <time>2015-03-24T18:19:56Z</time>
      </trkpt>
      <trkpt lat="59.198780254094" lon="17.860495088253">
        <ele>40.2</ele>
        <time>2015-03-24T18:19:57Z</time>
      </trkpt>
      <trkpt lat="59.198772039832" lon="17.860663396805">
        <ele>39.6</ele>
        <time>2015-03-24T18:19:58Z</time>
      </trkpt>
      <trkpt lat="59.198726693753" lon="17.860811504978">
        <ele>39</ele>
        <time>2015-03-24T18:19:59Z</time>
      </trkpt>
      <trkpt lat="59.198691070678" lon="17.860956847124">
        <ele>38.6</ele>
        <time>2015-03-24T18:20:00Z</time>
      </trkpt>
      <trkpt lat="59.198673552507" lon="17.861067572023">
        <ele>38.6</ele>
        <time>2015-03-24T18:20:01Z</time>
      </trkpt>
      <trkpt lat="59.198657626897" lon="17.861285669061">
        <ele>38.6</ele>
        <time>2015-03-24T18:20:03Z</time>
      </trkpt>
      <trkpt lat="59.198705571365" lon="17.86146261097">
        <ele>38.2</ele>
        <time>2015-03-24T18:20:05Z</time>
      </trkpt>
      <trkpt lat="59.198757203869" lon="17.861505777755">
        <ele>37.6</ele>
        <time>2015-03-24T18:20:06Z</time>
      </trkpt>
      <trkpt lat="59.198806992355" lon="17.861562858494">
        <ele>37.2</ele>
        <time>2015-03-24T18:20:07Z</time>
      </trkpt>
      <trkpt lat="59.198825767811" lon="17.86168473132">
        <ele>36.8</ele>
        <time>2015-03-24T18:20:08Z</time>
      </trkpt>
      <trkpt lat="59.198838508299" lon="17.861802245558">
        <ele>36.4</ele>
        <time>2015-03-24T18:20:09Z</time>
      </trkpt>
      <trkpt lat="59.198825935449" lon="17.862052780549">
        <ele>36.4</ele>
        <time>2015-03-24T18:20:11Z</time>
      </trkpt>
      <trkpt lat="59.198825683992" lon="17.863123819731">
        <ele>36.4</ele>
        <time>2015-03-24T18:20:19Z</time>
      </trkpt>
      <trkpt lat="59.198804561604" lon="17.863895960359">
        <ele>36.4</ele>
        <time>2015-03-24T18:20:25Z</time>
      </trkpt>
      <trkpt lat="59.19881579335" lon="17.864555951165">
        <ele>36.4</ele>
        <time>2015-03-24T18:20:30Z</time>
      </trkpt>
      <trkpt lat="59.198789306546" lon="17.865368241094">
        <ele>36.8</ele>
        <time>2015-03-24T18:20:36Z</time>
      </trkpt>
      <trkpt lat="59.19878561851" lon="17.865502854408">
        <ele>37.2</ele>
        <time>2015-03-24T18:20:37Z</time>
      </trkpt>
      <trkpt lat="59.198787713985" lon="17.865633109134">
        <ele>37.8</ele>
        <time>2015-03-24T18:20:38Z</time>
      </trkpt>
      <trkpt lat="59.198798861912" lon="17.865761938937">
        <ele>38.2</ele>
        <time>2015-03-24T18:20:39Z</time>
      </trkpt>
      <trkpt lat="59.198808165821" lon="17.865890601102">
        <ele>38.6</ele>
        <time>2015-03-24T18:20:40Z</time>
      </trkpt>
      <trkpt lat="59.198819816662" lon="17.86602320276">
        <ele>38.6</ele>
        <time>2015-03-24T18:20:41Z</time>
      </trkpt>
      <trkpt lat="59.198927943172" lon="17.866871786316">
        <ele>38.6</ele>
        <time>2015-03-24T18:20:48Z</time>
      </trkpt>
      <trkpt lat="59.199043110478" lon="17.867533704959">
        <ele>39</ele>
        <time>2015-03-24T18:20:54Z</time>
      </trkpt>
      <trkpt lat="59.199064149047" lon="17.867641496193">
        <ele>39.4</ele>
        <time>2015-03-24T18:20:55Z</time>
      </trkpt>
      <trkpt lat="59.199088540376" lon="17.867746772857">
        <ele>39.8</ele>
        <time>2015-03-24T18:20:56Z</time>
      </trkpt>
      <trkpt lat="59.199108573117" lon="17.867846182191">
        <ele>40.2</ele>
        <time>2015-03-24T18:20:57Z</time>
      </trkpt>
      <trkpt lat="59.199129024953" lon="17.867943747507">
        <ele>40.6</ele>
        <time>2015-03-24T18:20:58Z</time>
      </trkpt>
      <trkpt lat="59.199217537817" lon="17.86833744535">
        <ele>41</ele>
        <time>2015-03-24T18:21:02Z</time>
      </trkpt>
      <trkpt lat="59.199246036277" lon="17.868438782521">
        <ele>41.6</ele>
        <time>2015-03-24T18:21:03Z</time>
      </trkpt>
      <trkpt lat="59.199276378755" lon="17.868532911258">
        <ele>42</ele>
        <time>2015-03-24T18:21:04Z</time>
      </trkpt>
      <trkpt lat="59.199305631586" lon="17.86862326814">
        <ele>42.8</ele>
        <time>2015-03-24T18:21:05Z</time>
      </trkpt>
      <trkpt lat="59.199362209411" lon="17.86880766994">
        <ele>43.2</ele>
        <time>2015-03-24T18:21:07Z</time>
      </trkpt>
      <trkpt lat="59.199392216613" lon="17.868897188632">
        <ele>43.6</ele>
        <time>2015-03-24T18:21:08Z</time>
      </trkpt>
      <trkpt lat="59.199421050349" lon="17.868992155559">
        <ele>44</ele>
        <time>2015-03-24T18:21:09Z</time>
      </trkpt>
      <trkpt lat="59.199448040067" lon="17.869077986215">
        <ele>44.4</ele>
        <time>2015-03-24T18:21:10Z</time>
      </trkpt>
      <trkpt lat="59.19947880164" lon="17.869156189342">
        <ele>44.8</ele>
        <time>2015-03-24T18:21:11Z</time>
      </trkpt>
      <trkpt lat="59.199507886833" lon="17.869208408579">
        <ele>44.8</ele>
        <time>2015-03-24T18:21:12Z</time>
      </trkpt>
      <trkpt lat="59.199539318958" lon="17.869271608105">
        <ele>44.8</ele>
        <time>2015-03-24T18:21:13Z</time>
      </trkpt>
      <trkpt lat="59.19965901249" lon="17.869522897467">
        <ele>44.8</ele>
        <time>2015-03-24T18:21:17Z</time>
      </trkpt>
      <trkpt lat="59.199718607799" lon="17.869651308175">
        <ele>44.8</ele>
        <time>2015-03-24T18:21:19Z</time>
      </trkpt>
      <trkpt lat="59.199775269443" lon="17.869768570956">
        <ele>45.2</ele>
        <time>2015-03-24T18:21:21Z</time>
      </trkpt>
      <trkpt lat="59.199803348808" lon="17.869840236201">
        <ele>45.6</ele>
        <time>2015-03-24T18:21:22Z</time>
      </trkpt>
      <trkpt lat="59.199825309386" lon="17.869894467094">
        <ele>46</ele>
        <time>2015-03-24T18:21:23Z</time>
      </trkpt>
      <trkpt lat="59.199850203629" lon="17.869948697987">
        <ele>46.4</ele>
        <time>2015-03-24T18:21:24Z</time>
      </trkpt>
      <trkpt lat="59.199879121184" lon="17.870008544753">
        <ele>46.8</ele>
        <time>2015-03-24T18:21:25Z</time>
      </trkpt>
      <trkpt lat="59.199972579369" lon="17.870191102535">
        <ele>47.4</ele>
        <time>2015-03-24T18:21:28Z</time>
      </trkpt>
      <trkpt lat="59.200003676218" lon="17.870252541862">
        <ele>48.2</ele>
        <time>2015-03-24T18:21:29Z</time>
      </trkpt>
      <trkpt lat="59.200037455275" lon="17.870314484103">
        <ele>48.6</ele>
        <time>2015-03-24T18:21:30Z</time>
      </trkpt>
      <trkpt lat="59.200072491617" lon="17.870376593982">
        <ele>49.2</ele>
        <time>2015-03-24T18:21:31Z</time>
      </trkpt>
      <trkpt lat="59.200358565864" lon="17.870937929825">
        <ele>49.2</ele>
        <time>2015-03-24T18:21:39Z</time>
      </trkpt>
      <trkpt lat="59.200597030919" lon="17.871481915135">
        <ele>49.2</ele>
        <time>2015-03-24T18:21:46Z</time>
      </trkpt>
      <trkpt lat="59.200678167711" lon="17.871776790377">
        <ele>49.2</ele>
        <time>2015-03-24T18:21:49Z</time>
      </trkpt>
      <trkpt lat="59.200726112179" lon="17.872003856048">
        <ele>49.2</ele>
        <time>2015-03-24T18:21:51Z</time>
      </trkpt>
      <trkpt lat="59.200759891236" lon="17.87226185093">
        <ele>49.2</ele>
        <time>2015-03-24T18:21:53Z</time>
      </trkpt>
      <trkpt lat="59.200783947289" lon="17.872714557349">
        <ele>49.2</ele>
        <time>2015-03-24T18:21:56Z</time>
      </trkpt>
      <trkpt lat="59.200794340845" lon="17.873492649126">
        <ele>48.6</ele>
        <time>2015-03-24T18:22:01Z</time>
      </trkpt>
      <trkpt lat="59.20079643632" lon="17.873641595489">
        <ele>48.2</ele>
        <time>2015-03-24T18:22:02Z</time>
      </trkpt>
      <trkpt lat="59.200798867071" lon="17.873786853816">
        <ele>47.6</ele>
        <time>2015-03-24T18:22:03Z</time>
      </trkpt>
      <trkpt lat="59.200798196519" lon="17.873941499871">
        <ele>47.2</ele>
        <time>2015-03-24T18:22:04Z</time>
      </trkpt>
      <trkpt lat="59.200792413008" lon="17.874084327447">
        <ele>46.8</ele>
        <time>2015-03-24T18:22:05Z</time>
      </trkpt>
      <trkpt lat="59.200737595382" lon="17.874675083759">
        <ele>46.8</ele>
        <time>2015-03-24T18:22:09Z</time>
      </trkpt>
      <trkpt lat="59.200596611824" lon="17.875565073901">
        <ele>46.8</ele>
        <time>2015-03-24T18:22:15Z</time>
      </trkpt>
      <trkpt lat="59.200472140609" lon="17.876290778803">
        <ele>46.4</ele>
        <time>2015-03-24T18:22:20Z</time>
      </trkpt>
      <trkpt lat="59.200448168375" lon="17.876434025474">
        <ele>46</ele>
        <time>2015-03-24T18:22:21Z</time>
      </trkpt>
      <trkpt lat="59.200427884177" lon="17.87657685305">
        <ele>45.4</ele>
        <time>2015-03-24T18:22:22Z</time>
      </trkpt>
      <trkpt lat="59.200401145916" lon="17.876718088065">
        <ele>45</ele>
        <time>2015-03-24T18:22:23Z</time>
      </trkpt>
      <trkpt lat="59.200374742931" lon="17.876856724691">
        <ele>44.6</ele>
        <time>2015-03-24T18:22:24Z</time>
      </trkpt>
      <trkpt lat="59.200269382448" lon="17.877403140752">
        <ele>44.6</ele>
        <time>2015-03-24T18:22:28Z</time>
      </trkpt>
      <trkpt lat="59.200092691996" lon="17.878377955722">
        <ele>44.6</ele>
        <time>2015-03-24T18:22:35Z</time>
      </trkpt>
      <trkpt lat="59.199915833906" lon="17.879456622433">
        <ele>44.6</ele>
        <time>2015-03-24T18:22:43Z</time>
      </trkpt>
      <trkpt lat="59.199889598559" lon="17.879582770028">
        <ele>44.6</ele>
        <time>2015-03-24T18:22:44Z</time>
      </trkpt>
      <trkpt lat="59.199755488159" lon="17.880306211817">
        <ele>44.6</ele>
        <time>2015-03-24T18:22:50Z</time>
      </trkpt>
      <trkpt lat="59.199679212869" lon="17.880882215985">
        <ele>44.6</ele>
        <time>2015-03-24T18:22:55Z</time>
      </trkpt>
      <trkpt lat="59.199678961412" lon="17.880998137662">
        <ele>44.6</ele>
        <time>2015-03-24T18:22:56Z</time>
      </trkpt>
      <trkpt lat="59.199667729666" lon="17.881244649341">
        <ele>44.6</ele>
        <time>2015-03-24T18:22:58Z</time>
      </trkpt>
      <trkpt lat="59.199645182355" lon="17.881653937518">
        <ele>44.6</ele>
        <time>2015-03-24T18:23:01Z</time>
      </trkpt>
      <trkpt lat="59.199587431064" lon="17.882733107143">
        <ele>44.2</ele>
        <time>2015-03-24T18:23:08Z</time>
      </trkpt>
      <trkpt lat="59.199582066648" lon="17.882899739315">
        <ele>43.4</ele>
        <time>2015-03-24T18:23:09Z</time>
      </trkpt>
      <trkpt lat="59.199577624241" lon="17.883069808066">
        <ele>43</ele>
        <time>2015-03-24T18:23:10Z</time>
      </trkpt>
      <trkpt lat="59.199577037508" lon="17.883236021143">
        <ele>42.6</ele>
        <time>2015-03-24T18:23:11Z</time>
      </trkpt>
      <trkpt lat="59.199585084132" lon="17.883567944383">
        <ele>42.2</ele>
        <time>2015-03-24T18:23:13Z</time>
      </trkpt>
      <trkpt lat="59.199592711661" lon="17.883731810528">
        <ele>41.8</ele>
        <time>2015-03-24T18:23:14Z</time>
      </trkpt>
      <trkpt lat="59.199601428837" lon="17.883888719696">
        <ele>41.4</ele>
        <time>2015-03-24T18:23:15Z</time>
      </trkpt>
      <trkpt lat="59.199606374158" lon="17.884038839525">
        <ele>41</ele>
        <time>2015-03-24T18:23:16Z</time>
      </trkpt>
      <trkpt lat="59.199618108818" lon="17.884187450612">
        <ele>40.6</ele>
        <time>2015-03-24T18:23:17Z</time>
      </trkpt>
      <trkpt lat="59.199650379133" lon="17.884456341964">
        <ele>40.6</ele>
        <time>2015-03-24T18:23:19Z</time>
      </trkpt>
      <trkpt lat="59.199791362691" lon="17.885035782711">
        <ele>40.6</ele>
        <time>2015-03-24T18:23:24Z</time>
      </trkpt>
      <trkpt lat="59.200029241013" lon="17.885778335232">
        <ele>40.6</ele>
        <time>2015-03-24T18:23:31Z</time>
      </trkpt>
      <trkpt lat="59.200107695597" lon="17.885988553284">
        <ele>41</ele>
        <time>2015-03-24T18:23:33Z</time>
      </trkpt>
      <trkpt lat="59.20014264812" lon="17.886083436392">
        <ele>41.4</ele>
        <time>2015-03-24T18:23:34Z</time>
      </trkpt>
      <trkpt lat="59.200177349186" lon="17.886175553473">
        <ele>41.8</ele>
        <time>2015-03-24T18:23:35Z</time>
      </trkpt>
      <trkpt lat="59.200208613673" lon="17.886257779912">
        <ele>42.2</ele>
        <time>2015-03-24T18:23:36Z</time>
      </trkpt>
      <trkpt lat="59.200238453237" lon="17.886328271691">
        <ele>42.6</ele>
        <time>2015-03-24T18:23:37Z</time>
      </trkpt>
      <trkpt lat="59.200348088489" lon="17.886627505521">
        <ele>42.6</ele>
        <time>2015-03-24T18:23:41Z</time>
      </trkpt>
      <trkpt lat="59.200392847835" lon="17.886746863777">
        <ele>42.6</ele>
        <time>2015-03-24T18:23:43Z</time>
      </trkpt>
      <trkpt lat="59.200463758709" lon="17.886939982753">
        <ele>42.6</ele>
        <time>2015-03-24T18:23:48Z</time>
      </trkpt>
      <trkpt lat="59.20054749389" lon="17.886998488415">
        <ele>42.6</ele>
        <time>2015-03-24T18:23:52Z</time>
      </trkpt>
      <trkpt lat="59.200576327626" lon="17.88693688145">
        <ele>42.6</ele>
        <time>2015-03-24T18:23:53Z</time>
      </trkpt>
      <trkpt lat="59.200703481049" lon="17.887040314096">
        <ele>42.6</ele>
        <time>2015-03-24T18:23:56Z</time>
      </trkpt>
      <trkpt lat="59.200748827128" lon="17.887110051504">
        <ele>42.6</ele>
        <time>2015-03-24T18:23:57Z</time>
      </trkpt>
      <trkpt lat="59.20087103523" lon="17.887350612034">
        <ele>42.6</ele>
        <time>2015-03-24T18:23:59Z</time>
      </trkpt>
      <trkpt lat="59.200935156765" lon="17.887476927267">
        <ele>42.6</ele>
        <time>2015-03-24T18:24:00Z</time>
      </trkpt>
      <trkpt lat="59.201069853898" lon="17.887738777823">
        <ele>42.2</ele>
        <time>2015-03-24T18:24:02Z</time>
      </trkpt>
      <trkpt lat="59.2011417706" lon="17.887873474956">
        <ele>41.8</ele>
        <time>2015-03-24T18:24:03Z</time>
      </trkpt>
      <trkpt lat="59.201220644279" lon="17.887997946171">
        <ele>41.4</ele>
        <time>2015-03-24T18:24:04Z</time>
      </trkpt>
      <trkpt lat="59.201310414428" lon="17.888114454581">
        <ele>40.8</ele>
        <time>2015-03-24T18:24:05Z</time>
      </trkpt>
      <trkpt lat="59.201396328903" lon="17.888227023498">
        <ele>40</ele>
        <time>2015-03-24T18:24:06Z</time>
      </trkpt>
      <trkpt lat="59.201486937242" lon="17.888335652922">
        <ele>39.4</ele>
        <time>2015-03-24T18:24:07Z</time>
      </trkpt>
      <trkpt lat="59.201577210305" lon="17.888448808572">
        <ele>38.6</ele>
        <time>2015-03-24T18:24:08Z</time>
      </trkpt>
      <trkpt lat="59.201671925775" lon="17.888566909543">
        <ele>38</ele>
        <time>2015-03-24T18:24:09Z</time>
      </trkpt>
      <trkpt lat="59.201768569082" lon="17.888683166496">
        <ele>37.2</ele>
        <time>2015-03-24T18:24:10Z</time>
      </trkpt>
      <trkpt lat="59.20187015771" lon="17.888788862255">
        <ele>36.4</ele>
        <time>2015-03-24T18:24:11Z</time>
      </trkpt>
      <trkpt lat="59.201980212057" lon="17.888905538303">
        <ele>35.6</ele>
        <time>2015-03-24T18:24:12Z</time>
      </trkpt>
      <trkpt lat="59.202090853137" lon="17.888993715891">
        <ele>34.8</ele>
        <time>2015-03-24T18:24:13Z</time>
      </trkpt>
      <trkpt lat="59.202211049583" lon="17.8890784569">
        <ele>33.8</ele>
        <time>2015-03-24T18:24:14Z</time>
      </trkpt>
      <trkpt lat="59.202330491658" lon="17.889158671683">
        <ele>33</ele>
        <time>2015-03-24T18:24:15Z</time>
      </trkpt>
      <trkpt lat="59.202442138566" lon="17.889217177345">
        <ele>32.2</ele>
        <time>2015-03-24T18:24:16Z</time>
      </trkpt>
      <trkpt lat="59.202558563157" lon="17.889287920581">
        <ele>31.4</ele>
        <time>2015-03-24T18:24:17Z</time>
      </trkpt>
      <trkpt lat="59.202666186753" lon="17.889354891962">
        <ele>30.4</ele>
        <time>2015-03-24T18:24:18Z</time>
      </trkpt>
      <trkpt lat="59.202773391254" lon="17.889424294094">
        <ele>29.4</ele>
        <time>2015-03-24T18:24:19Z</time>
      </trkpt>
      <trkpt lat="59.202885960171" lon="17.88949084638">
        <ele>28.6</ele>
        <time>2015-03-24T18:24:20Z</time>
      </trkpt>
      <trkpt lat="59.202990063369" lon="17.889543987626">
        <ele>27.6</ele>
        <time>2015-03-24T18:24:21Z</time>
      </trkpt>
      <trkpt lat="59.203081593717" lon="17.889597631786">
        <ele>26.6</ele>
        <time>2015-03-24T18:24:22Z</time>
      </trkpt>
      <trkpt lat="59.203168849296" lon="17.889637781087">
        <ele>25.6</ele>
        <time>2015-03-24T18:24:23Z</time>
      </trkpt>
      <trkpt lat="59.203260631101" lon="17.889649767204">
        <ele>25.6</ele>
        <time>2015-03-24T18:24:24Z</time>
      </trkpt>
      <trkpt lat="59.203527510797" lon="17.889448685423">
        <ele>25.6</ele>
        <time>2015-03-24T18:24:27Z</time>
      </trkpt>
      <trkpt lat="59.203614598738" lon="17.889351203926">
        <ele>25.6</ele>
        <time>2015-03-24T18:24:28Z</time>
      </trkpt>
      <trkpt lat="59.203882484262" lon="17.889047276232">
        <ele>25.6</ele>
        <time>2015-03-24T18:24:31Z</time>
      </trkpt>
      <trkpt lat="59.203978457017" lon="17.888927247424">
        <ele>25.6</ele>
        <time>2015-03-24T18:24:32Z</time>
      </trkpt>
      <trkpt lat="59.204052050099" lon="17.888779558346">
        <ele>25.6</ele>
        <time>2015-03-24T18:24:33Z</time>
      </trkpt>
      <trkpt lat="59.204186747232" lon="17.888452245151">
        <ele>25.6</ele>
        <time>2015-03-24T18:24:35Z</time>
      </trkpt>
      <trkpt lat="59.204585641853" lon="17.887569211986">
        <ele>25.6</ele>
        <time>2015-03-24T18:24:41Z</time>
      </trkpt>
      <trkpt lat="59.204647584094" lon="17.887438873441">
        <ele>25.2</ele>
        <time>2015-03-24T18:24:42Z</time>
      </trkpt>
      <trkpt lat="59.204692594897" lon="17.88729562677">
        <ele>24.8</ele>
        <time>2015-03-24T18:24:43Z</time>
      </trkpt>
      <trkpt lat="59.204746490514" lon="17.887169562994">
        <ele>24.4</ele>
        <time>2015-03-24T18:24:44Z</time>
      </trkpt>
      <trkpt lat="59.204801056683" lon="17.887040062639">
        <ele>24</ele>
        <time>2015-03-24T18:24:45Z</time>
      </trkpt>
      <trkpt lat="59.204851264264" lon="17.886900755461">
        <ele>23.6</ele>
        <time>2015-03-24T18:24:46Z</time>
      </trkpt>
      <trkpt lat="59.205106325481" lon="17.886255935894">
        <ele>23.6</ele>
        <time>2015-03-24T18:24:51Z</time>
      </trkpt>
      <trkpt lat="59.205190479757" lon="17.885973968778">
        <ele>23.6</ele>
        <time>2015-03-24T18:24:53Z</time>
      </trkpt>
      <trkpt lat="59.205230293782" lon="17.885678255346">
        <ele>23.6</ele>
        <time>2015-03-24T18:24:55Z</time>
      </trkpt>
      <trkpt lat="59.205337665921" lon="17.884838221328">
        <ele>23.6</ele>
        <time>2015-03-24T18:25:01Z</time>
      </trkpt>
      <trkpt lat="59.205451324485" lon="17.883843625074">
        <ele>23.6</ele>
        <time>2015-03-24T18:25:08Z</time>
      </trkpt>
      <trkpt lat="59.20554897362" lon="17.882986827256">
        <ele>23.6</ele>
        <time>2015-03-24T18:25:14Z</time>
      </trkpt>
      <trkpt lat="59.205620890322" lon="17.882578377269">
        <ele>23.6</ele>
        <time>2015-03-24T18:25:17Z</time>
      </trkpt>
      <trkpt lat="59.20569984782" lon="17.882352987978">
        <ele>23.6</ele>
        <time>2015-03-24T18:25:19Z</time>
      </trkpt>
      <trkpt lat="59.205872095865" lon="17.882065404989">
        <ele>23.6</ele>
        <time>2015-03-24T18:25:22Z</time>
      </trkpt>
      <trkpt lat="59.205930182432" lon="17.881975970116">
        <ele>23.6</ele>
        <time>2015-03-24T18:25:23Z</time>
      </trkpt>
      <trkpt lat="59.206225225312" lon="17.881631893121">
        <ele>23.6</ele>
        <time>2015-03-24T18:25:28Z</time>
      </trkpt>
      <trkpt lat="59.206357156418" lon="17.881534495443">
        <ele>23.6</ele>
        <time>2015-03-24T18:25:30Z</time>
      </trkpt>
      <trkpt lat="59.206488416972" lon="17.881483533491">
        <ele>23.6</ele>
        <time>2015-03-24T18:25:32Z</time>
      </trkpt>
      <trkpt lat="59.206612804368" lon="17.881451263176">
        <ele>23.6</ele>
        <time>2015-03-24T18:25:34Z</time>
      </trkpt>
      <trkpt lat="59.206823273877" lon="17.881441456353">
        <ele>23.6</ele>
        <time>2015-03-24T18:25:37Z</time>
      </trkpt>
      <trkpt lat="59.207162321732" lon="17.881502141309">
        <ele>23.6</ele>
        <time>2015-03-24T18:25:42Z</time>
      </trkpt>
      <trkpt lat="59.20756733514" lon="17.881482108568">
        <ele>23.6</ele>
        <time>2015-03-24T18:25:48Z</time>
      </trkpt>
      <trkpt lat="59.208018448998" lon="17.881438438869">
        <ele>23.6</ele>
        <time>2015-03-24T18:25:55Z</time>
      </trkpt>
      <trkpt lat="59.208078882497" lon="17.88141153297">
        <ele>23.6</ele>
        <time>2015-03-24T18:25:56Z</time>
      </trkpt>
      <trkpt lat="59.20829572225" lon="17.881382615415">
        <ele>23.6</ele>
        <time>2015-03-24T18:25:59Z</time>
      </trkpt>
      <trkpt lat="59.208843982329" lon="17.881396529369">
        <ele>23.6</ele>
        <time>2015-03-24T18:26:07Z</time>
      </trkpt>
      <trkpt lat="59.209197447052" lon="17.881410946237">
        <ele>23.6</ele>
        <time>2015-03-24T18:26:12Z</time>
      </trkpt>
      <trkpt lat="59.20926886084" lon="17.881389656211">
        <ele>23.6</ele>
        <time>2015-03-24T18:26:13Z</time>
      </trkpt>
      <trkpt lat="59.209532806871" lon="17.881221934392">
        <ele>23.6</ele>
        <time>2015-03-24T18:26:17Z</time>
      </trkpt>
      <trkpt lat="59.209649063824" lon="17.881086985802">
        <ele>23.6</ele>
        <time>2015-03-24T18:26:19Z</time>
      </trkpt>
      <trkpt lat="59.209877554418" lon="17.880786075592">
        <ele>23.6</ele>
        <time>2015-03-24T18:26:23Z</time>
      </trkpt>
      <trkpt lat="59.210276197582" lon="17.880260195186">
        <ele>23.6</ele>
        <time>2015-03-24T18:26:30Z</time>
      </trkpt>
      <trkpt lat="59.210393125087" lon="17.880139244369">
        <ele>23.6</ele>
        <time>2015-03-24T18:26:32Z</time>
      </trkpt>
      <trkpt lat="59.210519691777" lon="17.880083756191">
        <ele>23.6</ele>
        <time>2015-03-24T18:26:34Z</time>
      </trkpt>
      <trkpt lat="59.210589932099" lon="17.880084342924">
        <ele>23.6</ele>
        <time>2015-03-24T18:26:35Z</time>
      </trkpt>
      <trkpt lat="59.210816075761" lon="17.880140501654">
        <ele>23.6</ele>
        <time>2015-03-24T18:26:38Z</time>
      </trkpt>
      <trkpt lat="59.211226453585" lon="17.880272516579">
        <ele>23.6</ele>
        <time>2015-03-24T18:26:44Z</time>
      </trkpt>
      <trkpt lat="59.211545133423" lon="17.880242928472">
        <ele>23.6</ele>
        <time>2015-03-24T18:26:49Z</time>
      </trkpt>
      <trkpt lat="59.21173900677" lon="17.880182662611">
        <ele>23.6</ele>
        <time>2015-03-24T18:26:52Z</time>
      </trkpt>
      <trkpt lat="59.211933131574" lon="17.880080235793">
        <ele>23.6</ele>
        <time>2015-03-24T18:26:55Z</time>
      </trkpt>
      <trkpt lat="59.212320878268" lon="17.879786031103">
        <ele>23.6</ele>
        <time>2015-03-24T18:27:02Z</time>
      </trkpt>
      <trkpt lat="59.212559259504" lon="17.87960942447">
        <ele>24</ele>
        <time>2015-03-24T18:27:07Z</time>
      </trkpt>
      <trkpt lat="59.212605862868" lon="17.879556031767">
        <ele>24.4</ele>
        <time>2015-03-24T18:27:08Z</time>
      </trkpt>
      <trkpt lat="59.212651460404" lon="17.879507332928">
        <ele>24.8</ele>
        <time>2015-03-24T18:27:09Z</time>
      </trkpt>
      <trkpt lat="59.212696722664" lon="17.879457292985">
        <ele>25.2</ele>
        <time>2015-03-24T18:27:10Z</time>
      </trkpt>
      <trkpt lat="59.212741649648" lon="17.879409013241">
        <ele>25.6</ele>
        <time>2015-03-24T18:27:11Z</time>
      </trkpt>
      <trkpt lat="59.212832341806" lon="17.87930935245">
        <ele>25.6</ele>
        <time>2015-03-24T18:27:13Z</time>
      </trkpt>
      <trkpt lat="59.213128977247" lon="17.879044232953">
        <ele>25.6</ele>
        <time>2015-03-24T18:27:18Z</time>
      </trkpt>
      <trkpt lat="59.213541702003" lon="17.878605105212">
        <ele>25.6</ele>
        <time>2015-03-24T18:27:24Z</time>
      </trkpt>
      <trkpt lat="59.21375820648" lon="17.878380973206">
        <ele>25.2</ele>
        <time>2015-03-24T18:27:28Z</time>
      </trkpt>
      <trkpt lat="59.213816544504" lon="17.878333196376">
        <ele>24.8</ele>
        <time>2015-03-24T18:27:29Z</time>
      </trkpt>
      <trkpt lat="59.213879911668" lon="17.878291370695">
        <ele>24.4</ele>
        <time>2015-03-24T18:27:30Z</time>
      </trkpt>
      <trkpt lat="59.213942692099" lon="17.878258765104">
        <ele>24</ele>
        <time>2015-03-24T18:27:31Z</time>
      </trkpt>
      <trkpt lat="59.214008406195" lon="17.878235044327">
        <ele>23.6</ele>
        <time>2015-03-24T18:27:32Z</time>
      </trkpt>
      <trkpt lat="59.214149389753" lon="17.878206797324">
        <ele>23.6</ele>
        <time>2015-03-24T18:27:34Z</time>
      </trkpt>
      <trkpt lat="59.214523976864" lon="17.878215263043">
        <ele>23.6</ele>
        <time>2015-03-24T18:27:39Z</time>
      </trkpt>
      <trkpt lat="59.214838214295" lon="17.878327748141">
        <ele>23.6</ele>
        <time>2015-03-24T18:27:44Z</time>
      </trkpt>
      <trkpt lat="59.215157397047" lon="17.878448363682">
        <ele>23.6</ele>
        <time>2015-03-24T18:27:49Z</time>
      </trkpt>
      <trkpt lat="59.215218501098" lon="17.878491698105">
        <ele>23.6</ele>
        <time>2015-03-24T18:27:50Z</time>
      </trkpt>
      <trkpt lat="59.21538513327" lon="17.878673082421">
        <ele>23.6</ele>
        <time>2015-03-24T18:27:53Z</time>
      </trkpt>
      <trkpt lat="59.215436849593" lon="17.878717506491">
        <ele>23.6</ele>
        <time>2015-03-24T18:27:54Z</time>
      </trkpt>
      <trkpt lat="59.215561907541" lon="17.878766875882">
        <ele>23.6</ele>
        <time>2015-03-24T18:27:56Z</time>
      </trkpt>
      <trkpt lat="59.215863488303" lon="17.878647014712">
        <ele>23.6</ele>
        <time>2015-03-24T18:28:00Z</time>
      </trkpt>
      <trkpt lat="59.215931884607" lon="17.878578953684">
        <ele>23.6</ele>
        <time>2015-03-24T18:28:01Z</time>
      </trkpt>
      <trkpt lat="59.216238997423" lon="17.878215011586">
        <ele>23.6</ele>
        <time>2015-03-24T18:28:06Z</time>
      </trkpt>
      <trkpt lat="59.216302532225" lon="17.878157763209">
        <ele>23.6</ele>
        <time>2015-03-24T18:28:07Z</time>
      </trkpt>
      <trkpt lat="59.216569160464" lon="17.877980402205">
        <ele>23.6</ele>
        <time>2015-03-24T18:28:11Z</time>
      </trkpt>
      <trkpt lat="59.216636383302" lon="17.877951233193">
        <ele>23.6</ele>
        <time>2015-03-24T18:28:12Z</time>
      </trkpt>
      <trkpt lat="59.216843835327" lon="17.877904210734">
        <ele>23.6</ele>
        <time>2015-03-24T18:28:15Z</time>
      </trkpt>
      <trkpt lat="59.217344234757" lon="17.877770854705">
        <ele>23.6</ele>
        <time>2015-03-24T18:28:22Z</time>
      </trkpt>
      <trkpt lat="59.217477758424" lon="17.877759371502">
        <ele>23.6</ele>
        <time>2015-03-24T18:28:24Z</time>
      </trkpt>
      <trkpt lat="59.217601642906" lon="17.877722155866">
        <ele>23.6</ele>
        <time>2015-03-24T18:28:26Z</time>
      </trkpt>
      <trkpt lat="59.218003471192" lon="17.877605228361">
        <ele>23.6</ele>
        <time>2015-03-24T18:28:32Z</time>
      </trkpt>
      <trkpt lat="59.218068766193" lon="17.87760195942">
        <ele>23.6</ele>
        <time>2015-03-24T18:28:33Z</time>
      </trkpt>
      <trkpt lat="59.218196087254" lon="17.877686281334">
        <ele>23.6</ele>
        <time>2015-03-24T18:28:35Z</time>
      </trkpt>
      <trkpt lat="59.218353918431" lon="17.878028095216">
        <ele>23.6</ele>
        <time>2015-03-24T18:28:39Z</time>
      </trkpt>
      <trkpt lat="59.218456429068" lon="17.878328251055">
        <ele>24</ele>
        <time>2015-03-24T18:28:43Z</time>
      </trkpt>
      <trkpt lat="59.218476713266" lon="17.878386002346">
        <ele>24.4</ele>
        <time>2015-03-24T18:28:44Z</time>
      </trkpt>
      <trkpt lat="59.218498757663" lon="17.878440568515">
        <ele>24.8</ele>
        <time>2015-03-24T18:28:45Z</time>
      </trkpt>
      <trkpt lat="59.218519796232" lon="17.878487590974">
        <ele>25.2</ele>
        <time>2015-03-24T18:28:46Z</time>
      </trkpt>
      <trkpt lat="59.218539493697" lon="17.878536205994">
        <ele>25.8</ele>
        <time>2015-03-24T18:28:47Z</time>
      </trkpt>
      <trkpt lat="59.218558185334" lon="17.878583815186">
        <ele>26.2</ele>
        <time>2015-03-24T18:28:48Z</time>
      </trkpt>
      <trkpt lat="59.218577379885" lon="17.878629999455">
        <ele>26.6</ele>
        <time>2015-03-24T18:28:49Z</time>
      </trkpt>
      <trkpt lat="59.218598586092" lon="17.878677692466">
        <ele>27</ele>
        <time>2015-03-24T18:28:50Z</time>
      </trkpt>
      <trkpt lat="59.218620798127" lon="17.878723290002">
        <ele>27.4</ele>
        <time>2015-03-24T18:28:51Z</time>
      </trkpt>
      <trkpt lat="59.218644602723" lon="17.878771821203">
        <ele>27.8</ele>
        <time>2015-03-24T18:28:52Z</time>
      </trkpt>
      <trkpt lat="59.218699001254" lon="17.87887600822">
        <ele>28.2</ele>
        <time>2015-03-24T18:28:54Z</time>
      </trkpt>
      <trkpt lat="59.218727415895" lon="17.878920180833">
        <ele>29.2</ele>
        <time>2015-03-24T18:28:55Z</time>
      </trkpt>
      <trkpt lat="59.218756081993" lon="17.878958234659">
        <ele>29.6</ele>
        <time>2015-03-24T18:28:56Z</time>
      </trkpt>
      <trkpt lat="59.218783490806" lon="17.878995953209">
        <ele>30</ele>
        <time>2015-03-24T18:28:57Z</time>
      </trkpt>
      <trkpt lat="59.218916595378" lon="17.879242045793">
        <ele>30.4</ele>
        <time>2015-03-24T18:29:02Z</time>
      </trkpt>
      <trkpt lat="59.218934448825" lon="17.879297282514">
        <ele>30.8</ele>
        <time>2015-03-24T18:29:03Z</time>
      </trkpt>
      <trkpt lat="59.218943501277" lon="17.879352519235">
        <ele>31.2</ele>
        <time>2015-03-24T18:29:04Z</time>
      </trkpt>
      <trkpt lat="59.218942998363" lon="17.879411192535">
        <ele>31.6</ele>
        <time>2015-03-24T18:29:05Z</time>
      </trkpt>
      <trkpt lat="59.218947105494" lon="17.879462657401">
        <ele>32</ele>
        <time>2015-03-24T18:29:06Z</time>
      </trkpt>
      <trkpt lat="59.218945680571" lon="17.879509428403">
        <ele>32</ele>
        <time>2015-03-24T18:29:07Z</time>
      </trkpt>
      <trkpt lat="59.218945848209" lon="17.879659967327">
        <ele>32.4</ele>
        <time>2015-03-24T18:29:10Z</time>
      </trkpt>
      <trkpt lat="59.218950625892" lon="17.879715371686">
        <ele>32.8</ele>
        <time>2015-03-24T18:29:11Z</time>
      </trkpt>
      <trkpt lat="59.218953727195" lon="17.879771781873">
        <ele>33.2</ele>
        <time>2015-03-24T18:29:12Z</time>
      </trkpt>
      <trkpt lat="59.218957079955" lon="17.879827102413">
        <ele>33.6</ele>
        <time>2015-03-24T18:29:13Z</time>
      </trkpt>
      <trkpt lat="59.218962444371" lon="17.879884266971">
        <ele>34</ele>
        <time>2015-03-24T18:29:14Z</time>
      </trkpt>
      <trkpt lat="59.218976693601" lon="17.880050228591">
        <ele>34.4</ele>
        <time>2015-03-24T18:29:17Z</time>
      </trkpt>
      <trkpt lat="59.218979543447" lon="17.880097083412">
        <ele>35</ele>
        <time>2015-03-24T18:29:18Z</time>
      </trkpt>
      <trkpt lat="59.218979711085" lon="17.880142010396">
        <ele>36</ele>
        <time>2015-03-24T18:29:19Z</time>
      </trkpt>
      <trkpt lat="59.218979794904" lon="17.880189368131">
        <ele>36.4</ele>
        <time>2015-03-24T18:29:20Z</time>
      </trkpt>
      <trkpt lat="59.218981303646" lon="17.880242593196">
        <ele>36.4</ele>
        <time>2015-03-24T18:29:21Z</time>
      </trkpt>
      <trkpt lat="59.218978286162" lon="17.880405453513">
        <ele>36.8</ele>
        <time>2015-03-24T18:29:24Z</time>
      </trkpt>
      <trkpt lat="59.218973676117" lon="17.880454152352">
        <ele>37.2</ele>
        <time>2015-03-24T18:29:25Z</time>
      </trkpt>
      <trkpt lat="59.218971161547" lon="17.880501510087">
        <ele>37.6</ele>
        <time>2015-03-24T18:29:26Z</time>
      </trkpt>
      <trkpt lat="59.218969820443" lon="17.88055155003">
        <ele>38</ele>
        <time>2015-03-24T18:29:27Z</time>
      </trkpt>
      <trkpt lat="59.218967976425" lon="17.880602847258">
        <ele>38.4</ele>
        <time>2015-03-24T18:29:28Z</time>
      </trkpt>
      <trkpt lat="59.218945010019" lon="17.880811556568">
        <ele>39</ele>
        <time>2015-03-24T18:29:32Z</time>
      </trkpt>
      <trkpt lat="59.218937214852" lon="17.880860758321">
        <ele>39.4</ele>
        <time>2015-03-24T18:29:33Z</time>
      </trkpt>
      <trkpt lat="59.218927743305" lon="17.880907864599">
        <ele>39.8</ele>
        <time>2015-03-24T18:29:34Z</time>
      </trkpt>
      <trkpt lat="59.218919277586" lon="17.880954384144">
        <ele>40.4</ele>
        <time>2015-03-24T18:29:35Z</time>
      </trkpt>
      <trkpt lat="59.218911817695" lon="17.881000903689">
        <ele>40.8</ele>
        <time>2015-03-24T18:29:36Z</time>
      </trkpt>
      <trkpt lat="59.21887451824" lon="17.881179773435">
        <ele>40.8</ele>
        <time>2015-03-24T18:29:40Z</time>
      </trkpt>
      <trkpt lat="59.218862532123" lon="17.881224281324">
        <ele>41.2</ele>
        <time>2015-03-24T18:29:41Z</time>
      </trkpt>
      <trkpt lat="59.218851551834" lon="17.881267867204">
        <ele>41.6</ele>
        <time>2015-03-24T18:29:42Z</time>
      </trkpt>
      <trkpt lat="59.218840320088" lon="17.881313213283">
        <ele>42</ele>
        <time>2015-03-24T18:29:43Z</time>
      </trkpt>
      <trkpt lat="59.218826573772" lon="17.88135537424">
        <ele>42.8</ele>
        <time>2015-03-24T18:29:44Z</time>
      </trkpt>
      <trkpt lat="59.218775779458" lon="17.881466182958">
        <ele>42.8</ele>
        <time>2015-03-24T18:29:47Z</time>
      </trkpt>
      <trkpt lat="59.21874459879" lon="17.881556036926">
        <ele>43.2</ele>
        <time>2015-03-24T18:29:49Z</time>
      </trkpt>
      <trkpt lat="59.218727918809" lon="17.88160012572">
        <ele>43.6</ele>
        <time>2015-03-24T18:29:50Z</time>
      </trkpt>
      <trkpt lat="59.218709897724" lon="17.881645304161">
        <ele>44</ele>
        <time>2015-03-24T18:29:51Z</time>
      </trkpt>
      <trkpt lat="59.218696319046" lon="17.88169484119">
        <ele>44.4</ele>
        <time>2015-03-24T18:29:52Z</time>
      </trkpt>
      <trkpt lat="59.218687518051" lon="17.881751083739">
        <ele>44.8</ele>
        <time>2015-03-24T18:29:53Z</time>
      </trkpt>
      <trkpt lat="59.218677795047" lon="17.881807745383">
        <ele>44.8</ele>
        <time>2015-03-24T18:29:54Z</time>
      </trkpt>
      <trkpt lat="59.218635382633" lon="17.882056855451">
        <ele>44.8</ele>
        <time>2015-03-24T18:29:59Z</time>
      </trkpt>
      <trkpt lat="59.218624486163" lon="17.882115193475">
        <ele>45.2</ele>
        <time>2015-03-24T18:30:00Z</time>
      </trkpt>
      <trkpt lat="59.218615685168" lon="17.882170681653">
        <ele>45.6</ele>
        <time>2015-03-24T18:30:01Z</time>
      </trkpt>
      <trkpt lat="59.218606045983" lon="17.882231534247">
        <ele>46</ele>
        <time>2015-03-24T18:30:02Z</time>
      </trkpt>
      <trkpt lat="59.218600681567" lon="17.882299930551">
        <ele>46.4</ele>
        <time>2015-03-24T18:30:03Z</time>
      </trkpt>
      <trkpt lat="59.21859875373" lon="17.882372769262">
        <ele>46.8</ele>
        <time>2015-03-24T18:30:04Z</time>
      </trkpt>
      <trkpt lat="59.218582576663" lon="17.882944750118">
        <ele>46.8</ele>
        <time>2015-03-24T18:30:12Z</time>
      </trkpt>
      <trkpt lat="59.218582744301" lon="17.883020522494">
        <ele>47.4</ele>
        <time>2015-03-24T18:30:13Z</time>
      </trkpt>
      <trkpt lat="59.218590036554" lon="17.883094953766">
        <ele>47.8</ele>
        <time>2015-03-24T18:30:14Z</time>
      </trkpt>
      <trkpt lat="59.21859875373" lon="17.883166199916">
        <ele>48.2</ele>
        <time>2015-03-24T18:30:15Z</time>
      </trkpt>
      <trkpt lat="59.218602441766" lon="17.883243229577">
        <ele>48.6</ele>
        <time>2015-03-24T18:30:16Z</time>
      </trkpt>
      <trkpt lat="59.218603699051" lon="17.883329563147">
        <ele>49</ele>
        <time>2015-03-24T18:30:17Z</time>
      </trkpt>
      <trkpt lat="59.218602274128" lon="17.883503990486">
        <ele>49</ele>
        <time>2015-03-24T18:30:19Z</time>
      </trkpt>
      <trkpt lat="59.218600094834" lon="17.883784281222">
        <ele>49.4</ele>
        <time>2015-03-24T18:30:22Z</time>
      </trkpt>
      <trkpt lat="59.218594981875" lon="17.883880589253">
        <ele>49.8</ele>
        <time>2015-03-24T18:30:23Z</time>
      </trkpt>
      <trkpt lat="59.218586851432" lon="17.883977316379">
        <ele>50.2</ele>
        <time>2015-03-24T18:30:24Z</time>
      </trkpt>
      <trkpt lat="59.218579223903" lon="17.884073205315">
        <ele>50.8</ele>
        <time>2015-03-24T18:30:25Z</time>
      </trkpt>
      <trkpt lat="59.218574613858" lon="17.884164065111">
        <ele>51.2</ele>
        <time>2015-03-24T18:30:26Z</time>
      </trkpt>
      <trkpt lat="59.218560029352" lon="17.884432705006">
        <ele>51.2</ele>
        <time>2015-03-24T18:30:29Z</time>
      </trkpt>
      <trkpt lat="59.218517533119" lon="17.884920950681">
        <ele>51.6</ele>
        <time>2015-03-24T18:30:35Z</time>
      </trkpt>
      <trkpt lat="59.218515437644" lon="17.885003260939">
        <ele>52</ele>
        <time>2015-03-24T18:30:36Z</time>
      </trkpt>
      <trkpt lat="59.218516946386" lon="17.885087247577">
        <ele>52.4</ele>
        <time>2015-03-24T18:30:37Z</time>
      </trkpt>
      <trkpt lat="59.218516862567" lon="17.885173245871">
        <ele>52.8</ele>
        <time>2015-03-24T18:30:38Z</time>
      </trkpt>
      <trkpt lat="59.218514515635" lon="17.885259830898">
        <ele>53.2</ele>
        <time>2015-03-24T18:30:39Z</time>
      </trkpt>
      <trkpt lat="59.218515186187" lon="17.885529308983">
        <ele>53.2</ele>
        <time>2015-03-24T18:30:42Z</time>
      </trkpt>
      <trkpt lat="59.218538487869" lon="17.885941782282">
        <ele>53.2</ele>
        <time>2015-03-24T18:30:47Z</time>
      </trkpt>
      <trkpt lat="59.218565142311" lon="17.886096093061">
        <ele>53.6</ele>
        <time>2015-03-24T18:30:49Z</time>
      </trkpt>
      <trkpt lat="59.218577547523" lon="17.886169769962">
        <ele>54</ele>
        <time>2015-03-24T18:30:50Z</time>
      </trkpt>
      <trkpt lat="59.218589701278" lon="17.886247470175">
        <ele>54.6</ele>
        <time>2015-03-24T18:30:51Z</time>
      </trkpt>
      <trkpt lat="59.218602777042" lon="17.886323745465">
        <ele>55</ele>
        <time>2015-03-24T18:30:52Z</time>
      </trkpt>
      <trkpt lat="59.218616523358" lon="17.88639960166">
        <ele>55.4</ele>
        <time>2015-03-24T18:30:53Z</time>
      </trkpt>
      <trkpt lat="59.218680644893" lon="17.886724567923">
        <ele>55.8</ele>
        <time>2015-03-24T18:30:57Z</time>
      </trkpt>
      <trkpt lat="59.218694642666" lon="17.886811069131">
        <ele>56.2</ele>
        <time>2015-03-24T18:30:58Z</time>
      </trkpt>
      <trkpt lat="59.218712244656" lon="17.886899246719">
        <ele>57</ele>
        <time>2015-03-24T18:30:59Z</time>
      </trkpt>
      <trkpt lat="59.218729427551" lon="17.886985077375">
        <ele>57.4</ele>
        <time>2015-03-24T18:31:00Z</time>
      </trkpt>
      <trkpt lat="59.218757004002" lon="17.887151961004">
        <ele>57.4</ele>
        <time>2015-03-24T18:31:02Z</time>
      </trkpt>
      <trkpt lat="59.218769073938" lon="17.887239048945">
        <ele>57.4</ele>
        <time>2015-03-24T18:31:03Z</time>
      </trkpt>
      <trkpt lat="59.218788855222" lon="17.887404842927">
        <ele>57.8</ele>
        <time>2015-03-24T18:31:05Z</time>
      </trkpt>
      <trkpt lat="59.218804277918" lon="17.887488829565">
        <ele>58.4</ele>
        <time>2015-03-24T18:31:06Z</time>
      </trkpt>
      <trkpt lat="59.218820119709" lon="17.88757222947">
        <ele>58.8</ele>
        <time>2015-03-24T18:31:07Z</time>
      </trkpt>
      <trkpt lat="59.218836129138" lon="17.887656551384">
        <ele>59.2</ele>
        <time>2015-03-24T18:31:08Z</time>
      </trkpt>
      <trkpt lat="59.218851803291" lon="17.887743136411">
        <ele>59.6</ele>
        <time>2015-03-24T18:31:09Z</time>
      </trkpt>
      <trkpt lat="59.218916930654" lon="17.888202967445">
        <ele>59.6</ele>
        <time>2015-03-24T18:31:14Z</time>
      </trkpt>
      <trkpt lat="59.219030924494" lon="17.888852480876">
        <ele>59.6</ele>
        <time>2015-03-24T18:31:21Z</time>
      </trkpt>
      <trkpt lat="59.219137039348" lon="17.889460420083">
        <ele>59.6</ele>
        <time>2015-03-24T18:31:27Z</time>
      </trkpt>
      <trkpt lat="59.219237286872" lon="17.890024438134">
        <ele>59.6</ele>
        <time>2015-03-24T18:31:33Z</time>
      </trkpt>
      <trkpt lat="59.219315741456" lon="17.890358037754">
        <ele>59.6</ele>
        <time>2015-03-24T18:31:36Z</time>
      </trkpt>
      <trkpt lat="59.219350693979" lon="17.890477563648">
        <ele>59.6</ele>
        <time>2015-03-24T18:31:37Z</time>
      </trkpt>
      <trkpt lat="59.219517158513" lon="17.891003276416">
        <ele>59.6</ele>
        <time>2015-03-24T18:31:42Z</time>
      </trkpt>
      <trkpt lat="59.219778589974" lon="17.891844735357">
        <ele>59.6</ele>
        <time>2015-03-24T18:31:50Z</time>
      </trkpt>
      <trkpt lat="59.219995262089" lon="17.892658785485">
        <ele>59.6</ele>
        <time>2015-03-24T18:31:57Z</time>
      </trkpt>
      <trkpt lat="59.220131551783" lon="17.893299246464">
        <ele>59.6</ele>
        <time>2015-03-24T18:32:02Z</time>
      </trkpt>
      <trkpt lat="59.220175472939" lon="17.893582806141">
        <ele>59.6</ele>
        <time>2015-03-24T18:32:04Z</time>
      </trkpt>
      <trkpt lat="59.220204809589" lon="17.893868377474">
        <ele>59.2</ele>
        <time>2015-03-24T18:32:06Z</time>
      </trkpt>
      <trkpt lat="59.22021310767" lon="17.894008522842">
        <ele>58.6</ele>
        <time>2015-03-24T18:32:07Z</time>
      </trkpt>
      <trkpt lat="59.220218723543" lon="17.89414783002">
        <ele>58.2</ele>
        <time>2015-03-24T18:32:08Z</time>
      </trkpt>
      <trkpt lat="59.220223836502" lon="17.894285544637">
        <ele>57.8</ele>
        <time>2015-03-24T18:32:09Z</time>
      </trkpt>
      <trkpt lat="59.220227440719" lon="17.89442107996">
        <ele>57.4</ele>
        <time>2015-03-24T18:32:10Z</time>
      </trkpt>
      <trkpt lat="59.220231631669" lon="17.894908487445">
        <ele>57.4</ele>
        <time>2015-03-24T18:32:14Z</time>
      </trkpt>
      <trkpt lat="59.220238169551" lon="17.895021810733">
        <ele>57.4</ele>
        <time>2015-03-24T18:32:15Z</time>
      </trkpt>
      <trkpt lat="59.220293825367" lon="17.895204033239">
        <ele>57.4</ele>
        <time>2015-03-24T18:32:17Z</time>
      </trkpt>
      <trkpt lat="59.220402957705" lon="17.895231861147">
        <ele>57.4</ele>
        <time>2015-03-24T18:32:19Z</time>
      </trkpt>
      <trkpt lat="59.220610996463" lon="17.895023822389">
        <ele>56.8</ele>
        <time>2015-03-24T18:32:23Z</time>
      </trkpt>
      <trkpt lat="59.220662545148" lon="17.894964562356">
        <ele>56.4</ele>
        <time>2015-03-24T18:32:24Z</time>
      </trkpt>
      <trkpt lat="59.220713423281" lon="17.894903374486">
        <ele>56</ele>
        <time>2015-03-24T18:32:25Z</time>
      </trkpt>
      <trkpt lat="59.220764720509" lon="17.89484436591">
        <ele>55.6</ele>
        <time>2015-03-24T18:32:26Z</time>
      </trkpt>
      <trkpt lat="59.220817777936" lon="17.894784100049">
        <ele>55.2</ele>
        <time>2015-03-24T18:32:27Z</time>
      </trkpt>
      <trkpt lat="59.221073342067" lon="17.894473718292">
        <ele>55.2</ele>
        <time>2015-03-24T18:32:32Z</time>
      </trkpt>
      <trkpt lat="59.221210134675" lon="17.894202144732">
        <ele>55.2</ele>
        <time>2015-03-24T18:32:35Z</time>
      </trkpt>
      <trkpt lat="59.22126838888" lon="17.893980275839">
        <ele>55.2</ele>
        <time>2015-03-24T18:32:37Z</time>
      </trkpt>
      <trkpt lat="59.221409456257" lon="17.893483899721">
        <ele>55.2</ele>
        <time>2015-03-24T18:32:42Z</time>
      </trkpt>
      <trkpt lat="59.221452287766" lon="17.893393626658">
        <ele>55.2</ele>
        <time>2015-03-24T18:32:43Z</time>
      </trkpt>
      <trkpt lat="59.221696117237" lon="17.893062206332">
        <ele>55.2</ele>
        <time>2015-03-24T18:32:48Z</time>
      </trkpt>
      <trkpt lat="59.221754622899" lon="17.893013591312">
        <ele>55.6</ele>
        <time>2015-03-24T18:32:49Z</time>
      </trkpt>
      <trkpt lat="59.221817654787" lon="17.892969418699">
        <ele>56</ele>
        <time>2015-03-24T18:32:50Z</time>
      </trkpt>
      <trkpt lat="59.221879597028" lon="17.892930107588">
        <ele>56.4</ele>
        <time>2015-03-24T18:32:51Z</time>
      </trkpt>
      <trkpt lat="59.221940784898" lon="17.892884426233">
        <ele>57</ele>
        <time>2015-03-24T18:32:52Z</time>
      </trkpt>
      <trkpt lat="59.222000547845" lon="17.892821981078">
        <ele>57.4</ele>
        <time>2015-03-24T18:32:53Z</time>
      </trkpt>
      <trkpt lat="59.222113200581" lon="17.892677812398">
        <ele>57.4</ele>
        <time>2015-03-24T18:32:55Z</time>
      </trkpt>
      <trkpt lat="59.222246472791" lon="17.89237002903">
        <ele>57.4</ele>
        <time>2015-03-24T18:32:58Z</time>
      </trkpt>
      <trkpt lat="59.222333057818" lon="17.892163079919">
        <ele>57.8</ele>
        <time>2015-03-24T18:33:00Z</time>
      </trkpt>
      <trkpt lat="59.222375805508" lon="17.89205989873">
        <ele>58.2</ele>
        <time>2015-03-24T18:33:01Z</time>
      </trkpt>
      <trkpt lat="59.222418972293" lon="17.891955627894">
        <ele>58.6</ele>
        <time>2015-03-24T18:33:02Z</time>
      </trkpt>
      <trkpt lat="59.222460797974" lon="17.89185454218">
        <ele>59.4</ele>
        <time>2015-03-24T18:33:03Z</time>
      </trkpt>
      <trkpt lat="59.222500611999" lon="17.891752953552">
        <ele>59.4</ele>
        <time>2015-03-24T18:33:04Z</time>
      </trkpt>
      <trkpt lat="59.222637404607" lon="17.891328410317">
        <ele>59.4</ele>
        <time>2015-03-24T18:33:08Z</time>
      </trkpt>
      <trkpt lat="59.22268660636" lon="17.891108133985">
        <ele>59.4</ele>
        <time>2015-03-24T18:33:10Z</time>
      </trkpt>
      <trkpt lat="59.222816022896" lon="17.89041788452">
        <ele>59.4</ele>
        <time>2015-03-24T18:33:16Z</time>
      </trkpt>
      <trkpt lat="59.222828931022" lon="17.890298610083">
        <ele>59.4</ele>
        <time>2015-03-24T18:33:17Z</time>
      </trkpt>
      <trkpt lat="59.222880982621" lon="17.889691089971">
        <ele>59.4</ele>
        <time>2015-03-24T18:33:22Z</time>
      </trkpt>
      <trkpt lat="59.222886766132" lon="17.889455558581">
        <ele>59.4</ele>
        <time>2015-03-24T18:33:24Z</time>
      </trkpt>
      <trkpt lat="59.222911073642" lon="17.888668498171">
        <ele>59.4</ele>
        <time>2015-03-24T18:33:31Z</time>
      </trkpt>
      <trkpt lat="59.222909481081" lon="17.888204895282">
        <ele>59.8</ele>
        <time>2015-03-24T18:33:35Z</time>
      </trkpt>
      <trkpt lat="59.222909313443" lon="17.888086961949">
        <ele>60.2</ele>
        <time>2015-03-24T18:33:36Z</time>
      </trkpt>
      <trkpt lat="59.222903781389" lon="17.88797288429">
        <ele>60.8</ele>
        <time>2015-03-24T18:33:37Z</time>
      </trkpt>
      <trkpt lat="59.222898836068" lon="17.887857633165">
        <ele>61.2</ele>
        <time>2015-03-24T18:33:38Z</time>
      </trkpt>
      <trkpt lat="59.222894142204" lon="17.887744812791">
        <ele>61.6</ele>
        <time>2015-03-24T18:33:39Z</time>
      </trkpt>
      <trkpt lat="59.222859692595" lon="17.887195211608">
        <ele>61.6</ele>
        <time>2015-03-24T18:33:44Z</time>
      </trkpt>
      <trkpt lat="59.222803533865" lon="17.886385520068">
        <ele>61.6</ele>
        <time>2015-03-24T18:33:51Z</time>
      </trkpt>
      <trkpt lat="59.222800264924" lon="17.885888557217">
        <ele>61.2</ele>
        <time>2015-03-24T18:33:55Z</time>
      </trkpt>
      <trkpt lat="59.222802025123" lon="17.885754782093">
        <ele>60.8</ele>
        <time>2015-03-24T18:33:56Z</time>
      </trkpt>
      <trkpt lat="59.222798840001" lon="17.885615223458">
        <ele>60.4</ele>
        <time>2015-03-24T18:33:57Z</time>
      </trkpt>
      <trkpt lat="59.222790877196" lon="17.885467785837">
        <ele>60</ele>
        <time>2015-03-24T18:33:58Z</time>
      </trkpt>
      <trkpt lat="59.222784171676" lon="17.88532252751">
        <ele>59.6</ele>
        <time>2015-03-24T18:33:59Z</time>
      </trkpt>
      <trkpt lat="59.222777717613" lon="17.885179699934">
        <ele>59.2</ele>
        <time>2015-03-24T18:34:00Z</time>
      </trkpt>
      <trkpt lat="59.222775622138" lon="17.885037207634">
        <ele>58.8</ele>
        <time>2015-03-24T18:34:01Z</time>
      </trkpt>
      <trkpt lat="59.222769251894" lon="17.884900582664">
        <ele>58.4</ele>
        <time>2015-03-24T18:34:02Z</time>
      </trkpt>
      <trkpt lat="59.222761037632" lon="17.88478440953">
        <ele>58</ele>
        <time>2015-03-24T18:34:03Z</time>
      </trkpt>
      <trkpt lat="59.222758942157" lon="17.884694639381">
        <ele>57.6</ele>
        <time>2015-03-24T18:34:04Z</time>
      </trkpt>
      <trkpt lat="59.222763049288" lon="17.884620040471">
        <ele>57</ele>
        <time>2015-03-24T18:34:05Z</time>
      </trkpt>
      <trkpt lat="59.222774029577" lon="17.884544519552">
        <ele>56.6</ele>
        <time>2015-03-24T18:34:06Z</time>
      </trkpt>
      <trkpt lat="59.222794397594" lon="17.884480733293">
        <ele>56.2</ele>
        <time>2015-03-24T18:34:07Z</time>
      </trkpt>
      <trkpt lat="59.222823734244" lon="17.884421305622">
        <ele>55.6</ele>
        <time>2015-03-24T18:34:08Z</time>
      </trkpt>
      <trkpt lat="59.222860614604" lon="17.884359195743">
        <ele>55.2</ele>
        <time>2015-03-24T18:34:09Z</time>
      </trkpt>
      <trkpt lat="59.222902943199" lon="17.884294152199">
        <ele>55.2</ele>
        <time>2015-03-24T18:34:10Z</time>
      </trkpt>
      <trkpt lat="59.222953402237" lon="17.884228857198">
        <ele>55.2</ele>
        <time>2015-03-24T18:34:11Z</time>
      </trkpt>
      <trkpt lat="59.22309312851" lon="17.88409709373">
        <ele>55.2</ele>
        <time>2015-03-24T18:34:13Z</time>
      </trkpt>
      <trkpt lat="59.223501997592" lon="17.883830465491">
        <ele>55.2</ele>
        <time>2015-03-24T18:34:18Z</time>
      </trkpt>
      <trkpt lat="59.223649435213" lon="17.883704150258">
        <ele>55.6</ele>
        <time>2015-03-24T18:34:20Z</time>
      </trkpt>
      <trkpt lat="59.223719843173" lon="17.883616307946">
        <ele>56.2</ele>
        <time>2015-03-24T18:34:21Z</time>
      </trkpt>
      <trkpt lat="59.223777343007" lon="17.883529303824">
        <ele>56.6</ele>
        <time>2015-03-24T18:34:22Z</time>
      </trkpt>
      <trkpt lat="59.223829478425" lon="17.88345001105">
        <ele>57.4</ele>
        <time>2015-03-24T18:34:23Z</time>
      </trkpt>
      <trkpt lat="59.223877171436" lon="17.883375076864">
        <ele>58.2</ele>
        <time>2015-03-24T18:34:24Z</time>
      </trkpt>
      <trkpt lat="59.223920589678" lon="17.883307099655">
        <ele>59</ele>
        <time>2015-03-24T18:34:25Z</time>
      </trkpt>
      <trkpt lat="59.223961074255" lon="17.883241050283">
        <ele>59.8</ele>
        <time>2015-03-24T18:34:26Z</time>
      </trkpt>
      <trkpt lat="59.223997367882" lon="17.88317676111">
        <ele>60.6</ele>
        <time>2015-03-24T18:34:27Z</time>
      </trkpt>
      <trkpt lat="59.224031985129" lon="17.883110879376">
        <ele>61.4</ele>
        <time>2015-03-24T18:34:28Z</time>
      </trkpt>
      <trkpt lat="59.224064087806" lon="17.883047093117">
        <ele>62.2</ele>
        <time>2015-03-24T18:34:29Z</time>
      </trkpt>
      <trkpt lat="59.224099291786" lon="17.88298565379">
        <ele>63</ele>
        <time>2015-03-24T18:34:30Z</time>
      </trkpt>
      <trkpt lat="59.224137094155" lon="17.882923543911">
        <ele>64</ele>
        <time>2015-03-24T18:34:31Z</time>
      </trkpt>
      <trkpt lat="59.224171543764" lon="17.882857326901">
        <ele>64.8</ele>
        <time>2015-03-24T18:34:32Z</time>
      </trkpt>
      <trkpt lat="59.22420456845" lon="17.882790858434">
        <ele>65.6</ele>
        <time>2015-03-24T18:34:33Z</time>
      </trkpt>
      <trkpt lat="59.224242538457" lon="17.882729083831">
        <ele>66.6</ele>
        <time>2015-03-24T18:34:34Z</time>
      </trkpt>
      <trkpt lat="59.224278832084" lon="17.882672589825">
        <ele>67.4</ele>
        <time>2015-03-24T18:34:35Z</time>
      </trkpt>
      <trkpt lat="59.22431520953" lon="17.882613748887">
        <ele>68.2</ele>
        <time>2015-03-24T18:34:36Z</time>
      </trkpt>
      <trkpt lat="59.224352006071" lon="17.882553650664">
        <ele>68.6</ele>
        <time>2015-03-24T18:34:37Z</time>
      </trkpt>
      <trkpt lat="59.22438561749" lon="17.882489696767">
        <ele>69.2</ele>
        <time>2015-03-24T18:34:38Z</time>
      </trkpt>
      <trkpt lat="59.224418055443" lon="17.882413421477">
        <ele>69.6</ele>
        <time>2015-03-24T18:34:39Z</time>
      </trkpt>
      <trkpt lat="59.224441943858" lon="17.882327087907">
        <ele>70.2</ele>
        <time>2015-03-24T18:34:40Z</time>
      </trkpt>
      <trkpt lat="59.224465664635" lon="17.882241592527">
        <ele>70.6</ele>
        <time>2015-03-24T18:34:41Z</time>
      </trkpt>
      <trkpt lat="59.224485278281" lon="17.882148972532">
        <ele>70.6</ele>
        <time>2015-03-24T18:34:42Z</time>
      </trkpt>
      <trkpt lat="59.224521236632" lon="17.881973623184">
        <ele>70.6</ele>
        <time>2015-03-24T18:34:44Z</time>
      </trkpt>
      <trkpt lat="59.224611342057" lon="17.881690734059">
        <ele>70.6</ele>
        <time>2015-03-24T18:34:47Z</time>
      </trkpt>
      <trkpt lat="59.224654257385" lon="17.881602053557">
        <ele>70.6</ele>
        <time>2015-03-24T18:34:48Z</time>
      </trkpt>
      <trkpt lat="59.224703040043" lon="17.881540446592">
        <ele>70.6</ele>
        <time>2015-03-24T18:34:49Z</time>
      </trkpt>
      <trkpt lat="59.224829522914" lon="17.881477079428">
        <ele>70.2</ele>
        <time>2015-03-24T18:34:51Z</time>
      </trkpt>
      <trkpt lat="59.22491702995" lon="17.881446904588">
        <ele>69.8</ele>
        <time>2015-03-24T18:34:52Z</time>
      </trkpt>
      <trkpt lat="59.22500755447" lon="17.881412119703">
        <ele>69.4</ele>
        <time>2015-03-24T18:34:53Z</time>
      </trkpt>
      <trkpt lat="59.225098498085" lon="17.881374484972">
        <ele>68.8</ele>
        <time>2015-03-24T18:34:54Z</time>
      </trkpt>
      <trkpt lat="59.225190196071" lon="17.881329809445">
        <ele>68</ele>
        <time>2015-03-24T18:34:55Z</time>
      </trkpt>
      <trkpt lat="59.225288934853" lon="17.881275327095">
        <ele>67.4</ele>
        <time>2015-03-24T18:34:56Z</time>
      </trkpt>
      <trkpt lat="59.225395468802" lon="17.881212379026">
        <ele>66.6</ele>
        <time>2015-03-24T18:34:57Z</time>
      </trkpt>
      <trkpt lat="59.225499488181" lon="17.88114834131">
        <ele>66</ele>
        <time>2015-03-24T18:34:58Z</time>
      </trkpt>
      <trkpt lat="59.225600238619" lon="17.88108044792">
        <ele>65.2</ele>
        <time>2015-03-24T18:34:59Z</time>
      </trkpt>
      <trkpt lat="59.225697887754" lon="17.881011045788">
        <ele>64.6</ele>
        <time>2015-03-24T18:35:00Z</time>
      </trkpt>
      <trkpt lat="59.225795955984" lon="17.880933680851">
        <ele>64</ele>
        <time>2015-03-24T18:35:01Z</time>
      </trkpt>
      <trkpt lat="59.225885307038" lon="17.880852963154">
        <ele>63.4</ele>
        <time>2015-03-24T18:35:02Z</time>
      </trkpt>
      <trkpt lat="59.225969461314" lon="17.880767551593">
        <ele>62.8</ele>
        <time>2015-03-24T18:35:03Z</time>
      </trkpt>
      <trkpt lat="59.226045736604" lon="17.880677781444">
        <ele>62.4</ele>
        <time>2015-03-24T18:35:04Z</time>
      </trkpt>
      <trkpt lat="59.226117569487" lon="17.880582982155">
        <ele>61.8</ele>
        <time>2015-03-24T18:35:05Z</time>
      </trkpt>
      <trkpt lat="59.226300462545" lon="17.880308391111">
        <ele>61.4</ele>
        <time>2015-03-24T18:35:08Z</time>
      </trkpt>
      <trkpt lat="59.226355615447" lon="17.880219459152">
        <ele>61</ele>
        <time>2015-03-24T18:35:09Z</time>
      </trkpt>
      <trkpt lat="59.226409427245" lon="17.880142597129">
        <ele>60.6</ele>
        <time>2015-03-24T18:35:10Z</time>
      </trkpt>
      <trkpt lat="59.2264634905" lon="17.88007964906">
        <ele>60.2</ele>
        <time>2015-03-24T18:35:11Z</time>
      </trkpt>
      <trkpt lat="59.226520403601" lon="17.880031201678">
        <ele>59.8</ele>
        <time>2015-03-24T18:35:12Z</time>
      </trkpt>
      <trkpt lat="59.226579831272" lon="17.879990130368">
        <ele>59.8</ele>
        <time>2015-03-24T18:35:13Z</time>
      </trkpt>
      <trkpt lat="59.22671578569" lon="17.87992709848">
        <ele>59.8</ele>
        <time>2015-03-24T18:35:15Z</time>
      </trkpt>
      <trkpt lat="59.226926758113" lon="17.879812350269">
        <ele>59.8</ele>
        <time>2015-03-24T18:35:18Z</time>
      </trkpt>
      <trkpt lat="59.226990963467" lon="17.879756526815">
        <ele>59.8</ele>
        <time>2015-03-24T18:35:19Z</time>
      </trkpt>
      <trkpt lat="59.227154075241" lon="17.87952057633">
        <ele>59.8</ele>
        <time>2015-03-24T18:35:22Z</time>
      </trkpt>
      <trkpt lat="59.227357755411" lon="17.879163758847">
        <ele>59.4</ele>
        <time>2015-03-24T18:35:26Z</time>
      </trkpt>
      <trkpt lat="59.227406789526" lon="17.879067199359">
        <ele>59</ele>
        <time>2015-03-24T18:35:27Z</time>
      </trkpt>
      <trkpt lat="59.227451381234" lon="17.878979021771">
        <ele>58.6</ele>
        <time>2015-03-24T18:35:28Z</time>
      </trkpt>
      <trkpt lat="59.227500582987" lon="17.878885563586">
        <ele>58.2</ele>
        <time>2015-03-24T18:35:29Z</time>
      </trkpt>
      <trkpt lat="59.22754559379" lon="17.878792440677">
        <ele>57.8</ele>
        <time>2015-03-24T18:35:30Z</time>
      </trkpt>
      <trkpt lat="59.227726307554" lon="17.878484322033">
        <ele>57.8</ele>
        <time>2015-03-24T18:35:34Z</time>
      </trkpt>
      <trkpt lat="59.227776012221" lon="17.87842673838">
        <ele>57.2</ele>
        <time>2015-03-24T18:35:35Z</time>
      </trkpt>
      <trkpt lat="59.22782722563" lon="17.878354402583">
        <ele>56.6</ele>
        <time>2015-03-24T18:35:36Z</time>
      </trkpt>
      <trkpt lat="59.227882797627" lon="17.878270499764">
        <ele>56.2</ele>
        <time>2015-03-24T18:35:37Z</time>
      </trkpt>
      <trkpt lat="59.227938537262" lon="17.878205120944">
        <ele>55.6</ele>
        <time>2015-03-24T18:35:38Z</time>
      </trkpt>
      <trkpt lat="59.228002826435" lon="17.878145525635">
        <ele>55</ele>
        <time>2015-03-24T18:35:39Z</time>
      </trkpt>
      <trkpt lat="59.228084633779" lon="17.878084421584">
        <ele>54.4</ele>
        <time>2015-03-24T18:35:40Z</time>
      </trkpt>
      <trkpt lat="59.228153700635" lon="17.878026502655">
        <ele>53.6</ele>
        <time>2015-03-24T18:35:41Z</time>
      </trkpt>
      <trkpt lat="59.228217486894" lon="17.877957435799">
        <ele>53</ele>
        <time>2015-03-24T18:35:42Z</time>
      </trkpt>
      <trkpt lat="59.228265347543" lon="17.877868839116">
        <ele>52.4</ele>
        <time>2015-03-24T18:35:43Z</time>
      </trkpt>
      <trkpt lat="59.228307676138" lon="17.877759958235">
        <ele>51.6</ele>
        <time>2015-03-24T18:35:44Z</time>
      </trkpt>
      <trkpt lat="59.228335839322" lon="17.877629284414">
        <ele>51</ele>
        <time>2015-03-24T18:35:45Z</time>
      </trkpt>
      <trkpt lat="59.22835277076" lon="17.877475225092">
        <ele>50.2</ele>
        <time>2015-03-24T18:35:46Z</time>
      </trkpt>
      <trkpt lat="59.228352351665" lon="17.877314963164">
        <ele>49.6</ele>
        <time>2015-03-24T18:35:47Z</time>
      </trkpt>
      <trkpt lat="59.228341790471" lon="17.877177500004">
        <ele>48.6</ele>
        <time>2015-03-24T18:35:48Z</time>
      </trkpt>
      <trkpt lat="59.228321506273" lon="17.877047329097">
        <ele>47.8</ele>
        <time>2015-03-24T18:35:49Z</time>
      </trkpt>
      <trkpt lat="59.228302646998" lon="17.876933251438">
        <ele>47</ele>
        <time>2015-03-24T18:35:50Z</time>
      </trkpt>
      <trkpt lat="59.228297869315" lon="17.876847672239">
        <ele>46</ele>
        <time>2015-03-24T18:35:51Z</time>
      </trkpt>
      <trkpt lat="59.228302311722" lon="17.876795872097">
        <ele>45.2</ele>
        <time>2015-03-24T18:35:52Z</time>
      </trkpt>
      <trkpt lat="59.228307257043" lon="17.876766200171">
        <ele>44.2</ele>
        <time>2015-03-24T18:35:53Z</time>
      </trkpt>
      <trkpt lat="59.228321170997" lon="17.876748262905">
        <ele>43.4</ele>
        <time>2015-03-24T18:35:54Z</time>
      </trkpt>
      <trkpt lat="59.228343215394" lon="17.876738875177">
        <ele>41.8</ele>
        <time>2015-03-24T18:35:55Z</time>
      </trkpt>
      <trkpt lat="59.228380095754" lon="17.876748095267">
        <ele>41.2</ele>
        <time>2015-03-24T18:35:56Z</time>
      </trkpt>
      <trkpt lat="59.228435583932" lon="17.876795033907">
        <ele>40.6</ele>
        <time>2015-03-24T18:35:57Z</time>
      </trkpt>
      <trkpt lat="59.228506913901" lon="17.876855886501">
        <ele>40</ele>
        <time>2015-03-24T18:35:58Z</time>
      </trkpt>
      <trkpt lat="59.228583943562" lon="17.876909530661">
        <ele>39.2</ele>
        <time>2015-03-24T18:35:59Z</time>
      </trkpt>
      <trkpt lat="59.228666840553" lon="17.876966024667">
        <ele>38.6</ele>
        <time>2015-03-24T18:36:00Z</time>
      </trkpt>
      <trkpt lat="59.228757867987" lon="17.877025536157">
        <ele>37.6</ele>
        <time>2015-03-24T18:36:01Z</time>
      </trkpt>
      <trkpt lat="59.228837160761" lon="17.877071720426">
        <ele>36.8</ele>
        <time>2015-03-24T18:36:02Z</time>
      </trkpt>
      <trkpt lat="59.228895498785" lon="17.877110528623">
        <ele>36</ele>
        <time>2015-03-24T18:36:03Z</time>
      </trkpt>
      <trkpt lat="59.228975378292" lon="17.877187306827">
        <ele>35</ele>
        <time>2015-03-24T18:36:04Z</time>
      </trkpt>
      <trkpt lat="59.229049474288" lon="17.877288811636">
        <ele>34.2</ele>
        <time>2015-03-24T18:36:05Z</time>
      </trkpt>
      <trkpt lat="59.229108566683" lon="17.877383946201">
        <ele>33.2</ele>
        <time>2015-03-24T18:36:06Z</time>
      </trkpt>
      <trkpt lat="59.229154499495" lon="17.877458796568">
        <ele>32.4</ele>
        <time>2015-03-24T18:36:07Z</time>
      </trkpt>
      <trkpt lat="59.229197079547" lon="17.877524594483">
        <ele>31.8</ele>
        <time>2015-03-24T18:36:08Z</time>
      </trkpt>
      <trkpt lat="59.229243431454" lon="17.877564324689">
        <ele>31</ele>
        <time>2015-03-24T18:36:09Z</time>
      </trkpt>
      <trkpt lat="59.229292046474" lon="17.877558457359">
        <ele>30.4</ele>
        <time>2015-03-24T18:36:10Z</time>
      </trkpt>
      <trkpt lat="59.229339404209" lon="17.877567258354">
        <ele>29.6</ele>
        <time>2015-03-24T18:36:11Z</time>
      </trkpt>
      <trkpt lat="59.229381481347" lon="17.877593242244">
        <ele>29</ele>
        <time>2015-03-24T18:36:12Z</time>
      </trkpt>
      <trkpt lat="59.229417942612" lon="17.877639007418">
        <ele>28.6</ele>
        <time>2015-03-24T18:36:13Z</time>
      </trkpt>
      <trkpt lat="59.22945079966" lon="17.877693238311">
        <ele>28.2</ele>
        <time>2015-03-24T18:36:14Z</time>
      </trkpt>
      <trkpt lat="59.229473849885" lon="17.877748977946">
        <ele>27.8</ele>
        <time>2015-03-24T18:36:15Z</time>
      </trkpt>
      <trkpt lat="59.229493798807" lon="17.877802035373">
        <ele>27.4</ele>
        <time>2015-03-24T18:36:16Z</time>
      </trkpt>
      <trkpt lat="59.229512406625" lon="17.877837993724">
        <ele>27</ele>
        <time>2015-03-24T18:36:17Z</time>
      </trkpt>
      <trkpt lat="59.22953294228" lon="17.877864899623">
        <ele>27</ele>
        <time>2015-03-24T18:36:18Z</time>
      </trkpt>
      <trkpt lat="59.229738717925" lon="17.878382649586">
        <ele>24.8</ele>
        <time>2015-03-24T18:36:40Z</time>
      </trkpt>
      <trkpt lat="59.229761181417" lon="17.878460601256">
        <ele>24.8</ele>
        <time>2015-03-24T18:36:42Z</time>
      </trkpt>
      <trkpt lat="59.229778951045" lon="17.878647601445">
        <ele>24.8</ele>
        <time>2015-03-24T18:36:46Z</time>
      </trkpt>
      <trkpt lat="59.229839887458" lon="17.878832087064">
        <ele>24.8</ele>
        <time>2015-03-24T18:36:50Z</time>
      </trkpt>
      <trkpt lat="59.229925299019" lon="17.878928227457">
        <ele>24.2</ele>
        <time>2015-03-24T18:36:53Z</time>
      </trkpt>
      <trkpt lat="59.229957401696" lon="17.878957899383">
        <ele>23.8</ele>
        <time>2015-03-24T18:36:54Z</time>
      </trkpt>
      <trkpt lat="59.229988750002" lon="17.878979021771">
        <ele>23.4</ele>
        <time>2015-03-24T18:36:55Z</time>
      </trkpt>
      <trkpt lat="59.230023115792" lon="17.878996539942">
        <ele>23</ele>
        <time>2015-03-24T18:36:56Z</time>
      </trkpt>
      <trkpt lat="59.230058403591" lon="17.879019590167">
        <ele>22.6</ele>
        <time>2015-03-24T18:36:57Z</time>
      </trkpt>
      <trkpt lat="59.230137528727" lon="17.879067199359">
        <ele>22.6</ele>
        <time>2015-03-24T18:37:00Z</time>
      </trkpt>
      <trkpt lat="59.230255378241" lon="17.879168704168">
        <ele>22.6</ele>
        <time>2015-03-24T18:37:05Z</time>
      </trkpt>
      <trkpt lat="59.230354200842" lon="17.879296025229">
        <ele>22.6</ele>
        <time>2015-03-24T18:37:10Z</time>
      </trkpt>
      <trkpt lat="59.230444473905" lon="17.879492999879">
        <ele>22.6</ele>
        <time>2015-03-24T18:37:14Z</time>
      </trkpt>
      <trkpt lat="59.230558300107" lon="17.879608334823">
        <ele>22.6</ele>
        <time>2015-03-24T18:37:19Z</time>
      </trkpt>
      <trkpt lat="59.230603646186" lon="17.879723502129">
        <ele>22.6</ele>
        <time>2015-03-24T18:37:22Z</time>
      </trkpt>
      <trkpt lat="59.230619404158" lon="17.879811931174">
        <ele>22.6</ele>
        <time>2015-03-24T18:37:24Z</time>
      </trkpt>
      <trkpt lat="59.230692242869" lon="17.879993483128">
        <ele>22.6</ele>
        <time>2015-03-24T18:37:29Z</time>
      </trkpt>
      <trkpt lat="59.230750748531" lon="17.880095407032">
        <ele>22</ele>
        <time>2015-03-24T18:37:32Z</time>
      </trkpt>
      <trkpt lat="59.230771703281" lon="17.880122480569">
        <ele>21.6</ele>
        <time>2015-03-24T18:37:33Z</time>
      </trkpt>
      <trkpt lat="59.230791568384" lon="17.880148632097">
        <ele>21.2</ele>
        <time>2015-03-24T18:37:34Z</time>
      </trkpt>
      <trkpt lat="59.230810260021" lon="17.880179142213">
        <ele>20.4</ele>
        <time>2015-03-24T18:37:35Z</time>
      </trkpt>
      <trkpt lat="59.230891983546" lon="17.880341248159">
        <ele>20.4</ele>
        <time>2015-03-24T18:37:41Z</time>
      </trkpt>
      <trkpt lat="59.230960128393" lon="17.880526320511">
        <ele>20.4</ele>
        <time>2015-03-24T18:37:46Z</time>
      </trkpt>
      <trkpt lat="59.230998014581" lon="17.880716841098">
        <ele>20.4</ele>
        <time>2015-03-24T18:37:51Z</time>
      </trkpt>
      <trkpt lat="59.231022322091" lon="17.8808977225">
        <ele>20.4</ele>
        <time>2015-03-24T18:37:55Z</time>
      </trkpt>
      <trkpt lat="59.231026513041" lon="17.880972991962">
        <ele>20.4</ele>
        <time>2015-03-24T18:37:57Z</time>
      </trkpt>
      <trkpt lat="59.231029614344" lon="17.881060163722">
        <ele>20.4</ele>
        <time>2015-03-24T18:37:59Z</time>
      </trkpt>
      <trkpt lat="59.231006899395" lon="17.881142222523">
        <ele>20.4</ele>
        <time>2015-03-24T18:38:01Z</time>
      </trkpt>
      <trkpt lat="59.230948226095" lon="17.88127742257">
        <ele>20.4</ele>
        <time>2015-03-24T18:38:06Z</time>
      </trkpt>
      <trkpt lat="59.230946046801" lon="17.881297622949">
        <ele>20.4</ele>
        <time>2015-03-24T18:38:08Z</time>
      </trkpt>
      <trkpt lat="59.230928277173" lon="17.882091807974">
        <ele>22.6</ele>
        <time>2015-03-24T18:38:55Z</time>
      </trkpt>
      <trkpt lat="59.23092349949" lon="17.882124413565">
        <ele>22.6</ele>
        <time>2015-03-24T18:38:56Z</time>
      </trkpt>
      <trkpt lat="59.230903718206" lon="17.882216279189">
        <ele>22.6</ele>
        <time>2015-03-24T18:38:59Z</time>
      </trkpt>
      <trkpt lat="59.230881925266" lon="17.882283082932">
        <ele>23</ele>
        <time>2015-03-24T18:39:01Z</time>
      </trkpt>
      <trkpt lat="59.230869100959" lon="17.882319460378">
        <ele>23.4</ele>
        <time>2015-03-24T18:39:02Z</time>
      </trkpt>
      <trkpt lat="59.230859461774" lon="17.882361286059">
        <ele>23.8</ele>
        <time>2015-03-24T18:39:03Z</time>
      </trkpt>
      <trkpt lat="59.230857953032" lon="17.882401770636">
        <ele>24.4</ele>
        <time>2015-03-24T18:39:04Z</time>
      </trkpt>
      <trkpt lat="59.230863988" lon="17.882442087575">
        <ele>24.8</ele>
        <time>2015-03-24T18:39:05Z</time>
      </trkpt>
      <trkpt lat="59.230874633013" lon="17.882480476677">
        <ele>24.8</ele>
        <time>2015-03-24T18:39:06Z</time>
      </trkpt>
      <trkpt lat="59.230897431781" lon="17.882592961775">
        <ele>24.8</ele>
        <time>2015-03-24T18:39:09Z</time>
      </trkpt>
      <trkpt lat="59.230911010459" lon="17.882648952867">
        <ele>25.2</ele>
        <time>2015-03-24T18:39:11Z</time>
      </trkpt>
      <trkpt lat="59.230918135074" lon="17.882680887906">
        <ele>25.6</ele>
        <time>2015-03-24T18:39:12Z</time>
      </trkpt>
      <trkpt lat="59.230922242205" lon="17.882714750782">
        <ele>26.2</ele>
        <time>2015-03-24T18:39:13Z</time>
      </trkpt>
      <trkpt lat="59.230922158386" lon="17.88274844602">
        <ele>27</ele>
        <time>2015-03-24T18:39:14Z</time>
      </trkpt>
      <trkpt lat="59.23091260302" lon="17.882808125148">
        <ele>27.6</ele>
        <time>2015-03-24T18:39:16Z</time>
      </trkpt>
      <trkpt lat="59.230901455093" lon="17.882830001907">
        <ele>28</ele>
        <time>2015-03-24T18:39:17Z</time>
      </trkpt>
      <trkpt lat="59.23088578094" lon="17.882843748223">
        <ele>28.4</ele>
        <time>2015-03-24T18:39:18Z</time>
      </trkpt>
      <trkpt lat="59.230861641068" lon="17.88286243986">
        <ele>28.8</ele>
        <time>2015-03-24T18:39:19Z</time>
      </trkpt>
      <trkpt lat="59.230838674662" lon="17.88288339461">
        <ele>29.2</ele>
        <time>2015-03-24T18:39:20Z</time>
      </trkpt>
      <trkpt lat="59.230794334411" lon="17.882933266915">
        <ele>29.2</ele>
        <time>2015-03-24T18:39:22Z</time>
      </trkpt>
      <trkpt lat="59.23077597805" lon="17.882961262461">
        <ele>29.6</ele>
        <time>2015-03-24T18:39:23Z</time>
      </trkpt>
      <trkpt lat="59.230754352748" lon="17.882986827256">
        <ele>30</ele>
        <time>2015-03-24T18:39:24Z</time>
      </trkpt>
      <trkpt lat="59.230738678595" lon="17.883009626024">
        <ele>30.6</ele>
        <time>2015-03-24T18:39:25Z</time>
      </trkpt>
      <trkpt lat="59.230720070777" lon="17.883032927706">
        <ele>31</ele>
        <time>2015-03-24T18:39:26Z</time>
      </trkpt>
      <trkpt lat="59.230701295321" lon="17.883054553008">
        <ele>31.4</ele>
        <time>2015-03-24T18:39:27Z</time>
      </trkpt>
      <trkpt lat="59.230678999467" lon="17.883076848862">
        <ele>31.4</ele>
        <time>2015-03-24T18:39:28Z</time>
      </trkpt>
      <trkpt lat="59.230639855994" lon="17.883114232136">
        <ele>31.8</ele>
        <time>2015-03-24T18:39:30Z</time>
      </trkpt>
      <trkpt lat="59.230623092194" lon="17.883129738651">
        <ele>32.2</ele>
        <time>2015-03-24T18:39:31Z</time>
      </trkpt>
      <trkpt lat="59.230607837136" lon="17.883140551302">
        <ele>32.6</ele>
        <time>2015-03-24T18:39:32Z</time>
      </trkpt>
      <trkpt lat="59.230592330621" lon="17.883156896007">
        <ele>33</ele>
        <time>2015-03-24T18:39:33Z</time>
      </trkpt>
      <trkpt lat="59.230578081391" lon="17.883172067246">
        <ele>33.4</ele>
        <time>2015-03-24T18:39:34Z</time>
      </trkpt>
      <trkpt lat="59.230535333701" lon="17.883223364474">
        <ele>33.8</ele>
        <time>2015-03-24T18:39:37Z</time>
      </trkpt>
      <trkpt lat="59.230517396435" lon="17.883246163242">
        <ele>34.8</ele>
        <time>2015-03-24T18:39:38Z</time>
      </trkpt>
      <trkpt lat="59.230497447513" lon="17.883259239006">
        <ele>35.2</ele>
        <time>2015-03-24T18:39:39Z</time>
      </trkpt>
      <trkpt lat="59.230477414772" lon="17.883277846824">
        <ele>35.6</ele>
        <time>2015-03-24T18:39:40Z</time>
      </trkpt>
      <trkpt lat="59.230425866087" lon="17.883354205933">
        <ele>36</ele>
        <time>2015-03-24T18:39:43Z</time>
      </trkpt>
      <trkpt lat="59.230411281581" lon="17.883376166511">
        <ele>36.4</ele>
        <time>2015-03-24T18:39:44Z</time>
      </trkpt>
      <trkpt lat="59.230399379283" lon="17.883389158456">
        <ele>36.8</ele>
        <time>2015-03-24T18:39:45Z</time>
      </trkpt>
      <trkpt lat="59.230385716786" lon="17.883405503161">
        <ele>37.4</ele>
        <time>2015-03-24T18:39:46Z</time>
      </trkpt>
      <trkpt lat="59.230368785348" lon="17.883426122635">
        <ele>37.8</ele>
        <time>2015-03-24T18:39:47Z</time>
      </trkpt>
      <trkpt lat="59.23032838459" lon="17.883476497854">
        <ele>38.2</ele>
        <time>2015-03-24T18:39:50Z</time>
      </trkpt>
      <trkpt lat="59.230315225007" lon="17.883488651609">
        <ele>38.6</ele>
        <time>2015-03-24T18:39:51Z</time>
      </trkpt>
      <trkpt lat="59.230306926926" lon="17.8835128753">
        <ele>39</ele>
        <time>2015-03-24T18:39:52Z</time>
      </trkpt>
      <trkpt lat="59.230284547253" lon="17.883553527515">
        <ele>39.6</ele>
        <time>2015-03-24T18:39:53Z</time>
      </trkpt>
      <trkpt lat="59.230258647182" lon="17.883585043459">
        <ele>40</ele>
        <time>2015-03-24T18:39:54Z</time>
      </trkpt>
      <trkpt lat="59.230153119061" lon="17.883717728936">
        <ele>40.4</ele>
        <time>2015-03-24T18:39:59Z</time>
      </trkpt>
      <trkpt lat="59.230137612546" lon="17.88375930316">
        <ele>40.8</ele>
        <time>2015-03-24T18:40:00Z</time>
      </trkpt>
      <trkpt lat="59.230124369144" lon="17.883803559592">
        <ele>41.2</ele>
        <time>2015-03-24T18:40:01Z</time>
      </trkpt>
      <trkpt lat="59.230111125742" lon="17.883841026685">
        <ele>41.8</ele>
        <time>2015-03-24T18:40:02Z</time>
      </trkpt>
      <trkpt lat="59.230097547064" lon="17.88387664976">
        <ele>42.2</ele>
        <time>2015-03-24T18:40:03Z</time>
      </trkpt>
      <trkpt lat="59.230074245382" lon="17.883947644453">
        <ele>42.2</ele>
        <time>2015-03-24T18:40:05Z</time>
      </trkpt>
      <trkpt lat="59.230032252063" lon="17.884091394038">
        <ele>42.6</ele>
        <time>2015-03-24T18:40:08Z</time>
      </trkpt>
      <trkpt lat="59.230022864335" lon="17.884142439809">
        <ele>43</ele>
        <time>2015-03-24T18:40:09Z</time>
      </trkpt>
      <trkpt lat="59.230021942326" lon="17.884195748693">
        <ele>43.4</ele>
        <time>2015-03-24T18:40:10Z</time>
      </trkpt>
      <trkpt lat="59.230018589566" lon="17.884247716473">
        <ele>44</ele>
        <time>2015-03-24T18:40:11Z</time>
      </trkpt>
      <trkpt lat="59.230017332281" lon="17.884306892687">
        <ele>44.4</ele>
        <time>2015-03-24T18:40:12Z</time>
      </trkpt>
      <trkpt lat="59.230020852679" lon="17.884499341111">
        <ele>44.8</ele>
        <time>2015-03-24T18:40:15Z</time>
      </trkpt>
      <trkpt lat="59.230026049457" lon="17.88456648013">
        <ele>45.2</ele>
        <time>2015-03-24T18:40:16Z</time>
      </trkpt>
      <trkpt lat="59.230038789945" lon="17.884636217538">
        <ele>45.6</ele>
        <time>2015-03-24T18:40:17Z</time>
      </trkpt>
      <trkpt lat="59.230050440786" lon="17.88468466492">
        <ele>46</ele>
        <time>2015-03-24T18:40:18Z</time>
      </trkpt>
      <trkpt lat="59.230062007808" lon="17.884741242745">
        <ele>46.4</ele>
        <time>2015-03-24T18:40:19Z</time>
      </trkpt>
      <trkpt lat="59.230076843771" lon="17.884801843882">
        <ele>46.4</ele>
        <time>2015-03-24T18:40:20Z</time>
      </trkpt>
      <trkpt lat="59.230092098829" lon="17.884862864114">
        <ele>47</ele>
        <time>2015-03-24T18:40:21Z</time>
      </trkpt>
      <trkpt lat="59.230107186249" lon="17.884927404744">
        <ele>47.4</ele>
        <time>2015-03-24T18:40:22Z</time>
      </trkpt>
      <trkpt lat="59.230122441307" lon="17.884987502967">
        <ele>47.8</ele>
        <time>2015-03-24T18:40:23Z</time>
      </trkpt>
      <trkpt lat="59.230135768528" lon="17.885049864303">
        <ele>48.2</ele>
        <time>2015-03-24T18:40:24Z</time>
      </trkpt>
      <trkpt lat="59.230155214536" lon="17.885109711069">
        <ele>48.6</ele>
        <time>2015-03-24T18:40:25Z</time>
      </trkpt>
      <trkpt lat="59.230219671347" lon="17.885274247766">
        <ele>49</ele>
        <time>2015-03-24T18:40:28Z</time>
      </trkpt>
      <trkpt lat="59.230232914749" lon="17.885334681265">
        <ele>49.4</ele>
        <time>2015-03-24T18:40:29Z</time>
      </trkpt>
      <trkpt lat="59.230244397952" lon="17.885394779488">
        <ele>49.8</ele>
        <time>2015-03-24T18:40:30Z</time>
      </trkpt>
      <trkpt lat="59.230258479544" lon="17.885454793892">
        <ele>50.2</ele>
        <time>2015-03-24T18:40:31Z</time>
      </trkpt>
      <trkpt lat="59.230271052394" lon="17.885515059753">
        <ele>50.6</ele>
        <time>2015-03-24T18:40:32Z</time>
      </trkpt>
      <trkpt lat="59.230292174782" lon="17.885626622842">
        <ele>50.6</ele>
        <time>2015-03-24T18:40:34Z</time>
      </trkpt>
      <trkpt lat="59.23030659165" lon="17.885948068707">
        <ele>50.6</ele>
        <time>2015-03-24T18:40:39Z</time>
      </trkpt>
      <trkpt lat="59.23030659165" lon="17.886007999292">
        <ele>51</ele>
        <time>2015-03-24T18:40:40Z</time>
      </trkpt>
      <trkpt lat="59.230303657985" lon="17.88607019299">
        <ele>51.6</ele>
        <time>2015-03-24T18:40:41Z</time>
      </trkpt>
      <trkpt lat="59.230301813967" lon="17.886131297041">
        <ele>52</ele>
        <time>2015-03-24T18:40:42Z</time>
      </trkpt>
      <trkpt lat="59.230302233062" lon="17.886190808531">
        <ele>52.4</ele>
        <time>2015-03-24T18:40:43Z</time>
      </trkpt>
      <trkpt lat="59.230304244718" lon="17.886249984745">
        <ele>52.8</ele>
        <time>2015-03-24T18:40:44Z</time>
      </trkpt>
      <trkpt lat="59.230311117876" lon="17.886368085716">
        <ele>52.8</ele>
        <time>2015-03-24T18:40:46Z</time>
      </trkpt>
      <trkpt lat="59.230321343794" lon="17.886955740725">
        <ele>52.8</ele>
        <time>2015-03-24T18:40:55Z</time>
      </trkpt>
      <trkpt lat="59.230322936355" lon="17.887020951907">
        <ele>53.2</ele>
        <time>2015-03-24T18:40:56Z</time>
      </trkpt>
      <trkpt lat="59.230324109821" lon="17.887082977967">
        <ele>53.6</ele>
        <time>2015-03-24T18:40:57Z</time>
      </trkpt>
      <trkpt lat="59.23032587002" lon="17.887148440606">
        <ele>54</ele>
        <time>2015-03-24T18:40:58Z</time>
      </trkpt>
      <trkpt lat="59.230328133133" lon="17.887213735607">
        <ele>54.4</ele>
        <time>2015-03-24T18:40:59Z</time>
      </trkpt>
      <trkpt lat="59.230328887504" lon="17.88727299564">
        <ele>54.8</ele>
        <time>2015-03-24T18:41:00Z</time>
      </trkpt>
      <trkpt lat="59.230325115649" lon="17.887447925893">
        <ele>54.8</ele>
        <time>2015-03-24T18:41:03Z</time>
      </trkpt>
      <trkpt lat="59.230335593024" lon="17.887721678747">
        <ele>55.4</ele>
        <time>2015-03-24T18:41:08Z</time>
      </trkpt>
      <trkpt lat="59.230342717639" lon="17.887776999287">
        <ele>55.8</ele>
        <time>2015-03-24T18:41:09Z</time>
      </trkpt>
      <trkpt lat="59.230352440643" lon="17.887831062542">
        <ele>56.2</ele>
        <time>2015-03-24T18:41:10Z</time>
      </trkpt>
      <trkpt lat="59.230365935502" lon="17.887887724186">
        <ele>56.6</ele>
        <time>2015-03-24T18:41:11Z</time>
      </trkpt>
      <trkpt lat="59.230379178904" lon="17.887935333378">
        <ele>57</ele>
        <time>2015-03-24T18:41:12Z</time>
      </trkpt>
      <trkpt lat="59.230407258269" lon="17.88802149931">
        <ele>57</ele>
        <time>2015-03-24T18:41:14Z</time>
      </trkpt>
      <trkpt lat="59.23042393825" lon="17.888062905896">
        <ele>57.4</ele>
        <time>2015-03-24T18:41:15Z</time>
      </trkpt>
      <trkpt lat="59.230440199136" lon="17.888106910871">
        <ele>57.8</ele>
        <time>2015-03-24T18:41:16Z</time>
      </trkpt>
      <trkpt lat="59.23045830404" lon="17.888155944986">
        <ele>58.8</ele>
        <time>2015-03-24T18:41:17Z</time>
      </trkpt>
      <trkpt lat="59.230476828039" lon="17.888205565834">
        <ele>59.2</ele>
        <time>2015-03-24T18:41:18Z</time>
      </trkpt>
      <trkpt lat="59.230519072815" lon="17.888292150861">
        <ele>59.6</ele>
        <time>2015-03-24T18:41:20Z</time>
      </trkpt>
      <trkpt lat="59.230540865755" lon="17.888339340958">
        <ele>60</ele>
        <time>2015-03-24T18:41:21Z</time>
      </trkpt>
      <trkpt lat="59.230561149953" lon="17.888383429752">
        <ele>60.4</ele>
        <time>2015-03-24T18:41:22Z</time>
      </trkpt>
      <trkpt lat="59.23057816521" lon="17.88842718327">
        <ele>60.8</ele>
        <time>2015-03-24T18:41:23Z</time>
      </trkpt>
      <trkpt lat="59.230598784684" lon="17.888460040318">
        <ele>61.2</ele>
        <time>2015-03-24T18:41:24Z</time>
      </trkpt>
      <trkpt lat="59.23061839833" lon="17.888482252353">
        <ele>61.6</ele>
        <time>2015-03-24T18:41:25Z</time>
      </trkpt>
      <trkpt lat="59.230649578998" lon="17.888491053348">
        <ele>62.2</ele>
        <time>2015-03-24T18:41:26Z</time>
      </trkpt>
      <trkpt lat="59.23068293896" lon="17.888498764696">
        <ele>62.6</ele>
        <time>2015-03-24T18:41:27Z</time>
      </trkpt>
      <trkpt lat="59.23071562837" lon="17.888509996442">
        <ele>63</ele>
        <time>2015-03-24T18:41:28Z</time>
      </trkpt>
      <trkpt lat="59.230748569237" lon="17.888519970903">
        <ele>63.4</ele>
        <time>2015-03-24T18:41:29Z</time>
      </trkpt>
      <trkpt lat="59.230879662153" lon="17.888501530723">
        <ele>63.8</ele>
        <time>2015-03-24T18:41:33Z</time>
      </trkpt>
      <trkpt lat="59.230907406242" lon="17.888484347828">
        <ele>64.2</ele>
        <time>2015-03-24T18:41:34Z</time>
      </trkpt>
      <trkpt lat="59.230936826711" lon="17.888466997295">
        <ele>64.6</ele>
        <time>2015-03-24T18:41:35Z</time>
      </trkpt>
      <trkpt lat="59.230965660447" lon="17.888459285947">
        <ele>65</ele>
        <time>2015-03-24T18:41:36Z</time>
      </trkpt>
      <trkpt lat="59.230994326545" lon="17.888449143848">
        <ele>65.4</ele>
        <time>2015-03-24T18:41:37Z</time>
      </trkpt>
      <trkpt lat="59.231052496931" lon="17.888441767776">
        <ele>65.4</ele>
        <time>2015-03-24T18:41:39Z</time>
      </trkpt>
      <trkpt lat="59.231111002593" lon="17.888417460266">
        <ele>65.8</ele>
        <time>2015-03-24T18:41:41Z</time>
      </trkpt>
      <trkpt lat="59.231139501053" lon="17.888412179669">
        <ele>66.6</ele>
        <time>2015-03-24T18:41:42Z</time>
      </trkpt>
      <trkpt lat="59.231167664237" lon="17.888403881588">
        <ele>67</ele>
        <time>2015-03-24T18:41:43Z</time>
      </trkpt>
      <trkpt lat="59.231197000887" lon="17.888400193552">
        <ele>67.4</ele>
        <time>2015-03-24T18:41:44Z</time>
      </trkpt>
      <trkpt lat="59.23128056843" lon="17.888384016485">
        <ele>68</ele>
        <time>2015-03-24T18:41:47Z</time>
      </trkpt>
      <trkpt lat="59.231307474329" lon="17.888380663725">
        <ele>68.4</ele>
        <time>2015-03-24T18:41:48Z</time>
      </trkpt>
      <trkpt lat="59.231335218418" lon="17.888385525227">
        <ele>68.8</ele>
        <time>2015-03-24T18:41:49Z</time>
      </trkpt>
      <trkpt lat="59.231364890344" lon="17.888401450837">
        <ele>69.4</ele>
        <time>2015-03-24T18:41:50Z</time>
      </trkpt>
      <trkpt lat="59.231389197854" lon="17.88842718327">
        <ele>69.8</ele>
        <time>2015-03-24T18:41:51Z</time>
      </trkpt>
      <trkpt lat="59.231456001597" lon="17.888530113002">
        <ele>70.2</ele>
        <time>2015-03-24T18:41:53Z</time>
      </trkpt>
      <trkpt lat="59.231490199749" lon="17.888596581469">
        <ele>70.6</ele>
        <time>2015-03-24T18:41:54Z</time>
      </trkpt>
      <trkpt lat="59.231514507259" lon="17.888666654153">
        <ele>71</ele>
        <time>2015-03-24T18:41:55Z</time>
      </trkpt>
      <trkpt lat="59.231525068453" lon="17.888739241407">
        <ele>71.4</ele>
        <time>2015-03-24T18:41:56Z</time>
      </trkpt>
      <trkpt lat="59.231527499204" lon="17.888804117313">
        <ele>72</ele>
        <time>2015-03-24T18:41:57Z</time>
      </trkpt>
      <trkpt lat="59.231488691007" lon="17.888984244344">
        <ele>72.4</ele>
        <time>2015-03-24T18:42:00Z</time>
      </trkpt>
      <trkpt lat="59.231474274139" lon="17.889041325083">
        <ele>72.8</ele>
        <time>2015-03-24T18:42:01Z</time>
      </trkpt>
      <trkpt lat="59.231466227515" lon="17.889099914564">
        <ele>73.2</ele>
        <time>2015-03-24T18:42:02Z</time>
      </trkpt>
      <trkpt lat="59.231461533651" lon="17.88916143771">
        <ele>73.6</ele>
        <time>2015-03-24T18:42:03Z</time>
      </trkpt>
      <trkpt lat="59.231455917778" lon="17.889220865381">
        <ele>74</ele>
        <time>2015-03-24T18:42:04Z</time>
      </trkpt>
      <trkpt lat="59.231403614722" lon="17.889429407053">
        <ele>74</ele>
        <time>2015-03-24T18:42:08Z</time>
      </trkpt>
      <trkpt lat="59.231386348008" lon="17.889499815013">
        <ele>74.4</ele>
        <time>2015-03-24T18:42:09Z</time>
      </trkpt>
      <trkpt lat="59.231367237276" lon="17.889585729488">
        <ele>74.8</ele>
        <time>2015-03-24T18:42:10Z</time>
      </trkpt>
      <trkpt lat="59.231353658598" lon="17.889653958154">
        <ele>75.2</ele>
        <time>2015-03-24T18:42:11Z</time>
      </trkpt>
      <trkpt lat="59.231338822635" lon="17.889719001698">
        <ele>75.6</ele>
        <time>2015-03-24T18:42:12Z</time>
      </trkpt>
      <trkpt lat="59.231323819034" lon="17.889779435197">
        <ele>76</ele>
        <time>2015-03-24T18:42:13Z</time>
      </trkpt>
      <trkpt lat="59.231254333083" lon="17.890100545786">
        <ele>76</ele>
        <time>2015-03-24T18:42:19Z</time>
      </trkpt>
      <trkpt lat="59.231243939527" lon="17.890155950145">
        <ele>76.4</ele>
        <time>2015-03-24T18:42:20Z</time>
      </trkpt>
      <trkpt lat="59.231234300342" lon="17.89021252797">
        <ele>76.8</ele>
        <time>2015-03-24T18:42:21Z</time>
      </trkpt>
      <trkpt lat="59.231225415528" lon="17.890268854338">
        <ele>77.2</ele>
        <time>2015-03-24T18:42:22Z</time>
      </trkpt>
      <trkpt lat="59.231219799655" lon="17.89033071276">
        <ele>77.8</ele>
        <time>2015-03-24T18:42:23Z</time>
      </trkpt>
      <trkpt lat="59.231213429411" lon="17.890394079924">
        <ele>78.2</ele>
        <time>2015-03-24T18:42:24Z</time>
      </trkpt>
      <trkpt lat="59.231195575964" lon="17.890530453437">
        <ele>78.2</ele>
        <time>2015-03-24T18:42:26Z</time>
      </trkpt>
      <trkpt lat="59.231140925976" lon="17.891017022732">
        <ele>78.2</ele>
        <time>2015-03-24T18:42:33Z</time>
      </trkpt>
      <trkpt lat="59.23109951939" lon="17.891381970658">
        <ele>78.6</ele>
        <time>2015-03-24T18:42:39Z</time>
      </trkpt>
      <trkpt lat="59.231094071155" lon="17.891443577623">
        <ele>79</ele>
        <time>2015-03-24T18:42:40Z</time>
      </trkpt>
      <trkpt lat="59.231086527445" lon="17.891507280063">
        <ele>79.4</ele>
        <time>2015-03-24T18:42:41Z</time>
      </trkpt>
      <trkpt lat="59.231077223536" lon="17.891572994159">
        <ele>79.8</ele>
        <time>2015-03-24T18:42:42Z</time>
      </trkpt>
      <trkpt lat="59.231068422541" lon="17.89164164192">
        <ele>80.2</ele>
        <time>2015-03-24T18:42:43Z</time>
      </trkpt>
      <trkpt lat="59.231033470018" lon="17.891930482194">
        <ele>80.2</ele>
        <time>2015-03-24T18:42:47Z</time>
      </trkpt>
      <trkpt lat="59.231046294325" lon="17.892425265751">
        <ele>80.2</ele>
        <time>2015-03-24T18:42:53Z</time>
      </trkpt>
      <trkpt lat="59.23107185912" lon="17.892650990318">
        <ele>80.6</ele>
        <time>2015-03-24T18:42:56Z</time>
      </trkpt>
      <trkpt lat="59.231087365635" lon="17.892712094369">
        <ele>81</ele>
        <time>2015-03-24T18:42:57Z</time>
      </trkpt>
      <trkpt lat="59.231115025905" lon="17.892764648882">
        <ele>81.4</ele>
        <time>2015-03-24T18:42:58Z</time>
      </trkpt>
      <trkpt lat="59.231146960944" lon="17.892809911142">
        <ele>81.8</ele>
        <time>2015-03-24T18:42:59Z</time>
      </trkpt>
      <trkpt lat="59.23118166201" lon="17.89284528276">
        <ele>82.4</ele>
        <time>2015-03-24T18:43:00Z</time>
      </trkpt>
      <trkpt lat="59.23122105694" lon="17.892870596098">
        <ele>82.4</ele>
        <time>2015-03-24T18:43:01Z</time>
      </trkpt>
      <trkpt lat="59.231362124317" lon="17.892918959661">
        <ele>82.8</ele>
        <time>2015-03-24T18:43:03Z</time>
      </trkpt>
      <trkpt lat="59.231414175916" lon="17.892917031824">
        <ele>83.2</ele>
        <time>2015-03-24T18:43:05Z</time>
      </trkpt>
      <trkpt lat="59.231464886411" lon="17.892914768711">
        <ele>83.6</ele>
        <time>2015-03-24T18:43:06Z</time>
      </trkpt>
      <trkpt lat="59.231515177811" lon="17.892897501997">
        <ele>84</ele>
        <time>2015-03-24T18:43:07Z</time>
      </trkpt>
      <trkpt lat="59.231563373736" lon="17.892875960514">
        <ele>84.4</ele>
        <time>2015-03-24T18:43:08Z</time>
      </trkpt>
      <trkpt lat="59.231663537441" lon="17.892824244191">
        <ele>84.4</ele>
        <time>2015-03-24T18:43:10Z</time>
      </trkpt>
      <trkpt lat="59.231915162079" lon="17.892646967006">
        <ele>84.4</ele>
        <time>2015-03-24T18:43:16Z</time>
      </trkpt>
      <trkpt lat="59.232142898302" lon="17.892494332607">
        <ele>84.4</ele>
        <time>2015-03-24T18:43:21Z</time>
      </trkpt>
      <trkpt lat="59.232210456416" lon="17.892494751702">
        <ele>84.4</ele>
        <time>2015-03-24T18:43:22Z</time>
      </trkpt>
      <trkpt lat="59.232519580888" lon="17.892592568475">
        <ele>84.4</ele>
        <time>2015-03-24T18:43:26Z</time>
      </trkpt>
      <trkpt lat="59.232816551605" lon="17.892656019458">
        <ele>84</ele>
        <time>2015-03-24T18:43:29Z</time>
      </trkpt>
      <trkpt lat="59.232913530188" lon="17.89265920458">
        <ele>83.4</ele>
        <time>2015-03-24T18:43:30Z</time>
      </trkpt>
      <trkpt lat="59.233012855703" lon="17.892612098302">
        <ele>83</ele>
        <time>2015-03-24T18:43:31Z</time>
      </trkpt>
      <trkpt lat="59.233113606141" lon="17.892539594867">
        <ele>82.6</ele>
        <time>2015-03-24T18:43:32Z</time>
      </trkpt>
      <trkpt lat="59.233207064326" lon="17.892436413678">
        <ele>82</ele>
        <time>2015-03-24T18:43:33Z</time>
      </trkpt>
      <trkpt lat="59.233297421208" lon="17.892320659639">
        <ele>81.4</ele>
        <time>2015-03-24T18:43:34Z</time>
      </trkpt>
      <trkpt lat="59.233386772262" lon="17.892204821781">
        <ele>80.8</ele>
        <time>2015-03-24T18:43:35Z</time>
      </trkpt>
      <trkpt lat="59.233479811352" lon="17.892092001407">
        <ele>80</ele>
        <time>2015-03-24T18:43:36Z</time>
      </trkpt>
      <trkpt lat="59.233571090243" lon="17.892005164923">
        <ele>79.4</ele>
        <time>2015-03-24T18:43:37Z</time>
      </trkpt>
      <trkpt lat="59.233670918672" lon="17.891955711713">
        <ele>78.8</ele>
        <time>2015-03-24T18:43:38Z</time>
      </trkpt>
      <trkpt lat="59.233775943879" lon="17.891945821071">
        <ele>78</ele>
        <time>2015-03-24T18:43:39Z</time>
      </trkpt>
      <trkpt lat="59.23388482476" lon="17.891982030879">
        <ele>77.2</ele>
        <time>2015-03-24T18:43:40Z</time>
      </trkpt>
      <trkpt lat="59.233997058401" lon="17.892052857934">
        <ele>76.4</ele>
        <time>2015-03-24T18:43:41Z</time>
      </trkpt>
      <trkpt lat="59.234095042812" lon="17.892140951703">
        <ele>75.6</ele>
        <time>2015-03-24T18:43:42Z</time>
      </trkpt>
      <trkpt lat="59.234191518481" lon="17.8922216694">
        <ele>74.8</ele>
        <time>2015-03-24T18:43:43Z</time>
      </trkpt>
      <trkpt lat="59.234284809028" lon="17.892303141468">
        <ele>74</ele>
        <time>2015-03-24T18:43:44Z</time>
      </trkpt>
      <trkpt lat="59.234369550037" lon="17.892375561084">
        <ele>72.6</ele>
        <time>2015-03-24T18:43:45Z</time>
      </trkpt>
      <trkpt lat="59.23445730853" lon="17.892414620738">
        <ele>72.6</ele>
        <time>2015-03-24T18:43:46Z</time>
      </trkpt>
      <trkpt lat="59.23462410834" lon="17.89244965708">
        <ele>72.6</ele>
        <time>2015-03-24T18:43:48Z</time>
      </trkpt>
      <trkpt lat="59.234955361028" lon="17.892486202164">
        <ele>72.6</ele>
        <time>2015-03-24T18:43:52Z</time>
      </trkpt>
      <trkpt lat="59.235033061241" lon="17.892521489963">
        <ele>72.6</ele>
        <time>2015-03-24T18:43:53Z</time>
      </trkpt>
      <trkpt lat="59.235331121605" lon="17.892605476601">
        <ele>72.6</ele>
        <time>2015-03-24T18:43:57Z</time>
      </trkpt>
      <trkpt lat="59.235407480714" lon="17.892611930664">
        <ele>72.6</ele>
        <time>2015-03-24T18:43:58Z</time>
      </trkpt>
      <trkpt lat="59.235805537145" lon="17.892629113559">
        <ele>72.2</ele>
        <time>2015-03-24T18:44:03Z</time>
      </trkpt>
      <trkpt lat="59.235880303693" lon="17.892628107731">
        <ele>71.8</ele>
        <time>2015-03-24T18:44:04Z</time>
      </trkpt>
      <trkpt lat="59.235953645318" lon="17.892619222917">
        <ele>71.4</ele>
        <time>2015-03-24T18:44:05Z</time>
      </trkpt>
      <trkpt lat="59.236030255884" lon="17.892613858501">
        <ele>71</ele>
        <time>2015-03-24T18:44:06Z</time>
      </trkpt>
      <trkpt lat="59.236104603337" lon="17.892614445234">
        <ele>70.4</ele>
        <time>2015-03-24T18:44:07Z</time>
      </trkpt>
      <trkpt lat="59.236322951832" lon="17.892674208181">
        <ele>70.4</ele>
        <time>2015-03-24T18:44:10Z</time>
      </trkpt>
      <trkpt lat="59.236381373675" lon="17.892755428792">
        <ele>70.4</ele>
        <time>2015-03-24T18:44:11Z</time>
      </trkpt>
      <trkpt lat="59.236587903691" lon="17.893157005621">
        <ele>70.4</ele>
        <time>2015-03-24T18:44:15Z</time>
      </trkpt>
      <trkpt lat="59.236635429064" lon="17.89324509939">
        <ele>70.4</ele>
        <time>2015-03-24T18:44:16Z</time>
      </trkpt>
      <trkpt lat="59.236726121222" lon="17.893444085696">
        <ele>70.4</ele>
        <time>2015-03-24T18:44:18Z</time>
      </trkpt>
      <trkpt lat="59.236757218071" lon="17.893724460251">
        <ele>70.4</ele>
        <time>2015-03-24T18:44:20Z</time>
      </trkpt>
      <trkpt lat="59.236748417076" lon="17.894036266931">
        <ele>70.4</ele>
        <time>2015-03-24T18:44:22Z</time>
      </trkpt>
      <trkpt lat="59.236731401819" lon="17.894336255132">
        <ele>70.4</ele>
        <time>2015-03-24T18:44:24Z</time>
      </trkpt>
      <trkpt lat="59.236658311651" lon="17.895470577659">
        <ele>70.4</ele>
        <time>2015-03-24T18:44:32Z</time>
      </trkpt>
      <trkpt lat="59.236610283364" lon="17.896273982774">
        <ele>70.4</ele>
        <time>2015-03-24T18:44:38Z</time>
      </trkpt>
      <trkpt lat="59.236550101322" lon="17.897364551783">
        <ele>70.4</ele>
        <time>2015-03-24T18:44:46Z</time>
      </trkpt>
      <trkpt lat="59.23653685792" lon="17.898017417974">
        <ele>70.4</ele>
        <time>2015-03-24T18:44:51Z</time>
      </trkpt>
      <trkpt lat="59.236541970879" lon="17.89829351776">
        <ele>70.4</ele>
        <time>2015-03-24T18:44:53Z</time>
      </trkpt>
      <trkpt lat="59.236559237593" lon="17.898564085492">
        <ele>70</ele>
        <time>2015-03-24T18:44:55Z</time>
      </trkpt>
      <trkpt lat="59.236572564814" lon="17.898698782625">
        <ele>69.6</ele>
        <time>2015-03-24T18:44:56Z</time>
      </trkpt>
      <trkpt lat="59.236587903691" lon="17.898835323776">
        <ele>69.2</ele>
        <time>2015-03-24T18:44:57Z</time>
      </trkpt>
      <trkpt lat="59.236602404378" lon="17.89896826071">
        <ele>68.8</ele>
        <time>2015-03-24T18:44:58Z</time>
      </trkpt>
      <trkpt lat="59.236624113499" lon="17.899108908992">
        <ele>68.4</ele>
        <time>2015-03-24T18:44:59Z</time>
      </trkpt>
      <trkpt lat="59.236697287486" lon="17.899513670943">
        <ele>68.4</ele>
        <time>2015-03-24T18:45:02Z</time>
      </trkpt>
      <trkpt lat="59.236750344913" lon="17.899814748791">
        <ele>68</ele>
        <time>2015-03-24T18:45:04Z</time>
      </trkpt>
      <trkpt lat="59.23678244759" lon="17.899973669615">
        <ele>67.4</ele>
        <time>2015-03-24T18:45:05Z</time>
      </trkpt>
      <trkpt lat="59.236815639914" lon="17.900134937371">
        <ele>67</ele>
        <time>2015-03-24T18:45:06Z</time>
      </trkpt>
      <trkpt lat="59.236851011532" lon="17.900284135191">
        <ele>66.4</ele>
        <time>2015-03-24T18:45:07Z</time>
      </trkpt>
      <trkpt lat="59.236887640435" lon="17.900450264449">
        <ele>65.8</ele>
        <time>2015-03-24T18:45:08Z</time>
      </trkpt>
      <trkpt lat="59.236922760596" lon="17.900623937417">
        <ele>65.4</ele>
        <time>2015-03-24T18:45:09Z</time>
      </trkpt>
      <trkpt lat="59.236961401155" lon="17.900793335616">
        <ele>64.6</ele>
        <time>2015-03-24T18:45:10Z</time>
      </trkpt>
      <trkpt lat="59.236998449153" lon="17.900964913109">
        <ele>63.8</ele>
        <time>2015-03-24T18:45:11Z</time>
      </trkpt>
      <trkpt lat="59.237035748608" lon="17.901139088991">
        <ele>63</ele>
        <time>2015-03-24T18:45:12Z</time>
      </trkpt>
      <trkpt lat="59.237074472986" lon="17.90130848719">
        <ele>62.2</ele>
        <time>2015-03-24T18:45:13Z</time>
      </trkpt>
      <trkpt lat="59.237114538468" lon="17.901474784086">
        <ele>61.4</ele>
        <time>2015-03-24T18:45:14Z</time>
      </trkpt>
      <trkpt lat="59.237210259766" lon="17.901817017063">
        <ele>60.8</ele>
        <time>2015-03-24T18:45:16Z</time>
      </trkpt>
      <trkpt lat="59.237271028541" lon="17.901981889036">
        <ele>60.4</ele>
        <time>2015-03-24T18:45:17Z</time>
      </trkpt>
      <trkpt lat="59.237341436501" lon="17.902136367453">
        <ele>59.8</ele>
        <time>2015-03-24T18:45:18Z</time>
      </trkpt>
      <trkpt lat="59.237421651284" lon="17.902288163662">
        <ele>59.2</ele>
        <time>2015-03-24T18:45:19Z</time>
      </trkpt>
      <trkpt lat="59.237498680945" lon="17.902426129736">
        <ele>58.6</ele>
        <time>2015-03-24T18:45:20Z</time>
      </trkpt>
      <trkpt lat="59.237590211293" lon="17.902547667286">
        <ele>57.8</ele>
        <time>2015-03-24T18:45:21Z</time>
      </trkpt>
      <trkpt lat="59.237705043323" lon="17.902652860131">
        <ele>57.2</ele>
        <time>2015-03-24T18:45:22Z</time>
      </trkpt>
      <trkpt lat="59.23779917206" lon="17.902767273066">
        <ele>56.6</ele>
        <time>2015-03-24T18:45:23Z</time>
      </trkpt>
      <trkpt lat="59.237880644128" lon="17.902892331014">
        <ele>55.2</ele>
        <time>2015-03-24T18:45:24Z</time>
      </trkpt>
      <trkpt lat="59.237968570259" lon="17.902994003461">
        <ele>54.6</ele>
        <time>2015-03-24T18:45:25Z</time>
      </trkpt>
      <trkpt lat="59.238058340408" lon="17.903083941248">
        <ele>54</ele>
        <time>2015-03-24T18:45:26Z</time>
      </trkpt>
      <trkpt lat="59.238148362014" lon="17.903173962854">
        <ele>53.4</ele>
        <time>2015-03-24T18:45:27Z</time>
      </trkpt>
      <trkpt lat="59.238234360308" lon="17.90326146989">
        <ele>52.8</ele>
        <time>2015-03-24T18:45:28Z</time>
      </trkpt>
      <trkpt lat="59.23832471719" lon="17.903354425161">
        <ele>52.4</ele>
        <time>2015-03-24T18:45:29Z</time>
      </trkpt>
      <trkpt lat="59.238406356896" lon="17.903448470079">
        <ele>52.4</ele>
        <time>2015-03-24T18:45:30Z</time>
      </trkpt>
      <trkpt lat="59.238870462699" lon="17.903933949727">
        <ele>52</ele>
        <time>2015-03-24T18:45:36Z</time>
      </trkpt>
      <trkpt lat="59.238944893971" lon="17.904013577777">
        <ele>51.6</ele>
        <time>2015-03-24T18:45:37Z</time>
      </trkpt>
      <trkpt lat="59.239012703542" lon="17.90408960161">
        <ele>51</ele>
        <time>2015-03-24T18:45:38Z</time>
      </trkpt>
      <trkpt lat="59.239079591104" lon="17.904154226059">
        <ele>50.6</ele>
        <time>2015-03-24T18:45:39Z</time>
      </trkpt>
      <trkpt lat="59.239143125906" lon="17.90422203563">
        <ele>50.2</ele>
        <time>2015-03-24T18:45:40Z</time>
      </trkpt>
      <trkpt lat="59.239208923821" lon="17.904268471356">
        <ele>50.2</ele>
        <time>2015-03-24T18:45:41Z</time>
      </trkpt>
      <trkpt lat="59.23926516637" lon="17.904320439136">
        <ele>50.2</ele>
        <time>2015-03-24T18:45:42Z</time>
      </trkpt>
      <trkpt lat="59.239345884067" lon="17.904472151526">
        <ele>50.2</ele>
        <time>2015-03-24T18:45:45Z</time>
      </trkpt>
      <trkpt lat="59.239350158836" lon="17.904704497794">
        <ele>50.2</ele>
        <time>2015-03-24T18:45:48Z</time>
      </trkpt>
      <trkpt lat="59.239295927943" lon="17.905002725796">
        <ele>50.2</ele>
        <time>2015-03-24T18:45:51Z</time>
      </trkpt>
      <trkpt lat="59.239269860234" lon="17.905127448468">
        <ele>50.2</ele>
        <time>2015-03-24T18:45:52Z</time>
      </trkpt>
      <trkpt lat="59.239062408209" lon="17.905964800278">
        <ele>50.2</ele>
        <time>2015-03-24T18:45:59Z</time>
      </trkpt>
      <trkpt lat="59.238797959264" lon="17.906977669074">
        <ele>50.2</ele>
        <time>2015-03-24T18:46:07Z</time>
      </trkpt>
      <trkpt lat="59.238572905249" lon="17.90785475109">
        <ele>49.8</ele>
        <time>2015-03-24T18:46:14Z</time>
      </trkpt>
      <trkpt lat="59.238541054029" lon="17.907986263101">
        <ele>49.4</ele>
        <time>2015-03-24T18:46:15Z</time>
      </trkpt>
      <trkpt lat="59.238512890845" lon="17.908108135927">
        <ele>49</ele>
        <time>2015-03-24T18:46:16Z</time>
      </trkpt>
      <trkpt lat="59.238480117616" lon="17.908226739812">
        <ele>48.6</ele>
        <time>2015-03-24T18:46:17Z</time>
      </trkpt>
      <trkpt lat="59.238450278052" lon="17.908347020077">
        <ele>48.2</ele>
        <time>2015-03-24T18:46:18Z</time>
      </trkpt>
      <trkpt lat="59.238354137659" lon="17.908710710718">
        <ele>48.2</ele>
        <time>2015-03-24T18:46:21Z</time>
      </trkpt>
      <trkpt lat="59.238322370258" lon="17.90883543339">
        <ele>48.2</ele>
        <time>2015-03-24T18:46:22Z</time>
      </trkpt>
      <trkpt lat="59.238138722829" lon="17.909582428318">
        <ele>48.2</ele>
        <time>2015-03-24T18:46:28Z</time>
      </trkpt>
      <trkpt lat="59.237871088762" lon="17.910576689296">
        <ele>48.2</ele>
        <time>2015-03-24T18:46:36Z</time>
      </trkpt>
      <trkpt lat="59.237739576751" lon="17.911011709906">
        <ele>47.8</ele>
        <time>2015-03-24T18:46:40Z</time>
      </trkpt>
      <trkpt lat="59.237709821006" lon="17.911117070389">
        <ele>47.4</ele>
        <time>2015-03-24T18:46:41Z</time>
      </trkpt>
      <trkpt lat="59.237679562347" lon="17.911220586854">
        <ele>47</ele>
        <time>2015-03-24T18:46:42Z</time>
      </trkpt>
      <trkpt lat="59.237647711127" lon="17.911323013672">
        <ele>46.6</ele>
        <time>2015-03-24T18:46:43Z</time>
      </trkpt>
      <trkpt lat="59.237616362821" lon="17.911426111042">
        <ele>46</ele>
        <time>2015-03-24T18:46:44Z</time>
      </trkpt>
      <trkpt lat="59.237490801959" lon="17.911916200735">
        <ele>46</ele>
        <time>2015-03-24T18:46:49Z</time>
      </trkpt>
      <trkpt lat="59.237411844461" lon="17.912267905259">
        <ele>46</ele>
        <time>2015-03-24T18:46:53Z</time>
      </trkpt>
      <trkpt lat="59.237411844461" lon="17.912382318194">
        <ele>46</ele>
        <time>2015-03-24T18:46:54Z</time>
      </trkpt>
      <trkpt lat="59.23748065986" lon="17.912586501278">
        <ele>46</ele>
        <time>2015-03-24T18:46:56Z</time>
      </trkpt>
      <trkpt lat="59.23768350184" lon="17.912771154535">
        <ele>46</ele>
        <time>2015-03-24T18:46:59Z</time>
      </trkpt>
      <trkpt lat="59.237754245076" lon="17.912821278297">
        <ele>46</ele>
        <time>2015-03-24T18:47:00Z</time>
      </trkpt>
      <trkpt lat="59.237817528421" lon="17.912882549986">
        <ele>46</ele>
        <time>2015-03-24T18:47:01Z</time>
      </trkpt>
      <trkpt lat="59.237942586369" lon="17.913010793056">
        <ele>46</ele>
        <time>2015-03-24T18:47:03Z</time>
      </trkpt>
      <trkpt lat="59.238261936759" lon="17.913506079527">
        <ele>46</ele>
        <time>2015-03-24T18:47:09Z</time>
      </trkpt>
      <trkpt lat="59.238497216692" lon="17.914114940743">
        <ele>46.4</ele>
        <time>2015-03-24T18:47:15Z</time>
      </trkpt>
      <trkpt lat="59.238530995749" lon="17.91423505337">
        <ele>46.8</ele>
        <time>2015-03-24T18:47:16Z</time>
      </trkpt>
      <trkpt lat="59.238563685159" lon="17.914345610631">
        <ele>47.2</ele>
        <time>2015-03-24T18:47:17Z</time>
      </trkpt>
      <trkpt lat="59.238590591058" lon="17.9144588501">
        <ele>47.6</ele>
        <time>2015-03-24T18:47:18Z</time>
      </trkpt>
      <trkpt lat="59.238617077862" lon="17.914567898619">
        <ele>48</ele>
        <time>2015-03-24T18:47:19Z</time>
      </trkpt>
      <trkpt lat="59.238673823325" lon="17.914893283977">
        <ele>48</ele>
        <time>2015-03-24T18:47:22Z</time>
      </trkpt>
      <trkpt lat="59.238773400297" lon="17.915705406268">
        <ele>48</ele>
        <time>2015-03-24T18:47:29Z</time>
      </trkpt>
      <trkpt lat="59.238877503495" lon="17.916506129175">
        <ele>48</ele>
        <time>2015-03-24T18:47:36Z</time>
      </trkpt>
      <trkpt lat="59.239012200628" lon="17.917560823652">
        <ele>48</ele>
        <time>2015-03-24T18:47:45Z</time>
      </trkpt>
      <trkpt lat="59.239026617496" lon="17.917680684822">
        <ele>48</ele>
        <time>2015-03-24T18:47:46Z</time>
      </trkpt>
      <trkpt lat="59.239149579969" lon="17.918495489321">
        <ele>48</ele>
        <time>2015-03-24T18:47:53Z</time>
      </trkpt>
      <trkpt lat="59.239295676486" lon="17.919208537554">
        <ele>48</ele>
        <time>2015-03-24T18:48:00Z</time>
      </trkpt>
      <trkpt lat="59.239502290321" lon="17.919898116467">
        <ele>48</ele>
        <time>2015-03-24T18:48:07Z</time>
      </trkpt>
      <trkpt lat="59.239686524483" lon="17.920520472542">
        <ele>48.4</ele>
        <time>2015-03-24T18:48:13Z</time>
      </trkpt>
      <trkpt lat="59.239714855305" lon="17.920623569912">
        <ele>48.8</ele>
        <time>2015-03-24T18:48:14Z</time>
      </trkpt>
      <trkpt lat="59.239746957982" lon="17.920725577635">
        <ele>49.2</ele>
        <time>2015-03-24T18:48:15Z</time>
      </trkpt>
      <trkpt lat="59.239778893021" lon="17.920827166263">
        <ele>49.6</ele>
        <time>2015-03-24T18:48:16Z</time>
      </trkpt>
      <trkpt lat="59.239811330974" lon="17.920923139018">
        <ele>50</ele>
        <time>2015-03-24T18:48:17Z</time>
      </trkpt>
      <trkpt lat="59.239909902118" lon="17.921223713952">
        <ele>50</ele>
        <time>2015-03-24T18:48:20Z</time>
      </trkpt>
      <trkpt lat="59.24017879347" lon="17.922214454532">
        <ele>50</ele>
        <time>2015-03-24T18:48:29Z</time>
      </trkpt>
      <trkpt lat="59.240316759544" lon="17.922806719586">
        <ele>50</ele>
        <time>2015-03-24T18:48:34Z</time>
      </trkpt>
      <trkpt lat="59.240326482548" lon="17.922934124466">
        <ele>50</ele>
        <time>2015-03-24T18:48:35Z</time>
      </trkpt>
      <trkpt lat="59.240382054545" lon="17.923593947634">
        <ele>50</ele>
        <time>2015-03-24T18:48:41Z</time>
      </trkpt>
      <trkpt lat="59.240446427537" lon="17.924003571087">
        <ele>50</ele>
        <time>2015-03-24T18:48:45Z</time>
      </trkpt>
      <trkpt lat="59.240490181055" lon="17.92421286713">
        <ele>50.6</ele>
        <time>2015-03-24T18:48:47Z</time>
      </trkpt>
      <trkpt lat="59.240512225452" lon="17.92431512631">
        <ele>51</ele>
        <time>2015-03-24T18:48:48Z</time>
      </trkpt>
      <trkpt lat="59.240538712256" lon="17.924415457653">
        <ele>51.4</ele>
        <time>2015-03-24T18:48:49Z</time>
      </trkpt>
      <trkpt lat="59.24056687544" lon="17.9245171301">
        <ele>51.8</ele>
        <time>2015-03-24T18:48:50Z</time>
      </trkpt>
      <trkpt lat="59.240592356416" lon="17.924617293805">
        <ele>52.2</ele>
        <time>2015-03-24T18:48:51Z</time>
      </trkpt>
      <trkpt lat="59.240687323343" lon="17.925054828985">
        <ele>52.2</ele>
        <time>2015-03-24T18:48:55Z</time>
      </trkpt>
      <trkpt lat="59.240699728555" lon="17.925181479494">
        <ele>52.2</ele>
        <time>2015-03-24T18:48:56Z</time>
      </trkpt>
      <trkpt lat="59.240827971625" lon="17.925913470821">
        <ele>52.2</ele>
        <time>2015-03-24T18:49:02Z</time>
      </trkpt>
      <trkpt lat="59.240958645446" lon="17.926634900954">
        <ele>52.2</ele>
        <time>2015-03-24T18:49:08Z</time>
      </trkpt>
      <trkpt lat="59.241076914055" lon="17.927382650253">
        <ele>52.2</ele>
        <time>2015-03-24T18:49:14Z</time>
      </trkpt>
      <trkpt lat="59.241195350302" lon="17.928134841959">
        <ele>52.2</ele>
        <time>2015-03-24T18:49:20Z</time>
      </trkpt>
      <trkpt lat="59.241273050515" lon="17.928590146767">
        <ele>52.2</ele>
        <time>2015-03-24T18:49:24Z</time>
      </trkpt>
      <trkpt lat="59.241303476812" lon="17.928808411443">
        <ele>52.2</ele>
        <time>2015-03-24T18:49:26Z</time>
      </trkpt>
      <trkpt lat="59.24137237603" lon="17.929215017412">
        <ele>52.2</ele>
        <time>2015-03-24T18:49:31Z</time>
      </trkpt>
      <trkpt lat="59.241447394035" lon="17.929689935866">
        <ele>52.2</ele>
        <time>2015-03-24T18:49:36Z</time>
      </trkpt>
      <trkpt lat="59.241566584653" lon="17.930323942782">
        <ele>52.2</ele>
        <time>2015-03-24T18:49:41Z</time>
      </trkpt>
      <trkpt lat="59.241696420284" lon="17.931071943538">
        <ele>52.2</ele>
        <time>2015-03-24T18:49:46Z</time>
      </trkpt>
      <trkpt lat="59.241778395266" lon="17.932018762962">
        <ele>52.2</ele>
        <time>2015-03-24T18:49:52Z</time>
      </trkpt>
      <trkpt lat="59.241793817962" lon="17.932983603471">
        <ele>52.2</ele>
        <time>2015-03-24T18:49:58Z</time>
      </trkpt>
      <trkpt lat="59.241824663354" lon="17.934129325382">
        <ele>52.2</ele>
        <time>2015-03-24T18:50:05Z</time>
      </trkpt>
      <trkpt lat="59.241827597019" lon="17.934290844595">
        <ele>52.2</ele>
        <time>2015-03-24T18:50:06Z</time>
      </trkpt>
      <trkpt lat="59.241828854304" lon="17.934456051844">
        <ele>51.6</ele>
        <time>2015-03-24T18:50:07Z</time>
      </trkpt>
      <trkpt lat="59.241832458521" lon="17.934617487238">
        <ele>51.2</ele>
        <time>2015-03-24T18:50:08Z</time>
      </trkpt>
      <trkpt lat="59.241831871788" lon="17.934778084442">
        <ele>50.8</ele>
        <time>2015-03-24T18:50:09Z</time>
      </trkpt>
      <trkpt lat="59.241830698322" lon="17.934937005266">
        <ele>50.4</ele>
        <time>2015-03-24T18:50:10Z</time>
      </trkpt>
      <trkpt lat="59.241827010286" lon="17.935098189203">
        <ele>50</ele>
        <time>2015-03-24T18:50:11Z</time>
      </trkpt>
      <trkpt lat="59.241790465202" lon="17.935413516281">
        <ele>50</ele>
        <time>2015-03-24T18:50:13Z</time>
      </trkpt>
      <trkpt lat="59.241622743383" lon="17.935795228007">
        <ele>50</ele>
        <time>2015-03-24T18:50:16Z</time>
      </trkpt>
      <trkpt lat="59.241559543857" lon="17.935905282354">
        <ele>50</ele>
        <time>2015-03-24T18:50:17Z</time>
      </trkpt>
      <trkpt lat="59.24121060536" lon="17.936423199955">
        <ele>50</ele>
        <time>2015-03-24T18:50:22Z</time>
      </trkpt>
      <trkpt lat="59.240732501784" lon="17.937130464677">
        <ele>50</ele>
        <time>2015-03-24T18:50:29Z</time>
      </trkpt>
      <trkpt lat="59.240666117136" lon="17.937230963658">
        <ele>50</ele>
        <time>2015-03-24T18:50:30Z</time>
      </trkpt>
      <trkpt lat="59.240221373522" lon="17.937935294715">
        <ele>50</ele>
        <time>2015-03-24T18:50:37Z</time>
      </trkpt>
      <trkpt lat="59.240162113489" lon="17.938032273298">
        <ele>50</ele>
        <time>2015-03-24T18:50:38Z</time>
      </trkpt>
      <trkpt lat="59.240008557081" lon="17.938366878746">
        <ele>50</ele>
        <time>2015-03-24T18:50:41Z</time>
      </trkpt>
      <trkpt lat="59.239977208775" lon="17.938496546739">
        <ele>50</ele>
        <time>2015-03-24T18:50:42Z</time>
      </trkpt>
      <trkpt lat="59.239898083639" lon="17.939046399379">
        <ele>50</ele>
        <time>2015-03-24T18:50:46Z</time>
      </trkpt>
      <trkpt lat="59.239861454736" lon="17.939431380046">
        <ele>49.6</ele>
        <time>2015-03-24T18:50:49Z</time>
      </trkpt>
      <trkpt lat="59.239849300981" lon="17.93956096422">
        <ele>49.2</ele>
        <time>2015-03-24T18:50:50Z</time>
      </trkpt>
      <trkpt lat="59.239837901597" lon="17.93969172186">
        <ele>48.6</ele>
        <time>2015-03-24T18:50:51Z</time>
      </trkpt>
      <trkpt lat="59.239823317091" lon="17.939821389853">
        <ele>48.2</ele>
        <time>2015-03-24T18:50:52Z</time>
      </trkpt>
      <trkpt lat="59.239814851372" lon="17.939946699258">
        <ele>47.8</ele>
        <time>2015-03-24T18:50:53Z</time>
      </trkpt>
      <trkpt lat="59.23978987331" lon="17.940455145312">
        <ele>47.8</ele>
        <time>2015-03-24T18:50:57Z</time>
      </trkpt>
      <trkpt lat="59.239721644644" lon="17.941209181036">
        <ele>47.8</ele>
        <time>2015-03-24T18:51:03Z</time>
      </trkpt>
      <trkpt lat="59.239673867814" lon="17.941590557486">
        <ele>47.8</ele>
        <time>2015-03-24T18:51:06Z</time>
      </trkpt>
      <trkpt lat="59.239581834552" lon="17.941938657793">
        <ele>47.8</ele>
        <time>2015-03-24T18:51:09Z</time>
      </trkpt>
      <trkpt lat="59.239498099371" lon="17.942160442867">
        <ele>47.8</ele>
        <time>2015-03-24T18:51:11Z</time>
      </trkpt>
      <trkpt lat="59.23939005668" lon="17.942338558242">
        <ele>47.8</ele>
        <time>2015-03-24T18:51:13Z</time>
      </trkpt>
      <trkpt lat="59.239333311217" lon="17.9424124866">
        <ele>47.8</ele>
        <time>2015-03-24T18:51:14Z</time>
      </trkpt>
      <trkpt lat="59.239272961537" lon="17.942479290343">
        <ele>48.2</ele>
        <time>2015-03-24T18:51:15Z</time>
      </trkpt>
      <trkpt lat="59.239210013468" lon="17.942542489869">
        <ele>48.6</ele>
        <time>2015-03-24T18:51:16Z</time>
      </trkpt>
      <trkpt lat="59.239148574141" lon="17.942592948907">
        <ele>49</ele>
        <time>2015-03-24T18:51:17Z</time>
      </trkpt>
      <trkpt lat="59.239081770398" lon="17.942631505647">
        <ele>49.6</ele>
        <time>2015-03-24T18:51:18Z</time>
      </trkpt>
      <trkpt lat="59.239009686058" lon="17.942667380179">
        <ele>50</ele>
        <time>2015-03-24T18:51:19Z</time>
      </trkpt>
      <trkpt lat="59.238798881273" lon="17.942761760373">
        <ele>50</ele>
        <time>2015-03-24T18:51:22Z</time>
      </trkpt>
      <trkpt lat="59.238560164761" lon="17.943060323651">
        <ele>50</ele>
        <time>2015-03-24T18:51:26Z</time>
      </trkpt>
      <trkpt lat="59.238482716005" lon="17.943268865323">
        <ele>50.4</ele>
        <time>2015-03-24T18:51:28Z</time>
      </trkpt>
      <trkpt lat="59.238443404894" lon="17.943367855562">
        <ele>50.8</ele>
        <time>2015-03-24T18:51:29Z</time>
      </trkpt>
      <trkpt lat="59.238410044932" lon="17.943460643195">
        <ele>51.4</ele>
        <time>2015-03-24T18:51:30Z</time>
      </trkpt>
      <trkpt lat="59.238378528988" lon="17.943550413344">
        <ele>51.8</ele>
        <time>2015-03-24T18:51:31Z</time>
      </trkpt>
      <trkpt lat="59.238348102691" lon="17.943641692235">
        <ele>52.4</ele>
        <time>2015-03-24T18:51:32Z</time>
      </trkpt>
      <trkpt lat="59.238216171585" lon="17.944112922653">
        <ele>52.4</ele>
        <time>2015-03-24T18:51:37Z</time>
      </trkpt>
      <trkpt lat="59.238202928183" lon="17.944211074702">
        <ele>52.4</ele>
        <time>2015-03-24T18:51:38Z</time>
      </trkpt>
      <trkpt lat="59.238149032566" lon="17.944583817795">
        <ele>52.4</ele>
        <time>2015-03-24T18:51:42Z</time>
      </trkpt>
      <trkpt lat="59.238108967084" lon="17.944749025044">
        <ele>52.8</ele>
        <time>2015-03-24T18:51:44Z</time>
      </trkpt>
      <trkpt lat="59.238087341782" lon="17.944837034994">
        <ele>53.2</ele>
        <time>2015-03-24T18:51:45Z</time>
      </trkpt>
      <trkpt lat="59.238071332353" lon="17.944924206754">
        <ele>53.8</ele>
        <time>2015-03-24T18:51:46Z</time>
      </trkpt>
      <trkpt lat="59.238058088951" lon="17.945020682423">
        <ele>54.2</ele>
        <time>2015-03-24T18:51:47Z</time>
      </trkpt>
      <trkpt lat="59.238044594092" lon="17.945118918291">
        <ele>54.8</ele>
        <time>2015-03-24T18:51:48Z</time>
      </trkpt>
      <trkpt lat="59.237913584995" lon="17.945876055318">
        <ele>54.8</ele>
        <time>2015-03-24T18:51:56Z</time>
      </trkpt>
      <trkpt lat="59.237937389591" lon="17.946158273891">
        <ele>54.8</ele>
        <time>2015-03-24T18:51:59Z</time>
      </trkpt>
      <trkpt lat="59.23795591359" lon="17.946241841434">
        <ele>54.8</ele>
        <time>2015-03-24T18:52:00Z</time>
      </trkpt>
      <trkpt lat="59.238012826691" lon="17.946324235511">
        <ele>54.8</ele>
        <time>2015-03-24T18:52:02Z</time>
      </trkpt>
      <trkpt lat="59.238026656826" lon="17.946462033947">
        <ele>54.8</ele>
        <time>2015-03-24T18:52:05Z</time>
      </trkpt>
    </trkseg>
  </trk>
</gpx>